<?xml version='1.0' encoding='UTF-8'?><gpx version="1.1" creator="JPX - https://github.com/jenetics/jpx" xmlns="http://www.topografix.com/GPX/1/1"><trk><trkseg><trkpt lat="43.2099878" lon="10.9045916"><ele>558.0</ele><time>2026-04-03T11:40:08.037Z</time></trkpt><trkpt lat="43.2100629" lon="10.9045878"><ele>558.0</ele><time>2026-04-03T11:40:18.104Z</time></trkpt><trkpt lat="43.2101983" lon="10.9046626"><ele>558.0</ele><time>2026-04-03T11:40:21.043Z</time></trkpt><trkpt lat="43.2102719" lon="10.9047542"><ele>558.0</ele><time>2026-04-03T11:40:22.032Z</time></trkpt><trkpt lat="43.2103168" lon="10.904854"><ele>558.0</ele><time>2026-04-03T11:40:23.035Z</time></trkpt><trkpt lat="43.2103411" lon="10.904953"><ele>557.9999999999999</ele><time>2026-04-03T11:40:24.04Z</time></trkpt><trkpt lat="43.210356" lon="10.9050505"><ele>558.0</ele><time>2026-04-03T11:40:25.041Z</time></trkpt><trkpt lat="43.2103705" lon="10.9051454"><ele>558.0</ele><time>2026-04-03T11:40:26.04Z</time></trkpt><trkpt lat="43.2103883" lon="10.9052387"><ele>558.0</ele><time>2026-04-03T11:40:27.055Z</time></trkpt><trkpt lat="43.2104047" lon="10.9053312"><ele>558.0</ele><time>2026-04-03T11:40:28.036Z</time></trkpt><trkpt lat="43.2104223" lon="10.905426"><ele>557.9999999999999</ele><time>2026-04-03T11:40:29.052Z</time></trkpt><trkpt lat="43.2104434" lon="10.9055193"><ele>558.0</ele><time>2026-04-03T11:40:30.051Z</time></trkpt><trkpt lat="43.2104681" lon="10.9056102"><ele>555.3333333333334</ele><time>2026-04-03T11:40:31.038Z</time></trkpt><trkpt lat="43.2105018" lon="10.9057024"><ele>552.6666666666666</ele><time>2026-04-03T11:40:32.043Z</time></trkpt><trkpt lat="43.2105502" lon="10.9057844"><ele>550.0</ele><time>2026-04-03T11:40:33.037Z</time></trkpt><trkpt lat="43.2106116" lon="10.9058499"><ele>547.3333333333333</ele><time>2026-04-03T11:40:34.034Z</time></trkpt><trkpt lat="43.2106903" lon="10.9058754"><ele>544.6666666666666</ele><time>2026-04-03T11:40:35.036Z</time></trkpt><trkpt lat="43.2107702" lon="10.9058572"><ele>542.0</ele><time>2026-04-03T11:40:36.037Z</time></trkpt><trkpt lat="43.2108434" lon="10.9058013"><ele>541.8000000000001</ele><time>2026-04-03T11:40:37.047Z</time></trkpt><trkpt lat="43.210905" lon="10.9057152"><ele>541.6</ele><time>2026-04-03T11:40:38.04Z</time></trkpt><trkpt lat="43.2109593" lon="10.9056061"><ele>541.4000000000001</ele><time>2026-04-03T11:40:39.038Z</time></trkpt><trkpt lat="43.2110094" lon="10.9054846"><ele>541.2</ele><time>2026-04-03T11:40:40.055Z</time></trkpt><trkpt lat="43.2110628" lon="10.9053593"><ele>541.0</ele><time>2026-04-03T11:40:41.042Z</time></trkpt><trkpt lat="43.2111256" lon="10.9052385"><ele>541.0</ele><time>2026-04-03T11:40:42.043Z</time></trkpt><trkpt lat="43.2111959" lon="10.905126"><ele>541.0</ele><time>2026-04-03T11:40:43.034Z</time></trkpt><trkpt lat="43.2112702" lon="10.9050185"><ele>541.0</ele><time>2026-04-03T11:40:44.051Z</time></trkpt><trkpt lat="43.2113467" lon="10.9049224"><ele>541.0</ele><time>2026-04-03T11:40:45.058Z</time></trkpt><trkpt lat="43.2114259" lon="10.9048403"><ele>541.0</ele><time>2026-04-03T11:40:46.044Z</time></trkpt><trkpt lat="43.2115101" lon="10.9047746"><ele>541.3333333333334</ele><time>2026-04-03T11:40:47.042Z</time></trkpt><trkpt lat="43.2115968" lon="10.9047275"><ele>541.6666666666667</ele><time>2026-04-03T11:40:48.04Z</time></trkpt><trkpt lat="43.2116807" lon="10.9046914"><ele>542.0</ele><time>2026-04-03T11:40:49.047Z</time></trkpt><trkpt lat="43.2117657" lon="10.904672"><ele>542.3333333333334</ele><time>2026-04-03T11:40:50.111Z</time></trkpt><trkpt lat="43.2118446" lon="10.9046597"><ele>542.6666666666666</ele><time>2026-04-03T11:40:51.042Z</time></trkpt><trkpt lat="43.2119247" lon="10.9046592"><ele>543.0</ele><time>2026-04-03T11:40:52.048Z</time></trkpt><trkpt lat="43.2120002" lon="10.9046711"><ele>543.0</ele><time>2026-04-03T11:40:53.058Z</time></trkpt><trkpt lat="43.2120709" lon="10.9046866"><ele>543.0</ele><time>2026-04-03T11:40:54.045Z</time></trkpt><trkpt lat="43.2121433" lon="10.9047083"><ele>543.0</ele><time>2026-04-03T11:40:55.052Z</time></trkpt><trkpt lat="43.2122223" lon="10.9047402"><ele>543.0</ele><time>2026-04-03T11:40:56.041Z</time></trkpt><trkpt lat="43.2123078" lon="10.9047815"><ele>543.0</ele><time>2026-04-03T11:40:57.042Z</time></trkpt><trkpt lat="43.2124001" lon="10.9048262"><ele>543.0</ele><time>2026-04-03T11:40:58.056Z</time></trkpt><trkpt lat="43.2124968" lon="10.9048748"><ele>541.8</ele><time>2026-04-03T11:40:59.045Z</time></trkpt><trkpt lat="43.2125969" lon="10.9049283"><ele>540.5999999999999</ele><time>2026-04-03T11:41:00.043Z</time></trkpt><trkpt lat="43.2126914" lon="10.904988"><ele>539.4000000000001</ele><time>2026-04-03T11:41:01.053Z</time></trkpt><trkpt lat="43.212774" lon="10.9050596"><ele>538.2</ele><time>2026-04-03T11:41:02.045Z</time></trkpt><trkpt lat="43.2128436" lon="10.9051469"><ele>537.0</ele><time>2026-04-03T11:41:03.047Z</time></trkpt><trkpt lat="43.2129057" lon="10.9052448"><ele>535.6</ele><time>2026-04-03T11:41:04.045Z</time></trkpt><trkpt lat="43.2129637" lon="10.9053541"><ele>534.2</ele><time>2026-04-03T11:41:05.049Z</time></trkpt><trkpt lat="43.2130193" lon="10.9054699"><ele>532.8</ele><time>2026-04-03T11:41:06.04Z</time></trkpt><trkpt lat="43.2130639" lon="10.9055938"><ele>531.4</ele><time>2026-04-03T11:41:07.047Z</time></trkpt><trkpt lat="43.2130863" lon="10.9057229"><ele>530.0</ele><time>2026-04-03T11:41:08.042Z</time></trkpt><trkpt lat="43.2130896" lon="10.9058563"><ele>528.4</ele><time>2026-04-03T11:41:09.037Z</time></trkpt><trkpt lat="43.2130869" lon="10.9059921"><ele>526.8</ele><time>2026-04-03T11:41:10.047Z</time></trkpt><trkpt lat="43.2130624" lon="10.9061269"><ele>525.2</ele><time>2026-04-03T11:41:11.046Z</time></trkpt><trkpt lat="43.2130345" lon="10.9062598"><ele>523.6</ele><time>2026-04-03T11:41:12.065Z</time></trkpt><trkpt lat="43.2130102" lon="10.9063892"><ele>522.0</ele><time>2026-04-03T11:41:13.053Z</time></trkpt><trkpt lat="43.2130014" lon="10.9065265"><ele>522.0</ele><time>2026-04-03T11:41:14.05Z</time></trkpt><trkpt lat="43.2130116" lon="10.9066748"><ele>522.0</ele><time>2026-04-03T11:41:15.05Z</time></trkpt><trkpt lat="43.2130472" lon="10.9068335"><ele>522.0</ele><time>2026-04-03T11:41:16.056Z</time></trkpt><trkpt lat="43.2130878" lon="10.9069971"><ele>522.0</ele><time>2026-04-03T11:41:17.049Z</time></trkpt><trkpt lat="43.2131358" lon="10.9071666"><ele>520.75</ele><time>2026-04-03T11:41:18.055Z</time></trkpt><trkpt lat="43.2131899" lon="10.9073383"><ele>519.5</ele><time>2026-04-03T11:41:19.051Z</time></trkpt><trkpt lat="43.2132461" lon="10.9075049"><ele>518.25</ele><time>2026-04-03T11:41:20.051Z</time></trkpt><trkpt lat="43.2133005" lon="10.9076637"><ele>517.0</ele><time>2026-04-03T11:41:21.05Z</time></trkpt><trkpt lat="43.2133508" lon="10.9078145"><ele>514.6</ele><time>2026-04-03T11:41:22.046Z</time></trkpt><trkpt lat="43.2133978" lon="10.9079588"><ele>512.2</ele><time>2026-04-03T11:41:23.052Z</time></trkpt><trkpt lat="43.2134419" lon="10.9080927"><ele>509.8</ele><time>2026-04-03T11:41:24.055Z</time></trkpt><trkpt lat="43.2134834" lon="10.9082199"><ele>507.4</ele><time>2026-04-03T11:41:25.048Z</time></trkpt><trkpt lat="43.2135224" lon="10.9083392"><ele>505.0</ele><time>2026-04-03T11:41:26.04Z</time></trkpt><trkpt lat="43.2135611" lon="10.908461"><ele>503.6</ele><time>2026-04-03T11:41:27.064Z</time></trkpt><trkpt lat="43.2136003" lon="10.9085854"><ele>502.2</ele><time>2026-04-03T11:41:28.054Z</time></trkpt><trkpt lat="43.2136406" lon="10.9087167"><ele>500.79999999999995</ele><time>2026-04-03T11:41:29.045Z</time></trkpt><trkpt lat="43.21368" lon="10.9088459"><ele>499.4</ele><time>2026-04-03T11:41:30.054Z</time></trkpt><trkpt lat="43.2137169" lon="10.9089653"><ele>498.0</ele><time>2026-04-03T11:41:31.052Z</time></trkpt><trkpt lat="43.2137455" lon="10.9090726"><ele>498.0</ele><time>2026-04-03T11:41:32.037Z</time></trkpt><trkpt lat="43.2137643" lon="10.9091631"><ele>498.0</ele><time>2026-04-03T11:41:33.05Z</time></trkpt><trkpt lat="43.2137821" lon="10.9092832"><ele>498.0</ele><time>2026-04-03T11:41:35.06Z</time></trkpt><trkpt lat="43.2137961" lon="10.9093759"><ele>498.0</ele><time>2026-04-03T11:41:38.056Z</time></trkpt><trkpt lat="43.2138693" lon="10.9093861"><ele>498.0</ele><time>2026-04-03T11:41:41.058Z</time></trkpt><trkpt lat="43.2139525" lon="10.9094045"><ele>498.0</ele><time>2026-04-03T11:41:43.059Z</time></trkpt><trkpt lat="43.2140226" lon="10.9094289"><ele>500.1666666666667</ele><time>2026-04-03T11:41:44.046Z</time></trkpt><trkpt lat="43.2140998" lon="10.9094437"><ele>502.33333333333337</ele><time>2026-04-03T11:41:45.055Z</time></trkpt><trkpt lat="43.2141877" lon="10.9094643"><ele>504.5</ele><time>2026-04-03T11:41:46.053Z</time></trkpt><trkpt lat="43.2142778" lon="10.9094918"><ele>506.6666666666667</ele><time>2026-04-03T11:41:47.055Z</time></trkpt><trkpt lat="43.2143587" lon="10.909525"><ele>508.83333333333337</ele><time>2026-04-03T11:41:48.048Z</time></trkpt><trkpt lat="43.2144234" lon="10.9095606"><ele>511.0</ele><time>2026-04-03T11:41:49.061Z</time></trkpt><trkpt lat="43.214505" lon="10.9096173"><ele>511.0</ele><time>2026-04-03T11:41:51.044Z</time></trkpt><trkpt lat="43.2146056" lon="10.9096301"><ele>511.0</ele><time>2026-04-03T11:42:15.06Z</time></trkpt><trkpt lat="43.2147037" lon="10.9096531"><ele>511.0</ele><time>2026-04-03T11:42:16.055Z</time></trkpt><trkpt lat="43.2147856" lon="10.90968"><ele>511.0</ele><time>2026-04-03T11:42:17.057Z</time></trkpt><trkpt lat="43.2148658" lon="10.9097071"><ele>511.0</ele><time>2026-04-03T11:42:18.057Z</time></trkpt><trkpt lat="43.2149499" lon="10.9097358"><ele>513.0</ele><time>2026-04-03T11:42:19.047Z</time></trkpt><trkpt lat="43.215044" lon="10.9097677"><ele>515.0</ele><time>2026-04-03T11:42:20.049Z</time></trkpt><trkpt lat="43.2151431" lon="10.9098025"><ele>517.0</ele><time>2026-04-03T11:42:21.082Z</time></trkpt><trkpt lat="43.2152447" lon="10.9098386"><ele>519.0</ele><time>2026-04-03T11:42:22.048Z</time></trkpt><trkpt lat="43.2153498" lon="10.909877"><ele>521.0</ele><time>2026-04-03T11:42:23.045Z</time></trkpt><trkpt lat="43.2154474" lon="10.9099082"><ele>521.0</ele><time>2026-04-03T11:42:24.045Z</time></trkpt><trkpt lat="43.2155327" lon="10.9099164"><ele>521.0</ele><time>2026-04-03T11:42:25.048Z</time></trkpt><trkpt lat="43.2156048" lon="10.9098894"><ele>521.0</ele><time>2026-04-03T11:42:26.051Z</time></trkpt><trkpt lat="43.2156643" lon="10.9098237"><ele>521.0</ele><time>2026-04-03T11:42:27.045Z</time></trkpt><trkpt lat="43.2157103" lon="10.9097168"><ele>521.0</ele><time>2026-04-03T11:42:28.065Z</time></trkpt><trkpt lat="43.2157496" lon="10.9096114"><ele>521.0</ele><time>2026-04-03T11:42:29.081Z</time></trkpt><trkpt lat="43.2157879" lon="10.9095204"><ele>522.0</ele><time>2026-04-03T11:42:30.049Z</time></trkpt><trkpt lat="43.2158383" lon="10.9094578"><ele>523.0</ele><time>2026-04-03T11:42:31.047Z</time></trkpt><trkpt lat="43.2159019" lon="10.9094179"><ele>524.0</ele><time>2026-04-03T11:42:32.049Z</time></trkpt><trkpt lat="43.2159768" lon="10.9093918"><ele>525.0</ele><time>2026-04-03T11:42:33.05Z</time></trkpt><trkpt lat="43.2160613" lon="10.9093732"><ele>526.0</ele><time>2026-04-03T11:42:34.043Z</time></trkpt><trkpt lat="43.2161534" lon="10.9093557"><ele>527.0</ele><time>2026-04-03T11:42:35.04Z</time></trkpt><trkpt lat="43.2162544" lon="10.909336"><ele>527.0</ele><time>2026-04-03T11:42:36.046Z</time></trkpt><trkpt lat="43.216361" lon="10.9093143"><ele>527.0</ele><time>2026-04-03T11:42:37.043Z</time></trkpt><trkpt lat="43.2164737" lon="10.9092927"><ele>527.0</ele><time>2026-04-03T11:42:38.046Z</time></trkpt><trkpt lat="43.2165792" lon="10.9092739"><ele>527.0</ele><time>2026-04-03T11:42:39.049Z</time></trkpt><trkpt lat="43.2166746" lon="10.9092574"><ele>527.0</ele><time>2026-04-03T11:42:40.048Z</time></trkpt><trkpt lat="43.2167691" lon="10.9092391"><ele>527.2</ele><time>2026-04-03T11:42:41.046Z</time></trkpt><trkpt lat="43.2168649" lon="10.9092197"><ele>527.4000000000001</ele><time>2026-04-03T11:42:42.049Z</time></trkpt><trkpt lat="43.2169651" lon="10.9092075"><ele>527.5999999999999</ele><time>2026-04-03T11:42:43.053Z</time></trkpt><trkpt lat="43.2170649" lon="10.9092105"><ele>527.8</ele><time>2026-04-03T11:42:44.046Z</time></trkpt><trkpt lat="43.2171623" lon="10.9092321"><ele>528.0</ele><time>2026-04-03T11:42:45.038Z</time></trkpt><trkpt lat="43.217258" lon="10.9092695"><ele>525.1999999999999</ele><time>2026-04-03T11:42:46.04Z</time></trkpt><trkpt lat="43.217352" lon="10.9093225"><ele>522.4</ele><time>2026-04-03T11:42:47.036Z</time></trkpt><trkpt lat="43.2174449" lon="10.9093777"><ele>519.5999999999999</ele><time>2026-04-03T11:42:48.046Z</time></trkpt><trkpt lat="43.2175376" lon="10.9094298"><ele>516.8</ele><time>2026-04-03T11:42:49.049Z</time></trkpt><trkpt lat="43.2176325" lon="10.9094843"><ele>514.0</ele><time>2026-04-03T11:42:50.047Z</time></trkpt><trkpt lat="43.2177268" lon="10.9095396"><ele>514.0</ele><time>2026-04-03T11:42:51.048Z</time></trkpt><trkpt lat="43.217817" lon="10.9095905"><ele>514.0</ele><time>2026-04-03T11:42:52.042Z</time></trkpt><trkpt lat="43.2179035" lon="10.9096366"><ele>514.0</ele><time>2026-04-03T11:42:53.057Z</time></trkpt><trkpt lat="43.2179853" lon="10.9096816"><ele>514.0</ele><time>2026-04-03T11:42:54.048Z</time></trkpt><trkpt lat="43.2180677" lon="10.9097245"><ele>514.0</ele><time>2026-04-03T11:42:55.049Z</time></trkpt><trkpt lat="43.2181478" lon="10.9097637"><ele>514.1428571428571</ele><time>2026-04-03T11:42:56.044Z</time></trkpt><trkpt lat="43.2182224" lon="10.909808"><ele>514.2857142857143</ele><time>2026-04-03T11:42:57.044Z</time></trkpt><trkpt lat="43.2182842" lon="10.9098707"><ele>514.4285714285714</ele><time>2026-04-03T11:42:58.052Z</time></trkpt><trkpt lat="43.2183253" lon="10.9099497"><ele>514.5714285714286</ele><time>2026-04-03T11:42:59.057Z</time></trkpt><trkpt lat="43.2183586" lon="10.9100312"><ele>514.7142857142857</ele><time>2026-04-03T11:43:00.043Z</time></trkpt><trkpt lat="43.2183763" lon="10.9101207"><ele>514.8571428571429</ele><time>2026-04-03T11:43:01.049Z</time></trkpt><trkpt lat="43.2183933" lon="10.9102129"><ele>515.0</ele><time>2026-04-03T11:43:02.052Z</time></trkpt><trkpt lat="43.2184058" lon="10.9103097"><ele>513.3333333333333</ele><time>2026-04-03T11:43:03.056Z</time></trkpt><trkpt lat="43.218409" lon="10.9104062"><ele>511.66666666666663</ele><time>2026-04-03T11:43:04.056Z</time></trkpt><trkpt lat="43.2184029" lon="10.9105014"><ele>510.0</ele><time>2026-04-03T11:43:05.043Z</time></trkpt><trkpt lat="43.2183913" lon="10.910602"><ele>508.33333333333337</ele><time>2026-04-03T11:43:06.072Z</time></trkpt><trkpt lat="43.218377" lon="10.9107105"><ele>506.6666666666667</ele><time>2026-04-03T11:43:07.064Z</time></trkpt><trkpt lat="43.2183637" lon="10.9108234"><ele>505.0</ele><time>2026-04-03T11:43:08.048Z</time></trkpt><trkpt lat="43.2183613" lon="10.9109345"><ele>503.83333333333337</ele><time>2026-04-03T11:43:09.051Z</time></trkpt><trkpt lat="43.2183782" lon="10.911039"><ele>502.6666666666667</ele><time>2026-04-03T11:43:10.058Z</time></trkpt><trkpt lat="43.2184121" lon="10.9111369"><ele>501.5</ele><time>2026-04-03T11:43:11.052Z</time></trkpt><trkpt lat="43.2184616" lon="10.9112258"><ele>500.33333333333337</ele><time>2026-04-03T11:43:12.047Z</time></trkpt><trkpt lat="43.2185172" lon="10.9113077"><ele>499.1666666666667</ele><time>2026-04-03T11:43:13.071Z</time></trkpt><trkpt lat="43.2185695" lon="10.9113831"><ele>498.0</ele><time>2026-04-03T11:43:14.07Z</time></trkpt><trkpt lat="43.2186181" lon="10.9114523"><ele>498.0</ele><time>2026-04-03T11:43:15.044Z</time></trkpt><trkpt lat="43.2186691" lon="10.9115229"><ele>497.99999999999994</ele><time>2026-04-03T11:43:16.045Z</time></trkpt><trkpt lat="43.2187241" lon="10.9115981"><ele>498.0</ele><time>2026-04-03T11:43:17.057Z</time></trkpt><trkpt lat="43.2187779" lon="10.9116721"><ele>498.0</ele><time>2026-04-03T11:43:18.05Z</time></trkpt><trkpt lat="43.2188281" lon="10.9117431"><ele>497.99999999999994</ele><time>2026-04-03T11:43:19.042Z</time></trkpt><trkpt lat="43.2188812" lon="10.9118124"><ele>498.0</ele><time>2026-04-03T11:43:20.052Z</time></trkpt><trkpt lat="43.218943" lon="10.9118763"><ele>498.0</ele><time>2026-04-03T11:43:21.054Z</time></trkpt><trkpt lat="43.2190143" lon="10.9119307"><ele>497.6666666666667</ele><time>2026-04-03T11:43:22.049Z</time></trkpt><trkpt lat="43.2190899" lon="10.911976"><ele>497.33333333333337</ele><time>2026-04-03T11:43:23.055Z</time></trkpt><trkpt lat="43.2191583" lon="10.9120119"><ele>497.0</ele><time>2026-04-03T11:43:24.06Z</time></trkpt><trkpt lat="43.2192705" lon="10.9120699"><ele>496.6666666666667</ele><time>2026-04-03T11:43:26.049Z</time></trkpt><trkpt lat="43.2193301" lon="10.9121049"><ele>496.33333333333337</ele><time>2026-04-03T11:43:27.05Z</time></trkpt><trkpt lat="43.2194016" lon="10.912151"><ele>496.0</ele><time>2026-04-03T11:43:28.052Z</time></trkpt><trkpt lat="43.2194858" lon="10.9122064"><ele>496.0</ele><time>2026-04-03T11:43:29.072Z</time></trkpt><trkpt lat="43.2195787" lon="10.912264"><ele>496.0</ele><time>2026-04-03T11:43:30.051Z</time></trkpt><trkpt lat="43.2196774" lon="10.912322"><ele>496.0</ele><time>2026-04-03T11:43:31.046Z</time></trkpt><trkpt lat="43.2197719" lon="10.9123801"><ele>496.0</ele><time>2026-04-03T11:43:32.046Z</time></trkpt><trkpt lat="43.2198646" lon="10.9124351"><ele>496.0</ele><time>2026-04-03T11:43:33.043Z</time></trkpt><trkpt lat="43.2199626" lon="10.9124833"><ele>497.4</ele><time>2026-04-03T11:43:34.063Z</time></trkpt><trkpt lat="43.2200649" lon="10.9125224"><ele>498.8</ele><time>2026-04-03T11:43:35.039Z</time></trkpt><trkpt lat="43.2201678" lon="10.9125573"><ele>500.19999999999993</ele><time>2026-04-03T11:43:36.045Z</time></trkpt><trkpt lat="43.2202688" lon="10.9125894"><ele>501.59999999999997</ele><time>2026-04-03T11:43:37.046Z</time></trkpt><trkpt lat="43.2203633" lon="10.9126285"><ele>503.0</ele><time>2026-04-03T11:43:38.057Z</time></trkpt><trkpt lat="43.2204534" lon="10.9126796"><ele>502.99999999999994</ele><time>2026-04-03T11:43:39.044Z</time></trkpt><trkpt lat="43.2205394" lon="10.9127307"><ele>503.0</ele><time>2026-04-03T11:43:40.047Z</time></trkpt><trkpt lat="43.2206144" lon="10.9127711"><ele>503.0</ele><time>2026-04-03T11:43:41.047Z</time></trkpt><trkpt lat="43.2207184" lon="10.9127487"><ele>503.0</ele><time>2026-04-03T11:43:43.052Z</time></trkpt><trkpt lat="43.2207767" lon="10.9126882"><ele>502.99999999999994</ele><time>2026-04-03T11:43:45.045Z</time></trkpt><trkpt lat="43.2208354" lon="10.9126498"><ele>503.0</ele><time>2026-04-03T11:43:46.038Z</time></trkpt><trkpt lat="43.2209105" lon="10.9126072"><ele>506.79999999999995</ele><time>2026-04-03T11:43:47.041Z</time></trkpt><trkpt lat="43.2209915" lon="10.9125597"><ele>510.59999999999997</ele><time>2026-04-03T11:43:48.044Z</time></trkpt><trkpt lat="43.2210791" lon="10.9125202"><ele>514.4000000000001</ele><time>2026-04-03T11:43:49.043Z</time></trkpt><trkpt lat="43.2211755" lon="10.9124865"><ele>518.2</ele><time>2026-04-03T11:43:50.05Z</time></trkpt><trkpt lat="43.2212775" lon="10.9124617"><ele>522.0</ele><time>2026-04-03T11:43:51.05Z</time></trkpt><trkpt lat="43.2213816" lon="10.9124373"><ele>520.2</ele><time>2026-04-03T11:43:52.047Z</time></trkpt><trkpt lat="43.2214875" lon="10.9124082"><ele>518.4000000000001</ele><time>2026-04-03T11:43:53.063Z</time></trkpt><trkpt lat="43.2215902" lon="10.9123703"><ele>516.5999999999999</ele><time>2026-04-03T11:43:54.045Z</time></trkpt><trkpt lat="43.2216924" lon="10.9123306"><ele>514.8</ele><time>2026-04-03T11:43:55.058Z</time></trkpt><trkpt lat="43.2217963" lon="10.9123026"><ele>513.0</ele><time>2026-04-03T11:43:56.049Z</time></trkpt><trkpt lat="43.2219055" lon="10.9122892"><ele>513.0</ele><time>2026-04-03T11:43:57.054Z</time></trkpt><trkpt lat="43.2220162" lon="10.9122878"><ele>513.0</ele><time>2026-04-03T11:43:58.052Z</time></trkpt><trkpt lat="43.2221262" lon="10.9122926"><ele>513.0</ele><time>2026-04-03T11:43:59.051Z</time></trkpt><trkpt lat="43.2222356" lon="10.9122992"><ele>513.0</ele><time>2026-04-03T11:44:00.047Z</time></trkpt><trkpt lat="43.2223405" lon="10.9123046"><ele>513.0</ele><time>2026-04-03T11:44:01.041Z</time></trkpt><trkpt lat="43.2224375" lon="10.9123096"><ele>511.79999999999995</ele><time>2026-04-03T11:44:02.042Z</time></trkpt><trkpt lat="43.2225346" lon="10.91231"><ele>510.59999999999997</ele><time>2026-04-03T11:44:03.046Z</time></trkpt><trkpt lat="43.2226329" lon="10.912317"><ele>509.40000000000003</ele><time>2026-04-03T11:44:04.051Z</time></trkpt><trkpt lat="43.2227287" lon="10.9123389"><ele>508.20000000000005</ele><time>2026-04-03T11:44:05.049Z</time></trkpt><trkpt lat="43.2228213" lon="10.9123733"><ele>507.0</ele><time>2026-04-03T11:44:06.045Z</time></trkpt><trkpt lat="43.2229089" lon="10.9124104"><ele>507.0</ele><time>2026-04-03T11:44:07.06Z</time></trkpt><trkpt lat="43.2229856" lon="10.9124423"><ele>507.0</ele><time>2026-04-03T11:44:08.046Z</time></trkpt><trkpt lat="43.2230539" lon="10.9124693"><ele>507.0</ele><time>2026-04-03T11:44:09.056Z</time></trkpt><trkpt lat="43.2231223" lon="10.9124831"><ele>507.0</ele><time>2026-04-03T11:44:10.043Z</time></trkpt><trkpt lat="43.2231977" lon="10.9124826"><ele>507.0</ele><time>2026-04-03T11:44:11.056Z</time></trkpt><trkpt lat="43.2232766" lon="10.9124698"><ele>507.0</ele><time>2026-04-03T11:44:12.054Z</time></trkpt><trkpt lat="43.2233547" lon="10.9124454"><ele>506.1666666666667</ele><time>2026-04-03T11:44:13.049Z</time></trkpt><trkpt lat="43.2234314" lon="10.9124192"><ele>505.33333333333337</ele><time>2026-04-03T11:44:14.064Z</time></trkpt><trkpt lat="43.223495" lon="10.9123665"><ele>504.5</ele><time>2026-04-03T11:44:15.049Z</time></trkpt><trkpt lat="43.2235578" lon="10.9123005"><ele>503.6666666666667</ele><time>2026-04-03T11:44:16.051Z</time></trkpt><trkpt lat="43.2236087" lon="10.9122065"><ele>502.83333333333337</ele><time>2026-04-03T11:44:17.048Z</time></trkpt><trkpt lat="43.2236587" lon="10.9121046"><ele>502.0</ele><time>2026-04-03T11:44:18.053Z</time></trkpt><trkpt lat="43.2237122" lon="10.912015"><ele>502.00000000000006</ele><time>2026-04-03T11:44:19.047Z</time></trkpt><trkpt lat="43.2237668" lon="10.9119353"><ele>502.0</ele><time>2026-04-03T11:44:20.043Z</time></trkpt><trkpt lat="43.2238295" lon="10.9118745"><ele>502.0</ele><time>2026-04-03T11:44:21.048Z</time></trkpt><trkpt lat="43.2238893" lon="10.9118188"><ele>502.0</ele><time>2026-04-03T11:44:22.046Z</time></trkpt><trkpt lat="43.2239302" lon="10.9117503"><ele>502.00000000000006</ele><time>2026-04-03T11:44:23.038Z</time></trkpt><trkpt lat="43.2239714" lon="10.9116664"><ele>502.0</ele><time>2026-04-03T11:44:24.048Z</time></trkpt><trkpt lat="43.2240043" lon="10.9115554"><ele>502.33333333333337</ele><time>2026-04-03T11:44:25.046Z</time></trkpt><trkpt lat="43.2240374" lon="10.9114529"><ele>502.6666666666667</ele><time>2026-04-03T11:44:26.05Z</time></trkpt><trkpt lat="43.2240758" lon="10.9113632"><ele>503.0</ele><time>2026-04-03T11:44:27.051Z</time></trkpt><trkpt lat="43.2241258" lon="10.9112871"><ele>503.33333333333337</ele><time>2026-04-03T11:44:28.058Z</time></trkpt><trkpt lat="43.2241889" lon="10.9112275"><ele>503.6666666666667</ele><time>2026-04-03T11:44:29.048Z</time></trkpt><trkpt lat="43.2242554" lon="10.9111757"><ele>504.0</ele><time>2026-04-03T11:44:30.044Z</time></trkpt><trkpt lat="43.2243181" lon="10.9111204"><ele>504.0</ele><time>2026-04-03T11:44:31.049Z</time></trkpt><trkpt lat="43.2243776" lon="10.9110618"><ele>504.0</ele><time>2026-04-03T11:44:32.043Z</time></trkpt><trkpt lat="43.2244458" lon="10.9110046"><ele>504.0</ele><time>2026-04-03T11:44:33.047Z</time></trkpt><trkpt lat="43.2245351" lon="10.9109659"><ele>504.0</ele><time>2026-04-03T11:44:34.05Z</time></trkpt><trkpt lat="43.2246391" lon="10.9109344"><ele>504.0</ele><time>2026-04-03T11:44:35.044Z</time></trkpt><trkpt lat="43.2247424" lon="10.9109064"><ele>505.0</ele><time>2026-04-03T11:44:36.049Z</time></trkpt><trkpt lat="43.2248373" lon="10.9108808"><ele>506.0</ele><time>2026-04-03T11:44:37.05Z</time></trkpt><trkpt lat="43.2249211" lon="10.9108423"><ele>507.0</ele><time>2026-04-03T11:44:38.044Z</time></trkpt><trkpt lat="43.2250048" lon="10.9107916"><ele>508.0</ele><time>2026-04-03T11:44:39.045Z</time></trkpt><trkpt lat="43.2250845" lon="10.9107136"><ele>509.0</ele><time>2026-04-03T11:44:40.041Z</time></trkpt><trkpt lat="43.2251751" lon="10.9106275"><ele>509.0</ele><time>2026-04-03T11:44:41.055Z</time></trkpt><trkpt lat="43.2252561" lon="10.9105322"><ele>509.0</ele><time>2026-04-03T11:44:42.047Z</time></trkpt><trkpt lat="43.2253376" lon="10.9104376"><ele>509.0</ele><time>2026-04-03T11:44:43.049Z</time></trkpt><trkpt lat="43.2254096" lon="10.9103497"><ele>509.0</ele><time>2026-04-03T11:44:44.065Z</time></trkpt><trkpt lat="43.2254729" lon="10.9102599"><ele>509.0</ele><time>2026-04-03T11:44:45.058Z</time></trkpt><trkpt lat="43.2255212" lon="10.910175"><ele>510.4</ele><time>2026-04-03T11:44:46.036Z</time></trkpt><trkpt lat="43.2255737" lon="10.9100484"><ele>511.79999999999995</ele><time>2026-04-03T11:44:48.06Z</time></trkpt><trkpt lat="43.2256402" lon="10.9099528"><ele>513.2</ele><time>2026-04-03T11:44:50.051Z</time></trkpt><trkpt lat="43.2257526" lon="10.909943"><ele>514.6</ele><time>2026-04-03T11:44:52.048Z</time></trkpt><trkpt lat="43.2258134" lon="10.909972"><ele>516.0</ele><time>2026-04-03T11:44:53.052Z</time></trkpt><trkpt lat="43.2258799" lon="10.9100135"><ele>516.0</ele><time>2026-04-03T11:44:54.049Z</time></trkpt><trkpt lat="43.2259489" lon="10.9100524"><ele>516.0</ele><time>2026-04-03T11:44:55.052Z</time></trkpt><trkpt lat="43.2260278" lon="10.9100443"><ele>516.0</ele><time>2026-04-03T11:44:56.05Z</time></trkpt><trkpt lat="43.226112" lon="10.9100373"><ele>516.0</ele><time>2026-04-03T11:44:57.045Z</time></trkpt><trkpt lat="43.2261961" lon="10.9100622"><ele>516.0</ele><time>2026-04-03T11:44:58.077Z</time></trkpt><trkpt lat="43.2262722" lon="10.9101138"><ele>516.0</ele><time>2026-04-03T11:44:59.056Z</time></trkpt><trkpt lat="43.2263506" lon="10.9101911"><ele>516.2</ele><time>2026-04-03T11:45:00.055Z</time></trkpt><trkpt lat="43.2264325" lon="10.9102693"><ele>516.4000000000001</ele><time>2026-04-03T11:45:01.055Z</time></trkpt><trkpt lat="43.2265151" lon="10.9103432"><ele>516.6</ele><time>2026-04-03T11:45:02.058Z</time></trkpt><trkpt lat="43.2265976" lon="10.9104161"><ele>516.8000000000001</ele><time>2026-04-03T11:45:03.042Z</time></trkpt><trkpt lat="43.2266813" lon="10.9104904"><ele>517.0</ele><time>2026-04-03T11:45:04.061Z</time></trkpt><trkpt lat="43.2267586" lon="10.9105525"><ele>517.0</ele><time>2026-04-03T11:45:05.058Z</time></trkpt><trkpt lat="43.2268198" lon="10.9105894"><ele>517.0</ele><time>2026-04-03T11:45:06.055Z</time></trkpt><trkpt lat="43.2268872" lon="10.9106537"><ele>517.0</ele><time>2026-04-03T11:45:08.054Z</time></trkpt><trkpt lat="43.2269654" lon="10.910796"><ele>517.0</ele><time>2026-04-03T11:45:10.058Z</time></trkpt><trkpt lat="43.2270244" lon="10.910891"><ele>517.0</ele><time>2026-04-03T11:45:11.043Z</time></trkpt><trkpt lat="43.2270942" lon="10.910987"><ele>517.8000000000001</ele><time>2026-04-03T11:45:12.047Z</time></trkpt><trkpt lat="43.2271775" lon="10.9110835"><ele>518.6</ele><time>2026-04-03T11:45:13.041Z</time></trkpt><trkpt lat="43.2272684" lon="10.9111783"><ele>519.4000000000001</ele><time>2026-04-03T11:45:14.053Z</time></trkpt><trkpt lat="43.2273518" lon="10.9112663"><ele>520.2</ele><time>2026-04-03T11:45:15.05Z</time></trkpt><trkpt lat="43.2274215" lon="10.9113551"><ele>521.0</ele><time>2026-04-03T11:45:16.05Z</time></trkpt><trkpt lat="43.2274776" lon="10.9114604"><ele>521.0</ele><time>2026-04-03T11:45:17.05Z</time></trkpt><trkpt lat="43.2275276" lon="10.9115865"><ele>521.0</ele><time>2026-04-03T11:45:18.043Z</time></trkpt><trkpt lat="43.2275738" lon="10.9117255"><ele>521.0</ele><time>2026-04-03T11:45:19.045Z</time></trkpt><trkpt lat="43.2276202" lon="10.911865"><ele>521.0</ele><time>2026-04-03T11:45:20.055Z</time></trkpt><trkpt lat="43.2276697" lon="10.9120033"><ele>521.0</ele><time>2026-04-03T11:45:21.048Z</time></trkpt><trkpt lat="43.2277208" lon="10.9121443"><ele>520.2</ele><time>2026-04-03T11:45:22.053Z</time></trkpt><trkpt lat="43.2277737" lon="10.9122824"><ele>519.4000000000001</ele><time>2026-04-03T11:45:23.049Z</time></trkpt><trkpt lat="43.2278265" lon="10.9124158"><ele>518.6</ele><time>2026-04-03T11:45:24.051Z</time></trkpt><trkpt lat="43.2278746" lon="10.9125421"><ele>517.8000000000001</ele><time>2026-04-03T11:45:25.039Z</time></trkpt><trkpt lat="43.2279195" lon="10.912665"><ele>517.0</ele><time>2026-04-03T11:45:26.038Z</time></trkpt><trkpt lat="43.2279603" lon="10.9127867"><ele>515.8000000000001</ele><time>2026-04-03T11:45:27.045Z</time></trkpt><trkpt lat="43.2279922" lon="10.9129133"><ele>514.6</ele><time>2026-04-03T11:45:28.045Z</time></trkpt><trkpt lat="43.2280196" lon="10.9130487"><ele>513.4000000000001</ele><time>2026-04-03T11:45:29.045Z</time></trkpt><trkpt lat="43.228046" lon="10.9131851"><ele>512.2</ele><time>2026-04-03T11:45:30.055Z</time></trkpt><trkpt lat="43.2280716" lon="10.9133156"><ele>511.0</ele><time>2026-04-03T11:45:31.043Z</time></trkpt><trkpt lat="43.2280971" lon="10.9134423"><ele>510.6</ele><time>2026-04-03T11:45:32.04Z</time></trkpt><trkpt lat="43.2281276" lon="10.9135597"><ele>510.20000000000005</ele><time>2026-04-03T11:45:33.051Z</time></trkpt><trkpt lat="43.22817" lon="10.9136597"><ele>509.79999999999995</ele><time>2026-04-03T11:45:34.068Z</time></trkpt><trkpt lat="43.228232" lon="10.9137441"><ele>509.4</ele><time>2026-04-03T11:45:35.061Z</time></trkpt><trkpt lat="43.2283057" lon="10.913828"><ele>509.0</ele><time>2026-04-03T11:45:36.042Z</time></trkpt><trkpt lat="43.2283961" lon="10.9139034"><ele>508.99999999999994</ele><time>2026-04-03T11:45:37.066Z</time></trkpt><trkpt lat="43.2284686" lon="10.9139889"><ele>509.0</ele><time>2026-04-03T11:45:38.045Z</time></trkpt><trkpt lat="43.2285281" lon="10.9140827"><ele>509.0</ele><time>2026-04-03T11:45:39.049Z</time></trkpt><trkpt lat="43.2285595" lon="10.9141939"><ele>509.0</ele><time>2026-04-03T11:45:40.051Z</time></trkpt><trkpt lat="43.2285858" lon="10.9143023"><ele>508.99999999999994</ele><time>2026-04-03T11:45:41.049Z</time></trkpt><trkpt lat="43.228619" lon="10.9144"><ele>509.0</ele><time>2026-04-03T11:45:42.045Z</time></trkpt><trkpt lat="43.2286699" lon="10.9144838"><ele>509.4</ele><time>2026-04-03T11:45:43.054Z</time></trkpt><trkpt lat="43.2287474" lon="10.9145379"><ele>509.79999999999995</ele><time>2026-04-03T11:45:44.048Z</time></trkpt><trkpt lat="43.2288503" lon="10.9145634"><ele>510.20000000000005</ele><time>2026-04-03T11:45:45.057Z</time></trkpt><trkpt lat="43.2289636" lon="10.9145811"><ele>510.6</ele><time>2026-04-03T11:45:46.054Z</time></trkpt><trkpt lat="43.22907" lon="10.9146085"><ele>511.0</ele><time>2026-04-03T11:45:47.045Z</time></trkpt><trkpt lat="43.229161" lon="10.9146545"><ele>511.0</ele><time>2026-04-03T11:45:48.064Z</time></trkpt><trkpt lat="43.2292388" lon="10.91471"><ele>511.0</ele><time>2026-04-03T11:45:49.047Z</time></trkpt><trkpt lat="43.2293109" lon="10.9147797"><ele>511.0</ele><time>2026-04-03T11:45:50.053Z</time></trkpt><trkpt lat="43.2293824" lon="10.9148575"><ele>511.0</ele><time>2026-04-03T11:45:51.056Z</time></trkpt><trkpt lat="43.229448" lon="10.9149503"><ele>511.0</ele><time>2026-04-03T11:45:52.044Z</time></trkpt><trkpt lat="43.2295206" lon="10.9150527"><ele>509.6666666666667</ele><time>2026-04-03T11:45:53.052Z</time></trkpt><trkpt lat="43.2295879" lon="10.9151502"><ele>508.33333333333337</ele><time>2026-04-03T11:45:54.046Z</time></trkpt><trkpt lat="43.2296389" lon="10.9152512"><ele>507.0</ele><time>2026-04-03T11:45:55.056Z</time></trkpt><trkpt lat="43.2296691" lon="10.91535"><ele>505.66666666666663</ele><time>2026-04-03T11:45:56.052Z</time></trkpt><trkpt lat="43.2296812" lon="10.9154539"><ele>504.3333333333333</ele><time>2026-04-03T11:45:57.053Z</time></trkpt><trkpt lat="43.2296679" lon="10.9155744"><ele>503.0</ele><time>2026-04-03T11:45:58.038Z</time></trkpt><trkpt lat="43.2296555" lon="10.9157031"><ele>502.99999999999994</ele><time>2026-04-03T11:45:59.047Z</time></trkpt><trkpt lat="43.2296537" lon="10.9158136"><ele>503.0</ele><time>2026-04-03T11:46:00.052Z</time></trkpt><trkpt lat="43.2296784" lon="10.9159519"><ele>503.0</ele><time>2026-04-03T11:46:02.041Z</time></trkpt><trkpt lat="43.2297367" lon="10.916052"><ele>503.0</ele><time>2026-04-03T11:46:04.06Z</time></trkpt><trkpt lat="43.2297912" lon="10.9161306"><ele>502.99999999999994</ele><time>2026-04-03T11:46:05.046Z</time></trkpt><trkpt lat="43.229847" lon="10.9162306"><ele>503.0</ele><time>2026-04-03T11:46:06.049Z</time></trkpt><trkpt lat="43.2299031" lon="10.9163301"><ele>502.59999999999997</ele><time>2026-04-03T11:46:07.044Z</time></trkpt><trkpt lat="43.2299631" lon="10.9164282"><ele>502.19999999999993</ele><time>2026-04-03T11:46:08.045Z</time></trkpt><trkpt lat="43.2300244" lon="10.916528"><ele>501.8</ele><time>2026-04-03T11:46:09.044Z</time></trkpt><trkpt lat="43.2300847" lon="10.9166302"><ele>501.4</ele><time>2026-04-03T11:46:10.054Z</time></trkpt><trkpt lat="43.2301429" lon="10.9167287"><ele>501.0</ele><time>2026-04-03T11:46:11.058Z</time></trkpt><trkpt lat="43.2301985" lon="10.9168197"><ele>499.8</ele><time>2026-04-03T11:46:12.061Z</time></trkpt><trkpt lat="43.2302553" lon="10.9169022"><ele>498.6</ele><time>2026-04-03T11:46:13.038Z</time></trkpt><trkpt lat="43.2303175" lon="10.9169938"><ele>497.4</ele><time>2026-04-03T11:46:14.044Z</time></trkpt><trkpt lat="43.2303813" lon="10.9171012"><ele>496.2</ele><time>2026-04-03T11:46:15.047Z</time></trkpt><trkpt lat="43.230445" lon="10.9172102"><ele>495.0</ele><time>2026-04-03T11:46:16.052Z</time></trkpt><trkpt lat="43.2305107" lon="10.9173212"><ele>495.0</ele><time>2026-04-03T11:46:17.053Z</time></trkpt><trkpt lat="43.2305793" lon="10.9174291"><ele>495.0</ele><time>2026-04-03T11:46:18.047Z</time></trkpt><trkpt lat="43.2306471" lon="10.9175409"><ele>495.0</ele><time>2026-04-03T11:46:19.052Z</time></trkpt><trkpt lat="43.230715" lon="10.9176514"><ele>495.0</ele><time>2026-04-03T11:46:20.048Z</time></trkpt><trkpt lat="43.2307849" lon="10.9177643"><ele>495.0</ele><time>2026-04-03T11:46:21.049Z</time></trkpt><trkpt lat="43.2308544" lon="10.9178755"><ele>492.0</ele><time>2026-04-03T11:46:22.05Z</time></trkpt><trkpt lat="43.230918" lon="10.9179778"><ele>489.0</ele><time>2026-04-03T11:46:23.042Z</time></trkpt><trkpt lat="43.2309753" lon="10.9180722"><ele>486.0</ele><time>2026-04-03T11:46:24.05Z</time></trkpt><trkpt lat="43.2310312" lon="10.9181695"><ele>483.0</ele><time>2026-04-03T11:46:25.052Z</time></trkpt><trkpt lat="43.2310853" lon="10.918265"><ele>480.0</ele><time>2026-04-03T11:46:26.058Z</time></trkpt><trkpt lat="43.2311425" lon="10.9183558"><ele>479.0</ele><time>2026-04-03T11:46:27.049Z</time></trkpt><trkpt lat="43.2312006" lon="10.918447"><ele>478.0</ele><time>2026-04-03T11:46:28.04Z</time></trkpt><trkpt lat="43.2312562" lon="10.9185334"><ele>477.0</ele><time>2026-04-03T11:46:29.048Z</time></trkpt><trkpt lat="43.231312" lon="10.9186114"><ele>476.0</ele><time>2026-04-03T11:46:30.043Z</time></trkpt><trkpt lat="43.2313707" lon="10.9186907"><ele>475.0</ele><time>2026-04-03T11:46:31.073Z</time></trkpt><trkpt lat="43.2314283" lon="10.9187729"><ele>474.0</ele><time>2026-04-03T11:46:32.061Z</time></trkpt><trkpt lat="43.2314857" lon="10.9188716"><ele>474.0</ele><time>2026-04-03T11:46:33.056Z</time></trkpt><trkpt lat="43.2315413" lon="10.9189796"><ele>474.0</ele><time>2026-04-03T11:46:34.06Z</time></trkpt><trkpt lat="43.2315893" lon="10.9190828"><ele>474.0</ele><time>2026-04-03T11:46:35.051Z</time></trkpt><trkpt lat="43.2316372" lon="10.91918"><ele>474.0</ele><time>2026-04-03T11:46:36.053Z</time></trkpt><trkpt lat="43.2316947" lon="10.9192705"><ele>474.0</ele><time>2026-04-03T11:46:37.061Z</time></trkpt><trkpt lat="43.2317493" lon="10.9193595"><ele>474.0</ele><time>2026-04-03T11:46:38.051Z</time></trkpt><trkpt lat="43.2318194" lon="10.9194199"><ele>472.2</ele><time>2026-04-03T11:46:39.041Z</time></trkpt><trkpt lat="43.2318934" lon="10.9194722"><ele>470.4</ele><time>2026-04-03T11:46:40.055Z</time></trkpt><trkpt lat="43.2319689" lon="10.9195075"><ele>468.6</ele><time>2026-04-03T11:46:41.056Z</time></trkpt><trkpt lat="43.2320602" lon="10.9195223"><ele>466.8</ele><time>2026-04-03T11:46:42.056Z</time></trkpt><trkpt lat="43.2321632" lon="10.9195373"><ele>465.0</ele><time>2026-04-03T11:46:43.049Z</time></trkpt><trkpt lat="43.232268" lon="10.9195516"><ele>464.4</ele><time>2026-04-03T11:46:44.049Z</time></trkpt><trkpt lat="43.2323779" lon="10.9195669"><ele>463.8</ele><time>2026-04-03T11:46:45.048Z</time></trkpt><trkpt lat="43.232489" lon="10.9195934"><ele>463.20000000000005</ele><time>2026-04-03T11:46:46.045Z</time></trkpt><trkpt lat="43.2325943" lon="10.9196404"><ele>462.6</ele><time>2026-04-03T11:46:47.048Z</time></trkpt><trkpt lat="43.2326889" lon="10.9196886"><ele>462.0</ele><time>2026-04-03T11:46:48.055Z</time></trkpt><trkpt lat="43.2327831" lon="10.9197194"><ele>462.0</ele><time>2026-04-03T11:46:49.054Z</time></trkpt><trkpt lat="43.2328786" lon="10.9197407"><ele>462.0</ele><time>2026-04-03T11:46:50.047Z</time></trkpt><trkpt lat="43.2329649" lon="10.9197612"><ele>462.0</ele><time>2026-04-03T11:46:51.045Z</time></trkpt><trkpt lat="43.2330454" lon="10.9197928"><ele>462.0</ele><time>2026-04-03T11:46:52.048Z</time></trkpt><trkpt lat="43.2331248" lon="10.9198255"><ele>462.0</ele><time>2026-04-03T11:46:53.043Z</time></trkpt><trkpt lat="43.2332058" lon="10.9198541"><ele>462.0</ele><time>2026-04-03T11:46:54.043Z</time></trkpt><trkpt lat="43.2332804" lon="10.9198726"><ele>462.6</ele><time>2026-04-03T11:46:55.051Z</time></trkpt><trkpt lat="43.2333443" lon="10.9198856"><ele>463.20000000000005</ele><time>2026-04-03T11:46:56.054Z</time></trkpt><trkpt lat="43.233437" lon="10.919938"><ele>463.8</ele><time>2026-04-03T11:46:58.042Z</time></trkpt><trkpt lat="43.233522" lon="10.9200413"><ele>464.4</ele><time>2026-04-03T11:47:00.047Z</time></trkpt><trkpt lat="43.233619" lon="10.9201187"><ele>465.0</ele><time>2026-04-03T11:47:02.034Z</time></trkpt><trkpt lat="43.2336677" lon="10.920223"><ele>462.2</ele><time>2026-04-03T11:47:04.068Z</time></trkpt><trkpt lat="43.2336926" lon="10.9203663"><ele>459.4</ele><time>2026-04-03T11:47:06.054Z</time></trkpt><trkpt lat="43.2337102" lon="10.9204816"><ele>456.6</ele><time>2026-04-03T11:47:08.046Z</time></trkpt><trkpt lat="43.2337458" lon="10.9206196"><ele>453.8</ele><time>2026-04-03T11:47:11.056Z</time></trkpt><trkpt lat="43.2338408" lon="10.9207465"><ele>451.0</ele><time>2026-04-03T11:47:13.04Z</time></trkpt><trkpt lat="43.2339505" lon="10.9207876"><ele>449.8</ele><time>2026-04-03T11:47:15.047Z</time></trkpt><trkpt lat="43.2340571" lon="10.9208652"><ele>448.6</ele><time>2026-04-03T11:47:17.052Z</time></trkpt><trkpt lat="43.2340985" lon="10.9209307"><ele>447.4</ele><time>2026-04-03T11:47:18.047Z</time></trkpt><trkpt lat="43.2341758" lon="10.9210272"><ele>446.2</ele><time>2026-04-03T11:47:20.057Z</time></trkpt><trkpt lat="43.2342529" lon="10.9210945"><ele>445.0</ele><time>2026-04-03T11:47:22.998Z</time></trkpt><trkpt lat="43.2343555" lon="10.9211361"><ele>445.0</ele><time>2026-04-03T11:47:24.043Z</time></trkpt><trkpt lat="43.2344146" lon="10.9211691"><ele>445.0</ele><time>2026-04-03T11:47:25.047Z</time></trkpt><trkpt lat="43.2345102" lon="10.9212145"><ele>445.0</ele><time>2026-04-03T11:47:27.046Z</time></trkpt><trkpt lat="43.2346062" lon="10.9212492"><ele>445.0</ele><time>2026-04-03T11:47:29.055Z</time></trkpt><trkpt lat="43.2347259" lon="10.9213004"><ele>445.0</ele><time>2026-04-03T11:47:31.048Z</time></trkpt><trkpt lat="43.2347855" lon="10.921329"><ele>446.33333333333337</ele><time>2026-04-03T11:47:32.048Z</time></trkpt><trkpt lat="43.2348534" lon="10.9213689"><ele>447.6666666666667</ele><time>2026-04-03T11:47:33.046Z</time></trkpt><trkpt lat="43.2349241" lon="10.9214395"><ele>449.0</ele><time>2026-04-03T11:47:34.085Z</time></trkpt><trkpt lat="43.2349705" lon="10.9215213"><ele>450.33333333333337</ele><time>2026-04-03T11:47:35.051Z</time></trkpt><trkpt lat="43.2349958" lon="10.9216164"><ele>451.6666666666667</ele><time>2026-04-03T11:47:36.045Z</time></trkpt><trkpt lat="43.2350045" lon="10.9217201"><ele>453.0</ele><time>2026-04-03T11:47:37.051Z</time></trkpt><trkpt lat="43.235008" lon="10.9218218"><ele>453.0</ele><time>2026-04-03T11:47:38.046Z</time></trkpt><trkpt lat="43.2350128" lon="10.9219166"><ele>453.0</ele><time>2026-04-03T11:47:39.057Z</time></trkpt><trkpt lat="43.2350224" lon="10.9220041"><ele>453.0</ele><time>2026-04-03T11:47:40.046Z</time></trkpt><trkpt lat="43.2350876" lon="10.9221532"><ele>453.0</ele><time>2026-04-03T11:47:42.05Z</time></trkpt><trkpt lat="43.2351368" lon="10.9222235"><ele>453.0</ele><time>2026-04-03T11:47:43.048Z</time></trkpt><trkpt lat="43.2351884" lon="10.9222966"><ele>453.0</ele><time>2026-04-03T11:47:44.064Z</time></trkpt><trkpt lat="43.235235" lon="10.9223772"><ele>453.0</ele><time>2026-04-03T11:47:45.054Z</time></trkpt><trkpt lat="43.235276" lon="10.9224679"><ele>452.99999999999994</ele><time>2026-04-03T11:47:46.041Z</time></trkpt><trkpt lat="43.2353067" lon="10.9225568"><ele>452.99999999999994</ele><time>2026-04-03T11:47:47.053Z</time></trkpt><trkpt lat="43.2353494" lon="10.9227002"><ele>453.0</ele><time>2026-04-03T11:47:49.049Z</time></trkpt><trkpt lat="43.2353702" lon="10.9228309"><ele>453.0</ele><time>2026-04-03T11:47:51.049Z</time></trkpt><trkpt lat="43.2354208" lon="10.9229569"><ele>452.0</ele><time>2026-04-03T11:47:53.053Z</time></trkpt><trkpt lat="43.2355151" lon="10.9230256"><ele>450.99999999999994</ele><time>2026-04-03T11:47:55.062Z</time></trkpt><trkpt lat="43.2355962" lon="10.9231212"><ele>449.99999999999994</ele><time>2026-04-03T11:47:57.046Z</time></trkpt><trkpt lat="43.2356992" lon="10.9232266"><ele>449.0</ele><time>2026-04-03T11:47:59.06Z</time></trkpt><trkpt lat="43.2357589" lon="10.9232726"><ele>448.0</ele><time>2026-04-03T11:48:00.053Z</time></trkpt><trkpt lat="43.2358206" lon="10.9232939"><ele>448.00000000000006</ele><time>2026-04-03T11:48:01.059Z</time></trkpt><trkpt lat="43.2359366" lon="10.9233021"><ele>448.0</ele><time>2026-04-03T11:48:03.05Z</time></trkpt><trkpt lat="43.2360058" lon="10.9232941"><ele>448.0</ele><time>2026-04-03T11:48:04.046Z</time></trkpt><trkpt lat="43.2360768" lon="10.9232944"><ele>448.0</ele><time>2026-04-03T11:48:05.053Z</time></trkpt><trkpt lat="43.2361415" lon="10.923299"><ele>448.00000000000006</ele><time>2026-04-03T11:48:06.045Z</time></trkpt><trkpt lat="43.2362657" lon="10.9233261"><ele>448.0</ele><time>2026-04-03T11:48:08.046Z</time></trkpt><trkpt lat="43.2363323" lon="10.9233389"><ele>448.00000000000006</ele><time>2026-04-03T11:48:09.053Z</time></trkpt><trkpt lat="43.2364026" lon="10.9233504"><ele>448.0</ele><time>2026-04-03T11:48:10.053Z</time></trkpt><trkpt lat="43.2364735" lon="10.9233613"><ele>448.0</ele><time>2026-04-03T11:48:11.045Z</time></trkpt><trkpt lat="43.2365408" lon="10.9233718"><ele>448.0</ele><time>2026-04-03T11:48:12.046Z</time></trkpt><trkpt lat="43.236662" lon="10.9233866"><ele>448.00000000000006</ele><time>2026-04-03T11:48:14.04Z</time></trkpt><trkpt lat="43.2367721" lon="10.9234253"><ele>448.0</ele><time>2026-04-03T11:48:16.046Z</time></trkpt><trkpt lat="43.236871" lon="10.9235127"><ele>444.33333333333337</ele><time>2026-04-03T11:48:18.047Z</time></trkpt><trkpt lat="43.2369915" lon="10.9235622"><ele>440.6666666666667</ele><time>2026-04-03T11:48:20.056Z</time></trkpt><trkpt lat="43.2370534" lon="10.923617"><ele>437.0</ele><time>2026-04-03T11:48:21.05Z</time></trkpt><trkpt lat="43.2371118" lon="10.9236867"><ele>433.33333333333337</ele><time>2026-04-03T11:48:22.067Z</time></trkpt><trkpt lat="43.237165" lon="10.9237587"><ele>429.6666666666667</ele><time>2026-04-03T11:48:23.046Z</time></trkpt><trkpt lat="43.2372117" lon="10.9238317"><ele>426.0</ele><time>2026-04-03T11:48:24.049Z</time></trkpt><trkpt lat="43.2372573" lon="10.9238975"><ele>427.3333333333333</ele><time>2026-04-03T11:48:25.046Z</time></trkpt><trkpt lat="43.2373058" lon="10.9239665"><ele>428.66666666666663</ele><time>2026-04-03T11:48:26.05Z</time></trkpt><trkpt lat="43.2373546" lon="10.924035"><ele>430.0</ele><time>2026-04-03T11:48:27.048Z</time></trkpt><trkpt lat="43.2374146" lon="10.9241459"><ele>431.3333333333333</ele><time>2026-04-03T11:48:29.038Z</time></trkpt><trkpt lat="43.2374461" lon="10.9243091"><ele>432.66666666666663</ele><time>2026-04-03T11:48:31.042Z</time></trkpt><trkpt lat="43.2374657" lon="10.9243935"><ele>434.0</ele><time>2026-04-03T11:48:32.052Z</time></trkpt><trkpt lat="43.2374839" lon="10.924477"><ele>433.99999999999994</ele><time>2026-04-03T11:48:33.047Z</time></trkpt><trkpt lat="43.2374997" lon="10.9245663"><ele>434.0</ele><time>2026-04-03T11:48:34.043Z</time></trkpt><trkpt lat="43.2375134" lon="10.9246558"><ele>434.0</ele><time>2026-04-03T11:48:35.053Z</time></trkpt><trkpt lat="43.2375348" lon="10.9248208"><ele>434.0</ele><time>2026-04-03T11:48:37.047Z</time></trkpt><trkpt lat="43.2375552" lon="10.9249903"><ele>433.99999999999994</ele><time>2026-04-03T11:48:39.051Z</time></trkpt><trkpt lat="43.2375729" lon="10.9250772"><ele>434.0</ele><time>2026-04-03T11:48:40.049Z</time></trkpt><trkpt lat="43.2375901" lon="10.9251607"><ele>433.0</ele><time>2026-04-03T11:48:41.046Z</time></trkpt><trkpt lat="43.2376009" lon="10.9252498"><ele>432.0</ele><time>2026-04-03T11:48:42.047Z</time></trkpt><trkpt lat="43.2376261" lon="10.9254062"><ele>431.0</ele><time>2026-04-03T11:48:44.047Z</time></trkpt><trkpt lat="43.2376604" lon="10.9255533"><ele>430.0</ele><time>2026-04-03T11:48:46.043Z</time></trkpt><trkpt lat="43.2377006" lon="10.9256962"><ele>429.0</ele><time>2026-04-03T11:48:48.048Z</time></trkpt><trkpt lat="43.2377746" lon="10.9258432"><ele>428.4</ele><time>2026-04-03T11:48:50.051Z</time></trkpt><trkpt lat="43.237837" lon="10.925983"><ele>427.79999999999995</ele><time>2026-04-03T11:48:52.07Z</time></trkpt><trkpt lat="43.2378661" lon="10.9261286"><ele>427.20000000000005</ele><time>2026-04-03T11:48:54.05Z</time></trkpt><trkpt lat="43.2379007" lon="10.9262523"><ele>426.6</ele><time>2026-04-03T11:48:56.054Z</time></trkpt><trkpt lat="43.2379111" lon="10.9263488"><ele>426.0</ele><time>2026-04-03T11:48:58.054Z</time></trkpt><trkpt lat="43.2379113" lon="10.9264513"><ele>426.0</ele><time>2026-04-03T11:49:00.092Z</time></trkpt><trkpt lat="43.2378483" lon="10.9265554"><ele>426.0</ele><time>2026-04-03T11:49:01.969Z</time></trkpt><trkpt lat="43.237756" lon="10.926599"><ele>426.0</ele><time>2026-04-03T11:49:04.052Z</time></trkpt><trkpt lat="43.2376704" lon="10.9265713"><ele>426.0</ele><time>2026-04-03T11:49:08.132Z</time></trkpt><trkpt lat="43.2376035" lon="10.9265513"><ele>426.0</ele><time>2026-04-03T11:49:13.051Z</time></trkpt><trkpt lat="43.2376668" lon="10.9265637"><ele>426.0</ele><time>2026-04-03T11:49:31.049Z</time></trkpt><trkpt lat="43.2376813" lon="10.9266854"><ele>424.6666666666667</ele><time>2026-04-03T11:50:22.048Z</time></trkpt><trkpt lat="43.2376215" lon="10.9267519"><ele>423.33333333333337</ele><time>2026-04-03T11:50:23.049Z</time></trkpt><trkpt lat="43.2375993" lon="10.9268529"><ele>422.0</ele><time>2026-04-03T11:50:25.046Z</time></trkpt><trkpt lat="43.2376102" lon="10.9269533"><ele>420.6666666666667</ele><time>2026-04-03T11:50:26.043Z</time></trkpt><trkpt lat="43.2377032" lon="10.9270729"><ele>419.33333333333337</ele><time>2026-04-03T11:50:29.039Z</time></trkpt><trkpt lat="43.2377593" lon="10.9271285"><ele>418.0</ele><time>2026-04-03T11:50:30.058Z</time></trkpt><trkpt lat="43.2378504" lon="10.9272017"><ele>418.0</ele><time>2026-04-03T11:50:32.054Z</time></trkpt><trkpt lat="43.2379352" lon="10.9272617"><ele>418.0</ele><time>2026-04-03T11:50:34.048Z</time></trkpt><trkpt lat="43.2380398" lon="10.9272932"><ele>418.0</ele><time>2026-04-03T11:50:36.047Z</time></trkpt><trkpt lat="43.2381521" lon="10.9273466"><ele>418.0</ele><time>2026-04-03T11:50:38.051Z</time></trkpt><trkpt lat="43.2382626" lon="10.9273947"><ele>418.0</ele><time>2026-04-03T11:50:40.049Z</time></trkpt><trkpt lat="43.2383568" lon="10.9274566"><ele>418.0</ele><time>2026-04-03T11:50:42.053Z</time></trkpt><trkpt lat="43.2384323" lon="10.9275603"><ele>418.0</ele><time>2026-04-03T11:50:44.062Z</time></trkpt><trkpt lat="43.2384816" lon="10.9276579"><ele>418.0</ele><time>2026-04-03T11:50:46.056Z</time></trkpt><trkpt lat="43.2385429" lon="10.9277641"><ele>418.0</ele><time>2026-04-03T11:50:48.057Z</time></trkpt><trkpt lat="43.2386177" lon="10.9278303"><ele>418.0</ele><time>2026-04-03T11:50:50.044Z</time></trkpt><trkpt lat="43.238696" lon="10.9278853"><ele>415.1666666666667</ele><time>2026-04-03T11:50:52.959Z</time></trkpt><trkpt lat="43.2387838" lon="10.9278588"><ele>412.33333333333337</ele><time>2026-04-03T11:50:55.056Z</time></trkpt><trkpt lat="43.2388776" lon="10.927814"><ele>409.5</ele><time>2026-04-03T11:50:57.045Z</time></trkpt><trkpt lat="43.2389431" lon="10.9278529"><ele>406.66666666666663</ele><time>2026-04-03T11:50:59.057Z</time></trkpt><trkpt lat="43.2389904" lon="10.9279327"><ele>403.8333333333333</ele><time>2026-04-03T11:51:01.096Z</time></trkpt><trkpt lat="43.2390511" lon="10.9280391"><ele>401.0</ele><time>2026-04-03T11:51:03.057Z</time></trkpt><trkpt lat="43.2391066" lon="10.9281519"><ele>400.99999999999994</ele><time>2026-04-03T11:51:05.041Z</time></trkpt><trkpt lat="43.2391342" lon="10.9282464"><ele>401.0</ele><time>2026-04-03T11:51:07.063Z</time></trkpt><trkpt lat="43.2391268" lon="10.9283533"><ele>401.0</ele><time>2026-04-03T11:51:09.042Z</time></trkpt><trkpt lat="43.2391349" lon="10.9284739"><ele>401.0</ele><time>2026-04-03T11:51:11.037Z</time></trkpt><trkpt lat="43.2392171" lon="10.9285469"><ele>400.99999999999994</ele><time>2026-04-03T11:51:14.08Z</time></trkpt><trkpt lat="43.2393071" lon="10.9285038"><ele>401.0</ele><time>2026-04-03T11:51:16.007Z</time></trkpt><trkpt lat="43.2394326" lon="10.9286391"><ele>398.8333333333333</ele><time>2026-04-03T11:51:19.045Z</time></trkpt><trkpt lat="43.2394901" lon="10.9287056"><ele>396.66666666666663</ele><time>2026-04-03T11:51:20.039Z</time></trkpt><trkpt lat="43.2395617" lon="10.9287584"><ele>394.5</ele><time>2026-04-03T11:51:21.05Z</time></trkpt><trkpt lat="43.2396228" lon="10.9287986"><ele>392.33333333333337</ele><time>2026-04-03T11:51:22.038Z</time></trkpt><trkpt lat="43.2397244" lon="10.9288521"><ele>390.1666666666667</ele><time>2026-04-03T11:51:24.035Z</time></trkpt><trkpt lat="43.2398002" lon="10.9288693"><ele>388.0</ele><time>2026-04-03T11:51:26.044Z</time></trkpt><trkpt lat="43.2398662" lon="10.9289362"><ele>388.00000000000006</ele><time>2026-04-03T11:51:28.047Z</time></trkpt><trkpt lat="43.2399206" lon="10.9290178"><ele>388.0</ele><time>2026-04-03T11:51:30.044Z</time></trkpt><trkpt lat="43.2399818" lon="10.92912"><ele>388.0</ele><time>2026-04-03T11:51:32.046Z</time></trkpt><trkpt lat="43.2400376" lon="10.9292113"><ele>388.0</ele><time>2026-04-03T11:51:35.038Z</time></trkpt><trkpt lat="43.2401006" lon="10.9292478"><ele>388.00000000000006</ele><time>2026-04-03T11:51:37.079Z</time></trkpt><trkpt lat="43.2402077" lon="10.9292646"><ele>388.0</ele><time>2026-04-03T11:51:39.044Z</time></trkpt><trkpt lat="43.2402784" lon="10.9292693"><ele>385.83333333333337</ele><time>2026-04-03T11:51:40.042Z</time></trkpt><trkpt lat="43.2403649" lon="10.9292811"><ele>383.6666666666667</ele><time>2026-04-03T11:51:42.044Z</time></trkpt><trkpt lat="43.240433" lon="10.9292944"><ele>381.5</ele><time>2026-04-03T11:51:44.047Z</time></trkpt><trkpt lat="43.2405212" lon="10.9292794"><ele>379.33333333333337</ele><time>2026-04-03T11:51:46.049Z</time></trkpt><trkpt lat="43.2405879" lon="10.9292988"><ele>377.1666666666667</ele><time>2026-04-03T11:51:48.049Z</time></trkpt><trkpt lat="43.2406919" lon="10.929311"><ele>375.0</ele><time>2026-04-03T11:51:50.049Z</time></trkpt><trkpt lat="43.240779" lon="10.9293973"><ele>375.0</ele><time>2026-04-03T11:51:52.046Z</time></trkpt><trkpt lat="43.240827" lon="10.9294709"><ele>375.0</ele><time>2026-04-03T11:51:53.052Z</time></trkpt><trkpt lat="43.2409114" lon="10.9295727"><ele>375.0</ele><time>2026-04-03T11:51:55.042Z</time></trkpt><trkpt lat="43.2409737" lon="10.9296165"><ele>375.0</ele><time>2026-04-03T11:51:56.056Z</time></trkpt><trkpt lat="43.2410326" lon="10.929656"><ele>375.0</ele><time>2026-04-03T11:51:57.044Z</time></trkpt><trkpt lat="43.241129" lon="10.929695"><ele>375.0</ele><time>2026-04-03T11:51:59.049Z</time></trkpt><trkpt lat="43.2412333" lon="10.9297084"><ele>375.0</ele><time>2026-04-03T11:52:01.043Z</time></trkpt><trkpt lat="43.2413339" lon="10.9297156"><ele>375.0</ele><time>2026-04-03T11:52:03.054Z</time></trkpt><trkpt lat="43.2414164" lon="10.9297277"><ele>375.0</ele><time>2026-04-03T11:52:05.051Z</time></trkpt><trkpt lat="43.2415235" lon="10.9297332"><ele>375.0</ele><time>2026-04-03T11:52:07.048Z</time></trkpt><trkpt lat="43.241612" lon="10.9297526"><ele>375.0</ele><time>2026-04-03T11:52:09.057Z</time></trkpt><trkpt lat="43.241692" lon="10.92982"><ele>374.0</ele><time>2026-04-03T11:52:11.051Z</time></trkpt><trkpt lat="43.2418008" lon="10.9298964"><ele>373.0</ele><time>2026-04-03T11:52:13.05Z</time></trkpt><trkpt lat="43.2418666" lon="10.9299387"><ele>372.0</ele><time>2026-04-03T11:52:14.051Z</time></trkpt><trkpt lat="43.2419275" lon="10.9299686"><ele>371.0</ele><time>2026-04-03T11:52:15.046Z</time></trkpt><trkpt lat="43.2420425" lon="10.9299969"><ele>370.0</ele><time>2026-04-03T11:52:17.055Z</time></trkpt><trkpt lat="43.2421388" lon="10.9299623"><ele>370.0</ele><time>2026-04-03T11:52:19.043Z</time></trkpt><trkpt lat="43.2422227" lon="10.929976"><ele>370.0</ele><time>2026-04-03T11:52:22.071Z</time></trkpt><trkpt lat="43.2423102" lon="10.9299104"><ele>370.0</ele><time>2026-04-03T11:52:23.053Z</time></trkpt><trkpt lat="43.2423759" lon="10.929858"><ele>370.0</ele><time>2026-04-03T11:52:24.046Z</time></trkpt><trkpt lat="43.2424338" lon="10.9298138"><ele>370.0</ele><time>2026-04-03T11:52:25.053Z</time></trkpt><trkpt lat="43.2425439" lon="10.9297632"><ele>370.0</ele><time>2026-04-03T11:52:27.054Z</time></trkpt><trkpt lat="43.2426688" lon="10.9297578"><ele>368.0</ele><time>2026-04-03T11:52:29.063Z</time></trkpt><trkpt lat="43.2427354" lon="10.9297519"><ele>366.0</ele><time>2026-04-03T11:52:30.044Z</time></trkpt><trkpt lat="43.2428493" lon="10.929708"><ele>364.0</ele><time>2026-04-03T11:52:32.042Z</time></trkpt><trkpt lat="43.2429541" lon="10.9296733"><ele>362.0</ele><time>2026-04-03T11:52:34.061Z</time></trkpt><trkpt lat="43.243071" lon="10.9297099"><ele>360.0</ele><time>2026-04-03T11:52:36.039Z</time></trkpt><trkpt lat="43.2431363" lon="10.9297442"><ele>359.8333333333333</ele><time>2026-04-03T11:52:37.056Z</time></trkpt><trkpt lat="43.2431945" lon="10.9297799"><ele>359.6666666666667</ele><time>2026-04-03T11:52:38.056Z</time></trkpt><trkpt lat="43.243278" lon="10.929815"><ele>359.5</ele><time>2026-04-03T11:52:40.045Z</time></trkpt><trkpt lat="43.2433419" lon="10.9297661"><ele>359.33333333333337</ele><time>2026-04-03T11:52:42.057Z</time></trkpt><trkpt lat="43.2433707" lon="10.9296722"><ele>359.1666666666667</ele><time>2026-04-03T11:52:44.05Z</time></trkpt><trkpt lat="43.2433955" lon="10.9295097"><ele>359.0</ele><time>2026-04-03T11:52:46.055Z</time></trkpt><trkpt lat="43.2434361" lon="10.9293525"><ele>361.0</ele><time>2026-04-03T11:52:48.044Z</time></trkpt><trkpt lat="43.2434883" lon="10.9291984"><ele>363.0</ele><time>2026-04-03T11:52:50.046Z</time></trkpt><trkpt lat="43.2435451" lon="10.92904"><ele>365.0</ele><time>2026-04-03T11:52:52.055Z</time></trkpt><trkpt lat="43.2435786" lon="10.9289615"><ele>367.0</ele><time>2026-04-03T11:52:53.052Z</time></trkpt><trkpt lat="43.2436115" lon="10.9288863"><ele>369.0</ele><time>2026-04-03T11:52:54.039Z</time></trkpt><trkpt lat="43.2436492" lon="10.9288095"><ele>369.0</ele><time>2026-04-03T11:52:55.046Z</time></trkpt><trkpt lat="43.2436907" lon="10.9287355"><ele>369.0</ele><time>2026-04-03T11:52:56.043Z</time></trkpt><trkpt lat="43.243732" lon="10.9286623"><ele>369.0</ele><time>2026-04-03T11:52:57.047Z</time></trkpt><trkpt lat="43.243784" lon="10.928574"><ele>369.0</ele><time>2026-04-03T11:52:58.051Z</time></trkpt><trkpt lat="43.2438353" lon="10.9284837"><ele>369.0</ele><time>2026-04-03T11:52:59.051Z</time></trkpt><trkpt lat="43.2438737" lon="10.9283975"><ele>369.0</ele><time>2026-04-03T11:53:00.047Z</time></trkpt><trkpt lat="43.2439126" lon="10.9282583"><ele>368.6</ele><time>2026-04-03T11:53:02.047Z</time></trkpt><trkpt lat="43.2439271" lon="10.9281435"><ele>368.2</ele><time>2026-04-03T11:53:04.042Z</time></trkpt><trkpt lat="43.2439614" lon="10.927997"><ele>367.8</ele><time>2026-04-03T11:53:06.05Z</time></trkpt><trkpt lat="43.2439833" lon="10.9279077"><ele>367.40000000000003</ele><time>2026-04-03T11:53:07.046Z</time></trkpt><trkpt lat="43.2440175" lon="10.9277688"><ele>367.0</ele><time>2026-04-03T11:53:09.045Z</time></trkpt><trkpt lat="43.2440538" lon="10.9276247"><ele>367.5</ele><time>2026-04-03T11:53:13.045Z</time></trkpt><trkpt lat="43.2440711" lon="10.9275177"><ele>368.0</ele><time>2026-04-03T11:53:15.085Z</time></trkpt><trkpt lat="43.2440772" lon="10.9274255"><ele>368.5</ele><time>2026-04-03T11:53:17.971Z</time></trkpt><trkpt lat="43.244113" lon="10.9272947"><ele>369.0</ele><time>2026-04-03T11:53:21.046Z</time></trkpt><trkpt lat="43.2441454" lon="10.9271376"><ele>369.5</ele><time>2026-04-03T11:53:23.051Z</time></trkpt><trkpt lat="43.2441634" lon="10.9270506"><ele>370.0</ele><time>2026-04-03T11:53:24.043Z</time></trkpt><trkpt lat="43.2441842" lon="10.9269629"><ele>369.99999999999994</ele><time>2026-04-03T11:53:25.05Z</time></trkpt><trkpt lat="43.2442112" lon="10.9268704"><ele>370.0</ele><time>2026-04-03T11:53:26.047Z</time></trkpt><trkpt lat="43.2442393" lon="10.9267661"><ele>370.0</ele><time>2026-04-03T11:53:27.053Z</time></trkpt><trkpt lat="43.2442694" lon="10.9266622"><ele>370.0</ele><time>2026-04-03T11:53:28.058Z</time></trkpt><trkpt lat="43.2443032" lon="10.9265677"><ele>370.0</ele><time>2026-04-03T11:53:29.039Z</time></trkpt><trkpt lat="43.2443345" lon="10.9264827"><ele>369.99999999999994</ele><time>2026-04-03T11:53:30.047Z</time></trkpt><trkpt lat="43.2443569" lon="10.9263992"><ele>370.0</ele><time>2026-04-03T11:53:31.045Z</time></trkpt><trkpt lat="43.2443771" lon="10.9263172"><ele>371.1428571428571</ele><time>2026-04-03T11:53:32.048Z</time></trkpt><trkpt lat="43.2444069" lon="10.9262343"><ele>372.2857142857143</ele><time>2026-04-03T11:53:33.054Z</time></trkpt><trkpt lat="43.2444375" lon="10.9261548"><ele>373.42857142857144</ele><time>2026-04-03T11:53:34.044Z</time></trkpt><trkpt lat="43.2444812" lon="10.9260819"><ele>374.57142857142856</ele><time>2026-04-03T11:53:35.05Z</time></trkpt><trkpt lat="43.2445267" lon="10.9260088"><ele>375.7142857142857</ele><time>2026-04-03T11:53:36.041Z</time></trkpt><trkpt lat="43.2445666" lon="10.9259402"><ele>376.85714285714283</ele><time>2026-04-03T11:53:37.045Z</time></trkpt><trkpt lat="43.2446267" lon="10.9258327"><ele>378.0</ele><time>2026-04-03T11:53:39.043Z</time></trkpt><trkpt lat="43.2447027" lon="10.9257216"><ele>378.8333333333333</ele><time>2026-04-03T11:53:41.044Z</time></trkpt><trkpt lat="43.2448051" lon="10.9256091"><ele>379.6666666666667</ele><time>2026-04-03T11:53:43.041Z</time></trkpt><trkpt lat="43.2448578" lon="10.9255244"><ele>380.5</ele><time>2026-04-03T11:53:44.037Z</time></trkpt><trkpt lat="43.2449077" lon="10.9254423"><ele>381.33333333333337</ele><time>2026-04-03T11:53:45.049Z</time></trkpt><trkpt lat="43.2449543" lon="10.9253635"><ele>382.1666666666667</ele><time>2026-04-03T11:53:46.051Z</time></trkpt><trkpt lat="43.2450008" lon="10.9252832"><ele>383.0</ele><time>2026-04-03T11:53:47.052Z</time></trkpt><trkpt lat="43.2450379" lon="10.9252127"><ele>383.0</ele><time>2026-04-03T11:53:48.041Z</time></trkpt><trkpt lat="43.2450983" lon="10.9250911"><ele>383.0</ele><time>2026-04-03T11:53:50.056Z</time></trkpt><trkpt lat="43.2451658" lon="10.9250102"><ele>383.0</ele><time>2026-04-03T11:53:52.046Z</time></trkpt><trkpt lat="43.2452295" lon="10.9249402"><ele>383.0</ele><time>2026-04-03T11:53:54.057Z</time></trkpt><trkpt lat="43.2452805" lon="10.9248565"><ele>383.0</ele><time>2026-04-03T11:53:56.064Z</time></trkpt><trkpt lat="43.2453227" lon="10.9247357"><ele>385.2</ele><time>2026-04-03T11:53:58.045Z</time></trkpt><trkpt lat="43.2453358" lon="10.9245586"><ele>387.4</ele><time>2026-04-03T11:54:00.05Z</time></trkpt><trkpt lat="43.2453315" lon="10.9243913"><ele>389.59999999999997</ele><time>2026-04-03T11:54:02.038Z</time></trkpt><trkpt lat="43.2453539" lon="10.9243081"><ele>391.79999999999995</ele><time>2026-04-03T11:54:03.04Z</time></trkpt><trkpt lat="43.245397" lon="10.9242343"><ele>394.0</ele><time>2026-04-03T11:54:04.056Z</time></trkpt><trkpt lat="43.2454716" lon="10.9241212"><ele>394.83333333333337</ele><time>2026-04-03T11:54:06.042Z</time></trkpt><trkpt lat="43.2455798" lon="10.9240488"><ele>395.6666666666667</ele><time>2026-04-03T11:54:08.053Z</time></trkpt><trkpt lat="43.2456504" lon="10.9240138"><ele>396.5</ele><time>2026-04-03T11:54:09.049Z</time></trkpt><trkpt lat="43.2457283" lon="10.9239711"><ele>397.33333333333337</ele><time>2026-04-03T11:54:10.043Z</time></trkpt><trkpt lat="43.2458038" lon="10.9239145"><ele>398.1666666666667</ele><time>2026-04-03T11:54:11.053Z</time></trkpt><trkpt lat="43.2458764" lon="10.9238565"><ele>399.0</ele><time>2026-04-03T11:54:12.043Z</time></trkpt><trkpt lat="43.245943" lon="10.9238039"><ele>399.0</ele><time>2026-04-03T11:54:13.049Z</time></trkpt><trkpt lat="43.2460131" lon="10.923757"><ele>399.0</ele><time>2026-04-03T11:54:14.051Z</time></trkpt><trkpt lat="43.246088" lon="10.923734"><ele>399.0</ele><time>2026-04-03T11:54:15.055Z</time></trkpt><trkpt lat="43.2461545" lon="10.923729"><ele>399.0</ele><time>2026-04-03T11:54:16.04Z</time></trkpt><trkpt lat="43.2462189" lon="10.923736"><ele>399.0</ele><time>2026-04-03T11:54:17.049Z</time></trkpt><trkpt lat="43.246279" lon="10.9237693"><ele>399.0</ele><time>2026-04-03T11:54:18.044Z</time></trkpt><trkpt lat="43.2463663" lon="10.9238501"><ele>399.0</ele><time>2026-04-03T11:54:20.058Z</time></trkpt><trkpt lat="43.2464356" lon="10.9238989"><ele>399.0</ele><time>2026-04-03T11:54:24.046Z</time></trkpt><trkpt lat="43.2465281" lon="10.9238162"><ele>399.0</ele><time>2026-04-03T11:54:28.019Z</time></trkpt><trkpt lat="43.2465967" lon="10.923726"><ele>399.0</ele><time>2026-04-03T11:54:29.046Z</time></trkpt><trkpt lat="43.2466705" lon="10.9236145"><ele>399.0</ele><time>2026-04-03T11:54:31.041Z</time></trkpt><trkpt lat="43.2467147" lon="10.9235488"><ele>399.0</ele><time>2026-04-03T11:54:32.038Z</time></trkpt><trkpt lat="43.2467589" lon="10.9234872"><ele>399.0</ele><time>2026-04-03T11:54:33.042Z</time></trkpt><trkpt lat="43.2468224" lon="10.9233849"><ele>399.0</ele><time>2026-04-03T11:54:35.049Z</time></trkpt><trkpt lat="43.2468697" lon="10.923273"><ele>399.0</ele><time>2026-04-03T11:54:37.05Z</time></trkpt><trkpt lat="43.2469041" lon="10.9231149"><ele>399.0</ele><time>2026-04-03T11:54:39.047Z</time></trkpt><trkpt lat="43.2469348" lon="10.9229653"><ele>401.0</ele><time>2026-04-03T11:54:41.045Z</time></trkpt><trkpt lat="43.2469475" lon="10.9228798"><ele>403.0</ele><time>2026-04-03T11:54:42.05Z</time></trkpt><trkpt lat="43.246972" lon="10.9227179"><ele>405.0</ele><time>2026-04-03T11:54:44.049Z</time></trkpt><trkpt lat="43.2469815" lon="10.922584"><ele>407.0</ele><time>2026-04-03T11:54:46.053Z</time></trkpt><trkpt lat="43.2469443" lon="10.9226859"><ele>409.0</ele><time>2026-04-03T11:55:06.161Z</time></trkpt><trkpt lat="43.2469265" lon="10.9228879"><ele>409.00000000000006</ele><time>2026-04-03T11:55:08.039Z</time></trkpt><trkpt lat="43.2469038" lon="10.9230364"><ele>409.0</ele><time>2026-04-03T11:55:10.042Z</time></trkpt><trkpt lat="43.2468787" lon="10.9231533"><ele>409.0</ele><time>2026-04-03T11:55:12.058Z</time></trkpt><trkpt lat="43.2468547" lon="10.9232561"><ele>409.0</ele><time>2026-04-03T11:55:14.042Z</time></trkpt><trkpt lat="43.2468303" lon="10.9233481"><ele>409.00000000000006</ele><time>2026-04-03T11:55:16.057Z</time></trkpt><trkpt lat="43.2467788" lon="10.9234498"><ele>409.0</ele><time>2026-04-03T11:55:19.127Z</time></trkpt><trkpt lat="43.2467304" lon="10.9235548"><ele>407.33333333333337</ele><time>2026-04-03T11:55:21.039Z</time></trkpt><trkpt lat="43.246651" lon="10.92366"><ele>405.6666666666667</ele><time>2026-04-03T11:55:23.052Z</time></trkpt><trkpt lat="43.246589" lon="10.9237459"><ele>404.0</ele><time>2026-04-03T11:55:25.041Z</time></trkpt><trkpt lat="43.2465368" lon="10.9238268"><ele>402.33333333333337</ele><time>2026-04-03T11:55:27.055Z</time></trkpt><trkpt lat="43.246499" lon="10.9239183"><ele>400.6666666666667</ele><time>2026-04-03T11:55:30.043Z</time></trkpt><trkpt lat="43.246548" lon="10.9240079"><ele>399.0</ele><time>2026-04-03T11:55:33.081Z</time></trkpt><trkpt lat="43.2466456" lon="10.9240755"><ele>399.0</ele><time>2026-04-03T11:55:35.059Z</time></trkpt><trkpt lat="43.246713" lon="10.9241116"><ele>399.0</ele><time>2026-04-03T11:55:36.947Z</time></trkpt><trkpt lat="43.2467805" lon="10.924153"><ele>399.0</ele><time>2026-04-03T11:55:39.108Z</time></trkpt><trkpt lat="43.2468545" lon="10.9241805"><ele>399.0</ele><time>2026-04-03T11:55:41.086Z</time></trkpt><trkpt lat="43.2469379" lon="10.9242006"><ele>399.0</ele><time>2026-04-03T11:55:43.045Z</time></trkpt><trkpt lat="43.2470211" lon="10.9242267"><ele>399.0</ele><time>2026-04-03T11:55:45.006Z</time></trkpt><trkpt lat="43.2471101" lon="10.9242473"><ele>397.79999999999995</ele><time>2026-04-03T11:55:47.08Z</time></trkpt><trkpt lat="43.2472099" lon="10.9242606"><ele>396.59999999999997</ele><time>2026-04-03T11:55:49.061Z</time></trkpt><trkpt lat="43.2473056" lon="10.9242843"><ele>395.4</ele><time>2026-04-03T11:55:51.05Z</time></trkpt><trkpt lat="43.2473904" lon="10.9243504"><ele>394.2</ele><time>2026-04-03T11:55:53.054Z</time></trkpt><trkpt lat="43.2474713" lon="10.9244243"><ele>393.0</ele><time>2026-04-03T11:55:55.059Z</time></trkpt><trkpt lat="43.2475473" lon="10.9245072"><ele>392.8333333333333</ele><time>2026-04-03T11:55:57.058Z</time></trkpt><trkpt lat="43.2475969" lon="10.9246112"><ele>392.66666666666663</ele><time>2026-04-03T11:55:59.047Z</time></trkpt><trkpt lat="43.2476292" lon="10.9247203"><ele>392.5</ele><time>2026-04-03T11:56:01.043Z</time></trkpt><trkpt lat="43.247622" lon="10.9248206"><ele>392.3333333333333</ele><time>2026-04-03T11:56:03.054Z</time></trkpt><trkpt lat="43.2476133" lon="10.9249391"><ele>392.16666666666663</ele><time>2026-04-03T11:56:06.041Z</time></trkpt><trkpt lat="43.2476628" lon="10.925016"><ele>392.0</ele><time>2026-04-03T11:56:08.063Z</time></trkpt><trkpt lat="43.2477279" lon="10.9251122"><ele>391.99999999999994</ele><time>2026-04-03T11:56:11.053Z</time></trkpt><trkpt lat="43.2478016" lon="10.9251428"><ele>392.0</ele><time>2026-04-03T11:56:12.929Z</time></trkpt><trkpt lat="43.2478776" lon="10.925125"><ele>392.0</ele><time>2026-04-03T11:56:15.053Z</time></trkpt><trkpt lat="43.2479494" lon="10.9250879"><ele>392.0</ele><time>2026-04-03T11:56:16.969Z</time></trkpt><trkpt lat="43.2480174" lon="10.9250489"><ele>391.99999999999994</ele><time>2026-04-03T11:56:19.039Z</time></trkpt><trkpt lat="43.248072" lon="10.9249851"><ele>392.0</ele><time>2026-04-03T11:56:23.093Z</time></trkpt><trkpt lat="43.2478342" lon="10.9249368"><ele>391.6</ele><time>2026-04-03T11:56:43.054Z</time></trkpt><trkpt lat="43.2477505" lon="10.9249072"><ele>391.20000000000005</ele><time>2026-04-03T11:56:44.045Z</time></trkpt><trkpt lat="43.247688" lon="10.924886"><ele>390.8</ele><time>2026-04-03T11:56:45.04Z</time></trkpt><trkpt lat="43.2475792" lon="10.9248451"><ele>390.4</ele><time>2026-04-03T11:56:47.039Z</time></trkpt><trkpt lat="43.2474793" lon="10.9247954"><ele>390.0</ele><time>2026-04-03T11:56:49.053Z</time></trkpt><trkpt lat="43.2473771" lon="10.924731"><ele>390.6</ele><time>2026-04-03T11:56:51.056Z</time></trkpt><trkpt lat="43.2472765" lon="10.9246605"><ele>391.2</ele><time>2026-04-03T11:56:53.044Z</time></trkpt><trkpt lat="43.2471722" lon="10.92459"><ele>391.79999999999995</ele><time>2026-04-03T11:56:55.053Z</time></trkpt><trkpt lat="43.2470809" lon="10.9245264"><ele>392.4</ele><time>2026-04-03T11:56:57.044Z</time></trkpt><trkpt lat="43.2469993" lon="10.9244402"><ele>393.0</ele><time>2026-04-03T11:56:59.049Z</time></trkpt><trkpt lat="43.2469223" lon="10.9243606"><ele>393.0</ele><time>2026-04-03T11:57:01.057Z</time></trkpt><trkpt lat="43.2468276" lon="10.9242992"><ele>393.0</ele><time>2026-04-03T11:57:03.051Z</time></trkpt><trkpt lat="43.2467324" lon="10.9242137"><ele>393.0</ele><time>2026-04-03T11:57:05.053Z</time></trkpt><trkpt lat="43.246655" lon="10.9241217"><ele>393.0</ele><time>2026-04-03T11:57:07.059Z</time></trkpt><trkpt lat="43.2465762" lon="10.9240367"><ele>393.0</ele><time>2026-04-03T11:57:09.045Z</time></trkpt><trkpt lat="43.2465029" lon="10.9239581"><ele>393.0</ele><time>2026-04-03T11:57:11.05Z</time></trkpt><trkpt lat="43.2464571" lon="10.9238835"><ele>393.0</ele><time>2026-04-03T11:57:15.06Z</time></trkpt><trkpt lat="43.2463964" lon="10.9239306"><ele>393.0</ele><time>2026-04-03T11:57:18.076Z</time></trkpt><trkpt lat="43.2464161" lon="10.9240232"><ele>393.0</ele><time>2026-04-03T11:57:20.058Z</time></trkpt><trkpt lat="43.2464976" lon="10.9241661"><ele>393.0</ele><time>2026-04-03T11:57:41.058Z</time></trkpt><trkpt lat="43.2465612" lon="10.9242694"><ele>393.0</ele><time>2026-04-03T11:57:42.047Z</time></trkpt><trkpt lat="43.2466478" lon="10.9244088"><ele>393.0</ele><time>2026-04-03T11:57:45.039Z</time></trkpt><trkpt lat="43.2467005" lon="10.9245078"><ele>393.0</ele><time>2026-04-03T11:57:46.041Z</time></trkpt><trkpt lat="43.2467362" lon="10.9245818"><ele>393.0</ele><time>2026-04-03T11:57:47.042Z</time></trkpt><trkpt lat="43.2467964" lon="10.9246862"><ele>393.0</ele><time>2026-04-03T11:57:49.042Z</time></trkpt><trkpt lat="43.2468582" lon="10.9247871"><ele>393.0</ele><time>2026-04-03T11:57:51.046Z</time></trkpt><trkpt lat="43.2469343" lon="10.9248876"><ele>393.0</ele><time>2026-04-03T11:57:53.042Z</time></trkpt><trkpt lat="43.2470228" lon="10.9249647"><ele>393.0</ele><time>2026-04-03T11:57:55.057Z</time></trkpt><trkpt lat="43.247122" lon="10.9250499"><ele>393.0</ele><time>2026-04-03T11:57:59.223Z</time></trkpt><trkpt lat="43.2472027" lon="10.925112"><ele>393.0</ele><time>2026-04-03T11:58:02.049Z</time></trkpt><trkpt lat="43.2472433" lon="10.9251953"><ele>393.0</ele><time>2026-04-03T11:58:04.012Z</time></trkpt><trkpt lat="43.2472956" lon="10.9253319"><ele>392.8333333333333</ele><time>2026-04-03T11:58:06.046Z</time></trkpt><trkpt lat="43.2473444" lon="10.9254218"><ele>392.66666666666663</ele><time>2026-04-03T11:58:08.049Z</time></trkpt><trkpt lat="43.2474148" lon="10.925518"><ele>392.5</ele><time>2026-04-03T11:58:10.057Z</time></trkpt><trkpt lat="43.2474675" lon="10.9256011"><ele>392.3333333333333</ele><time>2026-04-03T11:58:12.044Z</time></trkpt><trkpt lat="43.2475086" lon="10.9256913"><ele>392.16666666666663</ele><time>2026-04-03T11:58:15.077Z</time></trkpt><trkpt lat="43.2475616" lon="10.9258022"><ele>392.0</ele><time>2026-04-03T11:58:17.116Z</time></trkpt><trkpt lat="43.2475956" lon="10.9258822"><ele>391.6</ele><time>2026-04-03T11:58:19.117Z</time></trkpt><trkpt lat="43.2476347" lon="10.9260123"><ele>391.20000000000005</ele><time>2026-04-03T11:58:21.048Z</time></trkpt><trkpt lat="43.2476933" lon="10.9261298"><ele>390.8</ele><time>2026-04-03T11:58:23.048Z</time></trkpt><trkpt lat="43.2477353" lon="10.926253"><ele>390.4</ele><time>2026-04-03T11:58:25.052Z</time></trkpt><trkpt lat="43.2477892" lon="10.92639"><ele>390.0</ele><time>2026-04-03T11:58:27.05Z</time></trkpt><trkpt lat="43.2478365" lon="10.9265377"><ele>390.0</ele><time>2026-04-03T11:58:29.049Z</time></trkpt><trkpt lat="43.2478656" lon="10.9266651"><ele>390.0</ele><time>2026-04-03T11:58:31.052Z</time></trkpt><trkpt lat="43.2479097" lon="10.926807"><ele>390.0</ele><time>2026-04-03T11:58:34.048Z</time></trkpt><trkpt lat="43.2479636" lon="10.9269339"><ele>390.0</ele><time>2026-04-03T11:58:36.048Z</time></trkpt><trkpt lat="43.2480152" lon="10.9270529"><ele>390.0</ele><time>2026-04-03T11:58:38.059Z</time></trkpt><trkpt lat="43.2480724" lon="10.9271493"><ele>388.0</ele><time>2026-04-03T11:58:40.044Z</time></trkpt><trkpt lat="43.2481301" lon="10.9272498"><ele>386.0</ele><time>2026-04-03T11:58:42.048Z</time></trkpt><trkpt lat="43.2481942" lon="10.9273563"><ele>384.0</ele><time>2026-04-03T11:58:44.044Z</time></trkpt><trkpt lat="43.2482511" lon="10.9274154"><ele>382.0</ele><time>2026-04-03T11:58:46.043Z</time></trkpt><trkpt lat="43.2483271" lon="10.927442"><ele>380.0</ele><time>2026-04-03T11:58:47.047Z</time></trkpt><trkpt lat="43.248397" lon="10.9274287"><ele>378.0</ele><time>2026-04-03T11:58:49.042Z</time></trkpt><trkpt lat="43.2484608" lon="10.9274648"><ele>376.3333333333333</ele><time>2026-04-03T11:58:52.047Z</time></trkpt><trkpt lat="43.2484688" lon="10.9275739"><ele>374.6666666666667</ele><time>2026-04-03T11:58:55.053Z</time></trkpt><trkpt lat="43.2484286" lon="10.9276701"><ele>373.0</ele><time>2026-04-03T11:58:57.112Z</time></trkpt><trkpt lat="43.248421" lon="10.9277737"><ele>371.33333333333337</ele><time>2026-04-03T11:58:59.099Z</time></trkpt><trkpt lat="43.2484977" lon="10.9278748"><ele>369.6666666666667</ele><time>2026-04-03T11:59:01.036Z</time></trkpt><trkpt lat="43.2485503" lon="10.9279276"><ele>368.0</ele><time>2026-04-03T11:59:02.045Z</time></trkpt><trkpt lat="43.2486383" lon="10.9280148"><ele>368.0</ele><time>2026-04-03T11:59:04.046Z</time></trkpt><trkpt lat="43.2487165" lon="10.9280847"><ele>368.0</ele><time>2026-04-03T11:59:06.053Z</time></trkpt><trkpt lat="43.2488127" lon="10.9281598"><ele>368.0</ele><time>2026-04-03T11:59:08.038Z</time></trkpt><trkpt lat="43.2489095" lon="10.9282137"><ele>368.0</ele><time>2026-04-03T11:59:10.049Z</time></trkpt><trkpt lat="43.249021" lon="10.9282646"><ele>368.0</ele><time>2026-04-03T11:59:12.047Z</time></trkpt><trkpt lat="43.2491256" lon="10.9283031"><ele>366.83333333333337</ele><time>2026-04-03T11:59:14.049Z</time></trkpt><trkpt lat="43.2492396" lon="10.928365"><ele>365.6666666666667</ele><time>2026-04-03T11:59:16.056Z</time></trkpt><trkpt lat="43.2493091" lon="10.9284127"><ele>364.5</ele><time>2026-04-03T11:59:17.041Z</time></trkpt><trkpt lat="43.2493813" lon="10.9284662"><ele>363.3333333333333</ele><time>2026-04-03T11:59:18.047Z</time></trkpt><trkpt lat="43.249449" lon="10.9285204"><ele>362.16666666666663</ele><time>2026-04-03T11:59:19.048Z</time></trkpt><trkpt lat="43.2495171" lon="10.9285728"><ele>361.0</ele><time>2026-04-03T11:59:20.043Z</time></trkpt><trkpt lat="43.2495831" lon="10.9286212"><ele>360.16666666666663</ele><time>2026-04-03T11:59:21.043Z</time></trkpt><trkpt lat="43.2496444" lon="10.9286705"><ele>359.3333333333333</ele><time>2026-04-03T11:59:22.044Z</time></trkpt><trkpt lat="43.2497068" lon="10.9287164"><ele>358.5</ele><time>2026-04-03T11:59:23.04Z</time></trkpt><trkpt lat="43.2498035" lon="10.9287813"><ele>357.6666666666667</ele><time>2026-04-03T11:59:25.053Z</time></trkpt><trkpt lat="43.2499033" lon="10.9288341"><ele>356.83333333333337</ele><time>2026-04-03T11:59:27.044Z</time></trkpt><trkpt lat="43.2499745" lon="10.9288584"><ele>356.0</ele><time>2026-04-03T11:59:28.047Z</time></trkpt><trkpt lat="43.2500498" lon="10.9288827"><ele>355.99999999999994</ele><time>2026-04-03T11:59:29.04Z</time></trkpt><trkpt lat="43.2501167" lon="10.9289062"><ele>356.0</ele><time>2026-04-03T11:59:30.043Z</time></trkpt><trkpt lat="43.2501783" lon="10.9289265"><ele>356.0</ele><time>2026-04-03T11:59:31.044Z</time></trkpt><trkpt lat="43.2502414" lon="10.9289409"><ele>356.0</ele><time>2026-04-03T11:59:32.05Z</time></trkpt><trkpt lat="43.2503117" lon="10.928939"><ele>356.0</ele><time>2026-04-03T11:59:33.043Z</time></trkpt><trkpt lat="43.2503922" lon="10.9289342"><ele>355.99999999999994</ele><time>2026-04-03T11:59:34.038Z</time></trkpt><trkpt lat="43.2504649" lon="10.928954"><ele>356.0</ele><time>2026-04-03T11:59:35.049Z</time></trkpt><trkpt lat="43.2505505" lon="10.9290222"><ele>355.99999999999994</ele><time>2026-04-03T11:59:37.04Z</time></trkpt><trkpt lat="43.2505599" lon="10.9291196"><ele>356.0</ele><time>2026-04-03T11:59:39.047Z</time></trkpt><trkpt lat="43.2504894" lon="10.9291902"><ele>356.0</ele><time>2026-04-03T11:59:42.053Z</time></trkpt><trkpt lat="43.2504149" lon="10.9292668"><ele>356.0</ele><time>2026-04-03T11:59:44.046Z</time></trkpt><trkpt lat="43.2503723" lon="10.9293309"><ele>356.0</ele><time>2026-04-03T11:59:45.055Z</time></trkpt><trkpt lat="43.2503317" lon="10.9294006"><ele>355.99999999999994</ele><time>2026-04-03T11:59:46.046Z</time></trkpt><trkpt lat="43.2502877" lon="10.929469"><ele>356.0</ele><time>2026-04-03T11:59:47.038Z</time></trkpt><trkpt lat="43.2502191" lon="10.929586"><ele>354.6666666666667</ele><time>2026-04-03T11:59:49.057Z</time></trkpt><trkpt lat="43.2502182" lon="10.9296784"><ele>353.33333333333337</ele><time>2026-04-03T11:59:51.059Z</time></trkpt><trkpt lat="43.2502649" lon="10.9297789"><ele>352.0</ele><time>2026-04-03T11:59:53.05Z</time></trkpt><trkpt lat="43.2503601" lon="10.9298901"><ele>350.6666666666667</ele><time>2026-04-03T11:59:55.047Z</time></trkpt><trkpt lat="43.2504136" lon="10.9299425"><ele>349.3333333333333</ele><time>2026-04-03T11:59:56.045Z</time></trkpt><trkpt lat="43.2504696" lon="10.9299902"><ele>348.0</ele><time>2026-04-03T11:59:57.055Z</time></trkpt><trkpt lat="43.2505244" lon="10.9300369"><ele>345.79999999999995</ele><time>2026-04-03T11:59:58.044Z</time></trkpt><trkpt lat="43.2506194" lon="10.9301253"><ele>343.6</ele><time>2026-04-03T12:00:00.039Z</time></trkpt><trkpt lat="43.2507152" lon="10.9302222"><ele>341.4</ele><time>2026-04-03T12:00:02.046Z</time></trkpt><trkpt lat="43.2507945" lon="10.9303186"><ele>339.20000000000005</ele><time>2026-04-03T12:00:04.051Z</time></trkpt><trkpt lat="43.2508509" lon="10.9304317"><ele>337.0</ele><time>2026-04-03T12:00:06.046Z</time></trkpt><trkpt lat="43.2509136" lon="10.9305395"><ele>337.0</ele><time>2026-04-03T12:00:08.049Z</time></trkpt><trkpt lat="43.2509912" lon="10.9306047"><ele>337.0</ele><time>2026-04-03T12:00:10.048Z</time></trkpt><trkpt lat="43.2510852" lon="10.9306127"><ele>337.0</ele><time>2026-04-03T12:00:12.057Z</time></trkpt><trkpt lat="43.2511905" lon="10.9305746"><ele>337.0</ele><time>2026-04-03T12:00:14.041Z</time></trkpt><trkpt lat="43.2513022" lon="10.9305636"><ele>337.0</ele><time>2026-04-03T12:00:16.048Z</time></trkpt><trkpt lat="43.2514138" lon="10.9305848"><ele>335.20000000000005</ele><time>2026-04-03T12:00:18.046Z</time></trkpt><trkpt lat="43.2515155" lon="10.9305704"><ele>333.4</ele><time>2026-04-03T12:00:20.05Z</time></trkpt><trkpt lat="43.2516244" lon="10.930492"><ele>331.6</ele><time>2026-04-03T12:00:22.044Z</time></trkpt><trkpt lat="43.2516866" lon="10.9304438"><ele>329.79999999999995</ele><time>2026-04-03T12:00:23.047Z</time></trkpt><trkpt lat="43.2517599" lon="10.9303906"><ele>328.0</ele><time>2026-04-03T12:00:24.06Z</time></trkpt><trkpt lat="43.2518356" lon="10.9303502"><ele>328.0</ele><time>2026-04-03T12:00:25.044Z</time></trkpt><trkpt lat="43.2519162" lon="10.9303295"><ele>328.0</ele><time>2026-04-03T12:00:26.045Z</time></trkpt><trkpt lat="43.2519956" lon="10.9303186"><ele>328.0</ele><time>2026-04-03T12:00:27.071Z</time></trkpt><trkpt lat="43.2520622" lon="10.9303419"><ele>328.0</ele><time>2026-04-03T12:00:28.049Z</time></trkpt><trkpt lat="43.2521293" lon="10.930381"><ele>328.0</ele><time>2026-04-03T12:00:29.047Z</time></trkpt><trkpt lat="43.2521975" lon="10.9304297"><ele>328.0</ele><time>2026-04-03T12:00:30.046Z</time></trkpt><trkpt lat="43.2522625" lon="10.9304768"><ele>326.79999999999995</ele><time>2026-04-03T12:00:31.045Z</time></trkpt><trkpt lat="43.2523314" lon="10.9305172"><ele>325.6</ele><time>2026-04-03T12:00:32.042Z</time></trkpt><trkpt lat="43.2524112" lon="10.930555"><ele>324.4</ele><time>2026-04-03T12:00:33.057Z</time></trkpt><trkpt lat="43.2525031" lon="10.9305829"><ele>323.20000000000005</ele><time>2026-04-03T12:00:34.057Z</time></trkpt><trkpt lat="43.2526074" lon="10.9306052"><ele>322.0</ele><time>2026-04-03T12:00:35.051Z</time></trkpt><trkpt lat="43.2527116" lon="10.9306318"><ele>322.0</ele><time>2026-04-03T12:00:36.053Z</time></trkpt><trkpt lat="43.2528117" lon="10.9306621"><ele>322.0</ele><time>2026-04-03T12:00:37.043Z</time></trkpt><trkpt lat="43.2529053" lon="10.9307059"><ele>322.0</ele><time>2026-04-03T12:00:38.047Z</time></trkpt><trkpt lat="43.2529877" lon="10.9307569"><ele>322.0</ele><time>2026-04-03T12:00:39.062Z</time></trkpt><trkpt lat="43.2530648" lon="10.9308198"><ele>322.0</ele><time>2026-04-03T12:00:40.052Z</time></trkpt><trkpt lat="43.2531392" lon="10.9309016"><ele>321.20000000000005</ele><time>2026-04-03T12:00:41.051Z</time></trkpt><trkpt lat="43.2532139" lon="10.9309927"><ele>320.40000000000003</ele><time>2026-04-03T12:00:42.054Z</time></trkpt><trkpt lat="43.2532882" lon="10.9310778"><ele>319.6</ele><time>2026-04-03T12:00:43.046Z</time></trkpt><trkpt lat="43.25337" lon="10.9311475"><ele>318.8</ele><time>2026-04-03T12:00:44.047Z</time></trkpt><trkpt lat="43.2534612" lon="10.9312019"><ele>318.0</ele><time>2026-04-03T12:00:45.05Z</time></trkpt><trkpt lat="43.2535526" lon="10.9312501"><ele>318.0</ele><time>2026-04-03T12:00:46.06Z</time></trkpt><trkpt lat="43.2536357" lon="10.931305"><ele>318.0</ele><time>2026-04-03T12:00:47.048Z</time></trkpt><trkpt lat="43.2537175" lon="10.9313636"><ele>318.0</ele><time>2026-04-03T12:00:48.061Z</time></trkpt><trkpt lat="43.2537941" lon="10.9314325"><ele>318.0</ele><time>2026-04-03T12:00:49.045Z</time></trkpt><trkpt lat="43.2538656" lon="10.9315125"><ele>318.0</ele><time>2026-04-03T12:00:50.045Z</time></trkpt><trkpt lat="43.253924" lon="10.9316077"><ele>318.8</ele><time>2026-04-03T12:00:51.048Z</time></trkpt><trkpt lat="43.2539729" lon="10.9317238"><ele>319.6</ele><time>2026-04-03T12:00:52.042Z</time></trkpt><trkpt lat="43.254022" lon="10.9318486"><ele>320.40000000000003</ele><time>2026-04-03T12:00:53.055Z</time></trkpt><trkpt lat="43.254073" lon="10.9319615"><ele>321.20000000000005</ele><time>2026-04-03T12:00:54.045Z</time></trkpt><trkpt lat="43.2541198" lon="10.9320565"><ele>322.0</ele><time>2026-04-03T12:00:55.045Z</time></trkpt><trkpt lat="43.2541682" lon="10.9321272"><ele>322.0</ele><time>2026-04-03T12:00:56.058Z</time></trkpt><trkpt lat="43.2542308" lon="10.9321864"><ele>322.0</ele><time>2026-04-03T12:00:57.04Z</time></trkpt><trkpt lat="43.2543039" lon="10.9322475"><ele>322.0</ele><time>2026-04-03T12:00:58.055Z</time></trkpt><trkpt lat="43.2543867" lon="10.9323043"><ele>322.0</ele><time>2026-04-03T12:00:59.049Z</time></trkpt><trkpt lat="43.2544692" lon="10.9323604"><ele>322.0</ele><time>2026-04-03T12:01:00.048Z</time></trkpt><trkpt lat="43.2545518" lon="10.9324081"><ele>322.0</ele><time>2026-04-03T12:01:01.052Z</time></trkpt><trkpt lat="43.254635" lon="10.9324409"><ele>322.0</ele><time>2026-04-03T12:01:02.045Z</time></trkpt><trkpt lat="43.2547115" lon="10.9324683"><ele>322.0</ele><time>2026-04-03T12:01:03.048Z</time></trkpt><trkpt lat="43.2547867" lon="10.9324954"><ele>322.0</ele><time>2026-04-03T12:01:04.046Z</time></trkpt><trkpt lat="43.2548573" lon="10.9325198"><ele>322.0</ele><time>2026-04-03T12:01:05.05Z</time></trkpt><trkpt lat="43.2549175" lon="10.9325528"><ele>322.0</ele><time>2026-04-03T12:01:06.046Z</time></trkpt><trkpt lat="43.2549795" lon="10.9325911"><ele>322.0</ele><time>2026-04-03T12:01:07.052Z</time></trkpt><trkpt lat="43.2550991" lon="10.9326193"><ele>322.0</ele><time>2026-04-03T12:01:09.046Z</time></trkpt><trkpt lat="43.255166" lon="10.9326023"><ele>322.0</ele><time>2026-04-03T12:01:10.049Z</time></trkpt><trkpt lat="43.2552348" lon="10.9325549"><ele>322.0</ele><time>2026-04-03T12:01:11.05Z</time></trkpt><trkpt lat="43.2553104" lon="10.9325142"><ele>322.0</ele><time>2026-04-03T12:01:12.044Z</time></trkpt><trkpt lat="43.2553824" lon="10.9324927"><ele>322.0</ele><time>2026-04-03T12:01:13.05Z</time></trkpt><trkpt lat="43.2554485" lon="10.9324826"><ele>322.0</ele><time>2026-04-03T12:01:14.052Z</time></trkpt><trkpt lat="43.2555561" lon="10.9325574"><ele>321.8</ele><time>2026-04-03T12:01:16.049Z</time></trkpt><trkpt lat="43.2556041" lon="10.9326416"><ele>321.6</ele><time>2026-04-03T12:01:17.046Z</time></trkpt><trkpt lat="43.255652" lon="10.9327484"><ele>321.40000000000003</ele><time>2026-04-03T12:01:18.055Z</time></trkpt><trkpt lat="43.2556945" lon="10.9328623"><ele>321.20000000000005</ele><time>2026-04-03T12:01:19.042Z</time></trkpt><trkpt lat="43.255732" lon="10.9329819"><ele>321.0</ele><time>2026-04-03T12:01:20.05Z</time></trkpt><trkpt lat="43.2557726" lon="10.9331071"><ele>321.0</ele><time>2026-04-03T12:01:21.053Z</time></trkpt><trkpt lat="43.2558163" lon="10.9332463"><ele>321.0</ele><time>2026-04-03T12:01:22.054Z</time></trkpt><trkpt lat="43.2558636" lon="10.9333842"><ele>321.0</ele><time>2026-04-03T12:01:23.049Z</time></trkpt><trkpt lat="43.2559177" lon="10.9335169"><ele>321.0</ele><time>2026-04-03T12:01:24.053Z</time></trkpt><trkpt lat="43.2559789" lon="10.9336364"><ele>321.0</ele><time>2026-04-03T12:01:25.045Z</time></trkpt><trkpt lat="43.2560482" lon="10.9337451"><ele>321.20000000000005</ele><time>2026-04-03T12:01:26.043Z</time></trkpt><trkpt lat="43.2561291" lon="10.933845"><ele>321.40000000000003</ele><time>2026-04-03T12:01:27.052Z</time></trkpt><trkpt lat="43.2562234" lon="10.9339359"><ele>321.6</ele><time>2026-04-03T12:01:28.042Z</time></trkpt><trkpt lat="43.25632" lon="10.9340168"><ele>321.8</ele><time>2026-04-03T12:01:29.052Z</time></trkpt><trkpt lat="43.2564042" lon="10.9340814"><ele>322.0</ele><time>2026-04-03T12:01:30.044Z</time></trkpt><trkpt lat="43.2564794" lon="10.9341296"><ele>324.0</ele><time>2026-04-03T12:01:31.043Z</time></trkpt><trkpt lat="43.2565573" lon="10.9341507"><ele>326.0</ele><time>2026-04-03T12:01:32.046Z</time></trkpt><trkpt lat="43.2566362" lon="10.934141"><ele>328.0</ele><time>2026-04-03T12:01:33.041Z</time></trkpt><trkpt lat="43.2567199" lon="10.934094"><ele>330.0</ele><time>2026-04-03T12:01:34.049Z</time></trkpt><trkpt lat="43.2568028" lon="10.934034"><ele>332.0</ele><time>2026-04-03T12:01:35.048Z</time></trkpt><trkpt lat="43.2568827" lon="10.9339869"><ele>334.0</ele><time>2026-04-03T12:01:36.045Z</time></trkpt><trkpt lat="43.2569584" lon="10.9339606"><ele>334.0</ele><time>2026-04-03T12:01:37.044Z</time></trkpt><trkpt lat="43.2570322" lon="10.9339611"><ele>334.0</ele><time>2026-04-03T12:01:38.06Z</time></trkpt><trkpt lat="43.257101" lon="10.9339865"><ele>334.0</ele><time>2026-04-03T12:01:39.064Z</time></trkpt><trkpt lat="43.2571723" lon="10.9340201"><ele>334.0</ele><time>2026-04-03T12:01:40.041Z</time></trkpt><trkpt lat="43.2572561" lon="10.9340641"><ele>334.0</ele><time>2026-04-03T12:01:41.049Z</time></trkpt><trkpt lat="43.2573464" lon="10.9341162"><ele>334.0</ele><time>2026-04-03T12:01:42.059Z</time></trkpt><trkpt lat="43.2574377" lon="10.9341643"><ele>334.2</ele><time>2026-04-03T12:01:43.057Z</time></trkpt><trkpt lat="43.2575225" lon="10.9342051"><ele>334.4</ele><time>2026-04-03T12:01:44.054Z</time></trkpt><trkpt lat="43.2576032" lon="10.934236"><ele>334.6</ele><time>2026-04-03T12:01:45.049Z</time></trkpt><trkpt lat="43.2576919" lon="10.9342704"><ele>334.8</ele><time>2026-04-03T12:01:46.054Z</time></trkpt><trkpt lat="43.2577871" lon="10.9343089"><ele>335.0</ele><time>2026-04-03T12:01:47.043Z</time></trkpt><trkpt lat="43.257883" lon="10.934369"><ele>335.6</ele><time>2026-04-03T12:01:48.048Z</time></trkpt><trkpt lat="43.2579749" lon="10.9344334"><ele>336.2</ele><time>2026-04-03T12:01:49.057Z</time></trkpt><trkpt lat="43.2580503" lon="10.9345109"><ele>336.79999999999995</ele><time>2026-04-03T12:01:50.045Z</time></trkpt><trkpt lat="43.258108" lon="10.9346078"><ele>337.4</ele><time>2026-04-03T12:01:51.046Z</time></trkpt><trkpt lat="43.2581567" lon="10.9347257"><ele>338.0</ele><time>2026-04-03T12:01:52.056Z</time></trkpt><trkpt lat="43.2581985" lon="10.934861"><ele>335.33333333333337</ele><time>2026-04-03T12:01:53.047Z</time></trkpt><trkpt lat="43.2582287" lon="10.9349972"><ele>332.6666666666667</ele><time>2026-04-03T12:01:54.048Z</time></trkpt><trkpt lat="43.2582575" lon="10.9351217"><ele>330.0</ele><time>2026-04-03T12:01:55.048Z</time></trkpt><trkpt lat="43.2582995" lon="10.9352271"><ele>327.3333333333333</ele><time>2026-04-03T12:01:56.053Z</time></trkpt><trkpt lat="43.2583502" lon="10.9353168"><ele>324.66666666666663</ele><time>2026-04-03T12:01:57.057Z</time></trkpt><trkpt lat="43.2584099" lon="10.9353891"><ele>322.0</ele><time>2026-04-03T12:01:58.055Z</time></trkpt><trkpt lat="43.2584751" lon="10.9354393"><ele>322.0</ele><time>2026-04-03T12:01:59.053Z</time></trkpt><trkpt lat="43.2585391" lon="10.9354711"><ele>322.0</ele><time>2026-04-03T12:02:00.066Z</time></trkpt><trkpt lat="43.2586432" lon="10.9355231"><ele>322.0</ele><time>2026-04-03T12:02:02.044Z</time></trkpt><trkpt lat="43.258731" lon="10.9355704"><ele>322.0</ele><time>2026-04-03T12:02:04.054Z</time></trkpt><trkpt lat="43.2588613" lon="10.9356314"><ele>322.0</ele><time>2026-04-03T12:02:06.045Z</time></trkpt><trkpt lat="43.2589253" lon="10.9356926"><ele>321.40000000000003</ele><time>2026-04-03T12:02:07.052Z</time></trkpt><trkpt lat="43.2589706" lon="10.9357784"><ele>320.8</ele><time>2026-04-03T12:02:08.047Z</time></trkpt><trkpt lat="43.258986" lon="10.935889"><ele>320.2</ele><time>2026-04-03T12:02:09.068Z</time></trkpt><trkpt lat="43.2589735" lon="10.936015"><ele>319.6</ele><time>2026-04-03T12:02:10.058Z</time></trkpt><trkpt lat="43.2589309" lon="10.9361539"><ele>319.0</ele><time>2026-04-03T12:02:11.045Z</time></trkpt><trkpt lat="43.2588863" lon="10.936295"><ele>319.0</ele><time>2026-04-03T12:02:12.04Z</time></trkpt><trkpt lat="43.2588383" lon="10.9364375"><ele>319.0</ele><time>2026-04-03T12:02:13.042Z</time></trkpt><trkpt lat="43.2587902" lon="10.9365856"><ele>319.0</ele><time>2026-04-03T12:02:14.046Z</time></trkpt><trkpt lat="43.2587469" lon="10.9367282"><ele>319.0</ele><time>2026-04-03T12:02:15.039Z</time></trkpt><trkpt lat="43.25871" lon="10.9368575"><ele>319.0</ele><time>2026-04-03T12:02:16.051Z</time></trkpt><trkpt lat="43.2587037" lon="10.9369653"><ele>319.4</ele><time>2026-04-03T12:02:17.061Z</time></trkpt><trkpt lat="43.2587794" lon="10.9370744"><ele>319.79999999999995</ele><time>2026-04-03T12:02:19.054Z</time></trkpt><trkpt lat="43.2588856" lon="10.9370021"><ele>320.20000000000005</ele><time>2026-04-03T12:02:21.056Z</time></trkpt><trkpt lat="43.258926" lon="10.9369145"><ele>320.6</ele><time>2026-04-03T12:02:22.05Z</time></trkpt><trkpt lat="43.258964" lon="10.9368167"><ele>321.0</ele><time>2026-04-03T12:02:23.057Z</time></trkpt><trkpt lat="43.2590069" lon="10.936723"><ele>324.0</ele><time>2026-04-03T12:02:24.055Z</time></trkpt><trkpt lat="43.2590494" lon="10.9366348"><ele>327.0</ele><time>2026-04-03T12:02:25.051Z</time></trkpt><trkpt lat="43.2590904" lon="10.9365432"><ele>330.0</ele><time>2026-04-03T12:02:26.044Z</time></trkpt><trkpt lat="43.2591344" lon="10.9364433"><ele>333.0</ele><time>2026-04-03T12:02:27.046Z</time></trkpt><trkpt lat="43.2591861" lon="10.9363323"><ele>336.0</ele><time>2026-04-03T12:02:28.061Z</time></trkpt><trkpt lat="43.2592466" lon="10.9362094"><ele>339.0</ele><time>2026-04-03T12:02:29.054Z</time></trkpt><trkpt lat="43.2593198" lon="10.9360799"><ele>339.0</ele><time>2026-04-03T12:02:30.049Z</time></trkpt><trkpt lat="43.259392" lon="10.9359555"><ele>339.0</ele><time>2026-04-03T12:02:31.05Z</time></trkpt><trkpt lat="43.2594522" lon="10.9358562"><ele>339.0</ele><time>2026-04-03T12:02:32.048Z</time></trkpt><trkpt lat="43.2595051" lon="10.935769"><ele>339.0</ele><time>2026-04-03T12:02:33.053Z</time></trkpt><trkpt lat="43.2595519" lon="10.9356956"><ele>339.0</ele><time>2026-04-03T12:02:34.044Z</time></trkpt><trkpt lat="43.259621" lon="10.9355957"><ele>339.0</ele><time>2026-04-03T12:02:36.048Z</time></trkpt><trkpt lat="43.2596752" lon="10.9355197"><ele>339.0</ele><time>2026-04-03T12:02:40.04Z</time></trkpt><trkpt lat="43.2596213" lon="10.9356232"><ele>339.0</ele><time>2026-04-03T12:02:56.042Z</time></trkpt><trkpt lat="43.2595599" lon="10.9356861"><ele>339.0</ele><time>2026-04-03T12:02:57.083Z</time></trkpt><trkpt lat="43.2595046" lon="10.9357603"><ele>339.0</ele><time>2026-04-03T12:02:58.048Z</time></trkpt><trkpt lat="43.259449" lon="10.9358431"><ele>339.0</ele><time>2026-04-03T12:02:59.041Z</time></trkpt><trkpt lat="43.2593913" lon="10.9359293"><ele>339.0</ele><time>2026-04-03T12:03:00.048Z</time></trkpt><trkpt lat="43.2593321" lon="10.9360191"><ele>339.0</ele><time>2026-04-03T12:03:01.046Z</time></trkpt><trkpt lat="43.2592732" lon="10.9361167"><ele>339.0</ele><time>2026-04-03T12:03:02.06Z</time></trkpt><trkpt lat="43.259217" lon="10.9362233"><ele>339.0</ele><time>2026-04-03T12:03:03.061Z</time></trkpt><trkpt lat="43.2591614" lon="10.9363412"><ele>339.0</ele><time>2026-04-03T12:03:04.063Z</time></trkpt><trkpt lat="43.2591063" lon="10.936458"><ele>339.0</ele><time>2026-04-03T12:03:05.058Z</time></trkpt><trkpt lat="43.2590563" lon="10.9365689"><ele>339.0</ele><time>2026-04-03T12:03:06.042Z</time></trkpt><trkpt lat="43.2590084" lon="10.9366736"><ele>339.0</ele><time>2026-04-03T12:03:07.067Z</time></trkpt><trkpt lat="43.2589659" lon="10.9367734"><ele>339.0</ele><time>2026-04-03T12:03:08.051Z</time></trkpt><trkpt lat="43.2589234" lon="10.9368679"><ele>339.0</ele><time>2026-04-03T12:03:09.065Z</time></trkpt><trkpt lat="43.2588799" lon="10.9369446"><ele>339.0</ele><time>2026-04-03T12:03:10.063Z</time></trkpt><trkpt lat="43.258797" lon="10.9370478"><ele>336.0</ele><time>2026-04-03T12:03:12.051Z</time></trkpt><trkpt lat="43.2587463" lon="10.9371303"><ele>333.0</ele><time>2026-04-03T12:03:14.049Z</time></trkpt><trkpt lat="43.2587386" lon="10.9372235"><ele>330.0</ele><time>2026-04-03T12:03:16.05Z</time></trkpt><trkpt lat="43.2587548" lon="10.9373272"><ele>327.0</ele><time>2026-04-03T12:03:18.057Z</time></trkpt><trkpt lat="43.2587628" lon="10.9374468"><ele>324.0</ele><time>2026-04-03T12:03:22.137Z</time></trkpt><trkpt lat="43.2587984" lon="10.9375329"><ele>321.0</ele><time>2026-04-03T12:03:25.078Z</time></trkpt><trkpt lat="43.2588473" lon="10.9374639"><ele>321.0</ele><time>2026-04-03T12:03:30.005Z</time></trkpt><trkpt lat="43.2588152" lon="10.9373756"><ele>321.0</ele><time>2026-04-03T12:03:52.053Z</time></trkpt><trkpt lat="43.2588099" lon="10.9372812"><ele>321.0</ele><time>2026-04-03T12:03:55.137Z</time></trkpt><trkpt lat="43.2588297" lon="10.9371909"><ele>321.0</ele><time>2026-04-03T12:03:58.052Z</time></trkpt><trkpt lat="43.2588818" lon="10.9370575"><ele>321.0</ele><time>2026-04-03T12:04:01.086Z</time></trkpt><trkpt lat="43.2589078" lon="10.9369471"><ele>321.0</ele><time>2026-04-03T12:04:02.057Z</time></trkpt><trkpt lat="43.2589413" lon="10.9368597"><ele>323.57142857142856</ele><time>2026-04-03T12:04:03.053Z</time></trkpt><trkpt lat="43.2589759" lon="10.9367745"><ele>326.1428571428571</ele><time>2026-04-03T12:04:04.045Z</time></trkpt><trkpt lat="43.2590111" lon="10.9366909"><ele>328.71428571428567</ele><time>2026-04-03T12:04:05.053Z</time></trkpt><trkpt lat="43.2590472" lon="10.9366091"><ele>331.2857142857143</ele><time>2026-04-03T12:04:06.053Z</time></trkpt><trkpt lat="43.2590798" lon="10.9365292"><ele>333.8571428571429</ele><time>2026-04-03T12:04:07.054Z</time></trkpt><trkpt lat="43.2591131" lon="10.9364526"><ele>336.4285714285714</ele><time>2026-04-03T12:04:08.049Z</time></trkpt><trkpt lat="43.2591518" lon="10.9363735"><ele>339.0</ele><time>2026-04-03T12:04:09.048Z</time></trkpt><trkpt lat="43.2591937" lon="10.9362913"><ele>339.0</ele><time>2026-04-03T12:04:10.069Z</time></trkpt><trkpt lat="43.259238" lon="10.9362023"><ele>339.0</ele><time>2026-04-03T12:04:11.053Z</time></trkpt><trkpt lat="43.2592864" lon="10.9361132"><ele>339.0</ele><time>2026-04-03T12:04:12.054Z</time></trkpt><trkpt lat="43.2593367" lon="10.9360258"><ele>339.0</ele><time>2026-04-03T12:04:13.051Z</time></trkpt><trkpt lat="43.2593907" lon="10.9359423"><ele>339.0</ele><time>2026-04-03T12:04:14.062Z</time></trkpt><trkpt lat="43.2594454" lon="10.9358589"><ele>339.0</ele><time>2026-04-03T12:04:15.045Z</time></trkpt><trkpt lat="43.2595017" lon="10.9357754"><ele>338.0</ele><time>2026-04-03T12:04:16.05Z</time></trkpt><trkpt lat="43.2595609" lon="10.9356903"><ele>337.0</ele><time>2026-04-03T12:04:17.036Z</time></trkpt><trkpt lat="43.2596199" lon="10.9356014"><ele>336.0</ele><time>2026-04-03T12:04:18.042Z</time></trkpt><trkpt lat="43.2596809" lon="10.9355109"><ele>335.0</ele><time>2026-04-03T12:04:19.041Z</time></trkpt><trkpt lat="43.2597465" lon="10.9354191"><ele>334.0</ele><time>2026-04-03T12:04:20.05Z</time></trkpt><trkpt lat="43.2598156" lon="10.9353281"><ele>335.8333333333333</ele><time>2026-04-03T12:04:21.042Z</time></trkpt><trkpt lat="43.2598856" lon="10.9352364"><ele>337.66666666666663</ele><time>2026-04-03T12:04:22.044Z</time></trkpt><trkpt lat="43.2599509" lon="10.9351451"><ele>339.5</ele><time>2026-04-03T12:04:23.051Z</time></trkpt><trkpt lat="43.2600053" lon="10.9350624"><ele>341.3333333333333</ele><time>2026-04-03T12:04:24.041Z</time></trkpt><trkpt lat="43.2600528" lon="10.9349905"><ele>343.1666666666667</ele><time>2026-04-03T12:04:25.055Z</time></trkpt><trkpt lat="43.2600986" lon="10.9349308"><ele>345.0</ele><time>2026-04-03T12:04:26.051Z</time></trkpt><trkpt lat="43.2601486" lon="10.9348763"><ele>345.0</ele><time>2026-04-03T12:04:27.042Z</time></trkpt><trkpt lat="43.2602064" lon="10.9348211"><ele>345.0</ele><time>2026-04-03T12:04:28.051Z</time></trkpt><trkpt lat="43.2602711" lon="10.9347582"><ele>345.0</ele><time>2026-04-03T12:04:29.059Z</time></trkpt><trkpt lat="43.2603389" lon="10.9346891"><ele>345.0</ele><time>2026-04-03T12:04:30.042Z</time></trkpt><trkpt lat="43.2604099" lon="10.9346159"><ele>345.0</ele><time>2026-04-03T12:04:31.038Z</time></trkpt><trkpt lat="43.2604827" lon="10.9345416"><ele>345.0</ele><time>2026-04-03T12:04:32.048Z</time></trkpt><trkpt lat="43.2605571" lon="10.9344733"><ele>346.0</ele><time>2026-04-03T12:04:33.045Z</time></trkpt><trkpt lat="43.2606336" lon="10.9344122"><ele>347.0</ele><time>2026-04-03T12:04:34.043Z</time></trkpt><trkpt lat="43.2607136" lon="10.9343578"><ele>348.0</ele><time>2026-04-03T12:04:35.047Z</time></trkpt><trkpt lat="43.2607968" lon="10.9343055"><ele>349.0</ele><time>2026-04-03T12:04:36.045Z</time></trkpt><trkpt lat="43.2608832" lon="10.9342541"><ele>350.0</ele><time>2026-04-03T12:04:37.041Z</time></trkpt><trkpt lat="43.2609695" lon="10.9341971"><ele>350.0</ele><time>2026-04-03T12:04:38.038Z</time></trkpt><trkpt lat="43.2610543" lon="10.9341262"><ele>350.0</ele><time>2026-04-03T12:04:39.049Z</time></trkpt><trkpt lat="43.2611426" lon="10.9340435"><ele>350.0</ele><time>2026-04-03T12:04:40.044Z</time></trkpt><trkpt lat="43.2612378" lon="10.9339561"><ele>350.0</ele><time>2026-04-03T12:04:41.069Z</time></trkpt><trkpt lat="43.2613333" lon="10.933875"><ele>350.0</ele><time>2026-04-03T12:04:42.043Z</time></trkpt><trkpt lat="43.2614289" lon="10.9337898"><ele>355.0</ele><time>2026-04-03T12:04:43.049Z</time></trkpt><trkpt lat="43.2615225" lon="10.9336979"><ele>360.0</ele><time>2026-04-03T12:04:44.038Z</time></trkpt><trkpt lat="43.2616137" lon="10.933599"><ele>365.0</ele><time>2026-04-03T12:04:45.038Z</time></trkpt><trkpt lat="43.2617008" lon="10.9334996"><ele>370.0</ele><time>2026-04-03T12:04:46.048Z</time></trkpt><trkpt lat="43.2617839" lon="10.9334003"><ele>367.8</ele><time>2026-04-03T12:04:47.044Z</time></trkpt><trkpt lat="43.2618651" lon="10.9332985"><ele>365.6</ele><time>2026-04-03T12:04:48.039Z</time></trkpt><trkpt lat="43.2619486" lon="10.9331957"><ele>363.4</ele><time>2026-04-03T12:04:49.043Z</time></trkpt><trkpt lat="43.262033" lon="10.9330919"><ele>361.2</ele><time>2026-04-03T12:04:50.049Z</time></trkpt><trkpt lat="43.2621183" lon="10.9329914"><ele>359.0</ele><time>2026-04-03T12:04:51.036Z</time></trkpt><trkpt lat="43.2622076" lon="10.9329013"><ele>362.0</ele><time>2026-04-03T12:04:52.047Z</time></trkpt><trkpt lat="43.2622985" lon="10.9328284"><ele>365.0</ele><time>2026-04-03T12:04:53.044Z</time></trkpt><trkpt lat="43.2623915" lon="10.932769"><ele>368.0</ele><time>2026-04-03T12:04:54.043Z</time></trkpt><trkpt lat="43.2624885" lon="10.9327225"><ele>371.0</ele><time>2026-04-03T12:04:55.062Z</time></trkpt><trkpt lat="43.2625883" lon="10.9326939"><ele>374.0</ele><time>2026-04-03T12:04:56.048Z</time></trkpt><trkpt lat="43.2626948" lon="10.932685"><ele>374.0</ele><time>2026-04-03T12:04:57.039Z</time></trkpt><trkpt lat="43.2628073" lon="10.9326823"><ele>374.0</ele><time>2026-04-03T12:04:58.047Z</time></trkpt><trkpt lat="43.2629215" lon="10.9326662"><ele>374.0</ele><time>2026-04-03T12:04:59.055Z</time></trkpt><trkpt lat="43.2630336" lon="10.932622"><ele>374.0</ele><time>2026-04-03T12:05:00.045Z</time></trkpt><trkpt lat="43.2631432" lon="10.9325674"><ele>373.4</ele><time>2026-04-03T12:05:01.046Z</time></trkpt><trkpt lat="43.2632461" lon="10.9325008"><ele>372.79999999999995</ele><time>2026-04-03T12:05:02.042Z</time></trkpt><trkpt lat="43.2633466" lon="10.9324349"><ele>372.20000000000005</ele><time>2026-04-03T12:05:03.048Z</time></trkpt><trkpt lat="43.263446" lon="10.932377"><ele>371.6</ele><time>2026-04-03T12:05:04.049Z</time></trkpt><trkpt lat="43.2635505" lon="10.932346"><ele>371.0</ele><time>2026-04-03T12:05:05.041Z</time></trkpt><trkpt lat="43.2636566" lon="10.9323447"><ele>371.0</ele><time>2026-04-03T12:05:06.046Z</time></trkpt><trkpt lat="43.2637644" lon="10.9323572"><ele>371.0</ele><time>2026-04-03T12:05:07.058Z</time></trkpt><trkpt lat="43.2638714" lon="10.9323671"><ele>371.0</ele><time>2026-04-03T12:05:08.038Z</time></trkpt><trkpt lat="43.2639729" lon="10.9323193"><ele>371.0</ele><time>2026-04-03T12:05:09.043Z</time></trkpt><trkpt lat="43.2640621" lon="10.9322338"><ele>371.0</ele><time>2026-04-03T12:05:10.043Z</time></trkpt><trkpt lat="43.2641391" lon="10.9321051"><ele>372.0</ele><time>2026-04-03T12:05:11.034Z</time></trkpt><trkpt lat="43.2642071" lon="10.931963"><ele>373.0</ele><time>2026-04-03T12:05:12.051Z</time></trkpt><trkpt lat="43.2642711" lon="10.931829"><ele>374.0</ele><time>2026-04-03T12:05:13.045Z</time></trkpt><trkpt lat="43.2643365" lon="10.9317113"><ele>375.0</ele><time>2026-04-03T12:05:14.038Z</time></trkpt><trkpt lat="43.2644046" lon="10.9316061"><ele>375.0</ele><time>2026-04-03T12:05:15.043Z</time></trkpt><trkpt lat="43.2644762" lon="10.9315048"><ele>375.0</ele><time>2026-04-03T12:05:16.045Z</time></trkpt><trkpt lat="43.2645493" lon="10.9314063"><ele>375.0</ele><time>2026-04-03T12:05:17.042Z</time></trkpt><trkpt lat="43.2646229" lon="10.9313136"><ele>375.0</ele><time>2026-04-03T12:05:18.058Z</time></trkpt><trkpt lat="43.264699" lon="10.9312293"><ele>375.0</ele><time>2026-04-03T12:05:19.048Z</time></trkpt><trkpt lat="43.2647798" lon="10.9311663"><ele>375.8</ele><time>2026-04-03T12:05:20.043Z</time></trkpt><trkpt lat="43.2648586" lon="10.9311152"><ele>376.6</ele><time>2026-04-03T12:05:21.049Z</time></trkpt><trkpt lat="43.2649288" lon="10.9310441"><ele>377.4</ele><time>2026-04-03T12:05:22.054Z</time></trkpt><trkpt lat="43.2649861" lon="10.9309435"><ele>378.2</ele><time>2026-04-03T12:05:23.052Z</time></trkpt><trkpt lat="43.2650409" lon="10.9308289"><ele>379.0</ele><time>2026-04-03T12:05:24.04Z</time></trkpt><trkpt lat="43.265084" lon="10.9307036"><ele>379.0</ele><time>2026-04-03T12:05:25.047Z</time></trkpt><trkpt lat="43.2651226" lon="10.9305805"><ele>379.0</ele><time>2026-04-03T12:05:26.049Z</time></trkpt><trkpt lat="43.2651606" lon="10.9304627"><ele>379.0</ele><time>2026-04-03T12:05:27.034Z</time></trkpt><trkpt lat="43.2651876" lon="10.930343"><ele>379.0</ele><time>2026-04-03T12:05:28.046Z</time></trkpt><trkpt lat="43.2652061" lon="10.9302172"><ele>379.0</ele><time>2026-04-03T12:05:29.051Z</time></trkpt><trkpt lat="43.2652264" lon="10.9300849"><ele>378.0</ele><time>2026-04-03T12:05:30.043Z</time></trkpt><trkpt lat="43.2652597" lon="10.9299542"><ele>377.0</ele><time>2026-04-03T12:05:31.048Z</time></trkpt><trkpt lat="43.2653103" lon="10.9298318"><ele>376.0</ele><time>2026-04-03T12:05:32.044Z</time></trkpt><trkpt lat="43.26537" lon="10.9297191"><ele>375.0</ele><time>2026-04-03T12:05:33.049Z</time></trkpt><trkpt lat="43.2654449" lon="10.929629"><ele>374.0</ele><time>2026-04-03T12:05:34.042Z</time></trkpt><trkpt lat="43.2655124" lon="10.9295301"><ele>374.0</ele><time>2026-04-03T12:05:35.036Z</time></trkpt><trkpt lat="43.2655525" lon="10.9294215"><ele>374.0</ele><time>2026-04-03T12:05:36.047Z</time></trkpt><trkpt lat="43.2655659" lon="10.9293233"><ele>374.0</ele><time>2026-04-03T12:05:37.046Z</time></trkpt><trkpt lat="43.2655753" lon="10.9292186"><ele>374.0</ele><time>2026-04-03T12:05:39.044Z</time></trkpt><trkpt lat="43.2655679" lon="10.929091"><ele>374.0</ele><time>2026-04-03T12:07:12.041Z</time></trkpt><trkpt lat="43.2655921" lon="10.9289173"><ele>376.4</ele><time>2026-04-03T12:07:13.046Z</time></trkpt><trkpt lat="43.2656428" lon="10.9288009"><ele>378.79999999999995</ele><time>2026-04-03T12:07:14.041Z</time></trkpt><trkpt lat="43.2657188" lon="10.9287256"><ele>381.20000000000005</ele><time>2026-04-03T12:07:15.04Z</time></trkpt><trkpt lat="43.2658071" lon="10.9286706"><ele>383.6</ele><time>2026-04-03T12:07:16.05Z</time></trkpt><trkpt lat="43.2658978" lon="10.9286206"><ele>386.0</ele><time>2026-04-03T12:07:17.046Z</time></trkpt><trkpt lat="43.2659897" lon="10.9285674"><ele>386.0</ele><time>2026-04-03T12:07:18.04Z</time></trkpt><trkpt lat="43.2660844" lon="10.9285056"><ele>386.0</ele><time>2026-04-03T12:07:19.044Z</time></trkpt><trkpt lat="43.2661882" lon="10.9284312"><ele>386.0</ele><time>2026-04-03T12:07:20.039Z</time></trkpt><trkpt lat="43.2663026" lon="10.9283504"><ele>386.0</ele><time>2026-04-03T12:07:21.047Z</time></trkpt><trkpt lat="43.2664189" lon="10.9282769"><ele>387.0</ele><time>2026-04-03T12:07:22.05Z</time></trkpt><trkpt lat="43.2665181" lon="10.9281987"><ele>388.0</ele><time>2026-04-03T12:07:23.049Z</time></trkpt><trkpt lat="43.2665929" lon="10.9281009"><ele>389.0</ele><time>2026-04-03T12:07:24.046Z</time></trkpt><trkpt lat="43.2666446" lon="10.9279843"><ele>390.0</ele><time>2026-04-03T12:07:25.054Z</time></trkpt><trkpt lat="43.2666802" lon="10.9278562"><ele>391.0</ele><time>2026-04-03T12:07:26.045Z</time></trkpt><trkpt lat="43.2666789" lon="10.927713"><ele>391.0</ele><time>2026-04-03T12:07:27.042Z</time></trkpt><trkpt lat="43.2666706" lon="10.9275707"><ele>391.0</ele><time>2026-04-03T12:07:28.041Z</time></trkpt><trkpt lat="43.2666808" lon="10.9274482"><ele>391.0</ele><time>2026-04-03T12:07:29.048Z</time></trkpt><trkpt lat="43.2667243" lon="10.9273478"><ele>391.0</ele><time>2026-04-03T12:07:30.037Z</time></trkpt><trkpt lat="43.2667956" lon="10.9272597"><ele>391.0</ele><time>2026-04-03T12:07:31.048Z</time></trkpt><trkpt lat="43.2668916" lon="10.9271896"><ele>390.6</ele><time>2026-04-03T12:07:32.045Z</time></trkpt><trkpt lat="43.2669954" lon="10.9271433"><ele>390.20000000000005</ele><time>2026-04-03T12:07:33.037Z</time></trkpt><trkpt lat="43.267099" lon="10.9271262"><ele>389.79999999999995</ele><time>2026-04-03T12:07:34.045Z</time></trkpt><trkpt lat="43.2671943" lon="10.9271174"><ele>389.4</ele><time>2026-04-03T12:07:35.046Z</time></trkpt><trkpt lat="43.2672914" lon="10.9271495"><ele>389.0</ele><time>2026-04-03T12:07:36.058Z</time></trkpt><trkpt lat="43.2673843" lon="10.9271916"><ele>390.25</ele><time>2026-04-03T12:07:37.046Z</time></trkpt><trkpt lat="43.2674854" lon="10.9272457"><ele>391.5</ele><time>2026-04-03T12:07:38.037Z</time></trkpt><trkpt lat="43.2675918" lon="10.9273014"><ele>392.75</ele><time>2026-04-03T12:07:39.044Z</time></trkpt><trkpt lat="43.2677044" lon="10.9273542"><ele>394.0</ele><time>2026-04-03T12:07:40.047Z</time></trkpt><trkpt lat="43.2678189" lon="10.9274095"><ele>394.0</ele><time>2026-04-03T12:07:41.048Z</time></trkpt><trkpt lat="43.2679303" lon="10.9274662"><ele>394.0</ele><time>2026-04-03T12:07:42.051Z</time></trkpt><trkpt lat="43.2680415" lon="10.927518"><ele>394.0</ele><time>2026-04-03T12:07:43.049Z</time></trkpt><trkpt lat="43.2681531" lon="10.9275696"><ele>394.0</ele><time>2026-04-03T12:07:44.083Z</time></trkpt><trkpt lat="43.2682564" lon="10.9276266"><ele>395.4</ele><time>2026-04-03T12:07:45.045Z</time></trkpt><trkpt lat="43.2683572" lon="10.9276955"><ele>396.79999999999995</ele><time>2026-04-03T12:07:46.046Z</time></trkpt><trkpt lat="43.2684553" lon="10.9277704"><ele>398.20000000000005</ele><time>2026-04-03T12:07:47.054Z</time></trkpt><trkpt lat="43.2685492" lon="10.9278454"><ele>399.6</ele><time>2026-04-03T12:07:48.053Z</time></trkpt><trkpt lat="43.2686402" lon="10.927919"><ele>401.0</ele><time>2026-04-03T12:07:49.094Z</time></trkpt><trkpt lat="43.2687204" lon="10.9279979"><ele>401.0</ele><time>2026-04-03T12:07:50.05Z</time></trkpt><trkpt lat="43.2688058" lon="10.9280723"><ele>401.0</ele><time>2026-04-03T12:07:51.06Z</time></trkpt><trkpt lat="43.2688906" lon="10.9281373"><ele>401.0</ele><time>2026-04-03T12:07:52.049Z</time></trkpt><trkpt lat="43.2689729" lon="10.9282036"><ele>401.0</ele><time>2026-04-03T12:07:53.046Z</time></trkpt><trkpt lat="43.2690558" lon="10.9282647"><ele>401.0</ele><time>2026-04-03T12:07:54.051Z</time></trkpt><trkpt lat="43.2691408" lon="10.9283193"><ele>402.66666666666663</ele><time>2026-04-03T12:07:55.044Z</time></trkpt><trkpt lat="43.2692336" lon="10.9283715"><ele>404.3333333333333</ele><time>2026-04-03T12:07:56.044Z</time></trkpt><trkpt lat="43.2693205" lon="10.9284269"><ele>406.0</ele><time>2026-04-03T12:07:57.051Z</time></trkpt><trkpt lat="43.269395" lon="10.9284845"><ele>407.66666666666663</ele><time>2026-04-03T12:07:58.047Z</time></trkpt><trkpt lat="43.2694618" lon="10.928539"><ele>409.3333333333333</ele><time>2026-04-03T12:07:59.047Z</time></trkpt><trkpt lat="43.2695109" lon="10.928606"><ele>411.0</ele><time>2026-04-03T12:08:00.053Z</time></trkpt><trkpt lat="43.2695496" lon="10.9286883"><ele>411.5</ele><time>2026-04-03T12:08:01.07Z</time></trkpt><trkpt lat="43.2695665" lon="10.9287731"><ele>412.0</ele><time>2026-04-03T12:08:02.048Z</time></trkpt><trkpt lat="43.2695658" lon="10.9289217"><ele>412.5</ele><time>2026-04-03T12:08:04.06Z</time></trkpt><trkpt lat="43.2695623" lon="10.9290278"><ele>413.0</ele><time>2026-04-03T12:08:06.057Z</time></trkpt><trkpt lat="43.2695739" lon="10.9291261"><ele>413.5</ele><time>2026-04-03T12:08:09.049Z</time></trkpt><trkpt lat="43.2695896" lon="10.9292271"><ele>414.0</ele><time>2026-04-03T12:08:12.097Z</time></trkpt><trkpt lat="43.2696442" lon="10.9293042"><ele>415.3333333333333</ele><time>2026-04-03T12:08:13.036Z</time></trkpt><trkpt lat="43.2697021" lon="10.9293716"><ele>416.66666666666663</ele><time>2026-04-03T12:08:14.041Z</time></trkpt><trkpt lat="43.2697652" lon="10.9294321"><ele>418.0</ele><time>2026-04-03T12:08:15.046Z</time></trkpt><trkpt lat="43.2698292" lon="10.9294881"><ele>419.3333333333333</ele><time>2026-04-03T12:08:16.05Z</time></trkpt><trkpt lat="43.2699019" lon="10.9295406"><ele>420.66666666666663</ele><time>2026-04-03T12:08:17.048Z</time></trkpt><trkpt lat="43.2699782" lon="10.9295929"><ele>422.0</ele><time>2026-04-03T12:08:18.051Z</time></trkpt><trkpt lat="43.2700525" lon="10.9296446"><ele>421.99999999999994</ele><time>2026-04-03T12:08:19.04Z</time></trkpt><trkpt lat="43.2701285" lon="10.9296808"><ele>422.0</ele><time>2026-04-03T12:08:20.046Z</time></trkpt><trkpt lat="43.2701998" lon="10.9297104"><ele>422.0</ele><time>2026-04-03T12:08:21.049Z</time></trkpt><trkpt lat="43.270271" lon="10.9297288"><ele>422.0</ele><time>2026-04-03T12:08:22.042Z</time></trkpt><trkpt lat="43.2703516" lon="10.9297379"><ele>421.99999999999994</ele><time>2026-04-03T12:08:23.042Z</time></trkpt><trkpt lat="43.270436" lon="10.9297392"><ele>422.0</ele><time>2026-04-03T12:08:24.039Z</time></trkpt><trkpt lat="43.2705154" lon="10.9297456"><ele>422.0</ele><time>2026-04-03T12:08:25.044Z</time></trkpt><trkpt lat="43.270586" lon="10.9297628"><ele>422.0</ele><time>2026-04-03T12:08:26.061Z</time></trkpt><trkpt lat="43.2707018" lon="10.9297891"><ele>422.0</ele><time>2026-04-03T12:08:28.047Z</time></trkpt><trkpt lat="43.2708026" lon="10.9297654"><ele>422.0</ele><time>2026-04-03T12:08:30.042Z</time></trkpt><trkpt lat="43.2708774" lon="10.9297273"><ele>422.0</ele><time>2026-04-03T12:08:32.054Z</time></trkpt><trkpt lat="43.2709484" lon="10.9296676"><ele>421.8</ele><time>2026-04-03T12:08:34.055Z</time></trkpt><trkpt lat="43.2709998" lon="10.9296064"><ele>421.6</ele><time>2026-04-03T12:08:36.042Z</time></trkpt><trkpt lat="43.2710667" lon="10.9295449"><ele>421.40000000000003</ele><time>2026-04-03T12:09:08.053Z</time></trkpt><trkpt lat="43.2711631" lon="10.9294751"><ele>421.20000000000005</ele><time>2026-04-03T12:09:09.045Z</time></trkpt><trkpt lat="43.2712644" lon="10.9294089"><ele>421.0</ele><time>2026-04-03T12:09:10.049Z</time></trkpt><trkpt lat="43.2713688" lon="10.9293429"><ele>420.25</ele><time>2026-04-03T12:09:11.051Z</time></trkpt><trkpt lat="43.2714738" lon="10.9292797"><ele>419.5</ele><time>2026-04-03T12:09:12.05Z</time></trkpt><trkpt lat="43.2715824" lon="10.9292246"><ele>418.75</ele><time>2026-04-03T12:09:13.046Z</time></trkpt><trkpt lat="43.2716934" lon="10.9291817"><ele>418.0</ele><time>2026-04-03T12:09:14.057Z</time></trkpt><trkpt lat="43.2717966" lon="10.9291484"><ele>418.0</ele><time>2026-04-03T12:09:15.046Z</time></trkpt><trkpt lat="43.2718977" lon="10.9291199"><ele>418.0</ele><time>2026-04-03T12:09:16.048Z</time></trkpt><trkpt lat="43.2720018" lon="10.9290953"><ele>418.0</ele><time>2026-04-03T12:09:17.048Z</time></trkpt><trkpt lat="43.2721102" lon="10.9290797"><ele>418.0</ele><time>2026-04-03T12:09:18.037Z</time></trkpt><trkpt lat="43.2722233" lon="10.9290713"><ele>418.0</ele><time>2026-04-03T12:09:19.037Z</time></trkpt><trkpt lat="43.2723369" lon="10.9290676"><ele>417.59999999999997</ele><time>2026-04-03T12:09:20.044Z</time></trkpt><trkpt lat="43.2724447" lon="10.9290713"><ele>417.2</ele><time>2026-04-03T12:09:21.05Z</time></trkpt><trkpt lat="43.2725434" lon="10.9290838"><ele>416.8</ele><time>2026-04-03T12:09:22.044Z</time></trkpt><trkpt lat="43.2726343" lon="10.9291093"><ele>416.4</ele><time>2026-04-03T12:09:23.049Z</time></trkpt><trkpt lat="43.2727158" lon="10.929156"><ele>416.0</ele><time>2026-04-03T12:09:24.042Z</time></trkpt><trkpt lat="43.2727878" lon="10.929213"><ele>418.4</ele><time>2026-04-03T12:09:25.064Z</time></trkpt><trkpt lat="43.2728381" lon="10.9293031"><ele>420.8</ele><time>2026-04-03T12:09:26.04Z</time></trkpt><trkpt lat="43.2728731" lon="10.9294248"><ele>423.19999999999993</ele><time>2026-04-03T12:09:27.045Z</time></trkpt><trkpt lat="43.2729107" lon="10.929566"><ele>425.59999999999997</ele><time>2026-04-03T12:09:28.049Z</time></trkpt><trkpt lat="43.2729647" lon="10.9297007"><ele>428.0</ele><time>2026-04-03T12:09:29.041Z</time></trkpt><trkpt lat="43.2730325" lon="10.929812"><ele>427.99999999999994</ele><time>2026-04-03T12:09:30.044Z</time></trkpt><trkpt lat="43.273096" lon="10.9298987"><ele>428.0</ele><time>2026-04-03T12:09:31.043Z</time></trkpt><trkpt lat="43.2731625" lon="10.9299512"><ele>428.0</ele><time>2026-04-03T12:09:32.038Z</time></trkpt><trkpt lat="43.2732433" lon="10.9299331"><ele>428.0</ele><time>2026-04-03T12:09:33.049Z</time></trkpt><trkpt lat="43.2733255" lon="10.9298707"><ele>427.99999999999994</ele><time>2026-04-03T12:09:34.044Z</time></trkpt><trkpt lat="43.273411" lon="10.9297879"><ele>428.0</ele><time>2026-04-03T12:09:35.053Z</time></trkpt><trkpt lat="43.273511" lon="10.9297168"><ele>427.59999999999997</ele><time>2026-04-03T12:09:36.042Z</time></trkpt><trkpt lat="43.2736218" lon="10.9296625"><ele>427.19999999999993</ele><time>2026-04-03T12:09:37.046Z</time></trkpt><trkpt lat="43.2737295" lon="10.9296233"><ele>426.8</ele><time>2026-04-03T12:09:38.041Z</time></trkpt><trkpt lat="43.2738284" lon="10.9295923"><ele>426.4</ele><time>2026-04-03T12:09:39.046Z</time></trkpt><trkpt lat="43.2739125" lon="10.9295925"><ele>426.0</ele><time>2026-04-03T12:09:40.042Z</time></trkpt><trkpt lat="43.2739845" lon="10.9296351"><ele>427.6</ele><time>2026-04-03T12:09:41.048Z</time></trkpt><trkpt lat="43.2740289" lon="10.9297304"><ele>429.20000000000005</ele><time>2026-04-03T12:09:42.039Z</time></trkpt><trkpt lat="43.27406" lon="10.9298552"><ele>430.79999999999995</ele><time>2026-04-03T12:09:43.041Z</time></trkpt><trkpt lat="43.2740828" lon="10.9299873"><ele>432.4</ele><time>2026-04-03T12:09:44.067Z</time></trkpt><trkpt lat="43.2741114" lon="10.9301153"><ele>434.0</ele><time>2026-04-03T12:09:45.046Z</time></trkpt><trkpt lat="43.2741559" lon="10.930235"><ele>433.99999999999994</ele><time>2026-04-03T12:09:46.055Z</time></trkpt><trkpt lat="43.2742093" lon="10.9303458"><ele>434.0</ele><time>2026-04-03T12:09:47.053Z</time></trkpt><trkpt lat="43.274263" lon="10.930442"><ele>434.0</ele><time>2026-04-03T12:09:48.047Z</time></trkpt><trkpt lat="43.274316" lon="10.930501"><ele>434.0</ele><time>2026-04-03T12:09:49.052Z</time></trkpt><trkpt lat="43.274428" lon="10.9304879"><ele>433.99999999999994</ele><time>2026-04-03T12:09:51.05Z</time></trkpt><trkpt lat="43.2744773" lon="10.9304128"><ele>434.0</ele><time>2026-04-03T12:09:52.048Z</time></trkpt><trkpt lat="43.2745279" lon="10.9303106"><ele>434.0</ele><time>2026-04-03T12:09:53.037Z</time></trkpt><trkpt lat="43.274577" lon="10.9301896"><ele>434.0</ele><time>2026-04-03T12:09:54.054Z</time></trkpt><trkpt lat="43.274623" lon="10.9300588"><ele>434.0</ele><time>2026-04-03T12:09:55.044Z</time></trkpt><trkpt lat="43.2746738" lon="10.92992"><ele>434.0</ele><time>2026-04-03T12:09:56.042Z</time></trkpt><trkpt lat="43.2747398" lon="10.9297876"><ele>434.0</ele><time>2026-04-03T12:09:57.057Z</time></trkpt><trkpt lat="43.2748198" lon="10.9296726"><ele>431.2</ele><time>2026-04-03T12:09:58.051Z</time></trkpt><trkpt lat="43.2749052" lon="10.9295733"><ele>428.4</ele><time>2026-04-03T12:09:59.039Z</time></trkpt><trkpt lat="43.2749922" lon="10.9294913"><ele>425.6</ele><time>2026-04-03T12:10:00.045Z</time></trkpt><trkpt lat="43.2750811" lon="10.9294403"><ele>422.8</ele><time>2026-04-03T12:10:01.053Z</time></trkpt><trkpt lat="43.2751752" lon="10.9294215"><ele>420.0</ele><time>2026-04-03T12:10:02.04Z</time></trkpt><trkpt lat="43.2752751" lon="10.9294389"><ele>420.0</ele><time>2026-04-03T12:10:03.047Z</time></trkpt><trkpt lat="43.2753731" lon="10.9294813"><ele>420.0</ele><time>2026-04-03T12:10:04.048Z</time></trkpt><trkpt lat="43.2754688" lon="10.9295614"><ele>420.0</ele><time>2026-04-03T12:10:05.041Z</time></trkpt><trkpt lat="43.275568" lon="10.9296448"><ele>420.0</ele><time>2026-04-03T12:10:06.047Z</time></trkpt><trkpt lat="43.2756694" lon="10.9297179"><ele>420.0</ele><time>2026-04-03T12:10:07.049Z</time></trkpt><trkpt lat="43.2757674" lon="10.9297697"><ele>420.0</ele><time>2026-04-03T12:10:08.052Z</time></trkpt><trkpt lat="43.2758572" lon="10.9297863"><ele>420.0</ele><time>2026-04-03T12:10:09.04Z</time></trkpt><trkpt lat="43.275934" lon="10.9297593"><ele>420.0</ele><time>2026-04-03T12:10:10.041Z</time></trkpt><trkpt lat="43.2759821" lon="10.9296836"><ele>420.0</ele><time>2026-04-03T12:10:11.046Z</time></trkpt><trkpt lat="43.276004" lon="10.9295735"><ele>420.0</ele><time>2026-04-03T12:10:12.04Z</time></trkpt><trkpt lat="43.2760206" lon="10.9294491"><ele>420.0</ele><time>2026-04-03T12:10:13.047Z</time></trkpt><trkpt lat="43.27606" lon="10.9293429"><ele>420.0</ele><time>2026-04-03T12:10:14.047Z</time></trkpt><trkpt lat="43.2761262" lon="10.9292803"><ele>420.0</ele><time>2026-04-03T12:10:15.049Z</time></trkpt><trkpt lat="43.2762137" lon="10.9292538"><ele>420.0</ele><time>2026-04-03T12:10:16.04Z</time></trkpt><trkpt lat="43.2763027" lon="10.9292225"><ele>420.0</ele><time>2026-04-03T12:10:17.048Z</time></trkpt><trkpt lat="43.2763715" lon="10.9291439"><ele>420.0</ele><time>2026-04-03T12:10:18.055Z</time></trkpt><trkpt lat="43.2764148" lon="10.9290219"><ele>418.0</ele><time>2026-04-03T12:10:19.044Z</time></trkpt><trkpt lat="43.2764431" lon="10.9288726"><ele>416.0</ele><time>2026-04-03T12:10:20.052Z</time></trkpt><trkpt lat="43.2764768" lon="10.9287257"><ele>414.0</ele><time>2026-04-03T12:10:21.047Z</time></trkpt><trkpt lat="43.2765352" lon="10.9286042"><ele>412.0</ele><time>2026-04-03T12:10:22.049Z</time></trkpt><trkpt lat="43.2766086" lon="10.9284897"><ele>410.0</ele><time>2026-04-03T12:10:23.05Z</time></trkpt><trkpt lat="43.2767027" lon="10.9283932"><ele>405.0</ele><time>2026-04-03T12:10:24.046Z</time></trkpt><trkpt lat="43.2767992" lon="10.9283084"><ele>400.0</ele><time>2026-04-03T12:10:25.045Z</time></trkpt><trkpt lat="43.2768919" lon="10.9282247"><ele>395.0</ele><time>2026-04-03T12:10:26.045Z</time></trkpt><trkpt lat="43.2769994" lon="10.9281651"><ele>390.0</ele><time>2026-04-03T12:10:27.051Z</time></trkpt><trkpt lat="43.2771142" lon="10.9281231"><ele>390.0</ele><time>2026-04-03T12:10:28.044Z</time></trkpt><trkpt lat="43.277236" lon="10.9281001"><ele>390.0</ele><time>2026-04-03T12:10:29.039Z</time></trkpt><trkpt lat="43.277358" lon="10.9280827"><ele>390.0</ele><time>2026-04-03T12:10:30.039Z</time></trkpt><trkpt lat="43.2774718" lon="10.9280642"><ele>390.0</ele><time>2026-04-03T12:10:31.048Z</time></trkpt><trkpt lat="43.2775749" lon="10.9280446"><ele>391.8</ele><time>2026-04-03T12:10:32.048Z</time></trkpt><trkpt lat="43.2776776" lon="10.9280377"><ele>393.6</ele><time>2026-04-03T12:10:33.041Z</time></trkpt><trkpt lat="43.2777857" lon="10.9280524"><ele>395.4</ele><time>2026-04-03T12:10:34.034Z</time></trkpt><trkpt lat="43.2778961" lon="10.9280857"><ele>397.2</ele><time>2026-04-03T12:10:35.087Z</time></trkpt><trkpt lat="43.2779965" lon="10.9281255"><ele>399.0</ele><time>2026-04-03T12:10:36.047Z</time></trkpt><trkpt lat="43.278093" lon="10.928163"><ele>399.0</ele><time>2026-04-03T12:10:37.051Z</time></trkpt><trkpt lat="43.2781859" lon="10.928202"><ele>399.0</ele><time>2026-04-03T12:10:38.043Z</time></trkpt><trkpt lat="43.2782794" lon="10.9282523"><ele>399.0</ele><time>2026-04-03T12:10:39.048Z</time></trkpt><trkpt lat="43.2783662" lon="10.928329"><ele>399.0</ele><time>2026-04-03T12:10:40.034Z</time></trkpt><trkpt lat="43.2784537" lon="10.9284155"><ele>399.0</ele><time>2026-04-03T12:10:41.051Z</time></trkpt><trkpt lat="43.2785248" lon="10.9285211"><ele>399.0</ele><time>2026-04-03T12:10:42.041Z</time></trkpt><trkpt lat="43.2785925" lon="10.9286356"><ele>399.0</ele><time>2026-04-03T12:10:43.042Z</time></trkpt><trkpt lat="43.2786468" lon="10.9287787"><ele>399.0</ele><time>2026-04-03T12:10:44.043Z</time></trkpt><trkpt lat="43.2787019" lon="10.9289286"><ele>399.0</ele><time>2026-04-03T12:10:45.05Z</time></trkpt><trkpt lat="43.2787623" lon="10.9290908"><ele>402.0</ele><time>2026-04-03T12:10:46.046Z</time></trkpt><trkpt lat="43.2788243" lon="10.9292576"><ele>405.0</ele><time>2026-04-03T12:10:47.05Z</time></trkpt><trkpt lat="43.2788839" lon="10.9294121"><ele>408.0</ele><time>2026-04-03T12:10:48.057Z</time></trkpt><trkpt lat="43.2789417" lon="10.9295538"><ele>411.0</ele><time>2026-04-03T12:10:49.055Z</time></trkpt><trkpt lat="43.2790018" lon="10.9296836"><ele>405.0</ele><time>2026-04-03T12:10:50.044Z</time></trkpt><trkpt lat="43.2790769" lon="10.929795"><ele>399.0</ele><time>2026-04-03T12:10:51.031Z</time></trkpt><trkpt lat="43.2791734" lon="10.9298877"><ele>393.0</ele><time>2026-04-03T12:10:52.047Z</time></trkpt><trkpt lat="43.2792797" lon="10.9299702"><ele>387.0</ele><time>2026-04-03T12:10:53.05Z</time></trkpt><trkpt lat="43.2793914" lon="10.9300466"><ele>386.75</ele><time>2026-04-03T12:10:54.042Z</time></trkpt><trkpt lat="43.2795073" lon="10.9301134"><ele>386.5</ele><time>2026-04-03T12:10:55.041Z</time></trkpt><trkpt lat="43.2796298" lon="10.9301704"><ele>386.25</ele><time>2026-04-03T12:10:56.039Z</time></trkpt><trkpt lat="43.2797536" lon="10.9302203"><ele>386.0</ele><time>2026-04-03T12:10:57.047Z</time></trkpt><trkpt lat="43.2798716" lon="10.9302653"><ele>386.0</ele><time>2026-04-03T12:10:58.047Z</time></trkpt><trkpt lat="43.2799793" lon="10.9303046"><ele>386.0</ele><time>2026-04-03T12:10:59.044Z</time></trkpt><trkpt lat="43.2800787" lon="10.9303373"><ele>386.0</ele><time>2026-04-03T12:11:00.055Z</time></trkpt><trkpt lat="43.2801711" lon="10.9303576"><ele>386.0</ele><time>2026-04-03T12:11:01.049Z</time></trkpt><trkpt lat="43.2802533" lon="10.9303825"><ele>386.0</ele><time>2026-04-03T12:11:02.039Z</time></trkpt><trkpt lat="43.2803304" lon="10.9304142"><ele>385.99999999999994</ele><time>2026-04-03T12:11:03.043Z</time></trkpt><trkpt lat="43.2803985" lon="10.930461"><ele>386.0</ele><time>2026-04-03T12:11:04.052Z</time></trkpt><trkpt lat="43.2804511" lon="10.9305258"><ele>386.0</ele><time>2026-04-03T12:11:05.044Z</time></trkpt><trkpt lat="43.2804836" lon="10.9306033"><ele>386.0</ele><time>2026-04-03T12:11:06.047Z</time></trkpt><trkpt lat="43.2805309" lon="10.9307142"><ele>385.99999999999994</ele><time>2026-04-03T12:11:08.051Z</time></trkpt><trkpt lat="43.2806226" lon="10.9306678"><ele>386.0</ele><time>2026-04-03T12:11:20.061Z</time></trkpt><trkpt lat="43.2806884" lon="10.9305427"><ele>383.3333333333333</ele><time>2026-04-03T12:11:21.047Z</time></trkpt><trkpt lat="43.2807475" lon="10.9304231"><ele>380.66666666666663</ele><time>2026-04-03T12:11:22.081Z</time></trkpt><trkpt lat="43.2808028" lon="10.9303297"><ele>378.0</ele><time>2026-04-03T12:11:23.046Z</time></trkpt><trkpt lat="43.2808628" lon="10.9302488"><ele>375.3333333333333</ele><time>2026-04-03T12:11:24.037Z</time></trkpt><trkpt lat="43.2809279" lon="10.9301769"><ele>372.66666666666663</ele><time>2026-04-03T12:11:25.041Z</time></trkpt><trkpt lat="43.2810024" lon="10.9301141"><ele>370.0</ele><time>2026-04-03T12:11:26.048Z</time></trkpt><trkpt lat="43.2810856" lon="10.9300569"><ele>368.8</ele><time>2026-04-03T12:11:27.05Z</time></trkpt><trkpt lat="43.2811756" lon="10.9299973"><ele>367.6</ele><time>2026-04-03T12:11:28.051Z</time></trkpt><trkpt lat="43.2812673" lon="10.929938"><ele>366.4</ele><time>2026-04-03T12:11:29.047Z</time></trkpt><trkpt lat="43.2813552" lon="10.929884"><ele>365.2</ele><time>2026-04-03T12:11:30.053Z</time></trkpt><trkpt lat="43.281443" lon="10.9298329"><ele>364.0</ele><time>2026-04-03T12:11:31.045Z</time></trkpt><trkpt lat="43.2815348" lon="10.9297841"><ele>363.4</ele><time>2026-04-03T12:11:32.045Z</time></trkpt><trkpt lat="43.2816309" lon="10.9297435"><ele>362.79999999999995</ele><time>2026-04-03T12:11:33.05Z</time></trkpt><trkpt lat="43.2817324" lon="10.9297213"><ele>362.20000000000005</ele><time>2026-04-03T12:11:34.053Z</time></trkpt><trkpt lat="43.2818365" lon="10.9297062"><ele>361.6</ele><time>2026-04-03T12:11:35.046Z</time></trkpt><trkpt lat="43.2819403" lon="10.9297156"><ele>361.0</ele><time>2026-04-03T12:11:36.054Z</time></trkpt><trkpt lat="43.2820429" lon="10.9297492"><ele>361.0</ele><time>2026-04-03T12:11:37.047Z</time></trkpt><trkpt lat="43.2821402" lon="10.929777"><ele>361.0</ele><time>2026-04-03T12:11:38.059Z</time></trkpt><trkpt lat="43.282242" lon="10.9297955"><ele>361.0</ele><time>2026-04-03T12:11:39.061Z</time></trkpt><trkpt lat="43.2823468" lon="10.9297899"><ele>361.0</ele><time>2026-04-03T12:11:40.052Z</time></trkpt><trkpt lat="43.282441" lon="10.9297597"><ele>361.0</ele><time>2026-04-03T12:11:41.046Z</time></trkpt><trkpt lat="43.2825197" lon="10.9297163"><ele>362.0</ele><time>2026-04-03T12:11:42.039Z</time></trkpt><trkpt lat="43.2825857" lon="10.9296714"><ele>363.0</ele><time>2026-04-03T12:11:43.05Z</time></trkpt><trkpt lat="43.2826358" lon="10.9296147"><ele>364.0</ele><time>2026-04-03T12:11:44.038Z</time></trkpt><trkpt lat="43.2827162" lon="10.9295043"><ele>365.0</ele><time>2026-04-03T12:11:46.04Z</time></trkpt><trkpt lat="43.2828213" lon="10.9293972"><ele>366.0</ele><time>2026-04-03T12:11:48.043Z</time></trkpt><trkpt lat="43.2828813" lon="10.9293421"><ele>366.0</ele><time>2026-04-03T12:11:49.047Z</time></trkpt><trkpt lat="43.2829503" lon="10.9292851"><ele>366.0</ele><time>2026-04-03T12:11:50.062Z</time></trkpt><trkpt lat="43.2830297" lon="10.9292347"><ele>366.0</ele><time>2026-04-03T12:11:51.044Z</time></trkpt><trkpt lat="43.2831197" lon="10.9291921"><ele>366.0</ele><time>2026-04-03T12:11:52.045Z</time></trkpt><trkpt lat="43.2832152" lon="10.9291546"><ele>366.0</ele><time>2026-04-03T12:11:53.047Z</time></trkpt><trkpt lat="43.2833041" lon="10.9291204"><ele>366.5</ele><time>2026-04-03T12:11:54.05Z</time></trkpt><trkpt lat="43.2833829" lon="10.9290892"><ele>367.0</ele><time>2026-04-03T12:11:55.075Z</time></trkpt><trkpt lat="43.2834598" lon="10.9290592"><ele>367.5</ele><time>2026-04-03T12:11:56.052Z</time></trkpt><trkpt lat="43.2835358" lon="10.9290315"><ele>368.0</ele><time>2026-04-03T12:11:57.068Z</time></trkpt><trkpt lat="43.2836072" lon="10.9290001"><ele>368.5</ele><time>2026-04-03T12:11:58.066Z</time></trkpt><trkpt lat="43.283677" lon="10.9289627"><ele>369.0</ele><time>2026-04-03T12:11:59.052Z</time></trkpt><trkpt lat="43.2837475" lon="10.9289188"><ele>369.0</ele><time>2026-04-03T12:12:00.061Z</time></trkpt><trkpt lat="43.2838144" lon="10.928858"><ele>369.0</ele><time>2026-04-03T12:12:01.052Z</time></trkpt><trkpt lat="43.283873" lon="10.9287904"><ele>369.0</ele><time>2026-04-03T12:12:02.038Z</time></trkpt><trkpt lat="43.2839336" lon="10.9287143"><ele>369.0</ele><time>2026-04-03T12:12:03.039Z</time></trkpt><trkpt lat="43.2840007" lon="10.9286401"><ele>369.0</ele><time>2026-04-03T12:12:04.045Z</time></trkpt><trkpt lat="43.2840734" lon="10.9285794"><ele>369.0</ele><time>2026-04-03T12:12:05.035Z</time></trkpt><trkpt lat="43.2841581" lon="10.9285415"><ele>370.5</ele><time>2026-04-03T12:12:06.05Z</time></trkpt><trkpt lat="43.2842455" lon="10.9285373"><ele>372.0</ele><time>2026-04-03T12:12:07.046Z</time></trkpt><trkpt lat="43.2843295" lon="10.9285414"><ele>373.5</ele><time>2026-04-03T12:12:08.034Z</time></trkpt><trkpt lat="43.2844113" lon="10.9285376"><ele>375.0</ele><time>2026-04-03T12:12:09.049Z</time></trkpt><trkpt lat="43.2844872" lon="10.9285298"><ele>376.5</ele><time>2026-04-03T12:12:10.046Z</time></trkpt><trkpt lat="43.2845632" lon="10.9285209"><ele>378.0</ele><time>2026-04-03T12:12:11.04Z</time></trkpt><trkpt lat="43.2846396" lon="10.9285129"><ele>378.0</ele><time>2026-04-03T12:12:12.045Z</time></trkpt><trkpt lat="43.2847367" lon="10.9285027"><ele>378.0</ele><time>2026-04-03T12:12:13.046Z</time></trkpt><trkpt lat="43.2848354" lon="10.9284785"><ele>378.0</ele><time>2026-04-03T12:12:14.044Z</time></trkpt><trkpt lat="43.2849268" lon="10.9284513"><ele>378.0</ele><time>2026-04-03T12:12:15.05Z</time></trkpt><trkpt lat="43.2850005" lon="10.9284151"><ele>378.0</ele><time>2026-04-03T12:12:16.055Z</time></trkpt><trkpt lat="43.2850802" lon="10.9283875"><ele>375.0</ele><time>2026-04-03T12:12:17.043Z</time></trkpt><trkpt lat="43.2851715" lon="10.9283723"><ele>372.0</ele><time>2026-04-03T12:12:18.039Z</time></trkpt><trkpt lat="43.2852704" lon="10.9283528"><ele>369.0</ele><time>2026-04-03T12:12:19.048Z</time></trkpt><trkpt lat="43.2853665" lon="10.9283229"><ele>366.0</ele><time>2026-04-03T12:12:20.049Z</time></trkpt><trkpt lat="43.2854549" lon="10.9282757"><ele>363.0</ele><time>2026-04-03T12:12:21.041Z</time></trkpt><trkpt lat="43.2855389" lon="10.9282265"><ele>364.0</ele><time>2026-04-03T12:12:22.052Z</time></trkpt><trkpt lat="43.2856211" lon="10.9281866"><ele>365.0</ele><time>2026-04-03T12:12:23.054Z</time></trkpt><trkpt lat="43.2857035" lon="10.928161"><ele>366.0</ele><time>2026-04-03T12:12:24.049Z</time></trkpt><trkpt lat="43.2857908" lon="10.9281392"><ele>367.0</ele><time>2026-04-03T12:12:25.048Z</time></trkpt><trkpt lat="43.2858814" lon="10.928124"><ele>368.0</ele><time>2026-04-03T12:12:26.05Z</time></trkpt><trkpt lat="43.2859854" lon="10.9281143"><ele>368.0</ele><time>2026-04-03T12:12:27.036Z</time></trkpt><trkpt lat="43.2861016" lon="10.928108"><ele>368.0</ele><time>2026-04-03T12:12:28.04Z</time></trkpt><trkpt lat="43.286217" lon="10.9281017"><ele>368.0</ele><time>2026-04-03T12:12:29.049Z</time></trkpt><trkpt lat="43.2863254" lon="10.9280871"><ele>368.0</ele><time>2026-04-03T12:12:30.041Z</time></trkpt><trkpt lat="43.2864286" lon="10.9280741"><ele>368.0</ele><time>2026-04-03T12:12:31.04Z</time></trkpt><trkpt lat="43.2865265" lon="10.9280659"><ele>368.1666666666667</ele><time>2026-04-03T12:12:32.045Z</time></trkpt><trkpt lat="43.2866231" lon="10.9280595"><ele>368.33333333333337</ele><time>2026-04-03T12:12:33.044Z</time></trkpt><trkpt lat="43.2867172" lon="10.928051"><ele>368.5</ele><time>2026-04-03T12:12:34.036Z</time></trkpt><trkpt lat="43.2868072" lon="10.9280408"><ele>368.6666666666667</ele><time>2026-04-03T12:12:35.043Z</time></trkpt><trkpt lat="43.2868897" lon="10.928032"><ele>368.8333333333333</ele><time>2026-04-03T12:12:36.043Z</time></trkpt><trkpt lat="43.2869592" lon="10.9280226"><ele>369.0</ele><time>2026-04-03T12:12:37.038Z</time></trkpt><trkpt lat="43.2870246" lon="10.9280066"><ele>369.0</ele><time>2026-04-03T12:12:38.057Z</time></trkpt><trkpt lat="43.2871018" lon="10.9278835"><ele>369.0</ele><time>2026-04-03T12:12:40.044Z</time></trkpt><trkpt lat="43.287125" lon="10.9277939"><ele>369.0</ele><time>2026-04-03T12:12:41.05Z</time></trkpt><trkpt lat="43.2871257" lon="10.9276791"><ele>369.0</ele><time>2026-04-03T12:12:42.041Z</time></trkpt><trkpt lat="43.2871276" lon="10.9275582"><ele>369.0</ele><time>2026-04-03T12:12:43.029Z</time></trkpt><trkpt lat="43.287145" lon="10.927453"><ele>369.0</ele><time>2026-04-03T12:12:44.052Z</time></trkpt><trkpt lat="43.2871832" lon="10.9273632"><ele>367.6666666666667</ele><time>2026-04-03T12:12:45.043Z</time></trkpt><trkpt lat="43.2872423" lon="10.9273007"><ele>366.3333333333333</ele><time>2026-04-03T12:12:46.044Z</time></trkpt><trkpt lat="43.2873026" lon="10.9272575"><ele>365.0</ele><time>2026-04-03T12:12:47.055Z</time></trkpt><trkpt lat="43.2873713" lon="10.9272533"><ele>363.66666666666663</ele><time>2026-04-03T12:12:48.045Z</time></trkpt><trkpt lat="43.2874564" lon="10.9272829"><ele>362.3333333333333</ele><time>2026-04-03T12:12:49.046Z</time></trkpt><trkpt lat="43.2875494" lon="10.927318"><ele>361.0</ele><time>2026-04-03T12:12:50.059Z</time></trkpt><trkpt lat="43.2876348" lon="10.9273456"><ele>361.0</ele><time>2026-04-03T12:12:51.041Z</time></trkpt><trkpt lat="43.287709" lon="10.927361"><ele>361.0</ele><time>2026-04-03T12:12:52.04Z</time></trkpt><trkpt lat="43.2877807" lon="10.9273621"><ele>361.0</ele><time>2026-04-03T12:12:53.049Z</time></trkpt><trkpt lat="43.2878618" lon="10.9273452"><ele>361.0</ele><time>2026-04-03T12:12:54.042Z</time></trkpt><trkpt lat="43.2879486" lon="10.9273274"><ele>361.0</ele><time>2026-04-03T12:12:55.042Z</time></trkpt><trkpt lat="43.2880302" lon="10.9273107"><ele>361.0</ele><time>2026-04-03T12:12:56.043Z</time></trkpt><trkpt lat="43.2881161" lon="10.9272917"><ele>360.0</ele><time>2026-04-03T12:12:57.053Z</time></trkpt><trkpt lat="43.2882021" lon="10.9272691"><ele>359.0</ele><time>2026-04-03T12:12:58.046Z</time></trkpt><trkpt lat="43.2882778" lon="10.9272322"><ele>358.0</ele><time>2026-04-03T12:12:59.044Z</time></trkpt><trkpt lat="43.2883466" lon="10.9271844"><ele>357.0</ele><time>2026-04-03T12:13:00.05Z</time></trkpt><trkpt lat="43.2884095" lon="10.9271201"><ele>356.0</ele><time>2026-04-03T12:13:01.045Z</time></trkpt><trkpt lat="43.2884735" lon="10.9270534"><ele>355.0</ele><time>2026-04-03T12:13:02.051Z</time></trkpt><trkpt lat="43.2885344" lon="10.9270081"><ele>355.0</ele><time>2026-04-03T12:13:03.045Z</time></trkpt><trkpt lat="43.2886021" lon="10.9269977"><ele>355.0</ele><time>2026-04-03T12:13:04.041Z</time></trkpt><trkpt lat="43.2886742" lon="10.9269989"><ele>355.0</ele><time>2026-04-03T12:13:05.046Z</time></trkpt><trkpt lat="43.2887503" lon="10.9270201"><ele>355.0</ele><time>2026-04-03T12:13:06.049Z</time></trkpt><trkpt lat="43.2888291" lon="10.9270689"><ele>355.0</ele><time>2026-04-03T12:13:07.055Z</time></trkpt><trkpt lat="43.2889021" lon="10.9271197"><ele>355.0</ele><time>2026-04-03T12:13:08.039Z</time></trkpt><trkpt lat="43.2889719" lon="10.9271751"><ele>353.66666666666663</ele><time>2026-04-03T12:13:09.056Z</time></trkpt><trkpt lat="43.2890443" lon="10.9272306"><ele>352.3333333333333</ele><time>2026-04-03T12:13:10.053Z</time></trkpt><trkpt lat="43.2891141" lon="10.9272958"><ele>351.0</ele><time>2026-04-03T12:13:11.065Z</time></trkpt><trkpt lat="43.2891717" lon="10.9273645"><ele>349.6666666666667</ele><time>2026-04-03T12:13:12.05Z</time></trkpt><trkpt lat="43.2892163" lon="10.9274263"><ele>348.33333333333337</ele><time>2026-04-03T12:13:13.06Z</time></trkpt><trkpt lat="43.2892668" lon="10.9275401"><ele>347.0</ele><time>2026-04-03T12:13:15.042Z</time></trkpt><trkpt lat="43.2892953" lon="10.9276593"><ele>347.0</ele><time>2026-04-03T12:13:17.047Z</time></trkpt><trkpt lat="43.2892919" lon="10.9277818"><ele>347.0</ele><time>2026-04-03T12:13:19.055Z</time></trkpt><trkpt lat="43.289277" lon="10.9278804"><ele>347.0</ele><time>2026-04-03T12:13:21.048Z</time></trkpt><trkpt lat="43.2892302" lon="10.9280252"><ele>347.0</ele><time>2026-04-03T12:13:25.051Z</time></trkpt><trkpt lat="43.2891911" lon="10.9281187"><ele>347.0</ele><time>2026-04-03T12:13:27.103Z</time></trkpt><trkpt lat="43.2891364" lon="10.928238"><ele>347.0</ele><time>2026-04-03T12:13:29.063Z</time></trkpt><trkpt lat="43.2890846" lon="10.928355"><ele>347.0</ele><time>2026-04-03T12:13:31.058Z</time></trkpt><trkpt lat="43.2890498" lon="10.9284377"><ele>347.0</ele><time>2026-04-03T12:13:32.047Z</time></trkpt><trkpt lat="43.2890165" lon="10.9285281"><ele>347.0</ele><time>2026-04-03T12:13:33.051Z</time></trkpt><trkpt lat="43.2889879" lon="10.9286133"><ele>347.0</ele><time>2026-04-03T12:13:34.056Z</time></trkpt><trkpt lat="43.2889677" lon="10.9286973"><ele>347.0</ele><time>2026-04-03T12:13:35.054Z</time></trkpt><trkpt lat="43.2889622" lon="10.928789"><ele>347.0</ele><time>2026-04-03T12:13:36.065Z</time></trkpt><trkpt lat="43.288973" lon="10.9288914"><ele>347.83333333333337</ele><time>2026-04-03T12:13:37.054Z</time></trkpt><trkpt lat="43.2889982" lon="10.9289892"><ele>348.6666666666667</ele><time>2026-04-03T12:13:38.05Z</time></trkpt><trkpt lat="43.289027" lon="10.929081"><ele>349.5</ele><time>2026-04-03T12:13:39.049Z</time></trkpt><trkpt lat="43.2890767" lon="10.9291578"><ele>350.3333333333333</ele><time>2026-04-03T12:13:40.063Z</time></trkpt><trkpt lat="43.2891502" lon="10.9292188"><ele>351.16666666666663</ele><time>2026-04-03T12:13:41.044Z</time></trkpt><trkpt lat="43.2892373" lon="10.9292739"><ele>352.0</ele><time>2026-04-03T12:13:42.055Z</time></trkpt><trkpt lat="43.2893247" lon="10.9293404"><ele>351.40000000000003</ele><time>2026-04-03T12:13:43.043Z</time></trkpt><trkpt lat="43.289417" lon="10.9294085"><ele>350.8</ele><time>2026-04-03T12:13:44.034Z</time></trkpt><trkpt lat="43.2895081" lon="10.929476"><ele>350.2</ele><time>2026-04-03T12:13:45.05Z</time></trkpt><trkpt lat="43.2895935" lon="10.9295425"><ele>349.6</ele><time>2026-04-03T12:13:46.051Z</time></trkpt><trkpt lat="43.289678" lon="10.9296067"><ele>349.0</ele><time>2026-04-03T12:13:47.049Z</time></trkpt><trkpt lat="43.2897592" lon="10.9296668"><ele>349.0</ele><time>2026-04-03T12:13:48.043Z</time></trkpt><trkpt lat="43.2898451" lon="10.929721"><ele>349.0</ele><time>2026-04-03T12:13:49.05Z</time></trkpt><trkpt lat="43.2899287" lon="10.9297697"><ele>349.0</ele><time>2026-04-03T12:13:50.038Z</time></trkpt><trkpt lat="43.2900113" lon="10.9298073"><ele>349.0</ele><time>2026-04-03T12:13:51.038Z</time></trkpt><trkpt lat="43.2900959" lon="10.9298403"><ele>349.0</ele><time>2026-04-03T12:13:52.044Z</time></trkpt><trkpt lat="43.2901847" lon="10.9298725"><ele>349.0</ele><time>2026-04-03T12:13:53.037Z</time></trkpt><trkpt lat="43.2902768" lon="10.9299028"><ele>349.0</ele><time>2026-04-03T12:13:54.037Z</time></trkpt><trkpt lat="43.2903608" lon="10.9299284"><ele>349.0</ele><time>2026-04-03T12:13:55.053Z</time></trkpt><trkpt lat="43.2904402" lon="10.9299512"><ele>349.0</ele><time>2026-04-03T12:13:56.034Z</time></trkpt><trkpt lat="43.2905224" lon="10.9299723"><ele>349.0</ele><time>2026-04-03T12:13:57.041Z</time></trkpt><trkpt lat="43.2906262" lon="10.9299902"><ele>346.5</ele><time>2026-04-03T12:13:58.047Z</time></trkpt><trkpt lat="43.2907268" lon="10.9300093"><ele>344.0</ele><time>2026-04-03T12:13:59.042Z</time></trkpt><trkpt lat="43.2908131" lon="10.9300304"><ele>341.5</ele><time>2026-04-03T12:14:00.043Z</time></trkpt><trkpt lat="43.2908853" lon="10.9300582"><ele>339.0</ele><time>2026-04-03T12:14:01.048Z</time></trkpt><trkpt lat="43.2909493" lon="10.930107"><ele>336.5</ele><time>2026-04-03T12:14:02.052Z</time></trkpt><trkpt lat="43.2910003" lon="10.9301704"><ele>334.0</ele><time>2026-04-03T12:14:03.052Z</time></trkpt><trkpt lat="43.2910819" lon="10.9302466"><ele>334.0</ele><time>2026-04-03T12:14:05.053Z</time></trkpt><trkpt lat="43.2911911" lon="10.9304698"><ele>334.0</ele><time>2026-04-03T12:15:03.058Z</time></trkpt><trkpt lat="43.2912637" lon="10.9306516"><ele>334.0</ele><time>2026-04-03T12:15:05.044Z</time></trkpt><trkpt lat="43.2912853" lon="10.9307402"><ele>334.0</ele><time>2026-04-03T12:15:06.049Z</time></trkpt><trkpt lat="43.2912873" lon="10.9309053"><ele>333.66666666666663</ele><time>2026-04-03T12:15:08.045Z</time></trkpt><trkpt lat="43.2912719" lon="10.9310033"><ele>333.3333333333333</ele><time>2026-04-03T12:15:09.039Z</time></trkpt><trkpt lat="43.2912533" lon="10.9311102"><ele>333.0</ele><time>2026-04-03T12:15:10.052Z</time></trkpt><trkpt lat="43.2912387" lon="10.9312219"><ele>332.6666666666667</ele><time>2026-04-03T12:15:11.043Z</time></trkpt><trkpt lat="43.2912296" lon="10.9313387"><ele>332.33333333333337</ele><time>2026-04-03T12:15:12.041Z</time></trkpt><trkpt lat="43.2912314" lon="10.931465"><ele>332.0</ele><time>2026-04-03T12:15:13.039Z</time></trkpt><trkpt lat="43.2912427" lon="10.9315992"><ele>330.1666666666667</ele><time>2026-04-03T12:15:14.053Z</time></trkpt><trkpt lat="43.2912588" lon="10.9317241"><ele>328.33333333333337</ele><time>2026-04-03T12:15:15.044Z</time></trkpt><trkpt lat="43.2912773" lon="10.9318335"><ele>326.5</ele><time>2026-04-03T12:15:16.049Z</time></trkpt><trkpt lat="43.2912931" lon="10.9319402"><ele>324.6666666666667</ele><time>2026-04-03T12:15:17.056Z</time></trkpt><trkpt lat="43.2913062" lon="10.9320402"><ele>322.8333333333333</ele><time>2026-04-03T12:15:18.048Z</time></trkpt><trkpt lat="43.2913199" lon="10.9321368"><ele>321.0</ele><time>2026-04-03T12:15:19.043Z</time></trkpt><trkpt lat="43.2913348" lon="10.9322336"><ele>321.0</ele><time>2026-04-03T12:15:20.041Z</time></trkpt><trkpt lat="43.2913514" lon="10.9323397"><ele>321.0</ele><time>2026-04-03T12:15:21.045Z</time></trkpt><trkpt lat="43.2913692" lon="10.9324397"><ele>321.0</ele><time>2026-04-03T12:15:22.053Z</time></trkpt><trkpt lat="43.2914017" lon="10.9325359"><ele>321.0</ele><time>2026-04-03T12:15:23.044Z</time></trkpt><trkpt lat="43.2914474" lon="10.9326283"><ele>321.0</ele><time>2026-04-03T12:15:24.046Z</time></trkpt><trkpt lat="43.2915033" lon="10.9327093"><ele>321.0</ele><time>2026-04-03T12:15:25.047Z</time></trkpt><trkpt lat="43.2915633" lon="10.9327869"><ele>319.1428571428571</ele><time>2026-04-03T12:15:26.048Z</time></trkpt><trkpt lat="43.2916153" lon="10.9328612"><ele>317.2857142857143</ele><time>2026-04-03T12:15:27.049Z</time></trkpt><trkpt lat="43.2916605" lon="10.9329389"><ele>315.42857142857144</ele><time>2026-04-03T12:15:28.052Z</time></trkpt><trkpt lat="43.291704" lon="10.933022"><ele>313.57142857142856</ele><time>2026-04-03T12:15:29.043Z</time></trkpt><trkpt lat="43.2917491" lon="10.9331046"><ele>311.7142857142857</ele><time>2026-04-03T12:15:30.046Z</time></trkpt><trkpt lat="43.291795" lon="10.9331768"><ele>309.85714285714283</ele><time>2026-04-03T12:15:31.038Z</time></trkpt><trkpt lat="43.2918411" lon="10.933237"><ele>308.0</ele><time>2026-04-03T12:15:32.038Z</time></trkpt><trkpt lat="43.2919325" lon="10.9333267"><ele>306.75</ele><time>2026-04-03T12:15:34.061Z</time></trkpt><trkpt lat="43.292064" lon="10.9334084"><ele>305.5</ele><time>2026-04-03T12:15:36.048Z</time></trkpt><trkpt lat="43.2921532" lon="10.9334585"><ele>304.25</ele><time>2026-04-03T12:15:37.06Z</time></trkpt><trkpt lat="43.2922694" lon="10.9335104"><ele>303.0</ele><time>2026-04-03T12:15:38.041Z</time></trkpt><trkpt lat="43.2923868" lon="10.9335623"><ele>303.0</ele><time>2026-04-03T12:15:39.052Z</time></trkpt><trkpt lat="43.2924868" lon="10.9336128"><ele>303.0</ele><time>2026-04-03T12:15:40.051Z</time></trkpt><trkpt lat="43.2925657" lon="10.9336929"><ele>303.0</ele><time>2026-04-03T12:15:41.05Z</time></trkpt><trkpt lat="43.2926199" lon="10.9337808"><ele>303.0</ele><time>2026-04-03T12:15:42.058Z</time></trkpt><trkpt lat="43.2926727" lon="10.9338512"><ele>303.0</ele><time>2026-04-03T12:15:43.059Z</time></trkpt><trkpt lat="43.2927342" lon="10.9338977"><ele>303.0</ele><time>2026-04-03T12:15:44.058Z</time></trkpt><trkpt lat="43.2927987" lon="10.9339293"><ele>303.0</ele><time>2026-04-03T12:15:45.043Z</time></trkpt><trkpt lat="43.292859" lon="10.9339702"><ele>303.0</ele><time>2026-04-03T12:15:46.047Z</time></trkpt><trkpt lat="43.2929083" lon="10.9340323"><ele>303.0</ele><time>2026-04-03T12:15:47.042Z</time></trkpt><trkpt lat="43.2929537" lon="10.9341133"><ele>303.0</ele><time>2026-04-03T12:15:48.044Z</time></trkpt><trkpt lat="43.292999" lon="10.9342077"><ele>303.0</ele><time>2026-04-03T12:15:49.05Z</time></trkpt><trkpt lat="43.2930435" lon="10.9343018"><ele>303.0</ele><time>2026-04-03T12:15:50.05Z</time></trkpt><trkpt lat="43.2930906" lon="10.934405"><ele>304.0</ele><time>2026-04-03T12:15:51.043Z</time></trkpt><trkpt lat="43.2931492" lon="10.93451"><ele>305.0</ele><time>2026-04-03T12:15:52.044Z</time></trkpt><trkpt lat="43.2932232" lon="10.9346117"><ele>306.0</ele><time>2026-04-03T12:15:53.063Z</time></trkpt><trkpt lat="43.2933048" lon="10.9346967"><ele>307.0</ele><time>2026-04-03T12:15:54.057Z</time></trkpt><trkpt lat="43.2933837" lon="10.9347759"><ele>308.0</ele><time>2026-04-03T12:15:55.056Z</time></trkpt><trkpt lat="43.2934538" lon="10.9348623"><ele>308.0</ele><time>2026-04-03T12:15:56.058Z</time></trkpt><trkpt lat="43.2935118" lon="10.9349472"><ele>308.0</ele><time>2026-04-03T12:15:57.053Z</time></trkpt><trkpt lat="43.293543" lon="10.9350426"><ele>308.0</ele><time>2026-04-03T12:15:58.06Z</time></trkpt><trkpt lat="43.2935664" lon="10.9351581"><ele>308.0</ele><time>2026-04-03T12:15:59.048Z</time></trkpt><trkpt lat="43.2936014" lon="10.9352766"><ele>308.0</ele><time>2026-04-03T12:16:00.042Z</time></trkpt><trkpt lat="43.2936379" lon="10.9353881"><ele>308.0</ele><time>2026-04-03T12:16:01.042Z</time></trkpt><trkpt lat="43.2936678" lon="10.9354901"><ele>305.5</ele><time>2026-04-03T12:16:02.047Z</time></trkpt><trkpt lat="43.2936963" lon="10.9355959"><ele>303.0</ele><time>2026-04-03T12:16:03.039Z</time></trkpt><trkpt lat="43.293726" lon="10.9356953"><ele>300.5</ele><time>2026-04-03T12:16:04.052Z</time></trkpt><trkpt lat="43.2937651" lon="10.9357909"><ele>298.0</ele><time>2026-04-03T12:16:05.047Z</time></trkpt><trkpt lat="43.2938151" lon="10.9358866"><ele>295.5</ele><time>2026-04-03T12:16:06.034Z</time></trkpt><trkpt lat="43.2938696" lon="10.9359754"><ele>293.0</ele><time>2026-04-03T12:16:07.047Z</time></trkpt><trkpt lat="43.293935" lon="10.936055"><ele>293.0</ele><time>2026-04-03T12:16:08.057Z</time></trkpt><trkpt lat="43.2940154" lon="10.9361266"><ele>293.0</ele><time>2026-04-03T12:16:09.056Z</time></trkpt><trkpt lat="43.2940985" lon="10.9361968"><ele>293.0</ele><time>2026-04-03T12:16:10.039Z</time></trkpt><trkpt lat="43.2941765" lon="10.9362786"><ele>293.0</ele><time>2026-04-03T12:16:11.044Z</time></trkpt><trkpt lat="43.2942512" lon="10.9363761"><ele>293.0</ele><time>2026-04-03T12:16:12.053Z</time></trkpt><trkpt lat="43.2943205" lon="10.9364804"><ele>293.0</ele><time>2026-04-03T12:16:13.051Z</time></trkpt><trkpt lat="43.2943803" lon="10.9365936"><ele>293.0</ele><time>2026-04-03T12:16:14.042Z</time></trkpt><trkpt lat="43.2944395" lon="10.9367076"><ele>293.0</ele><time>2026-04-03T12:16:15.046Z</time></trkpt><trkpt lat="43.2944995" lon="10.9368185"><ele>293.0</ele><time>2026-04-03T12:16:16.048Z</time></trkpt><trkpt lat="43.2945615" lon="10.9369163"><ele>293.0</ele><time>2026-04-03T12:16:17.053Z</time></trkpt><trkpt lat="43.2946331" lon="10.9369984"><ele>293.0</ele><time>2026-04-03T12:16:18.049Z</time></trkpt><trkpt lat="43.2947123" lon="10.9370815"><ele>293.0</ele><time>2026-04-03T12:16:19.045Z</time></trkpt><trkpt lat="43.294807" lon="10.9371606"><ele>293.0</ele><time>2026-04-03T12:16:20.046Z</time></trkpt><trkpt lat="43.2949057" lon="10.9372286"><ele>293.0</ele><time>2026-04-03T12:16:21.042Z</time></trkpt><trkpt lat="43.2950044" lon="10.937284"><ele>293.0</ele><time>2026-04-03T12:16:22.05Z</time></trkpt><trkpt lat="43.2951033" lon="10.9373289"><ele>293.0</ele><time>2026-04-03T12:16:23.054Z</time></trkpt><trkpt lat="43.2951996" lon="10.9373602"><ele>293.0</ele><time>2026-04-03T12:16:24.048Z</time></trkpt><trkpt lat="43.2952935" lon="10.9373706"><ele>293.0</ele><time>2026-04-03T12:16:25.052Z</time></trkpt><trkpt lat="43.2953835" lon="10.9373675"><ele>293.0</ele><time>2026-04-03T12:16:26.051Z</time></trkpt><trkpt lat="43.2954708" lon="10.9373589"><ele>293.0</ele><time>2026-04-03T12:16:27.038Z</time></trkpt><trkpt lat="43.2955567" lon="10.9373426"><ele>292.8</ele><time>2026-04-03T12:16:28.052Z</time></trkpt><trkpt lat="43.2956375" lon="10.9373508"><ele>292.6</ele><time>2026-04-03T12:16:29.051Z</time></trkpt><trkpt lat="43.2957142" lon="10.9373847"><ele>292.4</ele><time>2026-04-03T12:16:30.084Z</time></trkpt><trkpt lat="43.2957925" lon="10.937444"><ele>292.2</ele><time>2026-04-03T12:16:31.047Z</time></trkpt><trkpt lat="43.295877" lon="10.937518"><ele>292.0</ele><time>2026-04-03T12:16:32.045Z</time></trkpt><trkpt lat="43.2959626" lon="10.9375973"><ele>292.0</ele><time>2026-04-03T12:16:33.044Z</time></trkpt><trkpt lat="43.2960459" lon="10.9376752"><ele>292.0</ele><time>2026-04-03T12:16:34.055Z</time></trkpt><trkpt lat="43.2961301" lon="10.9377579"><ele>292.0</ele><time>2026-04-03T12:16:35.069Z</time></trkpt><trkpt lat="43.2962163" lon="10.9378485"><ele>292.0</ele><time>2026-04-03T12:16:36.052Z</time></trkpt><trkpt lat="43.2963029" lon="10.9379376"><ele>292.0</ele><time>2026-04-03T12:16:37.046Z</time></trkpt><trkpt lat="43.2963836" lon="10.938025"><ele>289.8333333333333</ele><time>2026-04-03T12:16:38.055Z</time></trkpt><trkpt lat="43.2964508" lon="10.9381069"><ele>287.66666666666663</ele><time>2026-04-03T12:16:39.044Z</time></trkpt><trkpt lat="43.2965131" lon="10.9381745"><ele>285.5</ele><time>2026-04-03T12:16:40.049Z</time></trkpt><trkpt lat="43.2965832" lon="10.9382217"><ele>283.3333333333333</ele><time>2026-04-03T12:16:41.049Z</time></trkpt><trkpt lat="43.2966704" lon="10.9382454"><ele>281.1666666666667</ele><time>2026-04-03T12:16:42.053Z</time></trkpt><trkpt lat="43.2967682" lon="10.938251"><ele>279.0</ele><time>2026-04-03T12:16:43.04Z</time></trkpt><trkpt lat="43.2968655" lon="10.9382709"><ele>279.0</ele><time>2026-04-03T12:16:44.05Z</time></trkpt><trkpt lat="43.2969525" lon="10.9383205"><ele>279.0</ele><time>2026-04-03T12:16:45.046Z</time></trkpt><trkpt lat="43.2970331" lon="10.9383994"><ele>279.0</ele><time>2026-04-03T12:16:46.039Z</time></trkpt><trkpt lat="43.2971139" lon="10.9384876"><ele>279.0</ele><time>2026-04-03T12:16:47.058Z</time></trkpt><trkpt lat="43.2971839" lon="10.9386081"><ele>279.0</ele><time>2026-04-03T12:16:48.058Z</time></trkpt><trkpt lat="43.297252" lon="10.9387329"><ele>279.8</ele><time>2026-04-03T12:16:49.046Z</time></trkpt><trkpt lat="43.2973204" lon="10.9388536"><ele>280.59999999999997</ele><time>2026-04-03T12:16:50.044Z</time></trkpt><trkpt lat="43.2973874" lon="10.938966"><ele>281.4</ele><time>2026-04-03T12:16:51.044Z</time></trkpt><trkpt lat="43.2974558" lon="10.9390718"><ele>282.2</ele><time>2026-04-03T12:16:52.037Z</time></trkpt><trkpt lat="43.2975251" lon="10.9391831"><ele>283.0</ele><time>2026-04-03T12:16:53.051Z</time></trkpt><trkpt lat="43.2975986" lon="10.9392982"><ele>281.2</ele><time>2026-04-03T12:16:54.045Z</time></trkpt><trkpt lat="43.2976772" lon="10.9394048"><ele>279.4</ele><time>2026-04-03T12:16:55.045Z</time></trkpt><trkpt lat="43.297748" lon="10.939506"><ele>277.59999999999997</ele><time>2026-04-03T12:16:56.05Z</time></trkpt><trkpt lat="43.2978176" lon="10.9396055"><ele>275.8</ele><time>2026-04-03T12:16:57.05Z</time></trkpt><trkpt lat="43.297884" lon="10.9397035"><ele>274.0</ele><time>2026-04-03T12:16:58.051Z</time></trkpt><trkpt lat="43.2979459" lon="10.9398066"><ele>274.0</ele><time>2026-04-03T12:16:59.056Z</time></trkpt><trkpt lat="43.2980028" lon="10.9399156"><ele>274.0</ele><time>2026-04-03T12:17:00.051Z</time></trkpt><trkpt lat="43.2980562" lon="10.9400258"><ele>274.0</ele><time>2026-04-03T12:17:01.054Z</time></trkpt><trkpt lat="43.2980897" lon="10.9401448"><ele>274.0</ele><time>2026-04-03T12:17:02.046Z</time></trkpt><trkpt lat="43.2981066" lon="10.9402625"><ele>274.0</ele><time>2026-04-03T12:17:03.049Z</time></trkpt><trkpt lat="43.2981041" lon="10.9403815"><ele>274.0</ele><time>2026-04-03T12:17:04.044Z</time></trkpt><trkpt lat="43.2980781" lon="10.9405099"><ele>274.0</ele><time>2026-04-03T12:17:05.04Z</time></trkpt><trkpt lat="43.2980551" lon="10.9406506"><ele>274.0</ele><time>2026-04-03T12:17:06.051Z</time></trkpt><trkpt lat="43.2980446" lon="10.9408198"><ele>274.0</ele><time>2026-04-03T12:17:07.052Z</time></trkpt><trkpt lat="43.2980393" lon="10.9410021"><ele>274.0</ele><time>2026-04-03T12:17:08.04Z</time></trkpt><trkpt lat="43.2980329" lon="10.9411704"><ele>274.0</ele><time>2026-04-03T12:17:09.058Z</time></trkpt><trkpt lat="43.298025" lon="10.9413198"><ele>274.0</ele><time>2026-04-03T12:17:10.044Z</time></trkpt><trkpt lat="43.298016" lon="10.9414525"><ele>274.0</ele><time>2026-04-03T12:17:11.039Z</time></trkpt><trkpt lat="43.2980082" lon="10.9415684"><ele>274.0</ele><time>2026-04-03T12:17:12.044Z</time></trkpt><trkpt lat="43.298" lon="10.9416592"><ele>274.8</ele><time>2026-04-03T12:17:13.046Z</time></trkpt><trkpt lat="43.2979444" lon="10.9418153"><ele>275.59999999999997</ele><time>2026-04-03T12:17:15.056Z</time></trkpt><trkpt lat="43.297887" lon="10.9419043"><ele>276.4</ele><time>2026-04-03T12:17:16.066Z</time></trkpt><trkpt lat="43.2978277" lon="10.9419993"><ele>277.2</ele><time>2026-04-03T12:17:17.056Z</time></trkpt><trkpt lat="43.2977721" lon="10.9420891"><ele>278.0</ele><time>2026-04-03T12:17:18.043Z</time></trkpt><trkpt lat="43.2977148" lon="10.9421695"><ele>278.0</ele><time>2026-04-03T12:17:19.046Z</time></trkpt><trkpt lat="43.2976517" lon="10.942233"><ele>278.0</ele><time>2026-04-03T12:17:20.051Z</time></trkpt><trkpt lat="43.2975919" lon="10.9422901"><ele>278.0</ele><time>2026-04-03T12:17:21.045Z</time></trkpt><trkpt lat="43.2975412" lon="10.9423482"><ele>278.0</ele><time>2026-04-03T12:17:22.047Z</time></trkpt><trkpt lat="43.2975224" lon="10.9424859"><ele>278.0</ele><time>2026-04-03T12:17:24.046Z</time></trkpt><trkpt lat="43.2976101" lon="10.9425622"><ele>278.0</ele><time>2026-04-03T12:17:26.056Z</time></trkpt><trkpt lat="43.2976892" lon="10.9425668"><ele>275.83333333333337</ele><time>2026-04-03T12:17:27.05Z</time></trkpt><trkpt lat="43.2977852" lon="10.9425672"><ele>273.6666666666667</ele><time>2026-04-03T12:17:28.057Z</time></trkpt><trkpt lat="43.2978789" lon="10.9425804"><ele>271.5</ele><time>2026-04-03T12:17:29.056Z</time></trkpt><trkpt lat="43.2979613" lon="10.9426139"><ele>269.3333333333333</ele><time>2026-04-03T12:17:30.041Z</time></trkpt><trkpt lat="43.2980396" lon="10.9426636"><ele>267.16666666666663</ele><time>2026-04-03T12:17:31.056Z</time></trkpt><trkpt lat="43.2981131" lon="10.9427186"><ele>265.0</ele><time>2026-04-03T12:17:32.055Z</time></trkpt><trkpt lat="43.2981877" lon="10.9427637"><ele>264.8333333333333</ele><time>2026-04-03T12:17:33.051Z</time></trkpt><trkpt lat="43.2982653" lon="10.9427925"><ele>264.66666666666663</ele><time>2026-04-03T12:17:34.052Z</time></trkpt><trkpt lat="43.2983448" lon="10.9428072"><ele>264.5</ele><time>2026-04-03T12:17:35.053Z</time></trkpt><trkpt lat="43.2984242" lon="10.9428175"><ele>264.3333333333333</ele><time>2026-04-03T12:17:36.052Z</time></trkpt><trkpt lat="43.2984961" lon="10.942829"><ele>264.1666666666667</ele><time>2026-04-03T12:17:37.052Z</time></trkpt><trkpt lat="43.2985594" lon="10.9428406"><ele>264.0</ele><time>2026-04-03T12:17:38.049Z</time></trkpt><trkpt lat="43.2986367" lon="10.9429268"><ele>264.0</ele><time>2026-04-03T12:17:40.045Z</time></trkpt><trkpt lat="43.2986575" lon="10.9430632"><ele>264.0</ele><time>2026-04-03T12:17:42.052Z</time></trkpt><trkpt lat="43.2986468" lon="10.9431947"><ele>264.0</ele><time>2026-04-03T12:17:44.054Z</time></trkpt><trkpt lat="43.2987034" lon="10.9432798"><ele>264.0</ele><time>2026-04-03T12:17:46.044Z</time></trkpt><trkpt lat="43.2988423" lon="10.9432705"><ele>264.0</ele><time>2026-04-03T12:17:48.058Z</time></trkpt><trkpt lat="43.2989324" lon="10.9432596"><ele>263.0</ele><time>2026-04-03T12:17:49.039Z</time></trkpt><trkpt lat="43.2990285" lon="10.9432563"><ele>262.0</ele><time>2026-04-03T12:17:50.045Z</time></trkpt><trkpt lat="43.2991247" lon="10.9432618"><ele>261.0</ele><time>2026-04-03T12:17:51.051Z</time></trkpt><trkpt lat="43.2992141" lon="10.943271"><ele>260.0</ele><time>2026-04-03T12:17:52.056Z</time></trkpt><trkpt lat="43.2992872" lon="10.9432813"><ele>259.0</ele><time>2026-04-03T12:17:53.042Z</time></trkpt><trkpt lat="43.299397" lon="10.9432972"><ele>259.0</ele><time>2026-04-03T12:17:55.05Z</time></trkpt><trkpt lat="43.2994835" lon="10.9432914"><ele>259.0</ele><time>2026-04-03T12:17:57.046Z</time></trkpt><trkpt lat="43.2995636" lon="10.9432715"><ele>259.0</ele><time>2026-04-03T12:18:01.085Z</time></trkpt><trkpt lat="43.29981" lon="10.9433462"><ele>259.0</ele><time>2026-04-03T12:18:23.044Z</time></trkpt><trkpt lat="43.2998854" lon="10.9433541"><ele>257.4</ele><time>2026-04-03T12:18:24.057Z</time></trkpt><trkpt lat="43.299981" lon="10.9433603"><ele>255.79999999999998</ele><time>2026-04-03T12:18:26.057Z</time></trkpt><trkpt lat="43.3000526" lon="10.9433602"><ele>254.20000000000002</ele><time>2026-04-03T12:18:39.078Z</time></trkpt><trkpt lat="43.3001895" lon="10.9433936"><ele>252.60000000000002</ele><time>2026-04-03T12:18:43.042Z</time></trkpt><trkpt lat="43.3002728" lon="10.9434239"><ele>251.0</ele><time>2026-04-03T12:18:44.063Z</time></trkpt><trkpt lat="43.3003368" lon="10.9434411"><ele>251.0</ele><time>2026-04-03T12:18:47.052Z</time></trkpt><trkpt lat="43.3003949" lon="10.9436309"><ele>251.00000000000003</ele><time>2026-04-03T12:18:50.047Z</time></trkpt><trkpt lat="43.3004013" lon="10.9437677"><ele>251.00000000000003</ele><time>2026-04-03T12:18:51.045Z</time></trkpt><trkpt lat="43.3004204" lon="10.9438596"><ele>251.0</ele><time>2026-04-03T12:18:52.048Z</time></trkpt><trkpt lat="43.3004756" lon="10.9439764"><ele>251.0</ele><time>2026-04-03T12:18:54.052Z</time></trkpt><trkpt lat="43.3005631" lon="10.9440855"><ele>249.57142857142856</ele><time>2026-04-03T12:18:56.047Z</time></trkpt><trkpt lat="43.3006132" lon="10.9441433"><ele>248.14285714285714</ele><time>2026-04-03T12:18:57.036Z</time></trkpt><trkpt lat="43.3006671" lon="10.944191"><ele>246.71428571428572</ele><time>2026-04-03T12:18:58.048Z</time></trkpt><trkpt lat="43.3007741" lon="10.9442728"><ele>245.28571428571428</ele><time>2026-04-03T12:19:00.043Z</time></trkpt><trkpt lat="43.3008272" lon="10.9443193"><ele>243.8571428571429</ele><time>2026-04-03T12:19:01.058Z</time></trkpt><trkpt lat="43.3008773" lon="10.9443725"><ele>242.42857142857144</ele><time>2026-04-03T12:19:02.042Z</time></trkpt><trkpt lat="43.300923" lon="10.944432"><ele>241.0</ele><time>2026-04-03T12:19:03.043Z</time></trkpt><trkpt lat="43.3009725" lon="10.9445434"><ele>239.8</ele><time>2026-04-03T12:19:05.048Z</time></trkpt><trkpt lat="43.3009248" lon="10.9446477"><ele>238.60000000000002</ele><time>2026-04-03T12:19:08.046Z</time></trkpt><trkpt lat="43.3008327" lon="10.9446417"><ele>237.4</ele><time>2026-04-03T12:19:10.048Z</time></trkpt><trkpt lat="43.3006927" lon="10.9446674"><ele>236.2</ele><time>2026-04-03T12:19:12.054Z</time></trkpt><trkpt lat="43.3006082" lon="10.9446967"><ele>235.0</ele><time>2026-04-03T12:19:13.047Z</time></trkpt><trkpt lat="43.3005307" lon="10.9447168"><ele>234.99999999999997</ele><time>2026-04-03T12:19:14.046Z</time></trkpt><trkpt lat="43.300461" lon="10.9447317"><ele>235.0</ele><time>2026-04-03T12:19:15.049Z</time></trkpt><trkpt lat="43.3004006" lon="10.9447643"><ele>235.0</ele><time>2026-04-03T12:19:16.046Z</time></trkpt><trkpt lat="43.3003282" lon="10.9448818"><ele>235.0</ele><time>2026-04-03T12:19:18.037Z</time></trkpt><trkpt lat="43.3003298" lon="10.9450562"><ele>234.99999999999997</ele><time>2026-04-03T12:19:20.041Z</time></trkpt><trkpt lat="43.3003489" lon="10.9451448"><ele>235.0</ele><time>2026-04-03T12:19:21.037Z</time></trkpt><trkpt lat="43.3003781" lon="10.94523"><ele>233.28571428571428</ele><time>2026-04-03T12:19:22.04Z</time></trkpt><trkpt lat="43.3004148" lon="10.9453102"><ele>231.57142857142856</ele><time>2026-04-03T12:19:23.05Z</time></trkpt><trkpt lat="43.300459" lon="10.9453895"><ele>229.85714285714283</ele><time>2026-04-03T12:19:24.034Z</time></trkpt><trkpt lat="43.3005098" lon="10.9454683"><ele>228.14285714285714</ele><time>2026-04-03T12:19:25.047Z</time></trkpt><trkpt lat="43.3005576" lon="10.9455445"><ele>226.42857142857142</ele><time>2026-04-03T12:19:26.047Z</time></trkpt><trkpt lat="43.3005967" lon="10.9456196"><ele>224.71428571428572</ele><time>2026-04-03T12:19:27.036Z</time></trkpt><trkpt lat="43.3006306" lon="10.9456929"><ele>223.0</ele><time>2026-04-03T12:19:28.039Z</time></trkpt><trkpt lat="43.30071" lon="10.9458372"><ele>221.85714285714286</ele><time>2026-04-03T12:19:30.043Z</time></trkpt><trkpt lat="43.3007616" lon="10.9459023"><ele>220.71428571428572</ele><time>2026-04-03T12:19:31.036Z</time></trkpt><trkpt lat="43.3008249" lon="10.9459493"><ele>219.57142857142856</ele><time>2026-04-03T12:19:32.05Z</time></trkpt><trkpt lat="43.3008831" lon="10.9459841"><ele>218.42857142857144</ele><time>2026-04-03T12:19:33.044Z</time></trkpt><trkpt lat="43.3009388" lon="10.9460271"><ele>217.2857142857143</ele><time>2026-04-03T12:19:34.036Z</time></trkpt><trkpt lat="43.3009933" lon="10.9460893"><ele>216.14285714285714</ele><time>2026-04-03T12:19:35.041Z</time></trkpt><trkpt lat="43.3010453" lon="10.9461548"><ele>215.0</ele><time>2026-04-03T12:19:36.04Z</time></trkpt><trkpt lat="43.3011004" lon="10.9462214"><ele>215.00000000000003</ele><time>2026-04-03T12:19:37.037Z</time></trkpt><trkpt lat="43.3011689" lon="10.9462814"><ele>215.0</ele><time>2026-04-03T12:19:38.046Z</time></trkpt><trkpt lat="43.3012481" lon="10.9463352"><ele>215.0</ele><time>2026-04-03T12:19:39.038Z</time></trkpt><trkpt lat="43.3013289" lon="10.9463877"><ele>215.0</ele><time>2026-04-03T12:19:40.046Z</time></trkpt><trkpt lat="43.3014082" lon="10.9464391"><ele>215.00000000000003</ele><time>2026-04-03T12:19:41.04Z</time></trkpt><trkpt lat="43.3014921" lon="10.9464864"><ele>215.0</ele><time>2026-04-03T12:19:42.049Z</time></trkpt><trkpt lat="43.3015752" lon="10.9465365"><ele>213.8</ele><time>2026-04-03T12:19:43.052Z</time></trkpt><trkpt lat="43.3016592" lon="10.9465828"><ele>212.6</ele><time>2026-04-03T12:19:44.05Z</time></trkpt><trkpt lat="43.3017468" lon="10.9466233"><ele>211.39999999999998</ele><time>2026-04-03T12:19:45.039Z</time></trkpt><trkpt lat="43.3018372" lon="10.9466614"><ele>210.2</ele><time>2026-04-03T12:19:46.057Z</time></trkpt><trkpt lat="43.301928" lon="10.9466988"><ele>209.0</ele><time>2026-04-03T12:19:47.036Z</time></trkpt><trkpt lat="43.3020222" lon="10.9467329"><ele>207.66666666666669</ele><time>2026-04-03T12:19:48.044Z</time></trkpt><trkpt lat="43.302111" lon="10.9467637"><ele>206.33333333333334</ele><time>2026-04-03T12:19:49.049Z</time></trkpt><trkpt lat="43.3021919" lon="10.9467929"><ele>205.0</ele><time>2026-04-03T12:19:50.057Z</time></trkpt><trkpt lat="43.3022676" lon="10.9468231"><ele>203.66666666666669</ele><time>2026-04-03T12:19:51.05Z</time></trkpt><trkpt lat="43.30234" lon="10.9468558"><ele>202.33333333333334</ele><time>2026-04-03T12:19:52.045Z</time></trkpt><trkpt lat="43.3023991" lon="10.9469029"><ele>201.0</ele><time>2026-04-03T12:19:53.054Z</time></trkpt><trkpt lat="43.3024521" lon="10.9469653"><ele>200.5</ele><time>2026-04-03T12:19:54.047Z</time></trkpt><trkpt lat="43.3024959" lon="10.9470442"><ele>200.0</ele><time>2026-04-03T12:19:55.046Z</time></trkpt><trkpt lat="43.3025249" lon="10.9471333"><ele>199.5</ele><time>2026-04-03T12:19:56.059Z</time></trkpt><trkpt lat="43.3025373" lon="10.9472222"><ele>199.0</ele><time>2026-04-03T12:19:57.05Z</time></trkpt><trkpt lat="43.302491" lon="10.9473534"><ele>198.5</ele><time>2026-04-03T12:19:59.052Z</time></trkpt><trkpt lat="43.3023727" lon="10.9474192"><ele>198.0</ele><time>2026-04-03T12:20:01.05Z</time></trkpt><trkpt lat="43.3022979" lon="10.947438"><ele>198.42857142857144</ele><time>2026-04-03T12:20:02.051Z</time></trkpt><trkpt lat="43.3022263" lon="10.9474545"><ele>198.85714285714283</ele><time>2026-04-03T12:20:03.056Z</time></trkpt><trkpt lat="43.3021611" lon="10.9474751"><ele>199.28571428571428</ele><time>2026-04-03T12:20:04.049Z</time></trkpt><trkpt lat="43.3021004" lon="10.9475031"><ele>199.71428571428572</ele><time>2026-04-03T12:20:05.044Z</time></trkpt><trkpt lat="43.302037" lon="10.9475371"><ele>200.14285714285717</ele><time>2026-04-03T12:20:06.048Z</time></trkpt><trkpt lat="43.301973" lon="10.9475824"><ele>200.57142857142856</ele><time>2026-04-03T12:20:07.049Z</time></trkpt><trkpt lat="43.3019157" lon="10.947643"><ele>201.0</ele><time>2026-04-03T12:20:08.048Z</time></trkpt><trkpt lat="43.3018631" lon="10.9477225"><ele>199.0</ele><time>2026-04-03T12:20:09.037Z</time></trkpt><trkpt lat="43.3018068" lon="10.9478091"><ele>197.0</ele><time>2026-04-03T12:20:10.037Z</time></trkpt><trkpt lat="43.301749" lon="10.947892"><ele>195.0</ele><time>2026-04-03T12:20:11.05Z</time></trkpt><trkpt lat="43.3016899" lon="10.9479691"><ele>193.0</ele><time>2026-04-03T12:20:12.053Z</time></trkpt><trkpt lat="43.3016242" lon="10.9480401"><ele>191.0</ele><time>2026-04-03T12:20:13.041Z</time></trkpt><trkpt lat="43.3015568" lon="10.9481071"><ele>189.0</ele><time>2026-04-03T12:20:14.047Z</time></trkpt><trkpt lat="43.3014969" lon="10.9481675"><ele>189.0</ele><time>2026-04-03T12:20:15.042Z</time></trkpt><trkpt lat="43.3014454" lon="10.9482205"><ele>189.0</ele><time>2026-04-03T12:20:16.043Z</time></trkpt><trkpt lat="43.3013677" lon="10.9483086"><ele>189.0</ele><time>2026-04-03T12:20:18.04Z</time></trkpt><trkpt lat="43.3013376" lon="10.9484603"><ele>189.0</ele><time>2026-04-03T12:20:20.05Z</time></trkpt><trkpt lat="43.3013505" lon="10.9486234"><ele>189.0</ele><time>2026-04-03T12:20:22.041Z</time></trkpt><trkpt lat="43.3013664" lon="10.9487576"><ele>187.0</ele><time>2026-04-03T12:20:24.051Z</time></trkpt><trkpt lat="43.3013043" lon="10.948861"><ele>185.0</ele><time>2026-04-03T12:20:26.044Z</time></trkpt><trkpt lat="43.3012303" lon="10.9488955"><ele>183.0</ele><time>2026-04-03T12:20:27.042Z</time></trkpt><trkpt lat="43.3011515" lon="10.9489055"><ele>181.0</ele><time>2026-04-03T12:20:28.044Z</time></trkpt><trkpt lat="43.3010736" lon="10.9489157"><ele>179.0</ele><time>2026-04-03T12:20:29.046Z</time></trkpt><trkpt lat="43.301003" lon="10.9489344"><ele>177.0</ele><time>2026-04-03T12:20:30.044Z</time></trkpt><trkpt lat="43.3009416" lon="10.9489718"><ele>177.0</ele><time>2026-04-03T12:20:31.048Z</time></trkpt><trkpt lat="43.3008745" lon="10.9490244"><ele>177.0</ele><time>2026-04-03T12:20:32.038Z</time></trkpt><trkpt lat="43.3008173" lon="10.9490928"><ele>177.0</ele><time>2026-04-03T12:20:33.043Z</time></trkpt><trkpt lat="43.3007662" lon="10.9491655"><ele>177.0</ele><time>2026-04-03T12:20:34.037Z</time></trkpt><trkpt lat="43.3007201" lon="10.9492405"><ele>177.0</ele><time>2026-04-03T12:20:35.041Z</time></trkpt><trkpt lat="43.3006815" lon="10.9493096"><ele>177.0</ele><time>2026-04-03T12:20:36.045Z</time></trkpt><trkpt lat="43.3006292" lon="10.9494536"><ele>175.5</ele><time>2026-04-03T12:20:38.05Z</time></trkpt><trkpt lat="43.3006285" lon="10.9496323"><ele>174.0</ele><time>2026-04-03T12:20:40.045Z</time></trkpt><trkpt lat="43.3006455" lon="10.9497301"><ele>172.5</ele><time>2026-04-03T12:20:41.044Z</time></trkpt><trkpt lat="43.3006804" lon="10.9498123"><ele>171.0</ele><time>2026-04-03T12:20:42.046Z</time></trkpt><trkpt lat="43.3007233" lon="10.949883"><ele>169.5</ele><time>2026-04-03T12:20:43.05Z</time></trkpt><trkpt lat="43.300789" lon="10.9499301"><ele>168.0</ele><time>2026-04-03T12:20:44.047Z</time></trkpt><trkpt lat="43.300865" lon="10.9499588"><ele>168.0</ele><time>2026-04-03T12:20:45.039Z</time></trkpt><trkpt lat="43.3009339" lon="10.9499825"><ele>168.0</ele><time>2026-04-03T12:20:46.05Z</time></trkpt><trkpt lat="43.3010001" lon="10.9499999"><ele>168.0</ele><time>2026-04-03T12:20:47.042Z</time></trkpt><trkpt lat="43.3010652" lon="10.9500134"><ele>168.0</ele><time>2026-04-03T12:20:48.042Z</time></trkpt><trkpt lat="43.3011723" lon="10.9500216"><ele>168.0</ele><time>2026-04-03T12:20:50.055Z</time></trkpt><trkpt lat="43.3012981" lon="10.9500012"><ele>168.0</ele><time>2026-04-03T12:20:52.044Z</time></trkpt><trkpt lat="43.3013626" lon="10.9499761"><ele>166.60000000000002</ele><time>2026-04-03T12:20:53.042Z</time></trkpt><trkpt lat="43.3014213" lon="10.949943"><ele>165.20000000000002</ele><time>2026-04-03T12:20:54.045Z</time></trkpt><trkpt lat="43.301529" lon="10.9498722"><ele>163.8</ele><time>2026-04-03T12:20:56.044Z</time></trkpt><trkpt lat="43.3016293" lon="10.9498113"><ele>162.4</ele><time>2026-04-03T12:20:58.044Z</time></trkpt><trkpt lat="43.3017315" lon="10.9498469"><ele>161.0</ele><time>2026-04-03T12:21:00.044Z</time></trkpt><trkpt lat="43.3017881" lon="10.9499609"><ele>159.16666666666666</ele><time>2026-04-03T12:21:02.059Z</time></trkpt><trkpt lat="43.3017682" lon="10.9501273"><ele>157.33333333333331</ele><time>2026-04-03T12:21:04.043Z</time></trkpt><trkpt lat="43.3017368" lon="10.9502109"><ele>155.5</ele><time>2026-04-03T12:21:05.044Z</time></trkpt><trkpt lat="43.301685" lon="10.9502738"><ele>153.66666666666666</ele><time>2026-04-03T12:21:06.046Z</time></trkpt><trkpt lat="43.3016277" lon="10.9503264"><ele>151.83333333333334</ele><time>2026-04-03T12:21:07.043Z</time></trkpt><trkpt lat="43.3015713" lon="10.9503799"><ele>150.0</ele><time>2026-04-03T12:21:08.047Z</time></trkpt><trkpt lat="43.3015146" lon="10.9504378"><ele>150.0</ele><time>2026-04-03T12:21:09.052Z</time></trkpt><trkpt lat="43.3014592" lon="10.9504995"><ele>150.0</ele><time>2026-04-03T12:21:10.047Z</time></trkpt><trkpt lat="43.3014021" lon="10.9505685"><ele>150.0</ele><time>2026-04-03T12:21:11.052Z</time></trkpt><trkpt lat="43.30136" lon="10.9506567"><ele>150.0</ele><time>2026-04-03T12:21:12.057Z</time></trkpt><trkpt lat="43.3013214" lon="10.9507523"><ele>150.0</ele><time>2026-04-03T12:21:13.047Z</time></trkpt><trkpt lat="43.3012879" lon="10.9508507"><ele>150.0</ele><time>2026-04-03T12:21:14.043Z</time></trkpt><trkpt lat="43.3012596" lon="10.9509392"><ele>149.2</ele><time>2026-04-03T12:21:15.051Z</time></trkpt><trkpt lat="43.3012106" lon="10.9510902"><ele>148.4</ele><time>2026-04-03T12:21:17.04Z</time></trkpt><trkpt lat="43.3011581" lon="10.9512231"><ele>147.6</ele><time>2026-04-03T12:21:19.05Z</time></trkpt><trkpt lat="43.3011287" lon="10.9513535"><ele>146.8</ele><time>2026-04-03T12:21:21.053Z</time></trkpt><trkpt lat="43.3011529" lon="10.9514369"><ele>146.0</ele><time>2026-04-03T12:21:23.043Z</time></trkpt><trkpt lat="43.3012134" lon="10.9514664"><ele>146.0</ele><time>2026-04-03T12:21:27.06Z</time></trkpt><trkpt lat="43.3012708" lon="10.9515348"><ele>146.0</ele><time>2026-04-03T12:21:30.12Z</time></trkpt><trkpt lat="43.3012038" lon="10.951499"><ele>146.0</ele><time>2026-04-03T12:23:52.045Z</time></trkpt><trkpt lat="43.3011562" lon="10.9515638"><ele>146.0</ele><time>2026-04-03T12:23:54.999Z</time></trkpt><trkpt lat="43.3011225" lon="10.9516474"><ele>146.0</ele><time>2026-04-03T12:23:57.093Z</time></trkpt><trkpt lat="43.3011089" lon="10.9517452"><ele>146.0</ele><time>2026-04-03T12:23:59.053Z</time></trkpt><trkpt lat="43.3011543" lon="10.9518335"><ele>146.0</ele><time>2026-04-03T12:24:00.941Z</time></trkpt><trkpt lat="43.3012926" lon="10.9519127"><ele>146.0</ele><time>2026-04-03T12:24:03.034Z</time></trkpt><trkpt lat="43.3013716" lon="10.9519368"><ele>146.0</ele><time>2026-04-03T12:24:04.037Z</time></trkpt><trkpt lat="43.3014375" lon="10.9519509"><ele>146.0</ele><time>2026-04-03T12:24:05.045Z</time></trkpt><trkpt lat="43.3015297" lon="10.951969"><ele>146.0</ele><time>2026-04-03T12:24:07.047Z</time></trkpt><trkpt lat="43.3016055" lon="10.9520066"><ele>146.0</ele><time>2026-04-03T12:24:09.044Z</time></trkpt><trkpt lat="43.3016665" lon="10.9520652"><ele>146.0</ele><time>2026-04-03T12:24:11.043Z</time></trkpt><trkpt lat="43.30171" lon="10.9521489"><ele>146.33333333333331</ele><time>2026-04-03T12:24:16.154Z</time></trkpt><trkpt lat="43.3016603" lon="10.9522313"><ele>146.66666666666666</ele><time>2026-04-03T12:24:21.044Z</time></trkpt><trkpt lat="43.3015917" lon="10.9522351"><ele>147.0</ele><time>2026-04-03T12:24:25.073Z</time></trkpt><trkpt lat="43.3015385" lon="10.9523159"><ele>147.33333333333334</ele><time>2026-04-03T12:24:29.076Z</time></trkpt><trkpt lat="43.3015301" lon="10.9524423"><ele>147.66666666666669</ele><time>2026-04-03T12:24:32.044Z</time></trkpt><trkpt lat="43.3015122" lon="10.9525465"><ele>148.0</ele><time>2026-04-03T12:24:35.03Z</time></trkpt><trkpt lat="43.3015142" lon="10.9526642"><ele>148.0</ele><time>2026-04-03T12:24:37.047Z</time></trkpt><trkpt lat="43.301527" lon="10.9527677"><ele>148.0</ele><time>2026-04-03T12:24:39.12Z</time></trkpt><trkpt lat="43.3015386" lon="10.9528802"><ele>148.0</ele><time>2026-04-03T12:24:41.034Z</time></trkpt><trkpt lat="43.301543" lon="10.9529927"><ele>148.0</ele><time>2026-04-03T12:25:06.054Z</time></trkpt><trkpt lat="43.3015449" lon="10.9531137"><ele>148.0</ele><time>2026-04-03T12:25:07.041Z</time></trkpt><trkpt lat="43.3015448" lon="10.9532048"><ele>148.0</ele><time>2026-04-03T12:25:08.041Z</time></trkpt><trkpt lat="43.3015413" lon="10.9533196"><ele>148.0</ele><time>2026-04-03T12:25:10.039Z</time></trkpt><trkpt lat="43.3014857" lon="10.9533627"><ele>148.0</ele><time>2026-04-03T12:25:14.049Z</time></trkpt><trkpt lat="43.3014231" lon="10.9533075"><ele>148.0</ele><time>2026-04-03T12:25:18.056Z</time></trkpt><trkpt lat="43.3014012" lon="10.9532062"><ele>148.0</ele><time>2026-04-03T12:25:19.036Z</time></trkpt><trkpt lat="43.3013472" lon="10.9530874"><ele>148.0</ele><time>2026-04-03T12:25:21.039Z</time></trkpt><trkpt lat="43.3012345" lon="10.953036"><ele>148.0</ele><time>2026-04-03T12:25:23.046Z</time></trkpt><trkpt lat="43.3011284" lon="10.9530306"><ele>148.4</ele><time>2026-04-03T12:25:25.052Z</time></trkpt><trkpt lat="43.3010206" lon="10.9530656"><ele>148.8</ele><time>2026-04-03T12:25:27.047Z</time></trkpt><trkpt lat="43.3009061" lon="10.9531378"><ele>149.2</ele><time>2026-04-03T12:25:29.045Z</time></trkpt><trkpt lat="43.3008473" lon="10.9531694"><ele>149.6</ele><time>2026-04-03T12:25:30.052Z</time></trkpt><trkpt lat="43.300739" lon="10.9532209"><ele>150.0</ele><time>2026-04-03T12:25:32.048Z</time></trkpt><trkpt lat="43.3006508" lon="10.9532472"><ele>151.16666666666666</ele><time>2026-04-03T12:25:34.045Z</time></trkpt><trkpt lat="43.3005678" lon="10.9531984"><ele>152.33333333333334</ele><time>2026-04-03T12:25:36.044Z</time></trkpt><trkpt lat="43.3004679" lon="10.953092"><ele>153.5</ele><time>2026-04-03T12:25:38.043Z</time></trkpt><trkpt lat="43.3004176" lon="10.9530284"><ele>154.66666666666669</ele><time>2026-04-03T12:25:39.052Z</time></trkpt><trkpt lat="43.3003628" lon="10.9529645"><ele>155.83333333333334</ele><time>2026-04-03T12:25:40.046Z</time></trkpt><trkpt lat="43.3003036" lon="10.9529047"><ele>157.0</ele><time>2026-04-03T12:25:41.049Z</time></trkpt><trkpt lat="43.3002447" lon="10.9528436"><ele>157.0</ele><time>2026-04-03T12:25:42.041Z</time></trkpt><trkpt lat="43.3001868" lon="10.952776"><ele>157.0</ele><time>2026-04-03T12:25:43.043Z</time></trkpt><trkpt lat="43.3001342" lon="10.9526997"><ele>157.0</ele><time>2026-04-03T12:25:44.051Z</time></trkpt><trkpt lat="43.3000825" lon="10.9526336"><ele>157.0</ele><time>2026-04-03T12:25:45.041Z</time></trkpt><trkpt lat="43.2999994" lon="10.9525375"><ele>157.0</ele><time>2026-04-03T12:25:47.045Z</time></trkpt><trkpt lat="43.2999365" lon="10.9524327"><ele>157.0</ele><time>2026-04-03T12:25:49.045Z</time></trkpt><trkpt lat="43.2998611" lon="10.9523017"><ele>156.4</ele><time>2026-04-03T12:25:51.054Z</time></trkpt><trkpt lat="43.2997647" lon="10.9522099"><ele>155.79999999999998</ele><time>2026-04-03T12:25:53.055Z</time></trkpt><trkpt lat="43.2996618" lon="10.9521678"><ele>155.2</ele><time>2026-04-03T12:25:55.044Z</time></trkpt><trkpt lat="43.2995422" lon="10.9522362"><ele>154.6</ele><time>2026-04-03T12:25:57.048Z</time></trkpt><trkpt lat="43.2994821" lon="10.9522751"><ele>154.0</ele><time>2026-04-03T12:25:58.054Z</time></trkpt><trkpt lat="43.2993673" lon="10.9523047"><ele>156.8</ele><time>2026-04-03T12:26:00.047Z</time></trkpt><trkpt lat="43.2992772" lon="10.9522579"><ele>159.60000000000002</ele><time>2026-04-03T12:26:02.046Z</time></trkpt><trkpt lat="43.2991873" lon="10.9521421"><ele>162.4</ele><time>2026-04-03T12:26:04.052Z</time></trkpt><trkpt lat="43.2990989" lon="10.9520855"><ele>165.20000000000002</ele><time>2026-04-03T12:26:06.049Z</time></trkpt><trkpt lat="43.298989" lon="10.952157"><ele>168.0</ele><time>2026-04-03T12:26:08.046Z</time></trkpt><trkpt lat="43.2989355" lon="10.9522241"><ele>169.28571428571428</ele><time>2026-04-03T12:26:09.048Z</time></trkpt><trkpt lat="43.298874" lon="10.9522793"><ele>170.57142857142856</ele><time>2026-04-03T12:26:10.048Z</time></trkpt><trkpt lat="43.2988118" lon="10.952322"><ele>171.85714285714286</ele><time>2026-04-03T12:26:11.042Z</time></trkpt><trkpt lat="43.2987524" lon="10.9523669"><ele>173.14285714285714</ele><time>2026-04-03T12:26:12.055Z</time></trkpt><trkpt lat="43.2987018" lon="10.9524237"><ele>174.42857142857142</ele><time>2026-04-03T12:26:13.044Z</time></trkpt><trkpt lat="43.2986583" lon="10.9525087"><ele>175.71428571428572</ele><time>2026-04-03T12:26:14.05Z</time></trkpt><trkpt lat="43.2986167" lon="10.9526161"><ele>177.0</ele><time>2026-04-03T12:26:15.055Z</time></trkpt><trkpt lat="43.2985863" lon="10.9527363"><ele>178.0</ele><time>2026-04-03T12:26:16.057Z</time></trkpt><trkpt lat="43.2985578" lon="10.9528341"><ele>179.0</ele><time>2026-04-03T12:26:17.045Z</time></trkpt><trkpt lat="43.2985296" lon="10.9529164"><ele>180.0</ele><time>2026-04-03T12:26:18.039Z</time></trkpt><trkpt lat="43.2985068" lon="10.9530043"><ele>181.0</ele><time>2026-04-03T12:26:19.039Z</time></trkpt><trkpt lat="43.2984867" lon="10.9530995"><ele>182.0</ele><time>2026-04-03T12:26:20.044Z</time></trkpt><trkpt lat="43.2984583" lon="10.9531958"><ele>183.0</ele><time>2026-04-03T12:26:21.041Z</time></trkpt><trkpt lat="43.2984172" lon="10.9532857"><ele>184.0</ele><time>2026-04-03T12:26:22.042Z</time></trkpt><trkpt lat="43.2983778" lon="10.9533763"><ele>184.5</ele><time>2026-04-03T12:26:23.063Z</time></trkpt><trkpt lat="43.2983451" lon="10.9534736"><ele>185.0</ele><time>2026-04-03T12:26:24.045Z</time></trkpt><trkpt lat="43.2983056" lon="10.9535807"><ele>185.5</ele><time>2026-04-03T12:26:25.046Z</time></trkpt><trkpt lat="43.298268" lon="10.9536898"><ele>186.0</ele><time>2026-04-03T12:26:26.046Z</time></trkpt><trkpt lat="43.2982388" lon="10.953792"><ele>186.5</ele><time>2026-04-03T12:26:27.037Z</time></trkpt><trkpt lat="43.2982147" lon="10.9538789"><ele>187.0</ele><time>2026-04-03T12:26:28.042Z</time></trkpt><trkpt lat="43.2981805" lon="10.9539609"><ele>187.0</ele><time>2026-04-03T12:26:29.057Z</time></trkpt><trkpt lat="43.2981463" lon="10.9540401"><ele>187.0</ele><time>2026-04-03T12:26:30.052Z</time></trkpt><trkpt lat="43.2981179" lon="10.954127"><ele>187.0</ele><time>2026-04-03T12:26:31.052Z</time></trkpt><trkpt lat="43.2980525" lon="10.954246"><ele>187.0</ele><time>2026-04-03T12:26:33.043Z</time></trkpt><trkpt lat="43.2979259" lon="10.9542865"><ele>187.0</ele><time>2026-04-03T12:26:35.053Z</time></trkpt><trkpt lat="43.2978496" lon="10.9543031"><ele>189.16666666666669</ele><time>2026-04-03T12:26:36.043Z</time></trkpt><trkpt lat="43.2977738" lon="10.9543118"><ele>191.33333333333334</ele><time>2026-04-03T12:26:37.047Z</time></trkpt><trkpt lat="43.2977033" lon="10.9543164"><ele>193.5</ele><time>2026-04-03T12:26:38.04Z</time></trkpt><trkpt lat="43.2976334" lon="10.9543387"><ele>195.66666666666669</ele><time>2026-04-03T12:26:39.041Z</time></trkpt><trkpt lat="43.2975598" lon="10.9543581"><ele>197.83333333333334</ele><time>2026-04-03T12:26:40.042Z</time></trkpt><trkpt lat="43.2974769" lon="10.9543656"><ele>200.0</ele><time>2026-04-03T12:26:41.049Z</time></trkpt><trkpt lat="43.2973918" lon="10.9543844"><ele>200.00000000000003</ele><time>2026-04-03T12:26:42.052Z</time></trkpt><trkpt lat="43.2973112" lon="10.9544156"><ele>200.0</ele><time>2026-04-03T12:26:43.044Z</time></trkpt><trkpt lat="43.2972282" lon="10.9544484"><ele>200.0</ele><time>2026-04-03T12:26:44.044Z</time></trkpt><trkpt lat="43.2971538" lon="10.9544693"><ele>200.0</ele><time>2026-04-03T12:26:45.047Z</time></trkpt><trkpt lat="43.2970799" lon="10.9544908"><ele>200.00000000000003</ele><time>2026-04-03T12:26:46.047Z</time></trkpt><trkpt lat="43.2970076" lon="10.9545111"><ele>200.0</ele><time>2026-04-03T12:26:47.044Z</time></trkpt><trkpt lat="43.29694" lon="10.9545296"><ele>202.66666666666669</ele><time>2026-04-03T12:26:48.043Z</time></trkpt><trkpt lat="43.2968764" lon="10.9545469"><ele>205.33333333333334</ele><time>2026-04-03T12:26:49.053Z</time></trkpt><trkpt lat="43.2968138" lon="10.9545649"><ele>208.0</ele><time>2026-04-03T12:26:50.046Z</time></trkpt><trkpt lat="43.2967029" lon="10.9545875"><ele>210.66666666666669</ele><time>2026-04-03T12:26:52.046Z</time></trkpt><trkpt lat="43.2966034" lon="10.9546164"><ele>213.33333333333334</ele><time>2026-04-03T12:26:54.046Z</time></trkpt><trkpt lat="43.2965177" lon="10.9546882"><ele>216.0</ele><time>2026-04-03T12:26:56.053Z</time></trkpt><trkpt lat="43.2964596" lon="10.9548218"><ele>218.83333333333334</ele><time>2026-04-03T12:26:58.047Z</time></trkpt><trkpt lat="43.2963843" lon="10.9549494"><ele>221.66666666666669</ele><time>2026-04-03T12:27:00.048Z</time></trkpt><trkpt lat="43.29634" lon="10.9550164"><ele>224.5</ele><time>2026-04-03T12:27:01.048Z</time></trkpt><trkpt lat="43.2962944" lon="10.9550828"><ele>227.33333333333334</ele><time>2026-04-03T12:27:02.042Z</time></trkpt><trkpt lat="43.2962457" lon="10.9551575"><ele>230.16666666666669</ele><time>2026-04-03T12:27:03.042Z</time></trkpt><trkpt lat="43.2961855" lon="10.9552319"><ele>233.0</ele><time>2026-04-03T12:27:04.044Z</time></trkpt><trkpt lat="43.2961231" lon="10.9552994"><ele>233.00000000000003</ele><time>2026-04-03T12:27:05.045Z</time></trkpt><trkpt lat="43.296058" lon="10.9553651"><ele>233.0</ele><time>2026-04-03T12:27:06.042Z</time></trkpt><trkpt lat="43.2959806" lon="10.9554175"><ele>233.0</ele><time>2026-04-03T12:27:07.044Z</time></trkpt><trkpt lat="43.2959064" lon="10.9554658"><ele>233.0</ele><time>2026-04-03T12:27:08.043Z</time></trkpt><trkpt lat="43.2958404" lon="10.9555076"><ele>233.00000000000003</ele><time>2026-04-03T12:27:09.038Z</time></trkpt><trkpt lat="43.2957816" lon="10.955553"><ele>233.0</ele><time>2026-04-03T12:27:10.048Z</time></trkpt><trkpt lat="43.2957125" lon="10.9555951"><ele>233.0</ele><time>2026-04-03T12:27:11.049Z</time></trkpt><trkpt lat="43.295645" lon="10.9556389"><ele>233.0</ele><time>2026-04-03T12:27:12.043Z</time></trkpt><trkpt lat="43.2955759" lon="10.955678"><ele>233.0</ele><time>2026-04-03T12:27:13.043Z</time></trkpt><trkpt lat="43.2955098" lon="10.955712"><ele>233.0</ele><time>2026-04-03T12:27:14.045Z</time></trkpt><trkpt lat="43.2954468" lon="10.9557218"><ele>233.0</ele><time>2026-04-03T12:27:15.042Z</time></trkpt><trkpt lat="43.2953758" lon="10.9556962"><ele>233.0</ele><time>2026-04-03T12:27:16.05Z</time></trkpt><trkpt lat="43.2953008" lon="10.9556674"><ele>233.0</ele><time>2026-04-03T12:27:17.04Z</time></trkpt><trkpt lat="43.2952278" lon="10.9556402"><ele>235.71428571428572</ele><time>2026-04-03T12:27:18.042Z</time></trkpt><trkpt lat="43.2951565" lon="10.9556263"><ele>238.42857142857142</ele><time>2026-04-03T12:27:19.043Z</time></trkpt><trkpt lat="43.2950867" lon="10.9556205"><ele>241.14285714285714</ele><time>2026-04-03T12:27:20.04Z</time></trkpt><trkpt lat="43.2950196" lon="10.9556161"><ele>243.85714285714286</ele><time>2026-04-03T12:27:21.039Z</time></trkpt><trkpt lat="43.2949552" lon="10.9556187"><ele>246.57142857142856</ele><time>2026-04-03T12:27:22.04Z</time></trkpt><trkpt lat="43.2948882" lon="10.9556218"><ele>249.28571428571428</ele><time>2026-04-03T12:27:23.049Z</time></trkpt><trkpt lat="43.2948147" lon="10.955623"><ele>252.0</ele><time>2026-04-03T12:27:24.044Z</time></trkpt><trkpt lat="43.2947374" lon="10.9556214"><ele>254.33333333333334</ele><time>2026-04-03T12:27:25.04Z</time></trkpt><trkpt lat="43.2946565" lon="10.9556227"><ele>256.6666666666667</ele><time>2026-04-03T12:27:26.046Z</time></trkpt><trkpt lat="43.2945771" lon="10.9556263"><ele>259.0</ele><time>2026-04-03T12:27:27.039Z</time></trkpt><trkpt lat="43.2945082" lon="10.9556476"><ele>261.33333333333337</ele><time>2026-04-03T12:27:28.04Z</time></trkpt><trkpt lat="43.2944005" lon="10.9557538"><ele>263.6666666666667</ele><time>2026-04-03T12:27:30.041Z</time></trkpt><trkpt lat="43.2943538" lon="10.9558272"><ele>266.0</ele><time>2026-04-03T12:27:31.045Z</time></trkpt><trkpt lat="43.2943091" lon="10.9559106"><ele>266.6666666666667</ele><time>2026-04-03T12:27:32.04Z</time></trkpt><trkpt lat="43.2942702" lon="10.9560117"><ele>267.33333333333337</ele><time>2026-04-03T12:27:33.052Z</time></trkpt><trkpt lat="43.2942349" lon="10.9561137"><ele>268.0</ele><time>2026-04-03T12:27:34.045Z</time></trkpt><trkpt lat="43.2941975" lon="10.9562197"><ele>268.6666666666667</ele><time>2026-04-03T12:27:35.048Z</time></trkpt><trkpt lat="43.2941606" lon="10.9563274"><ele>269.3333333333333</ele><time>2026-04-03T12:27:36.05Z</time></trkpt><trkpt lat="43.2941209" lon="10.9564404"><ele>270.0</ele><time>2026-04-03T12:27:37.048Z</time></trkpt><trkpt lat="43.2940799" lon="10.9565547"><ele>270.0</ele><time>2026-04-03T12:27:38.043Z</time></trkpt><trkpt lat="43.2940391" lon="10.9566635"><ele>270.0</ele><time>2026-04-03T12:27:39.047Z</time></trkpt><trkpt lat="43.2940022" lon="10.9567608"><ele>270.0</ele><time>2026-04-03T12:27:40.041Z</time></trkpt><trkpt lat="43.2939684" lon="10.9568523"><ele>270.0</ele><time>2026-04-03T12:27:41.04Z</time></trkpt><trkpt lat="43.2939343" lon="10.956949"><ele>270.0</ele><time>2026-04-03T12:27:42.035Z</time></trkpt><trkpt lat="43.2938976" lon="10.9570501"><ele>270.0</ele><time>2026-04-03T12:27:43.05Z</time></trkpt><trkpt lat="43.2938664" lon="10.9571482"><ele>272.5</ele><time>2026-04-03T12:27:44.038Z</time></trkpt><trkpt lat="43.2938414" lon="10.9572598"><ele>275.0</ele><time>2026-04-03T12:27:45.054Z</time></trkpt><trkpt lat="43.2938182" lon="10.9573642"><ele>277.5</ele><time>2026-04-03T12:27:46.045Z</time></trkpt><trkpt lat="43.2937957" lon="10.9574649"><ele>280.0</ele><time>2026-04-03T12:27:47.04Z</time></trkpt><trkpt lat="43.2937747" lon="10.9575647"><ele>282.5</ele><time>2026-04-03T12:27:48.058Z</time></trkpt><trkpt lat="43.2937566" lon="10.9576623"><ele>285.0</ele><time>2026-04-03T12:27:49.05Z</time></trkpt><trkpt lat="43.2937393" lon="10.9577479"><ele>286.8</ele><time>2026-04-03T12:27:50.04Z</time></trkpt><trkpt lat="43.2936807" lon="10.9578721"><ele>288.6</ele><time>2026-04-03T12:27:52.042Z</time></trkpt><trkpt lat="43.2935971" lon="10.9579829"><ele>290.4</ele><time>2026-04-03T12:27:54.043Z</time></trkpt><trkpt lat="43.2935011" lon="10.9581047"><ele>292.2</ele><time>2026-04-03T12:27:56.054Z</time></trkpt><trkpt lat="43.2934461" lon="10.9581774"><ele>294.0</ele><time>2026-04-03T12:27:57.038Z</time></trkpt><trkpt lat="43.2933929" lon="10.9582572"><ele>294.0</ele><time>2026-04-03T12:27:58.045Z</time></trkpt><trkpt lat="43.2933424" lon="10.9583302"><ele>294.0</ele><time>2026-04-03T12:27:59.042Z</time></trkpt><trkpt lat="43.2932906" lon="10.9583865"><ele>294.0</ele><time>2026-04-03T12:28:00.051Z</time></trkpt><trkpt lat="43.2931784" lon="10.9584643"><ele>294.0</ele><time>2026-04-03T12:28:02.038Z</time></trkpt><trkpt lat="43.2931162" lon="10.9585095"><ele>294.0</ele><time>2026-04-03T12:28:03.052Z</time></trkpt><trkpt lat="43.2930473" lon="10.958551"><ele>294.0</ele><time>2026-04-03T12:28:04.05Z</time></trkpt><trkpt lat="43.2929641" lon="10.9585896"><ele>296.3333333333333</ele><time>2026-04-03T12:28:05.038Z</time></trkpt><trkpt lat="43.2928801" lon="10.9586296"><ele>298.6666666666667</ele><time>2026-04-03T12:28:06.043Z</time></trkpt><trkpt lat="43.2927968" lon="10.9586719"><ele>301.0</ele><time>2026-04-03T12:28:07.045Z</time></trkpt><trkpt lat="43.2927214" lon="10.9587085"><ele>303.33333333333337</ele><time>2026-04-03T12:28:08.052Z</time></trkpt><trkpt lat="43.2926469" lon="10.9587475"><ele>305.6666666666667</ele><time>2026-04-03T12:28:09.043Z</time></trkpt><trkpt lat="43.2925791" lon="10.9588035"><ele>308.0</ele><time>2026-04-03T12:28:10.05Z</time></trkpt><trkpt lat="43.2925123" lon="10.9588702"><ele>308.0</ele><time>2026-04-03T12:28:11.043Z</time></trkpt><trkpt lat="43.2924402" lon="10.9589427"><ele>308.0</ele><time>2026-04-03T12:28:12.043Z</time></trkpt><trkpt lat="43.2923637" lon="10.9590226"><ele>308.0</ele><time>2026-04-03T12:28:13.048Z</time></trkpt><trkpt lat="43.2922862" lon="10.9591037"><ele>308.0</ele><time>2026-04-03T12:28:14.045Z</time></trkpt><trkpt lat="43.2922113" lon="10.9591849"><ele>308.0</ele><time>2026-04-03T12:28:15.049Z</time></trkpt><trkpt lat="43.2921353" lon="10.9592695"><ele>310.4</ele><time>2026-04-03T12:28:16.04Z</time></trkpt><trkpt lat="43.292057" lon="10.9593553"><ele>312.8</ele><time>2026-04-03T12:28:17.043Z</time></trkpt><trkpt lat="43.2919797" lon="10.9594423"><ele>315.2</ele><time>2026-04-03T12:28:18.038Z</time></trkpt><trkpt lat="43.2918987" lon="10.9595357"><ele>317.6</ele><time>2026-04-03T12:28:19.045Z</time></trkpt><trkpt lat="43.2918163" lon="10.9596214"><ele>320.0</ele><time>2026-04-03T12:28:20.04Z</time></trkpt><trkpt lat="43.2917339" lon="10.9597101"><ele>320.0</ele><time>2026-04-03T12:28:21.043Z</time></trkpt><trkpt lat="43.291657" lon="10.9597967"><ele>320.0</ele><time>2026-04-03T12:28:22.054Z</time></trkpt><trkpt lat="43.2915828" lon="10.959882"><ele>320.0</ele><time>2026-04-03T12:28:23.094Z</time></trkpt><trkpt lat="43.2915116" lon="10.9599608"><ele>320.0</ele><time>2026-04-03T12:28:24.045Z</time></trkpt><trkpt lat="43.2914442" lon="10.9600322"><ele>320.0</ele><time>2026-04-03T12:28:25.045Z</time></trkpt><trkpt lat="43.2913792" lon="10.9601028"><ele>322.4</ele><time>2026-04-03T12:28:26.046Z</time></trkpt><trkpt lat="43.291309" lon="10.9601777"><ele>324.8</ele><time>2026-04-03T12:28:27.044Z</time></trkpt><trkpt lat="43.2912375" lon="10.9602556"><ele>327.20000000000005</ele><time>2026-04-03T12:28:28.046Z</time></trkpt><trkpt lat="43.2911696" lon="10.9603399"><ele>329.6</ele><time>2026-04-03T12:28:29.049Z</time></trkpt><trkpt lat="43.2911015" lon="10.9604254"><ele>332.0</ele><time>2026-04-03T12:28:30.055Z</time></trkpt><trkpt lat="43.2910313" lon="10.9605027"><ele>332.0</ele><time>2026-04-03T12:28:31.048Z</time></trkpt><trkpt lat="43.2909634" lon="10.9605807"><ele>332.0</ele><time>2026-04-03T12:28:32.065Z</time></trkpt><trkpt lat="43.290903" lon="10.9606553"><ele>332.0</ele><time>2026-04-03T12:28:33.054Z</time></trkpt><trkpt lat="43.2908467" lon="10.9607327"><ele>332.0</ele><time>2026-04-03T12:28:34.049Z</time></trkpt><trkpt lat="43.2907869" lon="10.960808"><ele>332.0</ele><time>2026-04-03T12:28:35.044Z</time></trkpt><trkpt lat="43.2907191" lon="10.9608867"><ele>332.0</ele><time>2026-04-03T12:28:36.055Z</time></trkpt><trkpt lat="43.290654" lon="10.9609639"><ele>333.1666666666667</ele><time>2026-04-03T12:28:37.041Z</time></trkpt><trkpt lat="43.2905853" lon="10.9610292"><ele>334.33333333333337</ele><time>2026-04-03T12:28:38.045Z</time></trkpt><trkpt lat="43.2905128" lon="10.9610834"><ele>335.5</ele><time>2026-04-03T12:28:39.044Z</time></trkpt><trkpt lat="43.290445" lon="10.9611279"><ele>336.6666666666667</ele><time>2026-04-03T12:28:40.054Z</time></trkpt><trkpt lat="43.2903757" lon="10.9611675"><ele>337.8333333333333</ele><time>2026-04-03T12:28:41.048Z</time></trkpt><trkpt lat="43.2902849" lon="10.961182"><ele>339.0</ele><time>2026-04-03T12:28:42.042Z</time></trkpt><trkpt lat="43.2901994" lon="10.9611847"><ele>339.0</ele><time>2026-04-03T12:28:43.037Z</time></trkpt><trkpt lat="43.2901167" lon="10.9611917"><ele>339.0</ele><time>2026-04-03T12:28:44.049Z</time></trkpt><trkpt lat="43.2900285" lon="10.9611891"><ele>339.0</ele><time>2026-04-03T12:28:45.053Z</time></trkpt><trkpt lat="43.2899394" lon="10.9611849"><ele>339.0</ele><time>2026-04-03T12:28:46.045Z</time></trkpt><trkpt lat="43.2898501" lon="10.9611803"><ele>339.0</ele><time>2026-04-03T12:28:47.044Z</time></trkpt><trkpt lat="43.289757" lon="10.9611761"><ele>339.0</ele><time>2026-04-03T12:28:48.056Z</time></trkpt><trkpt lat="43.2896633" lon="10.961167"><ele>340.4</ele><time>2026-04-03T12:28:49.044Z</time></trkpt><trkpt lat="43.2895671" lon="10.961161"><ele>341.79999999999995</ele><time>2026-04-03T12:28:50.045Z</time></trkpt><trkpt lat="43.2894684" lon="10.9611388"><ele>343.20000000000005</ele><time>2026-04-03T12:28:51.049Z</time></trkpt><trkpt lat="43.2893728" lon="10.9611078"><ele>344.6</ele><time>2026-04-03T12:28:52.043Z</time></trkpt><trkpt lat="43.2892804" lon="10.9610804"><ele>346.0</ele><time>2026-04-03T12:28:53.04Z</time></trkpt><trkpt lat="43.2891892" lon="10.9610671"><ele>346.0</ele><time>2026-04-03T12:28:54.047Z</time></trkpt><trkpt lat="43.2891007" lon="10.9610642"><ele>346.0</ele><time>2026-04-03T12:28:55.043Z</time></trkpt><trkpt lat="43.2890122" lon="10.9610645"><ele>346.0</ele><time>2026-04-03T12:28:56.05Z</time></trkpt><trkpt lat="43.288923" lon="10.9610658"><ele>346.0</ele><time>2026-04-03T12:28:57.058Z</time></trkpt><trkpt lat="43.2888291" lon="10.96107"><ele>346.0</ele><time>2026-04-03T12:28:58.043Z</time></trkpt><trkpt lat="43.2887322" lon="10.9610819"><ele>347.0</ele><time>2026-04-03T12:28:59.041Z</time></trkpt><trkpt lat="43.2886355" lon="10.9610971"><ele>348.0</ele><time>2026-04-03T12:29:00.044Z</time></trkpt><trkpt lat="43.2885365" lon="10.9611194"><ele>349.0</ele><time>2026-04-03T12:29:01.055Z</time></trkpt><trkpt lat="43.2884342" lon="10.9611458"><ele>350.0</ele><time>2026-04-03T12:29:02.05Z</time></trkpt><trkpt lat="43.2883323" lon="10.9611749"><ele>351.0</ele><time>2026-04-03T12:29:03.047Z</time></trkpt><trkpt lat="43.288234" lon="10.9612057"><ele>351.0</ele><time>2026-04-03T12:29:04.053Z</time></trkpt><trkpt lat="43.2881427" lon="10.9612331"><ele>351.0</ele><time>2026-04-03T12:29:05.048Z</time></trkpt><trkpt lat="43.2880449" lon="10.9612554"><ele>351.0</ele><time>2026-04-03T12:29:06.045Z</time></trkpt><trkpt lat="43.2879434" lon="10.9612776"><ele>351.0</ele><time>2026-04-03T12:29:07.055Z</time></trkpt><trkpt lat="43.2878462" lon="10.961307"><ele>351.0</ele><time>2026-04-03T12:29:08.045Z</time></trkpt><trkpt lat="43.2877488" lon="10.9613414"><ele>352.20000000000005</ele><time>2026-04-03T12:29:09.046Z</time></trkpt><trkpt lat="43.2876494" lon="10.9613757"><ele>353.40000000000003</ele><time>2026-04-03T12:29:10.046Z</time></trkpt><trkpt lat="43.2875504" lon="10.9614072"><ele>354.6</ele><time>2026-04-03T12:29:11.055Z</time></trkpt><trkpt lat="43.2874471" lon="10.9614284"><ele>355.8</ele><time>2026-04-03T12:29:12.047Z</time></trkpt><trkpt lat="43.2873394" lon="10.9614503"><ele>357.0</ele><time>2026-04-03T12:29:13.051Z</time></trkpt><trkpt lat="43.2872503" lon="10.9614683"><ele>357.8</ele><time>2026-04-03T12:29:14.049Z</time></trkpt><trkpt lat="43.2871476" lon="10.9614916"><ele>358.6</ele><time>2026-04-03T12:29:16.05Z</time></trkpt><trkpt lat="43.2870913" lon="10.9614403"><ele>359.40000000000003</ele><time>2026-04-03T12:29:28.11Z</time></trkpt><trkpt lat="43.2869398" lon="10.9613052"><ele>360.20000000000005</ele><time>2026-04-03T12:29:33.064Z</time></trkpt><trkpt lat="43.2869777" lon="10.9613788"><ele>361.0</ele><time>2026-04-03T12:30:19.081Z</time></trkpt><trkpt lat="43.2870395" lon="10.9614054"><ele>361.0</ele><time>2026-04-03T12:30:21.121Z</time></trkpt><trkpt lat="43.2870899" lon="10.9614613"><ele>361.0</ele><time>2026-04-03T12:30:29.044Z</time></trkpt><trkpt lat="43.2871777" lon="10.9614894"><ele>361.0</ele><time>2026-04-03T12:31:48.049Z</time></trkpt><trkpt lat="43.2872473" lon="10.9614654"><ele>361.0</ele><time>2026-04-03T12:31:50.074Z</time></trkpt><trkpt lat="43.287319" lon="10.9614713"><ele>361.0</ele><time>2026-04-03T12:31:54.101Z</time></trkpt><trkpt lat="43.2873391" lon="10.9615671"><ele>361.0</ele><time>2026-04-03T12:32:01.121Z</time></trkpt><trkpt lat="43.287331" lon="10.9616965"><ele>360.3333333333333</ele><time>2026-04-03T12:32:04.078Z</time></trkpt><trkpt lat="43.2873617" lon="10.9618021"><ele>359.66666666666663</ele><time>2026-04-03T12:32:06.049Z</time></trkpt><trkpt lat="43.2873631" lon="10.9618892"><ele>359.0</ele><time>2026-04-03T12:32:07.048Z</time></trkpt><trkpt lat="43.287365" lon="10.9619774"><ele>358.3333333333333</ele><time>2026-04-03T12:32:08.047Z</time></trkpt><trkpt lat="43.2873831" lon="10.9621283"><ele>357.6666666666667</ele><time>2026-04-03T12:32:10.05Z</time></trkpt><trkpt lat="43.2874046" lon="10.9622642"><ele>357.0</ele><time>2026-04-03T12:32:12.04Z</time></trkpt><trkpt lat="43.2874268" lon="10.9624056"><ele>357.0</ele><time>2026-04-03T12:32:14.043Z</time></trkpt><trkpt lat="43.2874591" lon="10.9625454"><ele>357.0</ele><time>2026-04-03T12:32:16.041Z</time></trkpt><trkpt lat="43.28748" lon="10.9626729"><ele>357.0</ele><time>2026-04-03T12:32:18.042Z</time></trkpt><trkpt lat="43.2874904" lon="10.962809"><ele>357.0</ele><time>2026-04-03T12:32:20.05Z</time></trkpt><trkpt lat="43.2874855" lon="10.9629364"><ele>357.0</ele><time>2026-04-03T12:32:22.05Z</time></trkpt><trkpt lat="43.2874842" lon="10.9630631"><ele>357.0</ele><time>2026-04-03T12:32:24.042Z</time></trkpt><trkpt lat="43.2874812" lon="10.9632011"><ele>357.0</ele><time>2026-04-03T12:32:26.042Z</time></trkpt><trkpt lat="43.2874667" lon="10.9633252"><ele>357.0</ele><time>2026-04-03T12:32:28.045Z</time></trkpt><trkpt lat="43.2874481" lon="10.9634319"><ele>357.0</ele><time>2026-04-03T12:32:30.049Z</time></trkpt><trkpt lat="43.2874048" lon="10.9635207"><ele>357.0</ele><time>2026-04-03T12:32:32.061Z</time></trkpt><trkpt lat="43.2873374" lon="10.9636067"><ele>357.0</ele><time>2026-04-03T12:32:34.041Z</time></trkpt><trkpt lat="43.2872861" lon="10.9636623"><ele>355.0</ele><time>2026-04-03T12:32:36.038Z</time></trkpt><trkpt lat="43.287191" lon="10.9637016"><ele>353.0</ele><time>2026-04-03T12:32:39.104Z</time></trkpt><trkpt lat="43.2871319" lon="10.963657"><ele>351.0</ele><time>2026-04-03T12:32:42.052Z</time></trkpt><trkpt lat="43.2870519" lon="10.9636124"><ele>349.0</ele><time>2026-04-03T12:32:45.072Z</time></trkpt><trkpt lat="43.2869676" lon="10.9636181"><ele>347.0</ele><time>2026-04-03T12:32:46.961Z</time></trkpt><trkpt lat="43.2869027" lon="10.9635931"><ele>345.0</ele><time>2026-04-03T12:32:49.036Z</time></trkpt><trkpt lat="43.2868282" lon="10.9635965"><ele>345.0</ele><time>2026-04-03T12:32:51.042Z</time></trkpt><trkpt lat="43.2867602" lon="10.9636029"><ele>345.0</ele><time>2026-04-03T12:32:53.114Z</time></trkpt><trkpt lat="43.28669" lon="10.963592"><ele>345.0</ele><time>2026-04-03T12:32:55.075Z</time></trkpt><trkpt lat="43.2866221" lon="10.9635589"><ele>345.0</ele><time>2026-04-03T12:32:56.983Z</time></trkpt><trkpt lat="43.2865532" lon="10.9635151"><ele>345.0</ele><time>2026-04-03T12:32:59.14Z</time></trkpt><trkpt lat="43.2864899" lon="10.9634293"><ele>345.0</ele><time>2026-04-03T12:33:02.046Z</time></trkpt><trkpt lat="43.2864421" lon="10.9633618"><ele>345.0</ele><time>2026-04-03T12:33:04.057Z</time></trkpt><trkpt lat="43.2863992" lon="10.9632745"><ele>344.3333333333333</ele><time>2026-04-03T12:33:06.058Z</time></trkpt><trkpt lat="43.2863719" lon="10.963182"><ele>343.6666666666667</ele><time>2026-04-03T12:33:08.055Z</time></trkpt><trkpt lat="43.2863444" lon="10.9630774"><ele>343.0</ele><time>2026-04-03T12:33:10.044Z</time></trkpt><trkpt lat="43.2863464" lon="10.9629866"><ele>342.33333333333337</ele><time>2026-04-03T12:33:13.048Z</time></trkpt><trkpt lat="43.2863141" lon="10.9629032"><ele>341.6666666666667</ele><time>2026-04-03T12:33:15.095Z</time></trkpt><trkpt lat="43.2862805" lon="10.9627616"><ele>341.0</ele><time>2026-04-03T12:33:17.047Z</time></trkpt><trkpt lat="43.2862521" lon="10.9626074"><ele>342.1666666666667</ele><time>2026-04-03T12:33:19.046Z</time></trkpt><trkpt lat="43.286215" lon="10.962474"><ele>343.33333333333337</ele><time>2026-04-03T12:33:21.044Z</time></trkpt><trkpt lat="43.2861895" lon="10.9623492"><ele>344.5</ele><time>2026-04-03T12:33:23.043Z</time></trkpt><trkpt lat="43.2861797" lon="10.9622418"><ele>345.6666666666667</ele><time>2026-04-03T12:33:25.04Z</time></trkpt><trkpt lat="43.2861821" lon="10.9621538"><ele>346.8333333333333</ele><time>2026-04-03T12:33:27.04Z</time></trkpt><trkpt lat="43.2861758" lon="10.962032"><ele>348.0</ele><time>2026-04-03T12:33:30.049Z</time></trkpt><trkpt lat="43.2860222" lon="10.9620601"><ele>348.0</ele><time>2026-04-03T12:34:43.057Z</time></trkpt><trkpt lat="43.2859511" lon="10.962117"><ele>348.0</ele><time>2026-04-03T12:34:44.063Z</time></trkpt><trkpt lat="43.285872" lon="10.9622153"><ele>348.0</ele><time>2026-04-03T12:34:46.047Z</time></trkpt><trkpt lat="43.2858211" lon="10.9622784"><ele>348.0</ele><time>2026-04-03T12:34:48.057Z</time></trkpt><trkpt lat="43.2857808" lon="10.9623557"><ele>348.0</ele><time>2026-04-03T12:34:51.064Z</time></trkpt><trkpt lat="43.2858273" lon="10.9624355"><ele>348.0</ele><time>2026-04-03T12:34:55.049Z</time></trkpt><trkpt lat="43.2858515" lon="10.9625371"><ele>346.25</ele><time>2026-04-03T12:34:59.117Z</time></trkpt><trkpt lat="43.2859207" lon="10.962611"><ele>344.5</ele><time>2026-04-03T12:35:37.051Z</time></trkpt><trkpt lat="43.285964" lon="10.9626807"><ele>342.75</ele><time>2026-04-03T12:35:39.077Z</time></trkpt><trkpt lat="43.2859945" lon="10.962934"><ele>341.0</ele><time>2026-04-03T12:35:42.079Z</time></trkpt><trkpt lat="43.2859902" lon="10.9630944"><ele>341.0</ele><time>2026-04-03T12:35:43.049Z</time></trkpt><trkpt lat="43.2859863" lon="10.9632299"><ele>341.0</ele><time>2026-04-03T12:35:45.058Z</time></trkpt><trkpt lat="43.2859579" lon="10.9633609"><ele>341.0</ele><time>2026-04-03T12:35:47.048Z</time></trkpt><trkpt lat="43.2859306" lon="10.9634901"><ele>341.0</ele><time>2026-04-03T12:35:49.05Z</time></trkpt><trkpt lat="43.2859404" lon="10.9635832"><ele>341.0</ele><time>2026-04-03T12:35:51.05Z</time></trkpt><trkpt lat="43.2859679" lon="10.9636803"><ele>341.0</ele><time>2026-04-03T12:35:53.045Z</time></trkpt><trkpt lat="43.2859896" lon="10.9637752"><ele>339.0</ele><time>2026-04-03T12:35:56.056Z</time></trkpt><trkpt lat="43.2859616" lon="10.9636587"><ele>337.0</ele><time>2026-04-03T12:36:27.1Z</time></trkpt><trkpt lat="43.2859876" lon="10.9635592"><ele>335.0</ele><time>2026-04-03T12:36:30.12Z</time></trkpt><trkpt lat="43.2860846" lon="10.9634632"><ele>333.0</ele><time>2026-04-03T12:36:33.039Z</time></trkpt><trkpt lat="43.2861624" lon="10.9634321"><ele>331.0</ele><time>2026-04-03T12:36:35.14Z</time></trkpt><trkpt lat="43.2862472" lon="10.9634029"><ele>331.0</ele><time>2026-04-03T12:36:37.121Z</time></trkpt><trkpt lat="43.2863369" lon="10.9634079"><ele>331.0</ele><time>2026-04-03T12:36:39.059Z</time></trkpt><trkpt lat="43.2864247" lon="10.9634285"><ele>331.0</ele><time>2026-04-03T12:36:41.081Z</time></trkpt><trkpt lat="43.2864973" lon="10.9634776"><ele>331.0</ele><time>2026-04-03T12:36:43.103Z</time></trkpt><trkpt lat="43.2865453" lon="10.963576"><ele>331.0</ele><time>2026-04-03T12:36:45.097Z</time></trkpt><trkpt lat="43.2866028" lon="10.9636165"><ele>331.0</ele><time>2026-04-03T12:36:47.048Z</time></trkpt><trkpt lat="43.2866743" lon="10.963645"><ele>333.3333333333333</ele><time>2026-04-03T12:36:49.083Z</time></trkpt><trkpt lat="43.2867415" lon="10.9636753"><ele>335.66666666666663</ele><time>2026-04-03T12:36:51.056Z</time></trkpt><trkpt lat="43.2868236" lon="10.9636823"><ele>338.0</ele><time>2026-04-03T12:36:53.096Z</time></trkpt><trkpt lat="43.2869287" lon="10.9636771"><ele>340.3333333333333</ele><time>2026-04-03T12:36:55.049Z</time></trkpt><trkpt lat="43.287011" lon="10.9636972"><ele>342.6666666666667</ele><time>2026-04-03T12:36:57.062Z</time></trkpt><trkpt lat="43.2870835" lon="10.9636839"><ele>345.0</ele><time>2026-04-03T12:36:59.05Z</time></trkpt><trkpt lat="43.2871601" lon="10.9636769"><ele>345.0</ele><time>2026-04-03T12:37:02.082Z</time></trkpt><trkpt lat="43.2872547" lon="10.9636591"><ele>345.0</ele><time>2026-04-03T12:37:05.05Z</time></trkpt><trkpt lat="43.2873104" lon="10.9635863"><ele>345.0</ele><time>2026-04-03T12:37:07.062Z</time></trkpt><trkpt lat="43.2873706" lon="10.9634996"><ele>345.0</ele><time>2026-04-03T12:37:08.978Z</time></trkpt><trkpt lat="43.2874283" lon="10.9634506"><ele>345.0</ele><time>2026-04-03T12:37:10.042Z</time></trkpt><trkpt lat="43.2874701" lon="10.9633383"><ele>345.0</ele><time>2026-04-03T12:37:12.053Z</time></trkpt><trkpt lat="43.2874832" lon="10.9632169"><ele>347.4</ele><time>2026-04-03T12:37:14.06Z</time></trkpt><trkpt lat="43.2874898" lon="10.9630839"><ele>349.8</ele><time>2026-04-03T12:37:16.04Z</time></trkpt><trkpt lat="43.2874916" lon="10.9629464"><ele>352.20000000000005</ele><time>2026-04-03T12:37:18.058Z</time></trkpt><trkpt lat="43.287492" lon="10.9628248"><ele>354.6</ele><time>2026-04-03T12:37:21.047Z</time></trkpt><trkpt lat="43.2874839" lon="10.9626826"><ele>357.0</ele><time>2026-04-03T12:37:23.063Z</time></trkpt><trkpt lat="43.2874627" lon="10.9625551"><ele>357.0</ele><time>2026-04-03T12:37:25.104Z</time></trkpt><trkpt lat="43.2874362" lon="10.9624338"><ele>357.0</ele><time>2026-04-03T12:37:27.052Z</time></trkpt><trkpt lat="43.2874092" lon="10.9623044"><ele>357.0</ele><time>2026-04-03T12:37:29.041Z</time></trkpt><trkpt lat="43.2873903" lon="10.9621743"><ele>357.0</ele><time>2026-04-03T12:37:31.042Z</time></trkpt><trkpt lat="43.2873709" lon="10.9620457"><ele>357.0</ele><time>2026-04-03T12:37:33.048Z</time></trkpt><trkpt lat="43.2873571" lon="10.961919"><ele>357.0</ele><time>2026-04-03T12:37:35.053Z</time></trkpt><trkpt lat="43.2873426" lon="10.9617968"><ele>357.0</ele><time>2026-04-03T12:37:37.05Z</time></trkpt><trkpt lat="43.2873284" lon="10.9616657"><ele>357.0</ele><time>2026-04-03T12:37:39.059Z</time></trkpt><trkpt lat="43.287339" lon="10.9615486"><ele>357.0</ele><time>2026-04-03T12:37:41.046Z</time></trkpt><trkpt lat="43.2873726" lon="10.9614695"><ele>357.0</ele><time>2026-04-03T12:37:43.049Z</time></trkpt><trkpt lat="43.2874416" lon="10.9614394"><ele>357.0</ele><time>2026-04-03T12:38:21.054Z</time></trkpt><trkpt lat="43.2875261" lon="10.9614062"><ele>357.0</ele><time>2026-04-03T12:38:22.044Z</time></trkpt><trkpt lat="43.2876195" lon="10.9613804"><ele>357.0</ele><time>2026-04-03T12:38:23.063Z</time></trkpt><trkpt lat="43.2877061" lon="10.9613605"><ele>357.0</ele><time>2026-04-03T12:38:24.055Z</time></trkpt><trkpt lat="43.2877873" lon="10.9613356"><ele>357.0</ele><time>2026-04-03T12:38:25.041Z</time></trkpt><trkpt lat="43.2878621" lon="10.9613067"><ele>357.0</ele><time>2026-04-03T12:38:26.055Z</time></trkpt><trkpt lat="43.2879362" lon="10.9612869"><ele>357.0</ele><time>2026-04-03T12:38:27.052Z</time></trkpt><trkpt lat="43.2880137" lon="10.9612622"><ele>356.14285714285717</ele><time>2026-04-03T12:38:28.039Z</time></trkpt><trkpt lat="43.288094" lon="10.9612385"><ele>355.2857142857143</ele><time>2026-04-03T12:38:29.043Z</time></trkpt><trkpt lat="43.2881706" lon="10.9612174"><ele>354.42857142857144</ele><time>2026-04-03T12:38:30.054Z</time></trkpt><trkpt lat="43.2882394" lon="10.9611988"><ele>353.57142857142856</ele><time>2026-04-03T12:38:31.047Z</time></trkpt><trkpt lat="43.2883049" lon="10.9611795"><ele>352.7142857142857</ele><time>2026-04-03T12:38:32.046Z</time></trkpt><trkpt lat="43.2883724" lon="10.9611569"><ele>351.8571428571429</ele><time>2026-04-03T12:38:33.048Z</time></trkpt><trkpt lat="43.2884448" lon="10.9611345"><ele>351.0</ele><time>2026-04-03T12:38:34.049Z</time></trkpt><trkpt lat="43.2885211" lon="10.9611171"><ele>351.0</ele><time>2026-04-03T12:38:35.051Z</time></trkpt><trkpt lat="43.2885903" lon="10.9611012"><ele>351.0</ele><time>2026-04-03T12:38:36.051Z</time></trkpt><trkpt lat="43.2886556" lon="10.9610902"><ele>351.0</ele><time>2026-04-03T12:38:37.048Z</time></trkpt><trkpt lat="43.288774" lon="10.961071"><ele>351.0</ele><time>2026-04-03T12:38:39.067Z</time></trkpt><trkpt lat="43.2888854" lon="10.9610664"><ele>351.0</ele><time>2026-04-03T12:38:41.052Z</time></trkpt><trkpt lat="43.2889995" lon="10.9610571"><ele>350.1666666666667</ele><time>2026-04-03T12:38:43.049Z</time></trkpt><trkpt lat="43.2890654" lon="10.961056"><ele>349.3333333333333</ele><time>2026-04-03T12:38:44.042Z</time></trkpt><trkpt lat="43.2891402" lon="10.9610586"><ele>348.5</ele><time>2026-04-03T12:38:45.042Z</time></trkpt><trkpt lat="43.2892212" lon="10.961064"><ele>347.66666666666663</ele><time>2026-04-03T12:38:46.049Z</time></trkpt><trkpt lat="43.2893067" lon="10.961074"><ele>346.8333333333333</ele><time>2026-04-03T12:38:47.046Z</time></trkpt><trkpt lat="43.2893906" lon="10.9610964"><ele>346.0</ele><time>2026-04-03T12:38:48.039Z</time></trkpt><trkpt lat="43.289469" lon="10.961126"><ele>346.0</ele><time>2026-04-03T12:38:49.057Z</time></trkpt><trkpt lat="43.2895485" lon="10.9611497"><ele>346.0</ele><time>2026-04-03T12:38:50.054Z</time></trkpt><trkpt lat="43.2896339" lon="10.9611703"><ele>346.0</ele><time>2026-04-03T12:38:51.041Z</time></trkpt><trkpt lat="43.2897264" lon="10.961174"><ele>346.0</ele><time>2026-04-03T12:38:52.055Z</time></trkpt><trkpt lat="43.2898126" lon="10.9611781"><ele>346.0</ele><time>2026-04-03T12:38:53.05Z</time></trkpt><trkpt lat="43.2898976" lon="10.9611765"><ele>346.0</ele><time>2026-04-03T12:38:54.046Z</time></trkpt><trkpt lat="43.2899799" lon="10.9611594"><ele>344.8333333333333</ele><time>2026-04-03T12:38:55.046Z</time></trkpt><trkpt lat="43.2900661" lon="10.961155"><ele>343.66666666666663</ele><time>2026-04-03T12:38:56.045Z</time></trkpt><trkpt lat="43.2901477" lon="10.9611498"><ele>342.5</ele><time>2026-04-03T12:38:57.044Z</time></trkpt><trkpt lat="43.2902296" lon="10.9611412"><ele>341.3333333333333</ele><time>2026-04-03T12:38:58.052Z</time></trkpt><trkpt lat="43.2903076" lon="10.9611299"><ele>340.1666666666667</ele><time>2026-04-03T12:38:59.05Z</time></trkpt><trkpt lat="43.2903809" lon="10.961107"><ele>339.0</ele><time>2026-04-03T12:39:00.046Z</time></trkpt><trkpt lat="43.2904454" lon="10.9610758"><ele>339.0</ele><time>2026-04-03T12:39:01.054Z</time></trkpt><trkpt lat="43.290507" lon="10.9610409"><ele>339.0</ele><time>2026-04-03T12:39:02.05Z</time></trkpt><trkpt lat="43.2905662" lon="10.961"><ele>339.0</ele><time>2026-04-03T12:39:03.041Z</time></trkpt><trkpt lat="43.2906229" lon="10.9609478"><ele>339.0</ele><time>2026-04-03T12:39:04.05Z</time></trkpt><trkpt lat="43.2906719" lon="10.9608827"><ele>339.0</ele><time>2026-04-03T12:39:05.058Z</time></trkpt><trkpt lat="43.2907242" lon="10.9608145"><ele>339.0</ele><time>2026-04-03T12:39:06.049Z</time></trkpt><trkpt lat="43.2907837" lon="10.9607412"><ele>339.0</ele><time>2026-04-03T12:39:07.049Z</time></trkpt><trkpt lat="43.2908344" lon="10.9606606"><ele>337.8333333333333</ele><time>2026-04-03T12:39:08.053Z</time></trkpt><trkpt lat="43.2908853" lon="10.9605944"><ele>336.6666666666667</ele><time>2026-04-03T12:39:09.055Z</time></trkpt><trkpt lat="43.2909434" lon="10.960532"><ele>335.5</ele><time>2026-04-03T12:39:10.043Z</time></trkpt><trkpt lat="43.2910033" lon="10.9604698"><ele>334.33333333333337</ele><time>2026-04-03T12:39:11.048Z</time></trkpt><trkpt lat="43.2910652" lon="10.9604054"><ele>333.1666666666667</ele><time>2026-04-03T12:39:12.056Z</time></trkpt><trkpt lat="43.2911276" lon="10.9603431"><ele>332.0</ele><time>2026-04-03T12:39:13.045Z</time></trkpt><trkpt lat="43.2911903" lon="10.9602784"><ele>332.0</ele><time>2026-04-03T12:39:14.039Z</time></trkpt><trkpt lat="43.2912517" lon="10.9602106"><ele>332.0</ele><time>2026-04-03T12:39:15.054Z</time></trkpt><trkpt lat="43.2913089" lon="10.9601442"><ele>332.0</ele><time>2026-04-03T12:39:16.046Z</time></trkpt><trkpt lat="43.2913639" lon="10.9600809"><ele>332.0</ele><time>2026-04-03T12:39:17.047Z</time></trkpt><trkpt lat="43.2914213" lon="10.9600194"><ele>332.0</ele><time>2026-04-03T12:39:18.05Z</time></trkpt><trkpt lat="43.2914808" lon="10.9599556"><ele>332.0</ele><time>2026-04-03T12:39:19.053Z</time></trkpt><trkpt lat="43.2915396" lon="10.9598964"><ele>332.0</ele><time>2026-04-03T12:39:20.047Z</time></trkpt><trkpt lat="43.291604" lon="10.9598334"><ele>330.0</ele><time>2026-04-03T12:39:21.047Z</time></trkpt><trkpt lat="43.2916723" lon="10.9597664"><ele>328.0</ele><time>2026-04-03T12:39:22.047Z</time></trkpt><trkpt lat="43.2917432" lon="10.9596965"><ele>326.0</ele><time>2026-04-03T12:39:23.054Z</time></trkpt><trkpt lat="43.2918138" lon="10.9596233"><ele>324.0</ele><time>2026-04-03T12:39:24.052Z</time></trkpt><trkpt lat="43.2918833" lon="10.9595488"><ele>322.0</ele><time>2026-04-03T12:39:25.053Z</time></trkpt><trkpt lat="43.2919508" lon="10.9594781"><ele>320.0</ele><time>2026-04-03T12:39:26.046Z</time></trkpt><trkpt lat="43.2920155" lon="10.9594093"><ele>320.0</ele><time>2026-04-03T12:39:27.052Z</time></trkpt><trkpt lat="43.292075" lon="10.959345"><ele>320.0</ele><time>2026-04-03T12:39:28.05Z</time></trkpt><trkpt lat="43.292132" lon="10.9592792"><ele>320.0</ele><time>2026-04-03T12:39:29.046Z</time></trkpt><trkpt lat="43.2921918" lon="10.959214"><ele>320.0</ele><time>2026-04-03T12:39:30.051Z</time></trkpt><trkpt lat="43.2922532" lon="10.9591507"><ele>320.0</ele><time>2026-04-03T12:39:31.051Z</time></trkpt><trkpt lat="43.2923145" lon="10.9590896"><ele>320.0</ele><time>2026-04-03T12:39:32.051Z</time></trkpt><trkpt lat="43.2923737" lon="10.9590301"><ele>318.0</ele><time>2026-04-03T12:39:33.052Z</time></trkpt><trkpt lat="43.292429" lon="10.9589687"><ele>316.0</ele><time>2026-04-03T12:39:34.053Z</time></trkpt><trkpt lat="43.292481" lon="10.9589095"><ele>314.0</ele><time>2026-04-03T12:39:35.047Z</time></trkpt><trkpt lat="43.2925336" lon="10.958856"><ele>312.0</ele><time>2026-04-03T12:39:36.049Z</time></trkpt><trkpt lat="43.2925879" lon="10.9588053"><ele>310.0</ele><time>2026-04-03T12:39:37.038Z</time></trkpt><trkpt lat="43.2926412" lon="10.958758"><ele>308.0</ele><time>2026-04-03T12:39:38.052Z</time></trkpt><trkpt lat="43.2927495" lon="10.9586853"><ele>308.0</ele><time>2026-04-03T12:39:40.048Z</time></trkpt><trkpt lat="43.2928099" lon="10.9586577"><ele>308.0</ele><time>2026-04-03T12:39:41.054Z</time></trkpt><trkpt lat="43.2928728" lon="10.9586298"><ele>308.0</ele><time>2026-04-03T12:39:42.047Z</time></trkpt><trkpt lat="43.2929335" lon="10.9586031"><ele>308.0</ele><time>2026-04-03T12:39:43.044Z</time></trkpt><trkpt lat="43.2929973" lon="10.9585719"><ele>308.0</ele><time>2026-04-03T12:39:44.049Z</time></trkpt><trkpt lat="43.2930606" lon="10.9585447"><ele>308.0</ele><time>2026-04-03T12:39:45.052Z</time></trkpt><trkpt lat="43.2931222" lon="10.9585158"><ele>308.0</ele><time>2026-04-03T12:39:46.052Z</time></trkpt><trkpt lat="43.293182" lon="10.9584769"><ele>306.0</ele><time>2026-04-03T12:39:47.043Z</time></trkpt><trkpt lat="43.2932409" lon="10.9584252"><ele>304.0</ele><time>2026-04-03T12:39:48.048Z</time></trkpt><trkpt lat="43.2933028" lon="10.9583725"><ele>302.0</ele><time>2026-04-03T12:39:49.052Z</time></trkpt><trkpt lat="43.2933614" lon="10.9583196"><ele>300.0</ele><time>2026-04-03T12:39:50.042Z</time></trkpt><trkpt lat="43.2934189" lon="10.9582636"><ele>298.0</ele><time>2026-04-03T12:39:51.05Z</time></trkpt><trkpt lat="43.2934678" lon="10.9581927"><ele>296.0</ele><time>2026-04-03T12:39:52.051Z</time></trkpt><trkpt lat="43.2935122" lon="10.9581228"><ele>294.0</ele><time>2026-04-03T12:39:53.053Z</time></trkpt><trkpt lat="43.2935992" lon="10.9580091"><ele>294.0</ele><time>2026-04-03T12:39:55.051Z</time></trkpt><trkpt lat="43.2936751" lon="10.9579159"><ele>294.0</ele><time>2026-04-03T12:39:57.055Z</time></trkpt><trkpt lat="43.2937365" lon="10.9578328"><ele>294.0</ele><time>2026-04-03T12:39:59.051Z</time></trkpt><trkpt lat="43.2937812" lon="10.9577508"><ele>294.0</ele><time>2026-04-03T12:40:01.049Z</time></trkpt><trkpt lat="43.2937963" lon="10.9576615"><ele>294.0</ele><time>2026-04-03T12:40:04.067Z</time></trkpt><trkpt lat="43.2938301" lon="10.9574693"><ele>292.7142857142857</ele><time>2026-04-03T12:40:24.049Z</time></trkpt><trkpt lat="43.2938559" lon="10.9573321"><ele>291.42857142857144</ele><time>2026-04-03T12:40:25.054Z</time></trkpt><trkpt lat="43.293877" lon="10.9572316"><ele>290.1428571428571</ele><time>2026-04-03T12:40:26.055Z</time></trkpt><trkpt lat="43.2938965" lon="10.9571419"><ele>288.8571428571429</ele><time>2026-04-03T12:40:27.045Z</time></trkpt><trkpt lat="43.2939206" lon="10.9570558"><ele>287.57142857142856</ele><time>2026-04-03T12:40:28.049Z</time></trkpt><trkpt lat="43.2939451" lon="10.9569727"><ele>286.2857142857143</ele><time>2026-04-03T12:40:29.034Z</time></trkpt><trkpt lat="43.2939704" lon="10.9568893"><ele>285.0</ele><time>2026-04-03T12:40:30.04Z</time></trkpt><trkpt lat="43.2939969" lon="10.9568085"><ele>283.3333333333333</ele><time>2026-04-03T12:40:31.041Z</time></trkpt><trkpt lat="43.2940264" lon="10.9567303"><ele>281.6666666666667</ele><time>2026-04-03T12:40:32.039Z</time></trkpt><trkpt lat="43.2940557" lon="10.9566537"><ele>280.0</ele><time>2026-04-03T12:40:33.037Z</time></trkpt><trkpt lat="43.2941049" lon="10.956511"><ele>278.33333333333337</ele><time>2026-04-03T12:40:35.042Z</time></trkpt><trkpt lat="43.2941644" lon="10.9563542"><ele>276.6666666666667</ele><time>2026-04-03T12:40:37.041Z</time></trkpt><trkpt lat="43.2942011" lon="10.9562612"><ele>275.0</ele><time>2026-04-03T12:40:38.05Z</time></trkpt><trkpt lat="43.2942369" lon="10.9561551"><ele>274.2857142857143</ele><time>2026-04-03T12:40:39.047Z</time></trkpt><trkpt lat="43.2942704" lon="10.9560536"><ele>273.57142857142856</ele><time>2026-04-03T12:40:40.042Z</time></trkpt><trkpt lat="43.294307" lon="10.9559558"><ele>272.85714285714283</ele><time>2026-04-03T12:40:41.045Z</time></trkpt><trkpt lat="43.2943434" lon="10.9558643"><ele>272.1428571428571</ele><time>2026-04-03T12:40:42.042Z</time></trkpt><trkpt lat="43.2943818" lon="10.9557891"><ele>271.4285714285714</ele><time>2026-04-03T12:40:43.046Z</time></trkpt><trkpt lat="43.2944217" lon="10.9557204"><ele>270.7142857142857</ele><time>2026-04-03T12:40:44.044Z</time></trkpt><trkpt lat="43.2944698" lon="10.955664"><ele>270.0</ele><time>2026-04-03T12:40:45.045Z</time></trkpt><trkpt lat="43.2945648" lon="10.9556"><ele>269.2</ele><time>2026-04-03T12:40:47.038Z</time></trkpt><trkpt lat="43.2946727" lon="10.9555743"><ele>268.4</ele><time>2026-04-03T12:40:49.05Z</time></trkpt><trkpt lat="43.2947838" lon="10.9555772"><ele>267.6</ele><time>2026-04-03T12:40:51.047Z</time></trkpt><trkpt lat="43.2948934" lon="10.9555958"><ele>266.8</ele><time>2026-04-03T12:40:53.047Z</time></trkpt><trkpt lat="43.2950097" lon="10.9556002"><ele>266.0</ele><time>2026-04-03T12:40:55.051Z</time></trkpt><trkpt lat="43.2951189" lon="10.9555959"><ele>263.6666666666667</ele><time>2026-04-03T12:40:57.045Z</time></trkpt><trkpt lat="43.2952349" lon="10.9556096"><ele>261.33333333333337</ele><time>2026-04-03T12:40:59.04Z</time></trkpt><trkpt lat="43.2953046" lon="10.9556263"><ele>259.0</ele><time>2026-04-03T12:41:00.041Z</time></trkpt><trkpt lat="43.2953732" lon="10.9556418"><ele>256.6666666666667</ele><time>2026-04-03T12:41:01.051Z</time></trkpt><trkpt lat="43.2954357" lon="10.9556567"><ele>254.33333333333334</ele><time>2026-04-03T12:41:02.048Z</time></trkpt><trkpt lat="43.2955471" lon="10.9556844"><ele>252.0</ele><time>2026-04-03T12:41:04.048Z</time></trkpt><trkpt lat="43.2956589" lon="10.9556271"><ele>248.83333333333334</ele><time>2026-04-03T12:41:06.049Z</time></trkpt><trkpt lat="43.295717" lon="10.9555918"><ele>245.66666666666669</ele><time>2026-04-03T12:41:07.049Z</time></trkpt><trkpt lat="43.2957759" lon="10.9555581"><ele>242.5</ele><time>2026-04-03T12:41:08.044Z</time></trkpt><trkpt lat="43.2958343" lon="10.9555239"><ele>239.33333333333334</ele><time>2026-04-03T12:41:09.051Z</time></trkpt><trkpt lat="43.2958937" lon="10.9554866"><ele>236.16666666666669</ele><time>2026-04-03T12:41:10.053Z</time></trkpt><trkpt lat="43.2960046" lon="10.9554151"><ele>233.0</ele><time>2026-04-03T12:41:12.047Z</time></trkpt><trkpt lat="43.2961154" lon="10.9553446"><ele>233.00000000000003</ele><time>2026-04-03T12:41:14.047Z</time></trkpt><trkpt lat="43.2961754" lon="10.9552849"><ele>233.0</ele><time>2026-04-03T12:41:15.043Z</time></trkpt><trkpt lat="43.2962312" lon="10.9552194"><ele>233.0</ele><time>2026-04-03T12:41:16.051Z</time></trkpt><trkpt lat="43.2962803" lon="10.9551453"><ele>233.0</ele><time>2026-04-03T12:41:17.044Z</time></trkpt><trkpt lat="43.2963244" lon="10.9550706"><ele>233.00000000000003</ele><time>2026-04-03T12:41:18.045Z</time></trkpt><trkpt lat="43.2963677" lon="10.9549997"><ele>233.0</ele><time>2026-04-03T12:41:19.044Z</time></trkpt><trkpt lat="43.2964495" lon="10.9548752"><ele>229.60000000000002</ele><time>2026-04-03T12:41:21.047Z</time></trkpt><trkpt lat="43.2965226" lon="10.9547447"><ele>226.20000000000002</ele><time>2026-04-03T12:41:23.048Z</time></trkpt><trkpt lat="43.2965634" lon="10.9546249"><ele>222.8</ele><time>2026-04-03T12:41:25.047Z</time></trkpt><trkpt lat="43.2966182" lon="10.9545721"><ele>219.4</ele><time>2026-04-03T12:41:27.046Z</time></trkpt><trkpt lat="43.2967126" lon="10.9545619"><ele>216.0</ele><time>2026-04-03T12:41:30.049Z</time></trkpt><trkpt lat="43.2968225" lon="10.954541"><ele>216.0</ele><time>2026-04-03T12:41:33.042Z</time></trkpt><trkpt lat="43.2969362" lon="10.9545137"><ele>216.0</ele><time>2026-04-03T12:41:35.044Z</time></trkpt><trkpt lat="43.2970471" lon="10.9544847"><ele>216.0</ele><time>2026-04-03T12:41:37.039Z</time></trkpt><trkpt lat="43.2971686" lon="10.9544454"><ele>216.0</ele><time>2026-04-03T12:41:39.049Z</time></trkpt><trkpt lat="43.2972805" lon="10.9544136"><ele>212.8</ele><time>2026-04-03T12:41:41.046Z</time></trkpt><trkpt lat="43.2973899" lon="10.9543839"><ele>209.60000000000002</ele><time>2026-04-03T12:41:43.048Z</time></trkpt><trkpt lat="43.2975005" lon="10.9543456"><ele>206.4</ele><time>2026-04-03T12:41:45.05Z</time></trkpt><trkpt lat="43.2976093" lon="10.9543152"><ele>203.2</ele><time>2026-04-03T12:41:47.047Z</time></trkpt><trkpt lat="43.2977205" lon="10.9542933"><ele>200.0</ele><time>2026-04-03T12:41:49.052Z</time></trkpt><trkpt lat="43.2978406" lon="10.9542724"><ele>200.00000000000003</ele><time>2026-04-03T12:41:51.052Z</time></trkpt><trkpt lat="43.2979033" lon="10.9542576"><ele>200.0</ele><time>2026-04-03T12:41:52.049Z</time></trkpt><trkpt lat="43.2979711" lon="10.9542428"><ele>200.0</ele><time>2026-04-03T12:41:53.052Z</time></trkpt><trkpt lat="43.2980863" lon="10.9542202"><ele>200.0</ele><time>2026-04-03T12:41:55.053Z</time></trkpt><trkpt lat="43.2981481" lon="10.9541131"><ele>200.00000000000003</ele><time>2026-04-03T12:41:57.052Z</time></trkpt><trkpt lat="43.2981853" lon="10.9539919"><ele>200.0</ele><time>2026-04-03T12:41:59.052Z</time></trkpt><trkpt lat="43.2982318" lon="10.953866"><ele>197.4</ele><time>2026-04-03T12:42:01.046Z</time></trkpt><trkpt lat="43.2982692" lon="10.9537519"><ele>194.8</ele><time>2026-04-03T12:42:03.044Z</time></trkpt><trkpt lat="43.2983134" lon="10.9536248"><ele>192.2</ele><time>2026-04-03T12:42:05.043Z</time></trkpt><trkpt lat="43.2983609" lon="10.953491"><ele>189.6</ele><time>2026-04-03T12:42:07.047Z</time></trkpt><trkpt lat="43.2984079" lon="10.9533498"><ele>187.0</ele><time>2026-04-03T12:42:09.04Z</time></trkpt><trkpt lat="43.2984341" lon="10.9532649"><ele>186.5</ele><time>2026-04-03T12:42:10.042Z</time></trkpt><trkpt lat="43.2984633" lon="10.9531718"><ele>186.0</ele><time>2026-04-03T12:42:11.043Z</time></trkpt><trkpt lat="43.2984953" lon="10.9530919"><ele>185.5</ele><time>2026-04-03T12:42:12.048Z</time></trkpt><trkpt lat="43.2985452" lon="10.9529349"><ele>185.0</ele><time>2026-04-03T12:42:14.049Z</time></trkpt><trkpt lat="43.2985716" lon="10.9528502"><ele>184.5</ele><time>2026-04-03T12:42:15.046Z</time></trkpt><trkpt lat="43.2985974" lon="10.9527648"><ele>184.0</ele><time>2026-04-03T12:42:16.038Z</time></trkpt><trkpt lat="43.2986227" lon="10.9526802"><ele>182.25</ele><time>2026-04-03T12:42:17.039Z</time></trkpt><trkpt lat="43.2986667" lon="10.9525249"><ele>180.5</ele><time>2026-04-03T12:42:19.033Z</time></trkpt><trkpt lat="43.2987279" lon="10.9523997"><ele>178.75</ele><time>2026-04-03T12:42:21.037Z</time></trkpt><trkpt lat="43.298822" lon="10.9523104"><ele>177.0</ele><time>2026-04-03T12:42:23.044Z</time></trkpt><trkpt lat="43.2989267" lon="10.9522427"><ele>175.2</ele><time>2026-04-03T12:42:25.034Z</time></trkpt><trkpt lat="43.2990225" lon="10.9521692"><ele>173.39999999999998</ele><time>2026-04-03T12:42:27.041Z</time></trkpt><trkpt lat="43.299108" lon="10.9521108"><ele>171.60000000000002</ele><time>2026-04-03T12:42:29.037Z</time></trkpt><trkpt lat="43.2991827" lon="10.9521262"><ele>169.8</ele><time>2026-04-03T12:42:31.044Z</time></trkpt><trkpt lat="43.2992544" lon="10.9521917"><ele>168.0</ele><time>2026-04-03T12:42:33.044Z</time></trkpt><trkpt lat="43.2993378" lon="10.9522595"><ele>168.0</ele><time>2026-04-03T12:42:35.04Z</time></trkpt><trkpt lat="43.2994173" lon="10.9523026"><ele>168.0</ele><time>2026-04-03T12:42:38.077Z</time></trkpt><trkpt lat="43.299494" lon="10.9522483"><ele>168.0</ele><time>2026-04-03T12:42:40.116Z</time></trkpt><trkpt lat="43.2995564" lon="10.9522075"><ele>168.0</ele><time>2026-04-03T12:42:42.044Z</time></trkpt><trkpt lat="43.2996815" lon="10.9521872"><ele>168.0</ele><time>2026-04-03T12:42:44.046Z</time></trkpt><trkpt lat="43.29979" lon="10.9522092"><ele>166.16666666666666</ele><time>2026-04-03T12:42:46.045Z</time></trkpt><trkpt lat="43.2998681" lon="10.952282"><ele>164.33333333333334</ele><time>2026-04-03T12:42:48.033Z</time></trkpt><trkpt lat="43.2999343" lon="10.9523817"><ele>162.5</ele><time>2026-04-03T12:42:50.039Z</time></trkpt><trkpt lat="43.2999893" lon="10.9524844"><ele>160.66666666666669</ele><time>2026-04-03T12:42:52.042Z</time></trkpt><trkpt lat="43.3000404" lon="10.9525641"><ele>158.83333333333334</ele><time>2026-04-03T12:42:54.053Z</time></trkpt><trkpt lat="43.3000881" lon="10.9526263"><ele>157.0</ele><time>2026-04-03T12:42:57.053Z</time></trkpt><trkpt lat="43.3001375" lon="10.9526979"><ele>157.0</ele><time>2026-04-03T12:43:00.069Z</time></trkpt><trkpt lat="43.3002132" lon="10.9527774"><ele>157.0</ele><time>2026-04-03T12:43:01.039Z</time></trkpt><trkpt lat="43.3002797" lon="10.9528662"><ele>157.0</ele><time>2026-04-03T12:43:03.046Z</time></trkpt><trkpt lat="43.300347" lon="10.952952"><ele>157.0</ele><time>2026-04-03T12:43:05.083Z</time></trkpt><trkpt lat="43.3004143" lon="10.9530288"><ele>157.0</ele><time>2026-04-03T12:43:07.042Z</time></trkpt><trkpt lat="43.3004767" lon="10.953103"><ele>157.0</ele><time>2026-04-03T12:43:09.046Z</time></trkpt><trkpt lat="43.3005514" lon="10.9531894"><ele>157.0</ele><time>2026-04-03T12:43:11.044Z</time></trkpt><trkpt lat="43.3006347" lon="10.9532477"><ele>157.0</ele><time>2026-04-03T12:43:13.035Z</time></trkpt><trkpt lat="43.3007508" lon="10.9532255"><ele>157.0</ele><time>2026-04-03T12:43:16.043Z</time></trkpt><trkpt lat="43.3008215" lon="10.9532258"><ele>157.0</ele><time>2026-04-03T12:43:18.12Z</time></trkpt><trkpt lat="43.3008908" lon="10.9531797"><ele>155.6</ele><time>2026-04-03T12:43:19.048Z</time></trkpt><trkpt lat="43.3009467" lon="10.9531355"><ele>154.2</ele><time>2026-04-03T12:43:20.036Z</time></trkpt><trkpt lat="43.3010388" lon="10.9530734"><ele>152.8</ele><time>2026-04-03T12:43:22.035Z</time></trkpt><trkpt lat="43.3011354" lon="10.9530402"><ele>151.4</ele><time>2026-04-03T12:43:24.048Z</time></trkpt><trkpt lat="43.3012279" lon="10.9530525"><ele>150.0</ele><time>2026-04-03T12:43:26.042Z</time></trkpt><trkpt lat="43.3013199" lon="10.9530871"><ele>150.0</ele><time>2026-04-03T12:43:28.05Z</time></trkpt><trkpt lat="43.3013796" lon="10.9531744"><ele>150.0</ele><time>2026-04-03T12:43:30.042Z</time></trkpt><trkpt lat="43.3014102" lon="10.9532763"><ele>150.0</ele><time>2026-04-03T12:43:32.051Z</time></trkpt><trkpt lat="43.3014481" lon="10.9533625"><ele>150.0</ele><time>2026-04-03T12:43:34.048Z</time></trkpt><trkpt lat="43.3015072" lon="10.953399"><ele>150.0</ele><time>2026-04-03T12:43:37.049Z</time></trkpt><trkpt lat="43.3015237" lon="10.9533109"><ele>150.0</ele><time>2026-04-03T12:43:39.124Z</time></trkpt><trkpt lat="43.301514" lon="10.9531818"><ele>149.66666666666666</ele><time>2026-04-03T12:43:41.108Z</time></trkpt><trkpt lat="43.3015259" lon="10.9530653"><ele>149.33333333333334</ele><time>2026-04-03T12:43:43.032Z</time></trkpt><trkpt lat="43.3015417" lon="10.9529382"><ele>149.0</ele><time>2026-04-03T12:43:45.067Z</time></trkpt><trkpt lat="43.3015418" lon="10.9528186"><ele>148.66666666666669</ele><time>2026-04-03T12:43:47.032Z</time></trkpt><trkpt lat="43.3015332" lon="10.9527116"><ele>148.33333333333334</ele><time>2026-04-03T12:43:49.067Z</time></trkpt><trkpt lat="43.3015247" lon="10.9526107"><ele>148.0</ele><time>2026-04-03T12:43:51.107Z</time></trkpt><trkpt lat="43.3015195" lon="10.9525123"><ele>148.0</ele><time>2026-04-03T12:43:53.153Z</time></trkpt><trkpt lat="43.3015793" lon="10.9524548"><ele>148.0</ele><time>2026-04-03T12:43:57.048Z</time></trkpt><trkpt lat="43.3016437" lon="10.9524837"><ele>148.0</ele><time>2026-04-03T12:44:00.045Z</time></trkpt><trkpt lat="43.3017136" lon="10.9525131"><ele>148.0</ele><time>2026-04-03T12:44:02.091Z</time></trkpt><trkpt lat="43.3017814" lon="10.9525656"><ele>148.0</ele><time>2026-04-03T12:44:04.107Z</time></trkpt><trkpt lat="43.3018513" lon="10.9525714"><ele>148.0</ele><time>2026-04-03T12:44:08.053Z</time></trkpt><trkpt lat="43.3017742" lon="10.9525605"><ele>148.0</ele><time>2026-04-03T12:44:30.043Z</time></trkpt><trkpt lat="43.3017001" lon="10.9525534"><ele>147.28571428571428</ele><time>2026-04-03T12:44:33.042Z</time></trkpt><trkpt lat="43.3016377" lon="10.9525285"><ele>146.57142857142856</ele><time>2026-04-03T12:44:35.112Z</time></trkpt><trkpt lat="43.3015582" lon="10.9525012"><ele>145.85714285714283</ele><time>2026-04-03T12:44:38.072Z</time></trkpt><trkpt lat="43.3015875" lon="10.9524238"><ele>145.14285714285714</ele><time>2026-04-03T12:46:36.098Z</time></trkpt><trkpt lat="43.3016214" lon="10.9523267"><ele>144.42857142857142</ele><time>2026-04-03T12:46:39.06Z</time></trkpt><trkpt lat="43.3016377" lon="10.9522409"><ele>143.7142857142857</ele><time>2026-04-03T12:46:41.015Z</time></trkpt><trkpt lat="43.3016585" lon="10.952143"><ele>143.0</ele><time>2026-04-03T12:46:43.122Z</time></trkpt><trkpt lat="43.3017219" lon="10.9520817"><ele>143.0</ele><time>2026-04-03T12:46:46.103Z</time></trkpt><trkpt lat="43.3018107" lon="10.9520318"><ele>143.0</ele><time>2026-04-03T12:46:49.045Z</time></trkpt><trkpt lat="43.3018524" lon="10.9519493"><ele>143.0</ele><time>2026-04-03T12:46:51.108Z</time></trkpt><trkpt lat="43.3018693" lon="10.9518621"><ele>143.0</ele><time>2026-04-03T12:46:53.103Z</time></trkpt><trkpt lat="43.3019063" lon="10.9517642"><ele>143.0</ele><time>2026-04-03T12:46:56.044Z</time></trkpt><trkpt lat="43.3018803" lon="10.9516802"><ele>143.0</ele><time>2026-04-03T12:47:14.933Z</time></trkpt><trkpt lat="43.3018763" lon="10.9515521"><ele>143.4</ele><time>2026-04-03T12:47:18.045Z</time></trkpt><trkpt lat="43.3018736" lon="10.9514653"><ele>143.8</ele><time>2026-04-03T12:47:20.129Z</time></trkpt><trkpt lat="43.3018761" lon="10.9513363"><ele>144.2</ele><time>2026-04-03T12:47:23.05Z</time></trkpt><trkpt lat="43.3019802" lon="10.9512306"><ele>144.6</ele><time>2026-04-03T12:47:26.071Z</time></trkpt><trkpt lat="43.3020815" lon="10.9511792"><ele>145.0</ele><time>2026-04-03T12:47:27.043Z</time></trkpt><trkpt lat="43.3021365" lon="10.9510614"><ele>145.0</ele><time>2026-04-03T12:47:29.092Z</time></trkpt><trkpt lat="43.3021285" lon="10.9509452"><ele>145.0</ele><time>2026-04-03T12:47:31.093Z</time></trkpt><trkpt lat="43.3021276" lon="10.9508451"><ele>145.0</ele><time>2026-04-03T12:47:33.055Z</time></trkpt><trkpt lat="43.3021343" lon="10.9507479"><ele>145.0</ele><time>2026-04-03T12:47:35.095Z</time></trkpt><trkpt lat="43.3021663" lon="10.9506629"><ele>145.0</ele><time>2026-04-03T12:47:37.046Z</time></trkpt><trkpt lat="43.3022055" lon="10.9505824"><ele>145.0</ele><time>2026-04-03T12:47:39.128Z</time></trkpt><trkpt lat="43.3022431" lon="10.9504758"><ele>144.83333333333334</ele><time>2026-04-03T12:47:42.095Z</time></trkpt><trkpt lat="43.3022533" lon="10.9503801"><ele>144.66666666666669</ele><time>2026-04-03T12:47:46.054Z</time></trkpt><trkpt lat="43.3022998" lon="10.9502941"><ele>144.5</ele><time>2026-04-03T12:47:54.089Z</time></trkpt><trkpt lat="43.3023431" lon="10.950202"><ele>144.33333333333334</ele><time>2026-04-03T12:48:00.048Z</time></trkpt><trkpt lat="43.3023959" lon="10.950143"><ele>144.16666666666666</ele><time>2026-04-03T12:48:02.041Z</time></trkpt><trkpt lat="43.3024332" lon="10.9500598"><ele>144.0</ele><time>2026-04-03T12:48:04.056Z</time></trkpt><trkpt lat="43.3024676" lon="10.9499475"><ele>144.5</ele><time>2026-04-03T12:48:06.095Z</time></trkpt><trkpt lat="43.3025117" lon="10.9498645"><ele>145.0</ele><time>2026-04-03T12:48:08.049Z</time></trkpt><trkpt lat="43.3025439" lon="10.9497878"><ele>145.5</ele><time>2026-04-03T12:48:10.096Z</time></trkpt><trkpt lat="43.3025729" lon="10.9497091"><ele>146.0</ele><time>2026-04-03T12:48:13.096Z</time></trkpt><trkpt lat="43.3025382" lon="10.9497828"><ele>146.5</ele><time>2026-04-03T12:49:04.043Z</time></trkpt><trkpt lat="43.3024936" lon="10.9498849"><ele>147.0</ele><time>2026-04-03T12:49:05.035Z</time></trkpt><trkpt lat="43.3024417" lon="10.950004"><ele>146.4</ele><time>2026-04-03T12:49:06.041Z</time></trkpt><trkpt lat="43.302402" lon="10.9501086"><ele>145.79999999999998</ele><time>2026-04-03T12:49:07.043Z</time></trkpt><trkpt lat="43.3023579" lon="10.9502326"><ele>145.2</ele><time>2026-04-03T12:49:09.044Z</time></trkpt><trkpt lat="43.3023392" lon="10.9503308"><ele>144.6</ele><time>2026-04-03T12:49:11.052Z</time></trkpt><trkpt lat="43.3023155" lon="10.9504336"><ele>144.0</ele><time>2026-04-03T12:49:14.049Z</time></trkpt><trkpt lat="43.3022478" lon="10.9505629"><ele>144.16666666666666</ele><time>2026-04-03T12:49:17.042Z</time></trkpt><trkpt lat="43.3022056" lon="10.9506515"><ele>144.33333333333334</ele><time>2026-04-03T12:49:18.051Z</time></trkpt><trkpt lat="43.3021722" lon="10.9507423"><ele>144.5</ele><time>2026-04-03T12:49:19.044Z</time></trkpt><trkpt lat="43.302154" lon="10.9508276"><ele>144.66666666666669</ele><time>2026-04-03T12:49:20.047Z</time></trkpt><trkpt lat="43.3021295" lon="10.9509731"><ele>144.83333333333334</ele><time>2026-04-03T12:49:22.041Z</time></trkpt><trkpt lat="43.3020934" lon="10.9510989"><ele>145.0</ele><time>2026-04-03T12:49:24.05Z</time></trkpt><trkpt lat="43.3020432" lon="10.9511968"><ele>145.0</ele><time>2026-04-03T12:49:26.043Z</time></trkpt><trkpt lat="43.3019923" lon="10.9512971"><ele>145.0</ele><time>2026-04-03T12:49:28.051Z</time></trkpt><trkpt lat="43.3019449" lon="10.9514368"><ele>145.0</ele><time>2026-04-03T12:49:30.041Z</time></trkpt><trkpt lat="43.3019258" lon="10.9515807"><ele>145.0</ele><time>2026-04-03T12:49:32.048Z</time></trkpt><trkpt lat="43.3019186" lon="10.951673"><ele>145.0</ele><time>2026-04-03T12:49:34.113Z</time></trkpt><trkpt lat="43.3018896" lon="10.951777"><ele>144.66666666666669</ele><time>2026-04-03T12:49:36.042Z</time></trkpt><trkpt lat="43.3018631" lon="10.95186"><ele>144.33333333333334</ele><time>2026-04-03T12:49:37.039Z</time></trkpt><trkpt lat="43.3018367" lon="10.951945"><ele>144.0</ele><time>2026-04-03T12:49:38.046Z</time></trkpt><trkpt lat="43.3017857" lon="10.9520516"><ele>143.66666666666666</ele><time>2026-04-03T12:49:40.055Z</time></trkpt><trkpt lat="43.3017255" lon="10.9520876"><ele>143.33333333333331</ele><time>2026-04-03T12:49:42.044Z</time></trkpt><trkpt lat="43.3016627" lon="10.9520558"><ele>143.0</ele><time>2026-04-03T12:49:44.057Z</time></trkpt><trkpt lat="43.3015779" lon="10.9519864"><ele>143.0</ele><time>2026-04-03T12:49:46.045Z</time></trkpt><trkpt lat="43.3014928" lon="10.9519555"><ele>143.0</ele><time>2026-04-03T12:49:49.044Z</time></trkpt><trkpt lat="43.3014502" lon="10.951876"><ele>143.0</ele><time>2026-04-03T12:49:53.1Z</time></trkpt><trkpt lat="43.3013842" lon="10.9517758"><ele>143.0</ele><time>2026-04-03T12:49:56.126Z</time></trkpt><trkpt lat="43.3013207" lon="10.9517753"><ele>143.0</ele><time>2026-04-03T12:50:01.053Z</time></trkpt><trkpt lat="43.3012774" lon="10.9518632"><ele>143.0</ele><time>2026-04-03T12:50:04.043Z</time></trkpt><trkpt lat="43.3011963" lon="10.9518739"><ele>143.5</ele><time>2026-04-03T12:50:06.969Z</time></trkpt><trkpt lat="43.3011622" lon="10.9517656"><ele>144.0</ele><time>2026-04-03T12:50:10.047Z</time></trkpt><trkpt lat="43.3011694" lon="10.9516744"><ele>144.5</ele><time>2026-04-03T12:50:12.063Z</time></trkpt><trkpt lat="43.3011698" lon="10.951543"><ele>145.0</ele><time>2026-04-03T12:50:13.999Z</time></trkpt><trkpt lat="43.3011612" lon="10.9514176"><ele>145.5</ele><time>2026-04-03T12:50:16.046Z</time></trkpt><trkpt lat="43.3011776" lon="10.9512701"><ele>146.0</ele><time>2026-04-03T12:50:18.051Z</time></trkpt><trkpt lat="43.3012139" lon="10.9511441"><ele>146.0</ele><time>2026-04-03T12:50:20.056Z</time></trkpt><trkpt lat="43.3012514" lon="10.9510147"><ele>146.0</ele><time>2026-04-03T12:50:22.047Z</time></trkpt><trkpt lat="43.3013001" lon="10.9508538"><ele>146.0</ele><time>2026-04-03T12:50:24.035Z</time></trkpt><trkpt lat="43.3013282" lon="10.9507658"><ele>146.0</ele><time>2026-04-03T12:50:25.037Z</time></trkpt><trkpt lat="43.3013628" lon="10.9506772"><ele>146.0</ele><time>2026-04-03T12:50:26.044Z</time></trkpt><trkpt lat="43.301414" lon="10.9506042"><ele>146.0</ele><time>2026-04-03T12:50:27.043Z</time></trkpt><trkpt lat="43.3014627" lon="10.9505402"><ele>146.66666666666666</ele><time>2026-04-03T12:50:28.04Z</time></trkpt><trkpt lat="43.3015125" lon="10.9504802"><ele>147.33333333333331</ele><time>2026-04-03T12:50:29.044Z</time></trkpt><trkpt lat="43.3015684" lon="10.9504215"><ele>148.0</ele><time>2026-04-03T12:50:30.042Z</time></trkpt><trkpt lat="43.3016234" lon="10.9503589"><ele>148.66666666666666</ele><time>2026-04-03T12:50:31.041Z</time></trkpt><trkpt lat="43.3016754" lon="10.950296"><ele>149.33333333333334</ele><time>2026-04-03T12:50:32.038Z</time></trkpt><trkpt lat="43.3017239" lon="10.9502318"><ele>150.0</ele><time>2026-04-03T12:50:33.047Z</time></trkpt><trkpt lat="43.3017859" lon="10.9501078"><ele>152.2</ele><time>2026-04-03T12:50:35.041Z</time></trkpt><trkpt lat="43.3017922" lon="10.9499703"><ele>154.4</ele><time>2026-04-03T12:50:37.035Z</time></trkpt><trkpt lat="43.30175" lon="10.9498578"><ele>156.60000000000002</ele><time>2026-04-03T12:50:39.055Z</time></trkpt><trkpt lat="43.3016566" lon="10.9498327"><ele>158.8</ele><time>2026-04-03T12:50:41.043Z</time></trkpt><trkpt lat="43.301562" lon="10.9498683"><ele>161.0</ele><time>2026-04-03T12:50:43.047Z</time></trkpt><trkpt lat="43.3014604" lon="10.9499085"><ele>162.4</ele><time>2026-04-03T12:50:45.037Z</time></trkpt><trkpt lat="43.3013478" lon="10.9499301"><ele>163.8</ele><time>2026-04-03T12:50:47.039Z</time></trkpt><trkpt lat="43.3012846" lon="10.9499506"><ele>165.20000000000002</ele><time>2026-04-03T12:50:48.049Z</time></trkpt><trkpt lat="43.3011615" lon="10.9499405"><ele>166.60000000000002</ele><time>2026-04-03T12:50:50.05Z</time></trkpt><trkpt lat="43.3010485" lon="10.9499122"><ele>168.0</ele><time>2026-04-03T12:50:52.041Z</time></trkpt><trkpt lat="43.3009845" lon="10.9498928"><ele>168.0</ele><time>2026-04-03T12:50:53.041Z</time></trkpt><trkpt lat="43.3009169" lon="10.9498725"><ele>168.0</ele><time>2026-04-03T12:50:54.046Z</time></trkpt><trkpt lat="43.3008554" lon="10.9498484"><ele>168.0</ele><time>2026-04-03T12:50:55.045Z</time></trkpt><trkpt lat="43.3007514" lon="10.9497947"><ele>168.0</ele><time>2026-04-03T12:50:57.035Z</time></trkpt><trkpt lat="43.3006842" lon="10.9497105"><ele>168.0</ele><time>2026-04-03T12:50:59.042Z</time></trkpt><trkpt lat="43.300657" lon="10.9495618"><ele>168.0</ele><time>2026-04-03T12:51:01.047Z</time></trkpt><trkpt lat="43.3006575" lon="10.9493965"><ele>168.0</ele><time>2026-04-03T12:51:03.042Z</time></trkpt><trkpt lat="43.3006866" lon="10.9493102"><ele>168.0</ele><time>2026-04-03T12:51:04.046Z</time></trkpt><trkpt lat="43.3007244" lon="10.9492244"><ele>168.0</ele><time>2026-04-03T12:51:05.049Z</time></trkpt><trkpt lat="43.3007762" lon="10.949141"><ele>168.0</ele><time>2026-04-03T12:51:06.039Z</time></trkpt><trkpt lat="43.3008395" lon="10.9490588"><ele>168.0</ele><time>2026-04-03T12:51:07.042Z</time></trkpt><trkpt lat="43.3008984" lon="10.9489862"><ele>168.0</ele><time>2026-04-03T12:51:08.048Z</time></trkpt><trkpt lat="43.3009573" lon="10.9489342"><ele>169.5</ele><time>2026-04-03T12:51:09.052Z</time></trkpt><trkpt lat="43.3010228" lon="10.9489025"><ele>171.0</ele><time>2026-04-03T12:51:10.044Z</time></trkpt><trkpt lat="43.3010994" lon="10.9488774"><ele>172.5</ele><time>2026-04-03T12:51:11.041Z</time></trkpt><trkpt lat="43.3011804" lon="10.9488547"><ele>174.0</ele><time>2026-04-03T12:51:12.051Z</time></trkpt><trkpt lat="43.301254" lon="10.9488361"><ele>175.5</ele><time>2026-04-03T12:51:13.052Z</time></trkpt><trkpt lat="43.3013518" lon="10.9487626"><ele>177.0</ele><time>2026-04-03T12:51:15.046Z</time></trkpt><trkpt lat="43.3013683" lon="10.9486259"><ele>177.0</ele><time>2026-04-03T12:51:17.042Z</time></trkpt><trkpt lat="43.3013352" lon="10.948491"><ele>177.0</ele><time>2026-04-03T12:51:19.043Z</time></trkpt><trkpt lat="43.3013515" lon="10.9483452"><ele>177.0</ele><time>2026-04-03T12:51:21.047Z</time></trkpt><trkpt lat="43.3013908" lon="10.9482677"><ele>177.0</ele><time>2026-04-03T12:51:22.038Z</time></trkpt><trkpt lat="43.301443" lon="10.9482052"><ele>177.0</ele><time>2026-04-03T12:51:23.047Z</time></trkpt><trkpt lat="43.3015097" lon="10.9481363"><ele>177.0</ele><time>2026-04-03T12:51:24.038Z</time></trkpt><trkpt lat="43.3015835" lon="10.948053"><ele>179.39999999999998</ele><time>2026-04-03T12:51:25.06Z</time></trkpt><trkpt lat="43.3016544" lon="10.9479701"><ele>181.79999999999998</ele><time>2026-04-03T12:51:26.047Z</time></trkpt><trkpt lat="43.3017244" lon="10.9478933"><ele>184.2</ele><time>2026-04-03T12:51:27.045Z</time></trkpt><trkpt lat="43.3017955" lon="10.9478151"><ele>186.6</ele><time>2026-04-03T12:51:28.044Z</time></trkpt><trkpt lat="43.3018719" lon="10.947709"><ele>189.0</ele><time>2026-04-03T12:51:29.05Z</time></trkpt><trkpt lat="43.3019458" lon="10.9476092"><ele>190.79999999999998</ele><time>2026-04-03T12:51:30.042Z</time></trkpt><trkpt lat="43.3020217" lon="10.9475355"><ele>192.6</ele><time>2026-04-03T12:51:31.044Z</time></trkpt><trkpt lat="43.3021083" lon="10.94749"><ele>194.4</ele><time>2026-04-03T12:51:32.035Z</time></trkpt><trkpt lat="43.302214" lon="10.9474496"><ele>196.2</ele><time>2026-04-03T12:51:33.044Z</time></trkpt><trkpt lat="43.3023216" lon="10.9474128"><ele>198.0</ele><time>2026-04-03T12:51:34.046Z</time></trkpt><trkpt lat="43.3024105" lon="10.9473809"><ele>198.0</ele><time>2026-04-03T12:51:35.042Z</time></trkpt><trkpt lat="43.3024786" lon="10.9473443"><ele>198.0</ele><time>2026-04-03T12:51:36.037Z</time></trkpt><trkpt lat="43.3025495" lon="10.9472125"><ele>198.0</ele><time>2026-04-03T12:51:38.047Z</time></trkpt><trkpt lat="43.3025397" lon="10.9471238"><ele>198.0</ele><time>2026-04-03T12:51:39.048Z</time></trkpt><trkpt lat="43.3025168" lon="10.9470272"><ele>198.0</ele><time>2026-04-03T12:51:40.045Z</time></trkpt><trkpt lat="43.3024653" lon="10.9469373"><ele>198.0</ele><time>2026-04-03T12:51:41.052Z</time></trkpt><trkpt lat="43.3024083" lon="10.9468642"><ele>198.0</ele><time>2026-04-03T12:51:42.05Z</time></trkpt><trkpt lat="43.3023441" lon="10.9468098"><ele>198.0</ele><time>2026-04-03T12:51:43.038Z</time></trkpt><trkpt lat="43.3022521" lon="10.9467683"><ele>198.0</ele><time>2026-04-03T12:51:44.054Z</time></trkpt><trkpt lat="43.3021316" lon="10.9467322"><ele>198.0</ele><time>2026-04-03T12:51:45.042Z</time></trkpt><trkpt lat="43.3019979" lon="10.946685"><ele>198.0</ele><time>2026-04-03T12:51:46.041Z</time></trkpt><trkpt lat="43.3018597" lon="10.9466351"><ele>200.75</ele><time>2026-04-03T12:51:47.04Z</time></trkpt><trkpt lat="43.3017162" lon="10.9465849"><ele>203.5</ele><time>2026-04-03T12:51:48.051Z</time></trkpt><trkpt lat="43.3015809" lon="10.9465219"><ele>206.25</ele><time>2026-04-03T12:51:49.046Z</time></trkpt><trkpt lat="43.3014636" lon="10.9464489"><ele>209.0</ele><time>2026-04-03T12:51:50.053Z</time></trkpt><trkpt lat="43.301365" lon="10.9463849"><ele>210.2</ele><time>2026-04-03T12:51:51.048Z</time></trkpt><trkpt lat="43.3012727" lon="10.9463264"><ele>211.39999999999998</ele><time>2026-04-03T12:51:52.039Z</time></trkpt><trkpt lat="43.3011776" lon="10.9462643"><ele>212.6</ele><time>2026-04-03T12:51:53.047Z</time></trkpt><trkpt lat="43.3010897" lon="10.9461978"><ele>213.8</ele><time>2026-04-03T12:51:54.036Z</time></trkpt><trkpt lat="43.3010068" lon="10.9461123"><ele>215.0</ele><time>2026-04-03T12:51:55.043Z</time></trkpt><trkpt lat="43.3009361" lon="10.946027"><ele>215.00000000000003</ele><time>2026-04-03T12:51:56.041Z</time></trkpt><trkpt lat="43.300872" lon="10.9459458"><ele>215.0</ele><time>2026-04-03T12:51:57.046Z</time></trkpt><trkpt lat="43.3007974" lon="10.9458909"><ele>215.0</ele><time>2026-04-03T12:51:58.04Z</time></trkpt><trkpt lat="43.3007226" lon="10.9458385"><ele>215.0</ele><time>2026-04-03T12:51:59.037Z</time></trkpt><trkpt lat="43.3006637" lon="10.9457604"><ele>215.00000000000003</ele><time>2026-04-03T12:52:00.037Z</time></trkpt><trkpt lat="43.3006088" lon="10.9456719"><ele>215.0</ele><time>2026-04-03T12:52:01.043Z</time></trkpt><trkpt lat="43.3005541" lon="10.9455653"><ele>216.16666666666669</ele><time>2026-04-03T12:52:02.041Z</time></trkpt><trkpt lat="43.3004918" lon="10.9454606"><ele>217.33333333333334</ele><time>2026-04-03T12:52:03.039Z</time></trkpt><trkpt lat="43.3004312" lon="10.94536"><ele>218.5</ele><time>2026-04-03T12:52:04.049Z</time></trkpt><trkpt lat="43.3003838" lon="10.945261"><ele>219.66666666666669</ele><time>2026-04-03T12:52:05.055Z</time></trkpt><trkpt lat="43.3003417" lon="10.9451643"><ele>220.83333333333334</ele><time>2026-04-03T12:52:06.045Z</time></trkpt><trkpt lat="43.3003162" lon="10.9450608"><ele>222.0</ele><time>2026-04-03T12:52:07.047Z</time></trkpt><trkpt lat="43.3002978" lon="10.9449579"><ele>224.25</ele><time>2026-04-03T12:52:08.052Z</time></trkpt><trkpt lat="43.3003179" lon="10.9448016"><ele>226.5</ele><time>2026-04-03T12:52:10.048Z</time></trkpt><trkpt lat="43.3004329" lon="10.9447151"><ele>228.75</ele><time>2026-04-03T12:52:12.046Z</time></trkpt><trkpt lat="43.3005283" lon="10.9446784"><ele>231.0</ele><time>2026-04-03T12:52:13.044Z</time></trkpt><trkpt lat="43.300642" lon="10.9446388"><ele>231.0</ele><time>2026-04-03T12:52:14.042Z</time></trkpt><trkpt lat="43.3007432" lon="10.9446121"><ele>231.0</ele><time>2026-04-03T12:52:15.037Z</time></trkpt><trkpt lat="43.3008198" lon="10.9446012"><ele>231.0</ele><time>2026-04-03T12:52:16.038Z</time></trkpt><trkpt lat="43.3009231" lon="10.9446035"><ele>231.0</ele><time>2026-04-03T12:52:18.045Z</time></trkpt><trkpt lat="43.3009741" lon="10.9445431"><ele>231.0</ele><time>2026-04-03T12:52:22.045Z</time></trkpt><trkpt lat="43.3009278" lon="10.9444602"><ele>231.0</ele><time>2026-04-03T12:52:24.049Z</time></trkpt><trkpt lat="43.3008327" lon="10.9443296"><ele>231.0</ele><time>2026-04-03T12:52:26.04Z</time></trkpt><trkpt lat="43.3007522" lon="10.9442586"><ele>231.00000000000003</ele><time>2026-04-03T12:52:27.052Z</time></trkpt><trkpt lat="43.3006625" lon="10.9441808"><ele>231.00000000000003</ele><time>2026-04-03T12:52:28.045Z</time></trkpt><trkpt lat="43.3005799" lon="10.9441061"><ele>231.0</ele><time>2026-04-03T12:52:29.04Z</time></trkpt><trkpt lat="43.3005054" lon="10.9440298"><ele>231.0</ele><time>2026-04-03T12:52:30.044Z</time></trkpt><trkpt lat="43.3004475" lon="10.9439451"><ele>234.33333333333334</ele><time>2026-04-03T12:52:31.045Z</time></trkpt><trkpt lat="43.3003973" lon="10.9438623"><ele>237.66666666666669</ele><time>2026-04-03T12:52:32.037Z</time></trkpt><trkpt lat="43.3003726" lon="10.9437616"><ele>241.0</ele><time>2026-04-03T12:52:33.044Z</time></trkpt><trkpt lat="43.3003585" lon="10.9436574"><ele>244.33333333333334</ele><time>2026-04-03T12:52:34.046Z</time></trkpt><trkpt lat="43.3003585" lon="10.9435499"><ele>247.66666666666669</ele><time>2026-04-03T12:52:35.057Z</time></trkpt><trkpt lat="43.3003107" lon="10.9434211"><ele>251.0</ele><time>2026-04-03T12:52:37.043Z</time></trkpt><trkpt lat="43.300212" lon="10.9433661"><ele>251.0</ele><time>2026-04-03T12:52:39.057Z</time></trkpt><trkpt lat="43.3001321" lon="10.943359"><ele>251.00000000000003</ele><time>2026-04-03T12:52:40.048Z</time></trkpt><trkpt lat="43.3000369" lon="10.9433551"><ele>251.00000000000003</ele><time>2026-04-03T12:52:41.038Z</time></trkpt><trkpt lat="43.2999225" lon="10.9433499"><ele>251.0</ele><time>2026-04-03T12:52:42.042Z</time></trkpt><trkpt lat="43.2997992" lon="10.9433411"><ele>251.0</ele><time>2026-04-03T12:52:43.046Z</time></trkpt><trkpt lat="43.2996696" lon="10.9433234"><ele>252.60000000000002</ele><time>2026-04-03T12:52:44.05Z</time></trkpt><trkpt lat="43.2995617" lon="10.94331"><ele>254.20000000000002</ele><time>2026-04-03T12:52:45.043Z</time></trkpt><trkpt lat="43.2994669" lon="10.9432785"><ele>255.79999999999998</ele><time>2026-04-03T12:53:30.053Z</time></trkpt><trkpt lat="43.2993503" lon="10.9432783"><ele>257.4</ele><time>2026-04-03T12:53:31.055Z</time></trkpt><trkpt lat="43.2992434" lon="10.9432652"><ele>259.0</ele><time>2026-04-03T12:53:32.043Z</time></trkpt><trkpt lat="43.2991421" lon="10.9432533"><ele>259.0</ele><time>2026-04-03T12:53:33.044Z</time></trkpt><trkpt lat="43.2990387" lon="10.9432444"><ele>259.0</ele><time>2026-04-03T12:53:34.043Z</time></trkpt><trkpt lat="43.2989346" lon="10.9432453"><ele>259.0</ele><time>2026-04-03T12:53:35.037Z</time></trkpt><trkpt lat="43.2988445" lon="10.9432532"><ele>259.0</ele><time>2026-04-03T12:53:36.046Z</time></trkpt><trkpt lat="43.2987663" lon="10.9432565"><ele>259.0</ele><time>2026-04-03T12:53:37.044Z</time></trkpt><trkpt lat="43.2987033" lon="10.9432566"><ele>259.0</ele><time>2026-04-03T12:53:38.047Z</time></trkpt><trkpt lat="43.2986332" lon="10.9431861"><ele>259.8333333333333</ele><time>2026-04-03T12:53:40.045Z</time></trkpt><trkpt lat="43.2986344" lon="10.9430146"><ele>260.66666666666663</ele><time>2026-04-03T12:53:42.052Z</time></trkpt><trkpt lat="43.2985953" lon="10.9428824"><ele>261.5</ele><time>2026-04-03T12:53:44.047Z</time></trkpt><trkpt lat="43.2985387" lon="10.9428401"><ele>262.3333333333333</ele><time>2026-04-03T12:53:45.053Z</time></trkpt><trkpt lat="43.2984729" lon="10.9428205"><ele>263.1666666666667</ele><time>2026-04-03T12:53:46.048Z</time></trkpt><trkpt lat="43.2983869" lon="10.942813"><ele>264.0</ele><time>2026-04-03T12:53:47.047Z</time></trkpt><trkpt lat="43.2982909" lon="10.9428049"><ele>264.0</ele><time>2026-04-03T12:53:48.05Z</time></trkpt><trkpt lat="43.2981933" lon="10.9427808"><ele>264.0</ele><time>2026-04-03T12:53:49.055Z</time></trkpt><trkpt lat="43.2981043" lon="10.9427371"><ele>264.0</ele><time>2026-04-03T12:53:50.054Z</time></trkpt><trkpt lat="43.2980243" lon="10.9426747"><ele>264.0</ele><time>2026-04-03T12:53:51.082Z</time></trkpt><trkpt lat="43.2979446" lon="10.9426176"><ele>264.0</ele><time>2026-04-03T12:53:52.046Z</time></trkpt><trkpt lat="43.297859" lon="10.9425782"><ele>264.1666666666667</ele><time>2026-04-03T12:53:53.057Z</time></trkpt><trkpt lat="43.2977707" lon="10.9425603"><ele>264.3333333333333</ele><time>2026-04-03T12:53:54.059Z</time></trkpt><trkpt lat="43.2976835" lon="10.9425525"><ele>264.5</ele><time>2026-04-03T12:53:55.059Z</time></trkpt><trkpt lat="43.2976083" lon="10.9425491"><ele>264.66666666666663</ele><time>2026-04-03T12:53:56.059Z</time></trkpt><trkpt lat="43.2975199" lon="10.9424947"><ele>264.8333333333333</ele><time>2026-04-03T12:53:58.058Z</time></trkpt><trkpt lat="43.297532" lon="10.9423715"><ele>265.0</ele><time>2026-04-03T12:54:00.057Z</time></trkpt><trkpt lat="43.2975753" lon="10.9422974"><ele>267.6</ele><time>2026-04-03T12:54:01.057Z</time></trkpt><trkpt lat="43.2976353" lon="10.9422325"><ele>270.2</ele><time>2026-04-03T12:54:02.06Z</time></trkpt><trkpt lat="43.2977012" lon="10.9421777"><ele>272.8</ele><time>2026-04-03T12:54:03.041Z</time></trkpt><trkpt lat="43.2977732" lon="10.9420896"><ele>275.4</ele><time>2026-04-03T12:54:04.067Z</time></trkpt><trkpt lat="43.2978446" lon="10.9419746"><ele>278.0</ele><time>2026-04-03T12:54:05.053Z</time></trkpt><trkpt lat="43.2979075" lon="10.9418591"><ele>278.0</ele><time>2026-04-03T12:54:06.052Z</time></trkpt><trkpt lat="43.2979615" lon="10.9417621"><ele>278.0</ele><time>2026-04-03T12:54:07.042Z</time></trkpt><trkpt lat="43.2979974" lon="10.9416835"><ele>278.0</ele><time>2026-04-03T12:54:08.063Z</time></trkpt><trkpt lat="43.2980174" lon="10.941512"><ele>278.0</ele><time>2026-04-03T12:54:10.051Z</time></trkpt><trkpt lat="43.2980307" lon="10.9413838"><ele>278.0</ele><time>2026-04-03T12:54:11.056Z</time></trkpt><trkpt lat="43.2980413" lon="10.9412336"><ele>277.0</ele><time>2026-04-03T12:54:12.058Z</time></trkpt><trkpt lat="43.2980516" lon="10.9410625"><ele>276.0</ele><time>2026-04-03T12:54:13.059Z</time></trkpt><trkpt lat="43.2980605" lon="10.9408841"><ele>275.0</ele><time>2026-04-03T12:54:14.078Z</time></trkpt><trkpt lat="43.2980673" lon="10.9407288"><ele>274.0</ele><time>2026-04-03T12:54:15.052Z</time></trkpt><trkpt lat="43.2980749" lon="10.9405901"><ele>274.0</ele><time>2026-04-03T12:54:16.059Z</time></trkpt><trkpt lat="43.2980914" lon="10.9404648"><ele>274.0</ele><time>2026-04-03T12:54:17.058Z</time></trkpt><trkpt lat="43.29811" lon="10.9403493"><ele>274.0</ele><time>2026-04-03T12:54:18.041Z</time></trkpt><trkpt lat="43.298117" lon="10.9402389"><ele>274.0</ele><time>2026-04-03T12:54:19.055Z</time></trkpt><trkpt lat="43.2981031" lon="10.9401241"><ele>274.0</ele><time>2026-04-03T12:54:20.052Z</time></trkpt><trkpt lat="43.298066" lon="10.9399999"><ele>274.0</ele><time>2026-04-03T12:54:21.059Z</time></trkpt><trkpt lat="43.2980089" lon="10.939866"><ele>274.0</ele><time>2026-04-03T12:54:22.057Z</time></trkpt><trkpt lat="43.2979396" lon="10.9397249"><ele>274.0</ele><time>2026-04-03T12:54:23.048Z</time></trkpt><trkpt lat="43.2978495" lon="10.9395903"><ele>274.0</ele><time>2026-04-03T12:54:24.051Z</time></trkpt><trkpt lat="43.2977548" lon="10.9394597"><ele>274.0</ele><time>2026-04-03T12:54:25.045Z</time></trkpt><trkpt lat="43.2976671" lon="10.939341"><ele>274.0</ele><time>2026-04-03T12:54:26.043Z</time></trkpt><trkpt lat="43.297584" lon="10.9392323"><ele>274.0</ele><time>2026-04-03T12:54:27.06Z</time></trkpt><trkpt lat="43.29751" lon="10.9391279"><ele>274.0</ele><time>2026-04-03T12:54:28.048Z</time></trkpt><trkpt lat="43.2974378" lon="10.9390247"><ele>274.0</ele><time>2026-04-03T12:54:29.043Z</time></trkpt><trkpt lat="43.29737" lon="10.9389261"><ele>274.0</ele><time>2026-04-03T12:54:30.046Z</time></trkpt><trkpt lat="43.297306" lon="10.9388245"><ele>273.59999999999997</ele><time>2026-04-03T12:54:31.04Z</time></trkpt><trkpt lat="43.2972424" lon="10.9387197"><ele>273.2</ele><time>2026-04-03T12:54:32.053Z</time></trkpt><trkpt lat="43.2971814" lon="10.9386155"><ele>272.79999999999995</ele><time>2026-04-03T12:54:33.049Z</time></trkpt><trkpt lat="43.2971171" lon="10.9385145"><ele>272.4</ele><time>2026-04-03T12:54:34.039Z</time></trkpt><trkpt lat="43.2970479" lon="10.9384222"><ele>272.0</ele><time>2026-04-03T12:54:35.045Z</time></trkpt><trkpt lat="43.2969708" lon="10.9383416"><ele>273.1666666666667</ele><time>2026-04-03T12:54:36.048Z</time></trkpt><trkpt lat="43.2968926" lon="10.9382697"><ele>274.33333333333337</ele><time>2026-04-03T12:54:37.047Z</time></trkpt><trkpt lat="43.2968152" lon="10.9382318"><ele>275.5</ele><time>2026-04-03T12:54:38.042Z</time></trkpt><trkpt lat="43.2967309" lon="10.9382157"><ele>276.6666666666667</ele><time>2026-04-03T12:54:39.043Z</time></trkpt><trkpt lat="43.2966423" lon="10.9382059"><ele>277.8333333333333</ele><time>2026-04-03T12:54:40.04Z</time></trkpt><trkpt lat="43.2965526" lon="10.9381948"><ele>279.0</ele><time>2026-04-03T12:54:41.048Z</time></trkpt><trkpt lat="43.2964638" lon="10.9381515"><ele>282.25</ele><time>2026-04-03T12:54:42.054Z</time></trkpt><trkpt lat="43.2963817" lon="10.9380643"><ele>285.5</ele><time>2026-04-03T12:54:43.053Z</time></trkpt><trkpt lat="43.296305" lon="10.9379536"><ele>288.75</ele><time>2026-04-03T12:54:44.042Z</time></trkpt><trkpt lat="43.2962112" lon="10.9378349"><ele>292.0</ele><time>2026-04-03T12:54:45.04Z</time></trkpt><trkpt lat="43.2960967" lon="10.9377097"><ele>292.0</ele><time>2026-04-03T12:54:46.06Z</time></trkpt><trkpt lat="43.2959762" lon="10.9376023"><ele>292.0</ele><time>2026-04-03T12:54:47.045Z</time></trkpt><trkpt lat="43.29587" lon="10.9375092"><ele>292.0</ele><time>2026-04-03T12:54:48.049Z</time></trkpt><trkpt lat="43.2957833" lon="10.9374322"><ele>292.0</ele><time>2026-04-03T12:54:49.049Z</time></trkpt><trkpt lat="43.2957068" lon="10.9373748"><ele>292.16666666666663</ele><time>2026-04-03T12:54:50.046Z</time></trkpt><trkpt lat="43.2956345" lon="10.9373316"><ele>292.3333333333333</ele><time>2026-04-03T12:54:51.045Z</time></trkpt><trkpt lat="43.2955613" lon="10.9373216"><ele>292.5</ele><time>2026-04-03T12:54:52.061Z</time></trkpt><trkpt lat="43.2954805" lon="10.9373353"><ele>292.6666666666667</ele><time>2026-04-03T12:54:53.049Z</time></trkpt><trkpt lat="43.2953893" lon="10.9373601"><ele>292.83333333333337</ele><time>2026-04-03T12:54:54.044Z</time></trkpt><trkpt lat="43.2952897" lon="10.9373698"><ele>293.0</ele><time>2026-04-03T12:54:55.042Z</time></trkpt><trkpt lat="43.2951786" lon="10.9373581"><ele>293.0</ele><time>2026-04-03T12:54:56.054Z</time></trkpt><trkpt lat="43.2950707" lon="10.9373392"><ele>293.0</ele><time>2026-04-03T12:54:57.046Z</time></trkpt><trkpt lat="43.2949677" lon="10.9372864"><ele>293.0</ele><time>2026-04-03T12:54:58.042Z</time></trkpt><trkpt lat="43.2948555" lon="10.9372059"><ele>293.0</ele><time>2026-04-03T12:54:59.05Z</time></trkpt><trkpt lat="43.2947526" lon="10.9371221"><ele>293.0</ele><time>2026-04-03T12:55:00.055Z</time></trkpt><trkpt lat="43.2946694" lon="10.9370455"><ele>293.0</ele><time>2026-04-03T12:55:01.052Z</time></trkpt><trkpt lat="43.2945932" lon="10.9369607"><ele>293.0</ele><time>2026-04-03T12:55:02.049Z</time></trkpt><trkpt lat="43.2945137" lon="10.9368459"><ele>293.0</ele><time>2026-04-03T12:55:03.047Z</time></trkpt><trkpt lat="43.2944317" lon="10.9367031"><ele>293.0</ele><time>2026-04-03T12:55:04.052Z</time></trkpt><trkpt lat="43.2943542" lon="10.9365581"><ele>293.0</ele><time>2026-04-03T12:55:05.04Z</time></trkpt><trkpt lat="43.2942792" lon="10.9364209"><ele>293.0</ele><time>2026-04-03T12:55:06.059Z</time></trkpt><trkpt lat="43.2941916" lon="10.936305"><ele>293.0</ele><time>2026-04-03T12:55:07.051Z</time></trkpt><trkpt lat="43.2941116" lon="10.9362013"><ele>293.0</ele><time>2026-04-03T12:55:08.036Z</time></trkpt><trkpt lat="43.2940322" lon="10.9361205"><ele>293.0</ele><time>2026-04-03T12:55:09.055Z</time></trkpt><trkpt lat="43.2939539" lon="10.9360535"><ele>293.0</ele><time>2026-04-03T12:55:10.048Z</time></trkpt><trkpt lat="43.2938785" lon="10.9359695"><ele>293.0</ele><time>2026-04-03T12:55:11.038Z</time></trkpt><trkpt lat="43.2938125" lon="10.9358669"><ele>293.0</ele><time>2026-04-03T12:55:12.059Z</time></trkpt><trkpt lat="43.2937573" lon="10.9357514"><ele>293.0</ele><time>2026-04-03T12:55:13.041Z</time></trkpt><trkpt lat="43.2937104" lon="10.9356157"><ele>292.75</ele><time>2026-04-03T12:55:14.041Z</time></trkpt><trkpt lat="43.2936642" lon="10.9354683"><ele>292.5</ele><time>2026-04-03T12:55:15.052Z</time></trkpt><trkpt lat="43.2936209" lon="10.9353041"><ele>292.25</ele><time>2026-04-03T12:55:16.036Z</time></trkpt><trkpt lat="43.2935778" lon="10.935146"><ele>292.0</ele><time>2026-04-03T12:55:17.038Z</time></trkpt><trkpt lat="43.2935402" lon="10.9350157"><ele>296.0</ele><time>2026-04-03T12:55:18.05Z</time></trkpt><trkpt lat="43.2935015" lon="10.9349057"><ele>300.0</ele><time>2026-04-03T12:55:19.047Z</time></trkpt><trkpt lat="43.2934398" lon="10.9347853"><ele>304.0</ele><time>2026-04-03T12:55:20.038Z</time></trkpt><trkpt lat="43.2933435" lon="10.9346541"><ele>308.0</ele><time>2026-04-03T12:55:21.05Z</time></trkpt><trkpt lat="43.2932435" lon="10.9345461"><ele>308.0</ele><time>2026-04-03T12:55:22.036Z</time></trkpt><trkpt lat="43.2931511" lon="10.9344399"><ele>308.0</ele><time>2026-04-03T12:55:23.046Z</time></trkpt><trkpt lat="43.293077" lon="10.9343136"><ele>308.0</ele><time>2026-04-03T12:55:24.05Z</time></trkpt><trkpt lat="43.2930186" lon="10.9341725"><ele>308.0</ele><time>2026-04-03T12:55:25.056Z</time></trkpt><trkpt lat="43.2929735" lon="10.9340618"><ele>308.0</ele><time>2026-04-03T12:55:26.042Z</time></trkpt><trkpt lat="43.2929236" lon="10.9339809"><ele>307.2857142857143</ele><time>2026-04-03T12:55:27.05Z</time></trkpt><trkpt lat="43.2928759" lon="10.9339175"><ele>306.57142857142856</ele><time>2026-04-03T12:55:28.049Z</time></trkpt><trkpt lat="43.292827" lon="10.9338616"><ele>305.8571428571429</ele><time>2026-04-03T12:55:29.045Z</time></trkpt><trkpt lat="43.2927648" lon="10.9338161"><ele>305.1428571428571</ele><time>2026-04-03T12:55:30.049Z</time></trkpt><trkpt lat="43.2927053" lon="10.9337749"><ele>304.42857142857144</ele><time>2026-04-03T12:55:31.046Z</time></trkpt><trkpt lat="43.2926469" lon="10.9337092"><ele>303.7142857142857</ele><time>2026-04-03T12:55:32.042Z</time></trkpt><trkpt lat="43.2925816" lon="10.9336396"><ele>303.0</ele><time>2026-04-03T12:55:33.047Z</time></trkpt><trkpt lat="43.2924896" lon="10.9335797"><ele>303.0</ele><time>2026-04-03T12:55:34.042Z</time></trkpt><trkpt lat="43.2923812" lon="10.9335292"><ele>303.0</ele><time>2026-04-03T12:55:35.046Z</time></trkpt><trkpt lat="43.2922568" lon="10.9334889"><ele>303.0</ele><time>2026-04-03T12:55:36.052Z</time></trkpt><trkpt lat="43.2921327" lon="10.9334375"><ele>303.0</ele><time>2026-04-03T12:55:37.049Z</time></trkpt><trkpt lat="43.2920221" lon="10.9333731"><ele>304.0</ele><time>2026-04-03T12:55:38.036Z</time></trkpt><trkpt lat="43.2919221" lon="10.9333097"><ele>305.0</ele><time>2026-04-03T12:55:39.05Z</time></trkpt><trkpt lat="43.2918417" lon="10.9332311"><ele>306.0</ele><time>2026-04-03T12:55:40.046Z</time></trkpt><trkpt lat="43.2917677" lon="10.9331344"><ele>307.0</ele><time>2026-04-03T12:55:41.046Z</time></trkpt><trkpt lat="43.2916951" lon="10.9330257"><ele>308.0</ele><time>2026-04-03T12:55:42.044Z</time></trkpt><trkpt lat="43.2916232" lon="10.9329005"><ele>308.0</ele><time>2026-04-03T12:55:43.05Z</time></trkpt><trkpt lat="43.2915561" lon="10.9327866"><ele>308.0</ele><time>2026-04-03T12:55:44.037Z</time></trkpt><trkpt lat="43.2914891" lon="10.9326936"><ele>308.0</ele><time>2026-04-03T12:55:45.05Z</time></trkpt><trkpt lat="43.2914311" lon="10.9326012"><ele>308.0</ele><time>2026-04-03T12:55:46.047Z</time></trkpt><trkpt lat="43.2913869" lon="10.932495"><ele>308.0</ele><time>2026-04-03T12:55:47.051Z</time></trkpt><trkpt lat="43.2913478" lon="10.9323744"><ele>311.25</ele><time>2026-04-03T12:55:48.053Z</time></trkpt><trkpt lat="43.2913213" lon="10.9322249"><ele>314.5</ele><time>2026-04-03T12:55:49.054Z</time></trkpt><trkpt lat="43.2912956" lon="10.9320636"><ele>317.75</ele><time>2026-04-03T12:55:50.043Z</time></trkpt><trkpt lat="43.2912708" lon="10.9318716"><ele>321.0</ele><time>2026-04-03T12:55:51.04Z</time></trkpt><trkpt lat="43.2912511" lon="10.9316628"><ele>323.75</ele><time>2026-04-03T12:55:52.051Z</time></trkpt><trkpt lat="43.2912351" lon="10.9314804"><ele>326.5</ele><time>2026-04-03T12:55:53.048Z</time></trkpt><trkpt lat="43.2912234" lon="10.9313101"><ele>329.25</ele><time>2026-04-03T12:55:54.049Z</time></trkpt><trkpt lat="43.2912291" lon="10.9311443"><ele>332.0</ele><time>2026-04-03T12:55:55.048Z</time></trkpt><trkpt lat="43.2912514" lon="10.9310014"><ele>332.33333333333337</ele><time>2026-04-03T12:55:56.041Z</time></trkpt><trkpt lat="43.2912745" lon="10.9308731"><ele>332.6666666666667</ele><time>2026-04-03T12:55:57.048Z</time></trkpt><trkpt lat="43.2912813" lon="10.9307622"><ele>333.0</ele><time>2026-04-03T12:55:58.04Z</time></trkpt><trkpt lat="43.2912676" lon="10.930666"><ele>333.3333333333333</ele><time>2026-04-03T12:55:59.044Z</time></trkpt><trkpt lat="43.2912363" lon="10.930572"><ele>333.66666666666663</ele><time>2026-04-03T12:56:00.054Z</time></trkpt><trkpt lat="43.2911912" lon="10.9304731"><ele>334.0</ele><time>2026-04-03T12:56:01.04Z</time></trkpt><trkpt lat="43.2911493" lon="10.9303813"><ele>334.0</ele><time>2026-04-03T12:56:02.04Z</time></trkpt><trkpt lat="43.2910968" lon="10.9302501"><ele>334.0</ele><time>2026-04-03T12:56:04.044Z</time></trkpt><trkpt lat="43.2910799" lon="10.9301494"><ele>334.0</ele><time>2026-04-03T12:56:06.057Z</time></trkpt><trkpt lat="43.2910441" lon="10.9300026"><ele>334.0</ele><time>2026-04-03T12:56:08.051Z</time></trkpt><trkpt lat="43.2910175" lon="10.9299059"><ele>334.0</ele><time>2026-04-03T12:56:09.038Z</time></trkpt><trkpt lat="43.2910006" lon="10.9297961"><ele>332.8333333333333</ele><time>2026-04-03T12:56:10.1Z</time></trkpt><trkpt lat="43.2910039" lon="10.9296798"><ele>331.66666666666663</ele><time>2026-04-03T12:56:11.058Z</time></trkpt><trkpt lat="43.2910174" lon="10.9295648"><ele>330.5</ele><time>2026-04-03T12:56:12.034Z</time></trkpt><trkpt lat="43.2910195" lon="10.9294629"><ele>329.3333333333333</ele><time>2026-04-03T12:56:13.036Z</time></trkpt><trkpt lat="43.2910078" lon="10.9293688"><ele>328.1666666666667</ele><time>2026-04-03T12:56:14.041Z</time></trkpt><trkpt lat="43.2909866" lon="10.9292742"><ele>327.0</ele><time>2026-04-03T12:56:15.047Z</time></trkpt><trkpt lat="43.2909607" lon="10.9291741"><ele>325.1666666666667</ele><time>2026-04-03T12:56:16.044Z</time></trkpt><trkpt lat="43.2909424" lon="10.9290685"><ele>323.3333333333333</ele><time>2026-04-03T12:56:17.047Z</time></trkpt><trkpt lat="43.2909351" lon="10.928961"><ele>321.5</ele><time>2026-04-03T12:56:18.06Z</time></trkpt><trkpt lat="43.2909337" lon="10.9288602"><ele>319.66666666666663</ele><time>2026-04-03T12:56:19.05Z</time></trkpt><trkpt lat="43.2909638" lon="10.9287729"><ele>317.8333333333333</ele><time>2026-04-03T12:56:20.037Z</time></trkpt><trkpt lat="43.2910176" lon="10.9287084"><ele>316.0</ele><time>2026-04-03T12:56:21.048Z</time></trkpt><trkpt lat="43.2910898" lon="10.9286629"><ele>316.0</ele><time>2026-04-03T12:56:22.053Z</time></trkpt><trkpt lat="43.2911748" lon="10.9286246"><ele>316.0</ele><time>2026-04-03T12:56:23.048Z</time></trkpt><trkpt lat="43.2912655" lon="10.9285833"><ele>316.0</ele><time>2026-04-03T12:56:24.049Z</time></trkpt><trkpt lat="43.2913538" lon="10.9285477"><ele>316.0</ele><time>2026-04-03T12:56:25.05Z</time></trkpt><trkpt lat="43.2914352" lon="10.9285191"><ele>316.0</ele><time>2026-04-03T12:56:26.046Z</time></trkpt><trkpt lat="43.29151" lon="10.9284944"><ele>316.0</ele><time>2026-04-03T12:56:27.045Z</time></trkpt><trkpt lat="43.2915769" lon="10.9284881"><ele>314.16666666666663</ele><time>2026-04-03T12:56:28.043Z</time></trkpt><trkpt lat="43.2916454" lon="10.9284914"><ele>312.3333333333333</ele><time>2026-04-03T12:56:29.046Z</time></trkpt><trkpt lat="43.29172" lon="10.9284916"><ele>310.5</ele><time>2026-04-03T12:56:30.055Z</time></trkpt><trkpt lat="43.2917994" lon="10.9284937"><ele>308.6666666666667</ele><time>2026-04-03T12:56:31.051Z</time></trkpt><trkpt lat="43.2918818" lon="10.9284895"><ele>306.83333333333337</ele><time>2026-04-03T12:56:32.04Z</time></trkpt><trkpt lat="43.2919635" lon="10.928474"><ele>305.0</ele><time>2026-04-03T12:56:33.046Z</time></trkpt><trkpt lat="43.2920438" lon="10.9284508"><ele>305.0</ele><time>2026-04-03T12:56:34.044Z</time></trkpt><trkpt lat="43.2921232" lon="10.9284392"><ele>305.0</ele><time>2026-04-03T12:56:35.038Z</time></trkpt><trkpt lat="43.292205" lon="10.9284254"><ele>305.0</ele><time>2026-04-03T12:56:36.05Z</time></trkpt><trkpt lat="43.2922847" lon="10.9284122"><ele>305.0</ele><time>2026-04-03T12:56:37.051Z</time></trkpt><trkpt lat="43.2923569" lon="10.9284048"><ele>305.0</ele><time>2026-04-03T12:56:38.043Z</time></trkpt><trkpt lat="43.2924323" lon="10.928393"><ele>305.0</ele><time>2026-04-03T12:56:39.044Z</time></trkpt><trkpt lat="43.2925157" lon="10.9283738"><ele>300.6</ele><time>2026-04-03T12:56:40.06Z</time></trkpt><trkpt lat="43.2925979" lon="10.9283406"><ele>296.2</ele><time>2026-04-03T12:56:41.037Z</time></trkpt><trkpt lat="43.2926841" lon="10.9282975"><ele>291.8</ele><time>2026-04-03T12:56:42.059Z</time></trkpt><trkpt lat="43.2927876" lon="10.9282415"><ele>287.4</ele><time>2026-04-03T12:56:43.049Z</time></trkpt><trkpt lat="43.2928982" lon="10.9281812"><ele>283.0</ele><time>2026-04-03T12:56:44.043Z</time></trkpt><trkpt lat="43.2930039" lon="10.9281221"><ele>280.4</ele><time>2026-04-03T12:56:45.055Z</time></trkpt><trkpt lat="43.2931018" lon="10.9280612"><ele>277.8</ele><time>2026-04-03T12:56:46.054Z</time></trkpt><trkpt lat="43.2931921" lon="10.9280035"><ele>275.2</ele><time>2026-04-03T12:56:47.052Z</time></trkpt><trkpt lat="43.2932782" lon="10.9279491"><ele>272.6</ele><time>2026-04-03T12:56:48.055Z</time></trkpt><trkpt lat="43.2933642" lon="10.9278944"><ele>270.0</ele><time>2026-04-03T12:56:49.055Z</time></trkpt><trkpt lat="43.2934564" lon="10.9278373"><ele>270.0</ele><time>2026-04-03T12:56:50.042Z</time></trkpt><trkpt lat="43.293557" lon="10.9277771"><ele>270.0</ele><time>2026-04-03T12:56:51.051Z</time></trkpt><trkpt lat="43.2936581" lon="10.9277223"><ele>270.0</ele><time>2026-04-03T12:56:52.049Z</time></trkpt><trkpt lat="43.2937532" lon="10.92767"><ele>270.0</ele><time>2026-04-03T12:56:53.05Z</time></trkpt><trkpt lat="43.2938404" lon="10.927621"><ele>270.0</ele><time>2026-04-03T12:56:54.046Z</time></trkpt><trkpt lat="43.2939262" lon="10.9275665"><ele>267.6</ele><time>2026-04-03T12:56:55.05Z</time></trkpt><trkpt lat="43.2940178" lon="10.9275146"><ele>265.2</ele><time>2026-04-03T12:56:56.051Z</time></trkpt><trkpt lat="43.2941188" lon="10.9274583"><ele>262.8</ele><time>2026-04-03T12:56:57.055Z</time></trkpt><trkpt lat="43.2942297" lon="10.927397"><ele>260.4</ele><time>2026-04-03T12:56:58.052Z</time></trkpt><trkpt lat="43.2943333" lon="10.9273333"><ele>258.0</ele><time>2026-04-03T12:56:59.042Z</time></trkpt><trkpt lat="43.2944325" lon="10.9272738"><ele>258.0</ele><time>2026-04-03T12:57:00.056Z</time></trkpt><trkpt lat="43.2945262" lon="10.9272185"><ele>258.0</ele><time>2026-04-03T12:57:01.07Z</time></trkpt><trkpt lat="43.2946057" lon="10.9271737"><ele>258.0</ele><time>2026-04-03T12:57:02.043Z</time></trkpt><trkpt lat="43.2946768" lon="10.9271357"><ele>258.0</ele><time>2026-04-03T12:57:03.042Z</time></trkpt><trkpt lat="43.2947429" lon="10.9270974"><ele>258.0</ele><time>2026-04-03T12:57:04.047Z</time></trkpt><trkpt lat="43.2948067" lon="10.9270581"><ele>258.0</ele><time>2026-04-03T12:57:05.047Z</time></trkpt><trkpt lat="43.2948752" lon="10.9269966"><ele>256.2</ele><time>2026-04-03T12:57:06.054Z</time></trkpt><trkpt lat="43.2949477" lon="10.9269263"><ele>254.4</ele><time>2026-04-03T12:57:07.045Z</time></trkpt><trkpt lat="43.2950179" lon="10.9268374"><ele>252.59999999999997</ele><time>2026-04-03T12:57:08.055Z</time></trkpt><trkpt lat="43.2950926" lon="10.926737"><ele>250.79999999999998</ele><time>2026-04-03T12:57:09.047Z</time></trkpt><trkpt lat="43.2951645" lon="10.9266316"><ele>249.0</ele><time>2026-04-03T12:57:10.049Z</time></trkpt><trkpt lat="43.2952334" lon="10.9265221"><ele>247.5</ele><time>2026-04-03T12:57:11.049Z</time></trkpt><trkpt lat="43.2953014" lon="10.9263965"><ele>246.0</ele><time>2026-04-03T12:57:12.043Z</time></trkpt><trkpt lat="43.2953708" lon="10.9262432"><ele>244.5</ele><time>2026-04-03T12:57:13.05Z</time></trkpt><trkpt lat="43.2954392" lon="10.9260858"><ele>243.0</ele><time>2026-04-03T12:57:14.05Z</time></trkpt><trkpt lat="43.2955044" lon="10.9259352"><ele>241.2</ele><time>2026-04-03T12:57:15.048Z</time></trkpt><trkpt lat="43.2955633" lon="10.9258003"><ele>239.4</ele><time>2026-04-03T12:57:16.059Z</time></trkpt><trkpt lat="43.2956205" lon="10.925679"><ele>237.59999999999997</ele><time>2026-04-03T12:57:17.051Z</time></trkpt><trkpt lat="43.2956762" lon="10.9255596"><ele>235.79999999999998</ele><time>2026-04-03T12:57:18.038Z</time></trkpt><trkpt lat="43.2957323" lon="10.9254423"><ele>234.0</ele><time>2026-04-03T12:57:19.046Z</time></trkpt><trkpt lat="43.2958036" lon="10.9253215"><ele>233.0</ele><time>2026-04-03T12:57:20.048Z</time></trkpt><trkpt lat="43.2958925" lon="10.9252012"><ele>232.0</ele><time>2026-04-03T12:57:21.047Z</time></trkpt><trkpt lat="43.2959818" lon="10.9250954"><ele>231.0</ele><time>2026-04-03T12:57:22.049Z</time></trkpt><trkpt lat="43.2960655" lon="10.924996"><ele>230.0</ele><time>2026-04-03T12:57:23.053Z</time></trkpt><trkpt lat="43.2961588" lon="10.9249136"><ele>229.4</ele><time>2026-04-03T12:57:24.042Z</time></trkpt><trkpt lat="43.2962597" lon="10.9248354"><ele>228.8</ele><time>2026-04-03T12:57:25.048Z</time></trkpt><trkpt lat="43.2963634" lon="10.9247678"><ele>228.2</ele><time>2026-04-03T12:57:26.049Z</time></trkpt><trkpt lat="43.2964598" lon="10.9247027"><ele>227.6</ele><time>2026-04-03T12:57:27.043Z</time></trkpt><trkpt lat="43.2965501" lon="10.9246397"><ele>227.0</ele><time>2026-04-03T12:57:28.051Z</time></trkpt><trkpt lat="43.2966367" lon="10.9245775"><ele>226.00000000000003</ele><time>2026-04-03T12:57:29.046Z</time></trkpt><trkpt lat="43.2967198" lon="10.9245178"><ele>225.0</ele><time>2026-04-03T12:57:30.042Z</time></trkpt><trkpt lat="43.2967975" lon="10.9244618"><ele>224.0</ele><time>2026-04-03T12:57:31.044Z</time></trkpt><trkpt lat="43.2968711" lon="10.9244081"><ele>223.0</ele><time>2026-04-03T12:57:32.046Z</time></trkpt><trkpt lat="43.2969381" lon="10.9243539"><ele>222.00000000000003</ele><time>2026-04-03T12:57:33.053Z</time></trkpt><trkpt lat="43.2969951" lon="10.9242859"><ele>221.0</ele><time>2026-04-03T12:57:34.055Z</time></trkpt><trkpt lat="43.2970411" lon="10.9241989"><ele>220.60000000000002</ele><time>2026-04-03T12:57:35.05Z</time></trkpt><trkpt lat="43.297079" lon="10.9240983"><ele>220.20000000000002</ele><time>2026-04-03T12:57:36.052Z</time></trkpt><trkpt lat="43.2971007" lon="10.9239787"><ele>219.79999999999998</ele><time>2026-04-03T12:57:37.046Z</time></trkpt><trkpt lat="43.2971162" lon="10.9238456"><ele>219.39999999999998</ele><time>2026-04-03T12:57:38.05Z</time></trkpt><trkpt lat="43.2971336" lon="10.9237016"><ele>219.0</ele><time>2026-04-03T12:57:39.058Z</time></trkpt><trkpt lat="43.2971597" lon="10.9235507"><ele>219.0</ele><time>2026-04-03T12:57:40.042Z</time></trkpt><trkpt lat="43.2971941" lon="10.9233984"><ele>218.99999999999997</ele><time>2026-04-03T12:57:41.057Z</time></trkpt><trkpt lat="43.2972395" lon="10.92326"><ele>218.99999999999997</ele><time>2026-04-03T12:57:42.046Z</time></trkpt><trkpt lat="43.2972943" lon="10.9231388"><ele>219.0</ele><time>2026-04-03T12:57:43.048Z</time></trkpt><trkpt lat="43.2973623" lon="10.9230319"><ele>219.0</ele><time>2026-04-03T12:57:44.05Z</time></trkpt><trkpt lat="43.2974451" lon="10.9229414"><ele>215.25</ele><time>2026-04-03T12:57:45.054Z</time></trkpt><trkpt lat="43.2975419" lon="10.9228612"><ele>211.5</ele><time>2026-04-03T12:57:46.047Z</time></trkpt><trkpt lat="43.2976526" lon="10.9227981"><ele>207.75</ele><time>2026-04-03T12:57:47.05Z</time></trkpt><trkpt lat="43.2977654" lon="10.9227668"><ele>204.0</ele><time>2026-04-03T12:57:48.04Z</time></trkpt><trkpt lat="43.297878" lon="10.922774"><ele>204.0</ele><time>2026-04-03T12:57:49.051Z</time></trkpt><trkpt lat="43.2979888" lon="10.9227979"><ele>204.0</ele><time>2026-04-03T12:57:50.052Z</time></trkpt><trkpt lat="43.2980963" lon="10.9228098"><ele>204.0</ele><time>2026-04-03T12:57:51.061Z</time></trkpt><trkpt lat="43.2982042" lon="10.9228083"><ele>204.0</ele><time>2026-04-03T12:57:52.055Z</time></trkpt><trkpt lat="43.2983196" lon="10.9227906"><ele>204.0</ele><time>2026-04-03T12:57:53.045Z</time></trkpt><trkpt lat="43.2984438" lon="10.9227634"><ele>202.0</ele><time>2026-04-03T12:57:54.059Z</time></trkpt><trkpt lat="43.2985804" lon="10.9227015"><ele>200.0</ele><time>2026-04-03T12:57:55.044Z</time></trkpt><trkpt lat="43.29873" lon="10.9226416"><ele>198.0</ele><time>2026-04-03T12:57:56.047Z</time></trkpt><trkpt lat="43.29889" lon="10.9225909"><ele>197.33333333333331</ele><time>2026-04-03T12:57:57.049Z</time></trkpt><trkpt lat="43.299059" lon="10.9225552"><ele>196.66666666666666</ele><time>2026-04-03T12:57:58.048Z</time></trkpt><trkpt lat="43.2992307" lon="10.9225282"><ele>196.0</ele><time>2026-04-03T12:57:59.049Z</time></trkpt><trkpt lat="43.299401" lon="10.922506"><ele>196.0</ele><time>2026-04-03T12:58:00.051Z</time></trkpt><trkpt lat="43.2995591" lon="10.9224812"><ele>196.0</ele><time>2026-04-03T12:58:01.04Z</time></trkpt><trkpt lat="43.2997012" lon="10.922448"><ele>196.0</ele><time>2026-04-03T12:58:02.051Z</time></trkpt><trkpt lat="43.2998348" lon="10.9224064"><ele>196.0</ele><time>2026-04-03T12:58:03.072Z</time></trkpt><trkpt lat="43.2999647" lon="10.9223472"><ele>196.75</ele><time>2026-04-03T12:58:04.048Z</time></trkpt><trkpt lat="43.3000921" lon="10.9222689"><ele>197.5</ele><time>2026-04-03T12:58:05.064Z</time></trkpt><trkpt lat="43.3002069" lon="10.9221632"><ele>198.25</ele><time>2026-04-03T12:58:06.066Z</time></trkpt><trkpt lat="43.3003207" lon="10.9220295"><ele>199.0</ele><time>2026-04-03T12:58:07.045Z</time></trkpt><trkpt lat="43.3004446" lon="10.9218859"><ele>199.0</ele><time>2026-04-03T12:58:08.048Z</time></trkpt><trkpt lat="43.3005751" lon="10.9217495"><ele>199.0</ele><time>2026-04-03T12:58:09.05Z</time></trkpt><trkpt lat="43.3006999" lon="10.9216263"><ele>199.0</ele><time>2026-04-03T12:58:10.042Z</time></trkpt><trkpt lat="43.3008167" lon="10.9215192"><ele>198.5</ele><time>2026-04-03T12:58:11.054Z</time></trkpt><trkpt lat="43.3009276" lon="10.9214211"><ele>198.0</ele><time>2026-04-03T12:58:12.049Z</time></trkpt><trkpt lat="43.30103" lon="10.9213461"><ele>197.5</ele><time>2026-04-03T12:58:13.042Z</time></trkpt><trkpt lat="43.3011288" lon="10.9212834"><ele>197.0</ele><time>2026-04-03T12:58:14.059Z</time></trkpt><trkpt lat="43.3012377" lon="10.9212385"><ele>197.0</ele><time>2026-04-03T12:58:15.05Z</time></trkpt><trkpt lat="43.3013636" lon="10.921212"><ele>197.0</ele><time>2026-04-03T12:58:16.055Z</time></trkpt><trkpt lat="43.301508" lon="10.9211842"><ele>197.0</ele><time>2026-04-03T12:58:17.041Z</time></trkpt><trkpt lat="43.301674" lon="10.921139"><ele>197.0</ele><time>2026-04-03T12:58:18.06Z</time></trkpt><trkpt lat="43.3018436" lon="10.9210833"><ele>198.0</ele><time>2026-04-03T12:58:19.043Z</time></trkpt><trkpt lat="43.3020266" lon="10.9210211"><ele>199.0</ele><time>2026-04-03T12:58:20.052Z</time></trkpt><trkpt lat="43.3021922" lon="10.9209562"><ele>200.0</ele><time>2026-04-03T12:58:21.062Z</time></trkpt><trkpt lat="43.3023394" lon="10.9208966"><ele>196.5</ele><time>2026-04-03T12:58:22.053Z</time></trkpt><trkpt lat="43.3024754" lon="10.9208572"><ele>193.0</ele><time>2026-04-03T12:58:23.045Z</time></trkpt><trkpt lat="43.302609" lon="10.9208303"><ele>189.5</ele><time>2026-04-03T12:58:24.048Z</time></trkpt><trkpt lat="43.3027411" lon="10.9208046"><ele>186.0</ele><time>2026-04-03T12:58:25.053Z</time></trkpt><trkpt lat="43.3028728" lon="10.9207826"><ele>186.0</ele><time>2026-04-03T12:58:26.049Z</time></trkpt><trkpt lat="43.3030092" lon="10.9207605"><ele>186.0</ele><time>2026-04-03T12:58:27.053Z</time></trkpt><trkpt lat="43.3031492" lon="10.9207291"><ele>186.0</ele><time>2026-04-03T12:58:28.048Z</time></trkpt><trkpt lat="43.3032867" lon="10.9206887"><ele>186.0</ele><time>2026-04-03T12:58:29.052Z</time></trkpt><trkpt lat="43.3034148" lon="10.920648"><ele>185.0</ele><time>2026-04-03T12:58:30.043Z</time></trkpt><trkpt lat="43.3035438" lon="10.9206155"><ele>184.0</ele><time>2026-04-03T12:58:31.042Z</time></trkpt><trkpt lat="43.3036811" lon="10.9205841"><ele>183.0</ele><time>2026-04-03T12:58:32.054Z</time></trkpt><trkpt lat="43.3038263" lon="10.9205511"><ele>182.0</ele><time>2026-04-03T12:58:33.053Z</time></trkpt><trkpt lat="43.3039781" lon="10.9205163"><ele>180.25</ele><time>2026-04-03T12:58:34.046Z</time></trkpt><trkpt lat="43.3041301" lon="10.9204845"><ele>178.5</ele><time>2026-04-03T12:58:35.046Z</time></trkpt><trkpt lat="43.3042733" lon="10.9204601"><ele>176.75</ele><time>2026-04-03T12:58:36.042Z</time></trkpt><trkpt lat="43.3044085" lon="10.9204394"><ele>175.0</ele><time>2026-04-03T12:58:37.045Z</time></trkpt><trkpt lat="43.304536" lon="10.9204132"><ele>175.0</ele><time>2026-04-03T12:58:38.049Z</time></trkpt><trkpt lat="43.3046534" lon="10.9203676"><ele>175.0</ele><time>2026-04-03T12:58:39.06Z</time></trkpt><trkpt lat="43.3047563" lon="10.9202932"><ele>175.0</ele><time>2026-04-03T12:58:40.05Z</time></trkpt><trkpt lat="43.3048569" lon="10.920186"><ele>175.0</ele><time>2026-04-03T12:58:41.048Z</time></trkpt><trkpt lat="43.3049546" lon="10.9200614"><ele>174.0</ele><time>2026-04-03T12:58:42.042Z</time></trkpt><trkpt lat="43.3050496" lon="10.9199452"><ele>173.0</ele><time>2026-04-03T12:58:43.042Z</time></trkpt><trkpt lat="43.3051439" lon="10.9198404"><ele>172.0</ele><time>2026-04-03T12:58:44.053Z</time></trkpt><trkpt lat="43.305245" lon="10.919747"><ele>171.0</ele><time>2026-04-03T12:58:45.052Z</time></trkpt><trkpt lat="43.3053566" lon="10.9196637"><ele>171.0</ele><time>2026-04-03T12:58:46.042Z</time></trkpt><trkpt lat="43.3054913" lon="10.9195941"><ele>171.0</ele><time>2026-04-03T12:58:47.048Z</time></trkpt><trkpt lat="43.305641" lon="10.9195296"><ele>171.0</ele><time>2026-04-03T12:58:48.054Z</time></trkpt><trkpt lat="43.3057921" lon="10.9194684"><ele>170.0</ele><time>2026-04-03T12:58:49.054Z</time></trkpt><trkpt lat="43.3059343" lon="10.919405"><ele>169.0</ele><time>2026-04-03T12:58:50.038Z</time></trkpt><trkpt lat="43.30607" lon="10.9193358"><ele>168.0</ele><time>2026-04-03T12:58:51.058Z</time></trkpt><trkpt lat="43.3061962" lon="10.9192594"><ele>167.0</ele><time>2026-04-03T12:58:52.046Z</time></trkpt><trkpt lat="43.3063152" lon="10.9191877"><ele>165.75</ele><time>2026-04-03T12:58:53.044Z</time></trkpt><trkpt lat="43.3064286" lon="10.9191165"><ele>164.5</ele><time>2026-04-03T12:58:54.048Z</time></trkpt><trkpt lat="43.3065338" lon="10.9190259"><ele>163.25</ele><time>2026-04-03T12:58:55.046Z</time></trkpt><trkpt lat="43.3066218" lon="10.9189086"><ele>162.0</ele><time>2026-04-03T12:58:56.043Z</time></trkpt><trkpt lat="43.3066974" lon="10.9187701"><ele>162.0</ele><time>2026-04-03T12:58:57.048Z</time></trkpt><trkpt lat="43.3067762" lon="10.9186426"><ele>162.0</ele><time>2026-04-03T12:58:58.055Z</time></trkpt><trkpt lat="43.3068639" lon="10.9185374"><ele>162.0</ele><time>2026-04-03T12:58:59.039Z</time></trkpt><trkpt lat="43.3069574" lon="10.9184466"><ele>162.0</ele><time>2026-04-03T12:59:00.047Z</time></trkpt><trkpt lat="43.3070506" lon="10.9183658"><ele>161.75</ele><time>2026-04-03T12:59:01.059Z</time></trkpt><trkpt lat="43.3071443" lon="10.9182934"><ele>161.5</ele><time>2026-04-03T12:59:02.05Z</time></trkpt><trkpt lat="43.3072446" lon="10.9182327"><ele>161.25</ele><time>2026-04-03T12:59:03.044Z</time></trkpt><trkpt lat="43.3073571" lon="10.9181833"><ele>161.0</ele><time>2026-04-03T12:59:04.053Z</time></trkpt><trkpt lat="43.3074791" lon="10.9181409"><ele>160.0</ele><time>2026-04-03T12:59:05.043Z</time></trkpt><trkpt lat="43.307605" lon="10.9181008"><ele>159.0</ele><time>2026-04-03T12:59:06.046Z</time></trkpt><trkpt lat="43.3077279" lon="10.9180596"><ele>158.0</ele><time>2026-04-03T12:59:07.049Z</time></trkpt><trkpt lat="43.3078456" lon="10.9180213"><ele>157.0</ele><time>2026-04-03T12:59:08.049Z</time></trkpt><trkpt lat="43.3079623" lon="10.917984"><ele>154.0</ele><time>2026-04-03T12:59:09.048Z</time></trkpt><trkpt lat="43.3080841" lon="10.9179388"><ele>151.0</ele><time>2026-04-03T12:59:10.051Z</time></trkpt><trkpt lat="43.3082058" lon="10.9178938"><ele>148.0</ele><time>2026-04-03T12:59:11.046Z</time></trkpt><trkpt lat="43.3083201" lon="10.9178574"><ele>145.0</ele><time>2026-04-03T12:59:12.044Z</time></trkpt><trkpt lat="43.3084145" lon="10.917832"><ele>145.0</ele><time>2026-04-03T12:59:13.051Z</time></trkpt><trkpt lat="43.3084854" lon="10.9178216"><ele>145.0</ele><time>2026-04-03T12:59:14.047Z</time></trkpt><trkpt lat="43.3085874" lon="10.9178712"><ele>145.0</ele><time>2026-04-03T12:59:16.054Z</time></trkpt><trkpt lat="43.308621" lon="10.9179661"><ele>145.0</ele><time>2026-04-03T12:59:17.041Z</time></trkpt><trkpt lat="43.3086382" lon="10.9180842"><ele>145.0</ele><time>2026-04-03T12:59:18.045Z</time></trkpt><trkpt lat="43.3086508" lon="10.9182047"><ele>145.0</ele><time>2026-04-03T12:59:19.059Z</time></trkpt><trkpt lat="43.3086801" lon="10.9183067"><ele>145.0</ele><time>2026-04-03T12:59:20.046Z</time></trkpt><trkpt lat="43.3087345" lon="10.9183848"><ele>145.0</ele><time>2026-04-03T12:59:21.048Z</time></trkpt><trkpt lat="43.3088039" lon="10.9184358"><ele>145.0</ele><time>2026-04-03T12:59:22.061Z</time></trkpt><trkpt lat="43.3088813" lon="10.9184509"><ele>145.0</ele><time>2026-04-03T12:59:23.049Z</time></trkpt><trkpt lat="43.3089593" lon="10.9184495"><ele>145.0</ele><time>2026-04-03T12:59:24.049Z</time></trkpt><trkpt lat="43.3090491" lon="10.91841"><ele>145.0</ele><time>2026-04-03T12:59:25.06Z</time></trkpt><trkpt lat="43.3091543" lon="10.9183531"><ele>141.25</ele><time>2026-04-03T12:59:26.056Z</time></trkpt><trkpt lat="43.3092625" lon="10.918292"><ele>137.5</ele><time>2026-04-03T12:59:27.043Z</time></trkpt><trkpt lat="43.3093741" lon="10.9182396"><ele>133.75</ele><time>2026-04-03T12:59:28.053Z</time></trkpt><trkpt lat="43.3094846" lon="10.9181957"><ele>130.0</ele><time>2026-04-03T12:59:29.049Z</time></trkpt><trkpt lat="43.3095959" lon="10.9181576"><ele>130.0</ele><time>2026-04-03T12:59:30.046Z</time></trkpt><trkpt lat="43.3097034" lon="10.9181231"><ele>130.0</ele><time>2026-04-03T12:59:31.052Z</time></trkpt><trkpt lat="43.309805" lon="10.918085"><ele>130.0</ele><time>2026-04-03T12:59:32.053Z</time></trkpt><trkpt lat="43.3098986" lon="10.9180246"><ele>130.0</ele><time>2026-04-03T12:59:33.098Z</time></trkpt><trkpt lat="43.309981" lon="10.9179437"><ele>130.0</ele><time>2026-04-03T12:59:34.051Z</time></trkpt><trkpt lat="43.3100532" lon="10.9178399"><ele>128.4</ele><time>2026-04-03T12:59:35.051Z</time></trkpt><trkpt lat="43.3101158" lon="10.9177304"><ele>126.8</ele><time>2026-04-03T12:59:36.05Z</time></trkpt><trkpt lat="43.310176" lon="10.9176193"><ele>125.19999999999999</ele><time>2026-04-03T12:59:37.044Z</time></trkpt><trkpt lat="43.310239" lon="10.9175133"><ele>123.6</ele><time>2026-04-03T12:59:38.045Z</time></trkpt><trkpt lat="43.3103071" lon="10.9174254"><ele>122.0</ele><time>2026-04-03T12:59:39.05Z</time></trkpt><trkpt lat="43.3103842" lon="10.917363"><ele>121.99999999999999</ele><time>2026-04-03T12:59:40.057Z</time></trkpt><trkpt lat="43.310469" lon="10.9173243"><ele>122.0</ele><time>2026-04-03T12:59:41.041Z</time></trkpt><trkpt lat="43.3105589" lon="10.9173001"><ele>122.0</ele><time>2026-04-03T12:59:42.057Z</time></trkpt><trkpt lat="43.3106412" lon="10.9172798"><ele>122.0</ele><time>2026-04-03T12:59:43.053Z</time></trkpt><trkpt lat="43.3107069" lon="10.9172565"><ele>121.99999999999999</ele><time>2026-04-03T12:59:44.044Z</time></trkpt><trkpt lat="43.3107694" lon="10.9172245"><ele>122.0</ele><time>2026-04-03T12:59:45.044Z</time></trkpt><trkpt lat="43.3108287" lon="10.9171756"><ele>120.99999999999999</ele><time>2026-04-03T12:59:46.049Z</time></trkpt><trkpt lat="43.3108833" lon="10.9171077"><ele>120.0</ele><time>2026-04-03T12:59:47.049Z</time></trkpt><trkpt lat="43.3109208" lon="10.9170167"><ele>119.0</ele><time>2026-04-03T12:59:48.036Z</time></trkpt><trkpt lat="43.3109488" lon="10.9169241"><ele>118.0</ele><time>2026-04-03T12:59:49.046Z</time></trkpt><trkpt lat="43.3109489" lon="10.9168195"><ele>116.99999999999999</ele><time>2026-04-03T12:59:50.05Z</time></trkpt><trkpt lat="43.310928" lon="10.9166881"><ele>116.0</ele><time>2026-04-03T12:59:51.038Z</time></trkpt><trkpt lat="43.3109101" lon="10.9165342"><ele>115.99999999999999</ele><time>2026-04-03T12:59:52.051Z</time></trkpt><trkpt lat="43.310919" lon="10.9163943"><ele>116.0</ele><time>2026-04-03T12:59:53.047Z</time></trkpt><trkpt lat="43.3109544" lon="10.9162788"><ele>116.0</ele><time>2026-04-03T12:59:54.04Z</time></trkpt><trkpt lat="43.3109959" lon="10.9161756"><ele>116.0</ele><time>2026-04-03T12:59:55.052Z</time></trkpt><trkpt lat="43.3110368" lon="10.9160858"><ele>115.99999999999999</ele><time>2026-04-03T12:59:56.04Z</time></trkpt><trkpt lat="43.3110783" lon="10.9160034"><ele>116.0</ele><time>2026-04-03T12:59:57.044Z</time></trkpt><trkpt lat="43.3111162" lon="10.9159176"><ele>116.4</ele><time>2026-04-03T12:59:58.046Z</time></trkpt><trkpt lat="43.3111477" lon="10.9158199"><ele>116.8</ele><time>2026-04-03T12:59:59.038Z</time></trkpt><trkpt lat="43.3111709" lon="10.915697"><ele>117.20000000000002</ele><time>2026-04-03T13:00:00.041Z</time></trkpt><trkpt lat="43.3111808" lon="10.9155551"><ele>117.60000000000001</ele><time>2026-04-03T13:00:01.053Z</time></trkpt><trkpt lat="43.311184" lon="10.9153942"><ele>118.0</ele><time>2026-04-03T13:00:02.043Z</time></trkpt><trkpt lat="43.3111797" lon="10.9152263"><ele>118.75</ele><time>2026-04-03T13:00:03.053Z</time></trkpt><trkpt lat="43.3111729" lon="10.9150588"><ele>119.5</ele><time>2026-04-03T13:00:04.043Z</time></trkpt><trkpt lat="43.3111669" lon="10.9148875"><ele>120.25</ele><time>2026-04-03T13:00:05.039Z</time></trkpt><trkpt lat="43.3111606" lon="10.9147155"><ele>121.0</ele><time>2026-04-03T13:00:06.041Z</time></trkpt><trkpt lat="43.3111589" lon="10.9145401"><ele>121.0</ele><time>2026-04-03T13:00:07.052Z</time></trkpt><trkpt lat="43.3111582" lon="10.9143732"><ele>121.0</ele><time>2026-04-03T13:00:08.042Z</time></trkpt><trkpt lat="43.3111633" lon="10.9142168"><ele>121.0</ele><time>2026-04-03T13:00:09.049Z</time></trkpt><trkpt lat="43.3111641" lon="10.9140626"><ele>121.0</ele><time>2026-04-03T13:00:10.054Z</time></trkpt><trkpt lat="43.3111579" lon="10.9139085"><ele>119.75</ele><time>2026-04-03T13:00:11.041Z</time></trkpt><trkpt lat="43.3111496" lon="10.9137497"><ele>118.5</ele><time>2026-04-03T13:00:12.042Z</time></trkpt><trkpt lat="43.3111429" lon="10.9135892"><ele>117.25</ele><time>2026-04-03T13:00:13.049Z</time></trkpt><trkpt lat="43.3111381" lon="10.9134268"><ele>116.0</ele><time>2026-04-03T13:00:14.044Z</time></trkpt><trkpt lat="43.3111345" lon="10.9132623"><ele>115.0</ele><time>2026-04-03T13:00:15.051Z</time></trkpt><trkpt lat="43.3111327" lon="10.9131017"><ele>114.0</ele><time>2026-04-03T13:00:16.052Z</time></trkpt><trkpt lat="43.311132" lon="10.9129513"><ele>113.0</ele><time>2026-04-03T13:00:17.048Z</time></trkpt><trkpt lat="43.311129" lon="10.9128166"><ele>112.0</ele><time>2026-04-03T13:00:18.055Z</time></trkpt><trkpt lat="43.3111253" lon="10.9126962"><ele>111.0</ele><time>2026-04-03T13:00:19.064Z</time></trkpt><trkpt lat="43.311117" lon="10.9125908"><ele>110.85714285714285</ele><time>2026-04-03T13:00:20.051Z</time></trkpt><trkpt lat="43.3111122" lon="10.9125026"><ele>110.71428571428572</ele><time>2026-04-03T13:00:21.053Z</time></trkpt><trkpt lat="43.3111167" lon="10.9124031"><ele>110.57142857142857</ele><time>2026-04-03T13:00:23.043Z</time></trkpt><trkpt lat="43.3110805" lon="10.9123219"><ele>110.42857142857142</ele><time>2026-04-03T13:01:02.056Z</time></trkpt><trkpt lat="43.3110423" lon="10.9122441"><ele>110.28571428571428</ele><time>2026-04-03T13:01:05.051Z</time></trkpt><trkpt lat="43.3109764" lon="10.9121915"><ele>110.14285714285714</ele><time>2026-04-03T13:01:08.012Z</time></trkpt><trkpt lat="43.3108962" lon="10.912193"><ele>110.0</ele><time>2026-04-03T13:01:10.087Z</time></trkpt><trkpt lat="43.3108093" lon="10.9119589"><ele>110.0</ele><time>2026-04-03T13:01:12.051Z</time></trkpt><trkpt lat="43.3107621" lon="10.9118549"><ele>110.0</ele><time>2026-04-03T13:01:14.127Z</time></trkpt><trkpt lat="43.3107133" lon="10.9117463"><ele>110.0</ele><time>2026-04-03T13:01:16.09Z</time></trkpt><trkpt lat="43.3106248" lon="10.9116943"><ele>110.0</ele><time>2026-04-03T13:01:18.151Z</time></trkpt><trkpt lat="43.3105151" lon="10.9117292"><ele>110.0</ele><time>2026-04-03T13:01:20.042Z</time></trkpt><trkpt lat="43.3104067" lon="10.9117137"><ele>109.8</ele><time>2026-04-03T13:01:22.053Z</time></trkpt><trkpt lat="43.3103391" lon="10.9116004"><ele>109.6</ele><time>2026-04-03T13:01:24.051Z</time></trkpt><trkpt lat="43.3102796" lon="10.9114623"><ele>109.4</ele><time>2026-04-03T13:01:26.05Z</time></trkpt><trkpt lat="43.3102133" lon="10.9113432"><ele>109.2</ele><time>2026-04-03T13:01:28.041Z</time></trkpt><trkpt lat="43.3101681" lon="10.9112552"><ele>109.0</ele><time>2026-04-03T13:01:30.043Z</time></trkpt><trkpt lat="43.3101282" lon="10.91114"><ele>109.0</ele><time>2026-04-03T13:01:32.054Z</time></trkpt><trkpt lat="43.3100747" lon="10.9110046"><ele>109.0</ele><time>2026-04-03T13:01:34.052Z</time></trkpt><trkpt lat="43.3100088" lon="10.9108739"><ele>109.0</ele><time>2026-04-03T13:01:36.041Z</time></trkpt><trkpt lat="43.3099717" lon="10.9107865"><ele>109.0</ele><time>2026-04-03T13:01:37.049Z</time></trkpt><trkpt lat="43.3099334" lon="10.9106952"><ele>109.0</ele><time>2026-04-03T13:01:38.04Z</time></trkpt><trkpt lat="43.3098944" lon="10.9106001"><ele>109.50000000000001</ele><time>2026-04-03T13:01:39.052Z</time></trkpt><trkpt lat="43.3098562" lon="10.9105083"><ele>110.0</ele><time>2026-04-03T13:01:40.042Z</time></trkpt><trkpt lat="43.3098156" lon="10.9104115"><ele>110.5</ele><time>2026-04-03T13:01:41.051Z</time></trkpt><trkpt lat="43.3097747" lon="10.910319"><ele>111.0</ele><time>2026-04-03T13:01:42.051Z</time></trkpt><trkpt lat="43.3097269" lon="10.9102304"><ele>111.50000000000001</ele><time>2026-04-03T13:01:43.042Z</time></trkpt><trkpt lat="43.3096785" lon="10.9101449"><ele>112.0</ele><time>2026-04-03T13:01:44.046Z</time></trkpt><trkpt lat="43.3096274" lon="10.9100688"><ele>113.57142857142857</ele><time>2026-04-03T13:01:45.044Z</time></trkpt><trkpt lat="43.3095702" lon="10.9100202"><ele>115.14285714285714</ele><time>2026-04-03T13:01:46.05Z</time></trkpt><trkpt lat="43.309511" lon="10.9099766"><ele>116.71428571428572</ele><time>2026-04-03T13:01:47.046Z</time></trkpt><trkpt lat="43.3094417" lon="10.9099369"><ele>118.28571428571429</ele><time>2026-04-03T13:01:48.05Z</time></trkpt><trkpt lat="43.309371" lon="10.9098968"><ele>119.85714285714286</ele><time>2026-04-03T13:01:49.048Z</time></trkpt><trkpt lat="43.3093037" lon="10.9098494"><ele>121.42857142857144</ele><time>2026-04-03T13:01:50.043Z</time></trkpt><trkpt lat="43.3092381" lon="10.9098001"><ele>123.00000000000001</ele><time>2026-04-03T13:01:51.056Z</time></trkpt><trkpt lat="43.3091731" lon="10.9097582"><ele>123.00000000000001</ele><time>2026-04-03T13:01:52.049Z</time></trkpt><trkpt lat="43.3091102" lon="10.909722"><ele>123.0</ele><time>2026-04-03T13:01:53.044Z</time></trkpt><trkpt lat="43.3090455" lon="10.9097044"><ele>123.00000000000001</ele><time>2026-04-03T13:01:54.046Z</time></trkpt><trkpt lat="43.3089818" lon="10.9096922"><ele>123.00000000000001</ele><time>2026-04-03T13:01:55.051Z</time></trkpt><trkpt lat="43.3089163" lon="10.9096976"><ele>123.0</ele><time>2026-04-03T13:01:56.048Z</time></trkpt><trkpt lat="43.3088432" lon="10.9096975"><ele>123.00000000000001</ele><time>2026-04-03T13:01:57.05Z</time></trkpt><trkpt lat="43.3087672" lon="10.9096924"><ele>123.00000000000001</ele><time>2026-04-03T13:01:58.044Z</time></trkpt><trkpt lat="43.3086911" lon="10.9096715"><ele>124.57142857142858</ele><time>2026-04-03T13:01:59.041Z</time></trkpt><trkpt lat="43.3086169" lon="10.9096489"><ele>126.14285714285714</ele><time>2026-04-03T13:02:00.046Z</time></trkpt><trkpt lat="43.3085419" lon="10.9096282"><ele>127.71428571428572</ele><time>2026-04-03T13:02:01.042Z</time></trkpt><trkpt lat="43.3084681" lon="10.9096079"><ele>129.28571428571428</ele><time>2026-04-03T13:02:02.043Z</time></trkpt><trkpt lat="43.3084012" lon="10.9095722"><ele>130.85714285714286</ele><time>2026-04-03T13:02:03.048Z</time></trkpt><trkpt lat="43.3083418" lon="10.9095175"><ele>132.42857142857144</ele><time>2026-04-03T13:02:04.048Z</time></trkpt><trkpt lat="43.3082754" lon="10.9094709"><ele>134.0</ele><time>2026-04-03T13:02:05.051Z</time></trkpt><trkpt lat="43.3082009" lon="10.9094368"><ele>134.0</ele><time>2026-04-03T13:02:06.045Z</time></trkpt><trkpt lat="43.3081263" lon="10.9094113"><ele>134.0</ele><time>2026-04-03T13:02:07.044Z</time></trkpt><trkpt lat="43.3080494" lon="10.9094043"><ele>134.0</ele><time>2026-04-03T13:02:08.052Z</time></trkpt><trkpt lat="43.3079676" lon="10.9094011"><ele>134.0</ele><time>2026-04-03T13:02:09.046Z</time></trkpt><trkpt lat="43.3078804" lon="10.9093946"><ele>134.0</ele><time>2026-04-03T13:02:10.041Z</time></trkpt><trkpt lat="43.3077996" lon="10.9093863"><ele>134.0</ele><time>2026-04-03T13:02:11.072Z</time></trkpt><trkpt lat="43.307734" lon="10.9093826"><ele>136.14285714285714</ele><time>2026-04-03T13:02:12.044Z</time></trkpt><trkpt lat="43.3076693" lon="10.9093988"><ele>138.28571428571428</ele><time>2026-04-03T13:02:13.099Z</time></trkpt><trkpt lat="43.3076066" lon="10.9094294"><ele>140.42857142857142</ele><time>2026-04-03T13:02:14.04Z</time></trkpt><trkpt lat="43.3075432" lon="10.9094604"><ele>142.57142857142856</ele><time>2026-04-03T13:02:15.046Z</time></trkpt><trkpt lat="43.3074789" lon="10.9094761"><ele>144.7142857142857</ele><time>2026-04-03T13:02:16.051Z</time></trkpt><trkpt lat="43.3074115" lon="10.9094787"><ele>146.85714285714286</ele><time>2026-04-03T13:02:17.059Z</time></trkpt><trkpt lat="43.3073377" lon="10.9094745"><ele>149.0</ele><time>2026-04-03T13:02:18.058Z</time></trkpt><trkpt lat="43.3072596" lon="10.9094688"><ele>151.0</ele><time>2026-04-03T13:02:19.052Z</time></trkpt><trkpt lat="43.3071823" lon="10.9094568"><ele>153.0</ele><time>2026-04-03T13:02:20.054Z</time></trkpt><trkpt lat="43.3071099" lon="10.9094378"><ele>155.0</ele><time>2026-04-03T13:02:21.047Z</time></trkpt><trkpt lat="43.3070402" lon="10.9094051"><ele>157.0</ele><time>2026-04-03T13:02:22.044Z</time></trkpt><trkpt lat="43.3069711" lon="10.9093579"><ele>159.0</ele><time>2026-04-03T13:02:23.04Z</time></trkpt><trkpt lat="43.306898" lon="10.909295"><ele>161.0</ele><time>2026-04-03T13:02:24.045Z</time></trkpt><trkpt lat="43.306827" lon="10.9092255"><ele>162.66666666666666</ele><time>2026-04-03T13:02:25.042Z</time></trkpt><trkpt lat="43.3067602" lon="10.9091588"><ele>164.33333333333331</ele><time>2026-04-03T13:02:26.049Z</time></trkpt><trkpt lat="43.306696" lon="10.9091004"><ele>166.0</ele><time>2026-04-03T13:02:27.05Z</time></trkpt><trkpt lat="43.3066276" lon="10.9090531"><ele>167.66666666666666</ele><time>2026-04-03T13:02:28.054Z</time></trkpt><trkpt lat="43.3065539" lon="10.9090116"><ele>169.33333333333334</ele><time>2026-04-03T13:02:29.054Z</time></trkpt><trkpt lat="43.3064787" lon="10.9089705"><ele>171.0</ele><time>2026-04-03T13:02:30.05Z</time></trkpt><trkpt lat="43.3064056" lon="10.9089291"><ele>172.5</ele><time>2026-04-03T13:02:31.054Z</time></trkpt><trkpt lat="43.3063355" lon="10.9088924"><ele>174.0</ele><time>2026-04-03T13:02:32.065Z</time></trkpt><trkpt lat="43.306267" lon="10.9088767"><ele>175.5</ele><time>2026-04-03T13:02:33.057Z</time></trkpt><trkpt lat="43.3062028" lon="10.9088737"><ele>177.0</ele><time>2026-04-03T13:02:34.052Z</time></trkpt><trkpt lat="43.3060981" lon="10.9089724"><ele>178.5</ele><time>2026-04-03T13:02:36.062Z</time></trkpt><trkpt lat="43.3060522" lon="10.9090469"><ele>180.0</ele><time>2026-04-03T13:02:37.041Z</time></trkpt><trkpt lat="43.3060137" lon="10.9091269"><ele>180.0</ele><time>2026-04-03T13:02:38.07Z</time></trkpt><trkpt lat="43.3059766" lon="10.9092007"><ele>180.0</ele><time>2026-04-03T13:02:39.048Z</time></trkpt><trkpt lat="43.3059075" lon="10.9093453"><ele>180.0</ele><time>2026-04-03T13:02:41.047Z</time></trkpt><trkpt lat="43.305864" lon="10.9094109"><ele>180.0</ele><time>2026-04-03T13:02:42.058Z</time></trkpt><trkpt lat="43.3058132" lon="10.9094658"><ele>180.0</ele><time>2026-04-03T13:02:43.051Z</time></trkpt><trkpt lat="43.3057004" lon="10.9095196"><ele>180.0</ele><time>2026-04-03T13:02:45.055Z</time></trkpt><trkpt lat="43.3056031" lon="10.9094462"><ele>179.16666666666666</ele><time>2026-04-03T13:02:47.057Z</time></trkpt><trkpt lat="43.3055111" lon="10.909367"><ele>178.33333333333334</ele><time>2026-04-03T13:02:49.055Z</time></trkpt><trkpt lat="43.3054446" lon="10.9093344"><ele>177.5</ele><time>2026-04-03T13:02:50.057Z</time></trkpt><trkpt lat="43.3053665" lon="10.9093032"><ele>176.66666666666669</ele><time>2026-04-03T13:02:51.056Z</time></trkpt><trkpt lat="43.3052833" lon="10.9092705"><ele>175.83333333333334</ele><time>2026-04-03T13:02:52.053Z</time></trkpt><trkpt lat="43.3051998" lon="10.909234"><ele>175.0</ele><time>2026-04-03T13:02:53.052Z</time></trkpt><trkpt lat="43.3051188" lon="10.9092029"><ele>177.16666666666669</ele><time>2026-04-03T13:02:54.061Z</time></trkpt><trkpt lat="43.3050416" lon="10.9091728"><ele>179.33333333333334</ele><time>2026-04-03T13:02:55.089Z</time></trkpt><trkpt lat="43.304966" lon="10.9091462"><ele>181.5</ele><time>2026-04-03T13:02:56.058Z</time></trkpt><trkpt lat="43.304896" lon="10.9091209"><ele>183.66666666666666</ele><time>2026-04-03T13:02:57.051Z</time></trkpt><trkpt lat="43.3048001" lon="10.9090654"><ele>185.83333333333331</ele><time>2026-04-03T13:02:59.058Z</time></trkpt><trkpt lat="43.3047612" lon="10.9089761"><ele>188.0</ele><time>2026-04-03T13:03:01.05Z</time></trkpt><trkpt lat="43.3047757" lon="10.9088288"><ele>188.0</ele><time>2026-04-03T13:03:03.061Z</time></trkpt><trkpt lat="43.3047513" lon="10.9087268"><ele>188.0</ele><time>2026-04-03T13:03:05.064Z</time></trkpt><trkpt lat="43.3046703" lon="10.9086975"><ele>188.0</ele><time>2026-04-03T13:03:08.072Z</time></trkpt><trkpt lat="43.3045887" lon="10.9086857"><ele>188.0</ele><time>2026-04-03T13:03:09.059Z</time></trkpt><trkpt lat="43.3044645" lon="10.9086819"><ele>188.0</ele><time>2026-04-03T13:03:11.049Z</time></trkpt><trkpt lat="43.3043948" lon="10.9086819"><ele>188.0</ele><time>2026-04-03T13:03:12.047Z</time></trkpt><trkpt lat="43.3043214" lon="10.9086846"><ele>188.66666666666666</ele><time>2026-04-03T13:03:13.049Z</time></trkpt><trkpt lat="43.3042437" lon="10.9086875"><ele>189.33333333333331</ele><time>2026-04-03T13:03:14.05Z</time></trkpt><trkpt lat="43.3041613" lon="10.9086878"><ele>190.0</ele><time>2026-04-03T13:03:15.042Z</time></trkpt><trkpt lat="43.3040793" lon="10.9086837"><ele>190.66666666666666</ele><time>2026-04-03T13:03:16.048Z</time></trkpt><trkpt lat="43.304" lon="10.9086793"><ele>191.33333333333334</ele><time>2026-04-03T13:03:17.056Z</time></trkpt><trkpt lat="43.303918" lon="10.9086723"><ele>192.0</ele><time>2026-04-03T13:03:18.054Z</time></trkpt><trkpt lat="43.3038292" lon="10.9086624"><ele>193.33333333333334</ele><time>2026-04-03T13:03:19.061Z</time></trkpt><trkpt lat="43.3037363" lon="10.9086479"><ele>194.66666666666669</ele><time>2026-04-03T13:03:20.044Z</time></trkpt><trkpt lat="43.3036436" lon="10.9086311"><ele>196.0</ele><time>2026-04-03T13:03:21.048Z</time></trkpt><trkpt lat="43.3035565" lon="10.9086107"><ele>197.33333333333334</ele><time>2026-04-03T13:03:22.05Z</time></trkpt><trkpt lat="43.3034727" lon="10.9085884"><ele>198.66666666666669</ele><time>2026-04-03T13:03:23.049Z</time></trkpt><trkpt lat="43.3033866" lon="10.9085621"><ele>200.0</ele><time>2026-04-03T13:03:24.055Z</time></trkpt><trkpt lat="43.3032936" lon="10.908531"><ele>200.0</ele><time>2026-04-03T13:03:25.049Z</time></trkpt><trkpt lat="43.303193" lon="10.9084943"><ele>200.0</ele><time>2026-04-03T13:03:26.054Z</time></trkpt><trkpt lat="43.303088" lon="10.9084544"><ele>200.0</ele><time>2026-04-03T13:03:27.048Z</time></trkpt><trkpt lat="43.3029804" lon="10.9084112"><ele>200.0</ele><time>2026-04-03T13:03:28.039Z</time></trkpt><trkpt lat="43.302869" lon="10.9083646"><ele>200.0</ele><time>2026-04-03T13:03:29.047Z</time></trkpt><trkpt lat="43.3027576" lon="10.9083146"><ele>201.0</ele><time>2026-04-03T13:03:30.047Z</time></trkpt><trkpt lat="43.302651" lon="10.9082524"><ele>202.0</ele><time>2026-04-03T13:03:31.043Z</time></trkpt><trkpt lat="43.3025517" lon="10.9081736"><ele>203.0</ele><time>2026-04-03T13:03:32.035Z</time></trkpt><trkpt lat="43.3024567" lon="10.9080798"><ele>204.0</ele><time>2026-04-03T13:03:33.036Z</time></trkpt><trkpt lat="43.302361" lon="10.9079767"><ele>204.0</ele><time>2026-04-03T13:03:34.055Z</time></trkpt><trkpt lat="43.3022665" lon="10.9078741"><ele>204.0</ele><time>2026-04-03T13:03:35.055Z</time></trkpt><trkpt lat="43.3021707" lon="10.9077749"><ele>204.0</ele><time>2026-04-03T13:03:36.046Z</time></trkpt><trkpt lat="43.3020678" lon="10.9076878"><ele>204.0</ele><time>2026-04-03T13:03:37.048Z</time></trkpt><trkpt lat="43.3019663" lon="10.9076162"><ele>204.6</ele><time>2026-04-03T13:03:38.047Z</time></trkpt><trkpt lat="43.3018593" lon="10.9075984"><ele>205.2</ele><time>2026-04-03T13:03:39.044Z</time></trkpt><trkpt lat="43.3017482" lon="10.907609"><ele>205.79999999999998</ele><time>2026-04-03T13:03:40.049Z</time></trkpt><trkpt lat="43.3016362" lon="10.9076342"><ele>206.39999999999998</ele><time>2026-04-03T13:03:41.057Z</time></trkpt><trkpt lat="43.3015276" lon="10.9076747"><ele>207.0</ele><time>2026-04-03T13:03:42.048Z</time></trkpt><trkpt lat="43.301433" lon="10.9077091"><ele>208.39999999999998</ele><time>2026-04-03T13:03:43.05Z</time></trkpt><trkpt lat="43.3013461" lon="10.9077278"><ele>209.79999999999998</ele><time>2026-04-03T13:03:44.05Z</time></trkpt><trkpt lat="43.3012452" lon="10.907725"><ele>211.2</ele><time>2026-04-03T13:03:45.046Z</time></trkpt><trkpt lat="43.3011418" lon="10.9077064"><ele>212.6</ele><time>2026-04-03T13:03:46.05Z</time></trkpt><trkpt lat="43.3010363" lon="10.9076756"><ele>214.0</ele><time>2026-04-03T13:03:47.049Z</time></trkpt><trkpt lat="43.300929" lon="10.9076332"><ele>214.0</ele><time>2026-04-03T13:03:48.05Z</time></trkpt><trkpt lat="43.3008188" lon="10.9075888"><ele>213.99999999999997</ele><time>2026-04-03T13:03:49.05Z</time></trkpt><trkpt lat="43.3007105" lon="10.9075485"><ele>213.99999999999997</ele><time>2026-04-03T13:03:50.053Z</time></trkpt><trkpt lat="43.3006065" lon="10.9075124"><ele>214.0</ele><time>2026-04-03T13:03:51.042Z</time></trkpt><trkpt lat="43.3005001" lon="10.9074762"><ele>214.0</ele><time>2026-04-03T13:03:52.041Z</time></trkpt><trkpt lat="43.3003922" lon="10.9074354"><ele>217.6</ele><time>2026-04-03T13:03:53.054Z</time></trkpt><trkpt lat="43.300286" lon="10.9073887"><ele>221.2</ele><time>2026-04-03T13:03:54.046Z</time></trkpt><trkpt lat="43.3001844" lon="10.9073428"><ele>224.79999999999998</ele><time>2026-04-03T13:03:55.055Z</time></trkpt><trkpt lat="43.3000831" lon="10.9072977"><ele>228.39999999999998</ele><time>2026-04-03T13:03:56.044Z</time></trkpt><trkpt lat="43.299983" lon="10.9072594"><ele>232.0</ele><time>2026-04-03T13:03:57.046Z</time></trkpt><trkpt lat="43.2998836" lon="10.9072256"><ele>232.0</ele><time>2026-04-03T13:03:58.04Z</time></trkpt><trkpt lat="43.2997848" lon="10.9071915"><ele>232.0</ele><time>2026-04-03T13:03:59.043Z</time></trkpt><trkpt lat="43.299687" lon="10.9071639"><ele>232.0</ele><time>2026-04-03T13:04:00.045Z</time></trkpt><trkpt lat="43.2995935" lon="10.9071406"><ele>232.0</ele><time>2026-04-03T13:04:01.05Z</time></trkpt><trkpt lat="43.2995029" lon="10.9071207"><ele>232.0</ele><time>2026-04-03T13:04:02.05Z</time></trkpt><trkpt lat="43.2994065" lon="10.907071"><ele>231.8</ele><time>2026-04-03T13:04:03.054Z</time></trkpt><trkpt lat="43.299313" lon="10.9069905"><ele>231.6</ele><time>2026-04-03T13:04:04.055Z</time></trkpt><trkpt lat="43.2992235" lon="10.9069013"><ele>231.40000000000003</ele><time>2026-04-03T13:04:05.046Z</time></trkpt><trkpt lat="43.2991355" lon="10.9068155"><ele>231.20000000000002</ele><time>2026-04-03T13:04:06.049Z</time></trkpt><trkpt lat="43.2990393" lon="10.9067438"><ele>231.0</ele><time>2026-04-03T13:04:07.039Z</time></trkpt><trkpt lat="43.298928" lon="10.9067069"><ele>231.20000000000002</ele><time>2026-04-03T13:04:08.043Z</time></trkpt><trkpt lat="43.2988157" lon="10.9066984"><ele>231.40000000000003</ele><time>2026-04-03T13:04:09.052Z</time></trkpt><trkpt lat="43.2987056" lon="10.9066946"><ele>231.6</ele><time>2026-04-03T13:04:10.045Z</time></trkpt><trkpt lat="43.2985976" lon="10.9066753"><ele>231.8</ele><time>2026-04-03T13:04:11.045Z</time></trkpt><trkpt lat="43.2984947" lon="10.9066372"><ele>232.0</ele><time>2026-04-03T13:04:12.04Z</time></trkpt><trkpt lat="43.2983946" lon="10.9065834"><ele>232.0</ele><time>2026-04-03T13:04:13.075Z</time></trkpt><trkpt lat="43.2982993" lon="10.9065144"><ele>232.0</ele><time>2026-04-03T13:04:14.072Z</time></trkpt><trkpt lat="43.2982111" lon="10.9064307"><ele>232.0</ele><time>2026-04-03T13:04:15.06Z</time></trkpt><trkpt lat="43.2981307" lon="10.9063418"><ele>232.0</ele><time>2026-04-03T13:04:16.047Z</time></trkpt><trkpt lat="43.2980517" lon="10.9062469"><ele>232.0</ele><time>2026-04-03T13:04:17.048Z</time></trkpt><trkpt lat="43.2979684" lon="10.9061455"><ele>233.75</ele><time>2026-04-03T13:04:18.061Z</time></trkpt><trkpt lat="43.297881" lon="10.9060379"><ele>235.5</ele><time>2026-04-03T13:04:19.043Z</time></trkpt><trkpt lat="43.2977858" lon="10.9059241"><ele>237.25</ele><time>2026-04-03T13:04:20.044Z</time></trkpt><trkpt lat="43.2976831" lon="10.9058051"><ele>239.0</ele><time>2026-04-03T13:04:21.05Z</time></trkpt><trkpt lat="43.2975756" lon="10.9056799"><ele>239.0</ele><time>2026-04-03T13:04:22.047Z</time></trkpt><trkpt lat="43.2974609" lon="10.905548"><ele>239.0</ele><time>2026-04-03T13:04:23.058Z</time></trkpt><trkpt lat="43.2973421" lon="10.905416"><ele>239.0</ele><time>2026-04-03T13:04:24.046Z</time></trkpt><trkpt lat="43.2972195" lon="10.9052878"><ele>237.5</ele><time>2026-04-03T13:04:25.052Z</time></trkpt><trkpt lat="43.2970997" lon="10.9051632"><ele>236.0</ele><time>2026-04-03T13:04:26.043Z</time></trkpt><trkpt lat="43.2969823" lon="10.9050455"><ele>234.5</ele><time>2026-04-03T13:04:27.04Z</time></trkpt><trkpt lat="43.2968713" lon="10.9049332"><ele>233.0</ele><time>2026-04-03T13:04:28.048Z</time></trkpt><trkpt lat="43.2967652" lon="10.9048243"><ele>236.5</ele><time>2026-04-03T13:04:29.052Z</time></trkpt><trkpt lat="43.2966599" lon="10.904709"><ele>240.0</ele><time>2026-04-03T13:04:30.049Z</time></trkpt><trkpt lat="43.2965533" lon="10.904588"><ele>243.5</ele><time>2026-04-03T13:04:31.061Z</time></trkpt><trkpt lat="43.2964416" lon="10.9044714"><ele>247.0</ele><time>2026-04-03T13:04:32.053Z</time></trkpt><trkpt lat="43.2963191" lon="10.9043604"><ele>247.0</ele><time>2026-04-03T13:04:33.045Z</time></trkpt><trkpt lat="43.2961883" lon="10.9042537"><ele>247.0</ele><time>2026-04-03T13:04:34.046Z</time></trkpt><trkpt lat="43.2960528" lon="10.9041491"><ele>247.0</ele><time>2026-04-03T13:04:35.062Z</time></trkpt><trkpt lat="43.2959191" lon="10.9040456"><ele>249.75</ele><time>2026-04-03T13:04:36.07Z</time></trkpt><trkpt lat="43.2957973" lon="10.903948"><ele>252.5</ele><time>2026-04-03T13:04:37.082Z</time></trkpt><trkpt lat="43.295695" lon="10.9038719"><ele>255.25</ele><time>2026-04-03T13:04:38.054Z</time></trkpt><trkpt lat="43.2955976" lon="10.903818"><ele>258.0</ele><time>2026-04-03T13:04:39.055Z</time></trkpt><trkpt lat="43.2954963" lon="10.9037883"><ele>260.6</ele><time>2026-04-03T13:04:40.046Z</time></trkpt><trkpt lat="43.2953912" lon="10.9037759"><ele>263.20000000000005</ele><time>2026-04-03T13:04:41.055Z</time></trkpt><trkpt lat="43.29529" lon="10.9037633"><ele>265.8</ele><time>2026-04-03T13:04:42.069Z</time></trkpt><trkpt lat="43.2951963" lon="10.9037363"><ele>268.40000000000003</ele><time>2026-04-03T13:04:43.043Z</time></trkpt><trkpt lat="43.2951066" lon="10.9036819"><ele>271.0</ele><time>2026-04-03T13:04:44.046Z</time></trkpt><trkpt lat="43.2950154" lon="10.9036311"><ele>271.0</ele><time>2026-04-03T13:04:45.058Z</time></trkpt><trkpt lat="43.2949252" lon="10.9035988"><ele>271.0</ele><time>2026-04-03T13:04:46.053Z</time></trkpt><trkpt lat="43.2948378" lon="10.9035649"><ele>271.0</ele><time>2026-04-03T13:04:47.068Z</time></trkpt><trkpt lat="43.2947546" lon="10.9034954"><ele>271.0</ele><time>2026-04-03T13:04:48.048Z</time></trkpt><trkpt lat="43.294671" lon="10.9034123"><ele>271.0</ele><time>2026-04-03T13:04:49.046Z</time></trkpt><trkpt lat="43.2945889" lon="10.9033173"><ele>270.8</ele><time>2026-04-03T13:04:50.043Z</time></trkpt><trkpt lat="43.294512" lon="10.9032208"><ele>270.6</ele><time>2026-04-03T13:04:51.058Z</time></trkpt><trkpt lat="43.2944482" lon="10.9031179"><ele>270.4</ele><time>2026-04-03T13:04:52.06Z</time></trkpt><trkpt lat="43.2944002" lon="10.9030075"><ele>270.2</ele><time>2026-04-03T13:04:53.051Z</time></trkpt><trkpt lat="43.2943547" lon="10.9028914"><ele>270.0</ele><time>2026-04-03T13:04:54.048Z</time></trkpt><trkpt lat="43.2943136" lon="10.9027501"><ele>270.0</ele><time>2026-04-03T13:04:55.047Z</time></trkpt><trkpt lat="43.2942789" lon="10.9025908"><ele>270.0</ele><time>2026-04-03T13:04:56.044Z</time></trkpt><trkpt lat="43.2942228" lon="10.9024171"><ele>270.0</ele><time>2026-04-03T13:04:57.045Z</time></trkpt><trkpt lat="43.2941664" lon="10.9022356"><ele>270.0</ele><time>2026-04-03T13:04:58.053Z</time></trkpt><trkpt lat="43.2941288" lon="10.9020405"><ele>271.0</ele><time>2026-04-03T13:04:59.051Z</time></trkpt><trkpt lat="43.2941148" lon="10.9018415"><ele>272.0</ele><time>2026-04-03T13:05:00.048Z</time></trkpt><trkpt lat="43.2941173" lon="10.9016332"><ele>273.0</ele><time>2026-04-03T13:05:01.056Z</time></trkpt><trkpt lat="43.2941231" lon="10.9014183"><ele>274.5</ele><time>2026-04-03T13:05:02.043Z</time></trkpt><trkpt lat="43.2941297" lon="10.901204"><ele>276.0</ele><time>2026-04-03T13:05:03.063Z</time></trkpt><trkpt lat="43.2941348" lon="10.9009952"><ele>277.5</ele><time>2026-04-03T13:05:04.05Z</time></trkpt><trkpt lat="43.294138" lon="10.9008039"><ele>279.0</ele><time>2026-04-03T13:05:05.056Z</time></trkpt><trkpt lat="43.2941344" lon="10.900657"><ele>281.0</ele><time>2026-04-03T13:05:06.058Z</time></trkpt><trkpt lat="43.2941287" lon="10.9005119"><ele>283.0</ele><time>2026-04-03T13:05:07.049Z</time></trkpt><trkpt lat="43.2941151" lon="10.9003649"><ele>285.0</ele><time>2026-04-03T13:05:08.065Z</time></trkpt><trkpt lat="43.2941012" lon="10.9002119"><ele>287.0</ele><time>2026-04-03T13:05:09.07Z</time></trkpt><trkpt lat="43.2941005" lon="10.9000522"><ele>289.0</ele><time>2026-04-03T13:05:10.054Z</time></trkpt><trkpt lat="43.294116" lon="10.8998942"><ele>290.4</ele><time>2026-04-03T13:05:11.041Z</time></trkpt><trkpt lat="43.2941445" lon="10.8997411"><ele>291.79999999999995</ele><time>2026-04-03T13:05:12.05Z</time></trkpt><trkpt lat="43.2941753" lon="10.8995946"><ele>293.20000000000005</ele><time>2026-04-03T13:05:13.055Z</time></trkpt><trkpt lat="43.294202" lon="10.8994612"><ele>294.6</ele><time>2026-04-03T13:05:14.045Z</time></trkpt><trkpt lat="43.2942316" lon="10.8993555"><ele>296.0</ele><time>2026-04-03T13:05:15.048Z</time></trkpt><trkpt lat="43.2942703" lon="10.899275"><ele>297.5</ele><time>2026-04-03T13:05:16.067Z</time></trkpt><trkpt lat="43.2943241" lon="10.8992233"><ele>299.0</ele><time>2026-04-03T13:05:17.041Z</time></trkpt><trkpt lat="43.2943993" lon="10.899185"><ele>300.5</ele><time>2026-04-03T13:05:18.045Z</time></trkpt><trkpt lat="43.294482" lon="10.8991389"><ele>302.0</ele><time>2026-04-03T13:05:19.045Z</time></trkpt><trkpt lat="43.2945586" lon="10.8990716"><ele>303.5</ele><time>2026-04-03T13:05:20.048Z</time></trkpt><trkpt lat="43.294625" lon="10.8989807"><ele>305.0</ele><time>2026-04-03T13:05:21.048Z</time></trkpt><trkpt lat="43.2946746" lon="10.8988721"><ele>305.0</ele><time>2026-04-03T13:05:22.05Z</time></trkpt><trkpt lat="43.2947011" lon="10.898753"><ele>305.0</ele><time>2026-04-03T13:05:23.043Z</time></trkpt><trkpt lat="43.2947106" lon="10.8986247"><ele>305.0</ele><time>2026-04-03T13:05:24.051Z</time></trkpt><trkpt lat="43.2946909" lon="10.8984911"><ele>305.0</ele><time>2026-04-03T13:05:25.041Z</time></trkpt><trkpt lat="43.2946744" lon="10.8983527"><ele>305.0</ele><time>2026-04-03T13:05:26.042Z</time></trkpt><trkpt lat="43.2946608" lon="10.8982122"><ele>309.0</ele><time>2026-04-03T13:05:27.039Z</time></trkpt><trkpt lat="43.2946732" lon="10.8980575"><ele>313.0</ele><time>2026-04-03T13:05:28.05Z</time></trkpt><trkpt lat="43.2947014" lon="10.8978949"><ele>317.0</ele><time>2026-04-03T13:05:29.056Z</time></trkpt><trkpt lat="43.2947268" lon="10.8977374"><ele>321.0</ele><time>2026-04-03T13:05:30.057Z</time></trkpt><trkpt lat="43.2947439" lon="10.8975925"><ele>324.25</ele><time>2026-04-03T13:05:31.043Z</time></trkpt><trkpt lat="43.2947437" lon="10.8974456"><ele>327.5</ele><time>2026-04-03T13:05:32.05Z</time></trkpt><trkpt lat="43.2947357" lon="10.8973013"><ele>330.75</ele><time>2026-04-03T13:05:33.047Z</time></trkpt><trkpt lat="43.2947044" lon="10.8971392"><ele>334.0</ele><time>2026-04-03T13:05:34.042Z</time></trkpt><trkpt lat="43.2946649" lon="10.8969696"><ele>334.0</ele><time>2026-04-03T13:05:35.056Z</time></trkpt><trkpt lat="43.2946295" lon="10.8967986"><ele>334.0</ele><time>2026-04-03T13:05:36.047Z</time></trkpt><trkpt lat="43.2945955" lon="10.8966215"><ele>334.0</ele><time>2026-04-03T13:05:37.038Z</time></trkpt><trkpt lat="43.2945577" lon="10.8964385"><ele>334.0</ele><time>2026-04-03T13:05:38.053Z</time></trkpt><trkpt lat="43.2945183" lon="10.896258"><ele>335.0</ele><time>2026-04-03T13:05:39.054Z</time></trkpt><trkpt lat="43.2944807" lon="10.8960795"><ele>336.0</ele><time>2026-04-03T13:05:40.04Z</time></trkpt><trkpt lat="43.2944465" lon="10.8959024"><ele>337.0</ele><time>2026-04-03T13:05:41.052Z</time></trkpt><trkpt lat="43.294417" lon="10.8957407"><ele>338.0</ele><time>2026-04-03T13:05:42.058Z</time></trkpt><trkpt lat="43.2943911" lon="10.8956031"><ele>338.0</ele><time>2026-04-03T13:05:43.051Z</time></trkpt><trkpt lat="43.2943669" lon="10.895482"><ele>338.0</ele><time>2026-04-03T13:05:44.047Z</time></trkpt><trkpt lat="43.2943196" lon="10.895396"><ele>338.0</ele><time>2026-04-03T13:05:45.053Z</time></trkpt><trkpt lat="43.294253" lon="10.8953284"><ele>338.0</ele><time>2026-04-03T13:05:46.061Z</time></trkpt><trkpt lat="43.2941785" lon="10.8952852"><ele>338.0</ele><time>2026-04-03T13:05:47.051Z</time></trkpt><trkpt lat="43.2941161" lon="10.8952518"><ele>338.0</ele><time>2026-04-03T13:05:48.055Z</time></trkpt><trkpt lat="43.2940597" lon="10.895145"><ele>337.59999999999997</ele><time>2026-04-03T13:05:50.074Z</time></trkpt><trkpt lat="43.2940975" lon="10.8949819"><ele>337.2</ele><time>2026-04-03T13:05:52.053Z</time></trkpt><trkpt lat="43.2941369" lon="10.8948665"><ele>336.8</ele><time>2026-04-03T13:05:53.059Z</time></trkpt><trkpt lat="43.2941703" lon="10.8947387"><ele>336.4</ele><time>2026-04-03T13:05:54.057Z</time></trkpt><trkpt lat="43.2941948" lon="10.8946059"><ele>336.0</ele><time>2026-04-03T13:05:55.049Z</time></trkpt><trkpt lat="43.2942108" lon="10.8944759"><ele>336.0</ele><time>2026-04-03T13:05:56.091Z</time></trkpt><trkpt lat="43.2942183" lon="10.8943671"><ele>336.0</ele><time>2026-04-03T13:05:57.058Z</time></trkpt><trkpt lat="43.2942154" lon="10.8942735"><ele>336.0</ele><time>2026-04-03T13:05:58.047Z</time></trkpt><trkpt lat="43.2941938" lon="10.8941904"><ele>336.0</ele><time>2026-04-03T13:05:59.062Z</time></trkpt><trkpt lat="43.2941554" lon="10.8941133"><ele>336.0</ele><time>2026-04-03T13:06:00.051Z</time></trkpt><trkpt lat="43.2941024" lon="10.8940391"><ele>336.0</ele><time>2026-04-03T13:06:01.053Z</time></trkpt><trkpt lat="43.2940328" lon="10.8939631"><ele>336.0</ele><time>2026-04-03T13:06:02.055Z</time></trkpt><trkpt lat="43.293956" lon="10.8938786"><ele>335.0</ele><time>2026-04-03T13:06:03.069Z</time></trkpt><trkpt lat="43.2938655" lon="10.8937887"><ele>334.0</ele><time>2026-04-03T13:06:04.054Z</time></trkpt><trkpt lat="43.2937669" lon="10.8936873"><ele>333.0</ele><time>2026-04-03T13:06:05.062Z</time></trkpt><trkpt lat="43.2936645" lon="10.8935801"><ele>332.0</ele><time>2026-04-03T13:06:06.059Z</time></trkpt><trkpt lat="43.2935617" lon="10.8934803"><ele>331.8</ele><time>2026-04-03T13:06:07.048Z</time></trkpt><trkpt lat="43.2934639" lon="10.8933887"><ele>331.6</ele><time>2026-04-03T13:06:08.061Z</time></trkpt><trkpt lat="43.2933918" lon="10.8933204"><ele>331.40000000000003</ele><time>2026-04-03T13:06:09.057Z</time></trkpt><trkpt lat="43.2933401" lon="10.8932644"><ele>331.20000000000005</ele><time>2026-04-03T13:06:10.058Z</time></trkpt><trkpt lat="43.2933043" lon="10.8931775"><ele>331.0</ele><time>2026-04-03T13:06:12.05Z</time></trkpt><trkpt lat="43.293392" lon="10.8933342"><ele>331.0</ele><time>2026-04-03T13:06:19.05Z</time></trkpt><trkpt lat="43.293479" lon="10.8934116"><ele>331.0</ele><time>2026-04-03T13:06:20.044Z</time></trkpt><trkpt lat="43.2935753" lon="10.8935044"><ele>331.0</ele><time>2026-04-03T13:06:21.05Z</time></trkpt><trkpt lat="43.2936709" lon="10.8936041"><ele>331.0</ele><time>2026-04-03T13:06:22.05Z</time></trkpt><trkpt lat="43.2937636" lon="10.8937035"><ele>331.16666666666663</ele><time>2026-04-03T13:06:23.063Z</time></trkpt><trkpt lat="43.2938445" lon="10.8937895"><ele>331.3333333333333</ele><time>2026-04-03T13:06:24.063Z</time></trkpt><trkpt lat="43.2939199" lon="10.8938637"><ele>331.5</ele><time>2026-04-03T13:06:25.061Z</time></trkpt><trkpt lat="43.2939981" lon="10.8939059"><ele>331.6666666666667</ele><time>2026-04-03T13:06:26.068Z</time></trkpt><trkpt lat="43.2940764" lon="10.8939084"><ele>331.83333333333337</ele><time>2026-04-03T13:06:27.059Z</time></trkpt><trkpt lat="43.2941506" lon="10.8938681"><ele>332.0</ele><time>2026-04-03T13:06:28.06Z</time></trkpt><trkpt lat="43.2942119" lon="10.8937467"><ele>331.75</ele><time>2026-04-03T13:06:29.063Z</time></trkpt><trkpt lat="43.2942673" lon="10.8936185"><ele>331.5</ele><time>2026-04-03T13:06:30.05Z</time></trkpt><trkpt lat="43.2943271" lon="10.8934768"><ele>331.25</ele><time>2026-04-03T13:06:31.043Z</time></trkpt><trkpt lat="43.294392" lon="10.8933223"><ele>331.0</ele><time>2026-04-03T13:06:32.068Z</time></trkpt><trkpt lat="43.2944612" lon="10.8931661"><ele>331.0</ele><time>2026-04-03T13:06:33.068Z</time></trkpt><trkpt lat="43.2945283" lon="10.8930164"><ele>331.0</ele><time>2026-04-03T13:06:34.049Z</time></trkpt><trkpt lat="43.2945905" lon="10.8928738"><ele>331.0</ele><time>2026-04-03T13:06:35.071Z</time></trkpt><trkpt lat="43.2946474" lon="10.8927424"><ele>331.0</ele><time>2026-04-03T13:06:36.061Z</time></trkpt><trkpt lat="43.2947027" lon="10.8926199"><ele>330.8333333333333</ele><time>2026-04-03T13:06:37.04Z</time></trkpt><trkpt lat="43.2947525" lon="10.8925069"><ele>330.66666666666663</ele><time>2026-04-03T13:06:38.066Z</time></trkpt><trkpt lat="43.2947944" lon="10.8924102"><ele>330.5</ele><time>2026-04-03T13:06:39.049Z</time></trkpt><trkpt lat="43.2948261" lon="10.8923263"><ele>330.3333333333333</ele><time>2026-04-03T13:06:40.056Z</time></trkpt><trkpt lat="43.294826" lon="10.8922086"><ele>330.1666666666667</ele><time>2026-04-03T13:06:42.051Z</time></trkpt><trkpt lat="43.2947541" lon="10.8921266"><ele>330.0</ele><time>2026-04-03T13:06:44.06Z</time></trkpt><trkpt lat="43.2946651" lon="10.8920311"><ele>330.0</ele><time>2026-04-03T13:06:46.047Z</time></trkpt><trkpt lat="43.2945767" lon="10.891934"><ele>330.0</ele><time>2026-04-03T13:06:48.049Z</time></trkpt><trkpt lat="43.2944985" lon="10.891819"><ele>330.0</ele><time>2026-04-03T13:06:50.072Z</time></trkpt><trkpt lat="43.2944604" lon="10.8916671"><ele>330.0</ele><time>2026-04-03T13:06:52.042Z</time></trkpt><trkpt lat="43.294453" lon="10.8915771"><ele>330.0</ele><time>2026-04-03T13:06:53.043Z</time></trkpt><trkpt lat="43.2944572" lon="10.8914733"><ele>330.3333333333333</ele><time>2026-04-03T13:06:54.055Z</time></trkpt><trkpt lat="43.2944705" lon="10.891377"><ele>330.6666666666667</ele><time>2026-04-03T13:06:55.062Z</time></trkpt><trkpt lat="43.2944866" lon="10.8912831"><ele>331.0</ele><time>2026-04-03T13:06:56.054Z</time></trkpt><trkpt lat="43.2945498" lon="10.8911466"><ele>331.33333333333337</ele><time>2026-04-03T13:06:58.064Z</time></trkpt><trkpt lat="43.2945821" lon="10.8910625"><ele>331.6666666666667</ele><time>2026-04-03T13:06:59.051Z</time></trkpt><trkpt lat="43.2946201" lon="10.8909704"><ele>332.0</ele><time>2026-04-03T13:07:00.05Z</time></trkpt><trkpt lat="43.2946494" lon="10.8908591"><ele>333.33333333333337</ele><time>2026-04-03T13:07:01.056Z</time></trkpt><trkpt lat="43.29467" lon="10.8907532"><ele>334.6666666666667</ele><time>2026-04-03T13:07:02.047Z</time></trkpt><trkpt lat="43.2946822" lon="10.8906191"><ele>336.0</ele><time>2026-04-03T13:07:04.053Z</time></trkpt><trkpt lat="43.2946451" lon="10.8904878"><ele>337.3333333333333</ele><time>2026-04-03T13:07:06.059Z</time></trkpt><trkpt lat="43.2946483" lon="10.8903932"><ele>338.66666666666663</ele><time>2026-04-03T13:07:07.061Z</time></trkpt><trkpt lat="43.2946501" lon="10.8902959"><ele>340.0</ele><time>2026-04-03T13:07:08.058Z</time></trkpt><trkpt lat="43.2946486" lon="10.8901914"><ele>340.66666666666663</ele><time>2026-04-03T13:07:09.051Z</time></trkpt><trkpt lat="43.2946403" lon="10.8900875"><ele>341.3333333333333</ele><time>2026-04-03T13:07:10.046Z</time></trkpt><trkpt lat="43.2946208" lon="10.8899872"><ele>342.0</ele><time>2026-04-03T13:07:11.055Z</time></trkpt><trkpt lat="43.2945996" lon="10.8898947"><ele>342.6666666666667</ele><time>2026-04-03T13:07:12.042Z</time></trkpt><trkpt lat="43.2945821" lon="10.8897966"><ele>343.33333333333337</ele><time>2026-04-03T13:07:13.05Z</time></trkpt><trkpt lat="43.2945505" lon="10.8896942"><ele>344.0</ele><time>2026-04-03T13:07:14.045Z</time></trkpt><trkpt lat="43.2945112" lon="10.8896057"><ele>344.0</ele><time>2026-04-03T13:07:15.069Z</time></trkpt><trkpt lat="43.2944582" lon="10.8895535"><ele>344.0</ele><time>2026-04-03T13:07:16.054Z</time></trkpt><trkpt lat="43.2943887" lon="10.8895235"><ele>344.0</ele><time>2026-04-03T13:07:17.048Z</time></trkpt><trkpt lat="43.2943068" lon="10.8895133"><ele>344.0</ele><time>2026-04-03T13:07:18.056Z</time></trkpt><trkpt lat="43.2942249" lon="10.8895214"><ele>344.0</ele><time>2026-04-03T13:07:19.048Z</time></trkpt><trkpt lat="43.2941475" lon="10.8895327"><ele>344.0</ele><time>2026-04-03T13:07:20.061Z</time></trkpt><trkpt lat="43.2940594" lon="10.8895235"><ele>344.0</ele><time>2026-04-03T13:07:21.061Z</time></trkpt><trkpt lat="43.2939678" lon="10.8894974"><ele>344.0</ele><time>2026-04-03T13:07:22.044Z</time></trkpt><trkpt lat="43.2938792" lon="10.8894648"><ele>344.0</ele><time>2026-04-03T13:07:23.067Z</time></trkpt><trkpt lat="43.2938138" lon="10.889435"><ele>344.0</ele><time>2026-04-03T13:07:24.062Z</time></trkpt><trkpt lat="43.293759" lon="10.8893779"><ele>344.0</ele><time>2026-04-03T13:07:26.059Z</time></trkpt><trkpt lat="43.2937371" lon="10.8892815"><ele>344.0</ele><time>2026-04-03T13:07:28.048Z</time></trkpt><trkpt lat="43.2937125" lon="10.8891488"><ele>345.0</ele><time>2026-04-03T13:07:30.054Z</time></trkpt><trkpt lat="43.2936541" lon="10.8890053"><ele>346.0</ele><time>2026-04-03T13:07:32.047Z</time></trkpt><trkpt lat="43.2936193" lon="10.8888722"><ele>347.0</ele><time>2026-04-03T13:07:34.05Z</time></trkpt><trkpt lat="43.2935883" lon="10.8887071"><ele>348.0</ele><time>2026-04-03T13:07:36.046Z</time></trkpt><trkpt lat="43.2935717" lon="10.8886232"><ele>349.0</ele><time>2026-04-03T13:07:37.045Z</time></trkpt><trkpt lat="43.2935494" lon="10.888525"><ele>349.0</ele><time>2026-04-03T13:07:38.042Z</time></trkpt><trkpt lat="43.293528" lon="10.8884278"><ele>349.0</ele><time>2026-04-03T13:07:39.049Z</time></trkpt><trkpt lat="43.2935173" lon="10.8883383"><ele>349.0</ele><time>2026-04-03T13:07:40.043Z</time></trkpt><trkpt lat="43.2935098" lon="10.8881746"><ele>349.0</ele><time>2026-04-03T13:07:42.055Z</time></trkpt><trkpt lat="43.2934343" lon="10.8880605"><ele>349.0</ele><time>2026-04-03T13:07:44.053Z</time></trkpt><trkpt lat="43.2933728" lon="10.8880202"><ele>349.0</ele><time>2026-04-03T13:07:45.07Z</time></trkpt><trkpt lat="43.2933014" lon="10.8879874"><ele>350.4</ele><time>2026-04-03T13:07:46.065Z</time></trkpt><trkpt lat="43.2932281" lon="10.8879498"><ele>351.79999999999995</ele><time>2026-04-03T13:07:47.046Z</time></trkpt><trkpt lat="43.2931586" lon="10.8878997"><ele>353.20000000000005</ele><time>2026-04-03T13:07:48.06Z</time></trkpt><trkpt lat="43.2930934" lon="10.8878483"><ele>354.6</ele><time>2026-04-03T13:07:49.056Z</time></trkpt><trkpt lat="43.2930038" lon="10.8877395"><ele>356.0</ele><time>2026-04-03T13:07:51.055Z</time></trkpt><trkpt lat="43.2929549" lon="10.8875951"><ele>356.6666666666667</ele><time>2026-04-03T13:07:53.061Z</time></trkpt><trkpt lat="43.2929473" lon="10.8875069"><ele>357.33333333333337</ele><time>2026-04-03T13:07:54.047Z</time></trkpt><trkpt lat="43.2929335" lon="10.8874107"><ele>358.0</ele><time>2026-04-03T13:07:55.06Z</time></trkpt><trkpt lat="43.2929053" lon="10.8873145"><ele>358.6666666666667</ele><time>2026-04-03T13:07:56.07Z</time></trkpt><trkpt lat="43.2928632" lon="10.8872221"><ele>359.3333333333333</ele><time>2026-04-03T13:07:57.041Z</time></trkpt><trkpt lat="43.2928051" lon="10.8871349"><ele>360.0</ele><time>2026-04-03T13:07:58.067Z</time></trkpt><trkpt lat="43.2927466" lon="10.8870599"><ele>360.0</ele><time>2026-04-03T13:07:59.074Z</time></trkpt><trkpt lat="43.2926855" lon="10.8869975"><ele>360.0</ele><time>2026-04-03T13:08:00.046Z</time></trkpt><trkpt lat="43.2926157" lon="10.8869436"><ele>360.0</ele><time>2026-04-03T13:08:01.059Z</time></trkpt><trkpt lat="43.2925393" lon="10.8869056"><ele>360.0</ele><time>2026-04-03T13:08:02.08Z</time></trkpt><trkpt lat="43.2924659" lon="10.886886"><ele>360.0</ele><time>2026-04-03T13:08:03.065Z</time></trkpt><trkpt lat="43.2923981" lon="10.8868815"><ele>360.0</ele><time>2026-04-03T13:08:04.064Z</time></trkpt><trkpt lat="43.2922904" lon="10.8868814"><ele>358.0</ele><time>2026-04-03T13:08:06.069Z</time></trkpt><trkpt lat="43.292198" lon="10.8867909"><ele>356.0</ele><time>2026-04-03T13:08:08.055Z</time></trkpt><trkpt lat="43.292171" lon="10.8867016"><ele>354.0</ele><time>2026-04-03T13:08:09.052Z</time></trkpt><trkpt lat="43.2921629" lon="10.8866067"><ele>352.0</ele><time>2026-04-03T13:08:10.05Z</time></trkpt><trkpt lat="43.2921565" lon="10.8865137"><ele>350.0</ele><time>2026-04-03T13:08:11.049Z</time></trkpt><trkpt lat="43.2921454" lon="10.8864174"><ele>348.0</ele><time>2026-04-03T13:08:12.065Z</time></trkpt><trkpt lat="43.2921294" lon="10.8863108"><ele>348.0</ele><time>2026-04-03T13:08:13.062Z</time></trkpt><trkpt lat="43.2921129" lon="10.8862013"><ele>348.0</ele><time>2026-04-03T13:08:14.059Z</time></trkpt><trkpt lat="43.2920956" lon="10.8861001"><ele>348.0</ele><time>2026-04-03T13:08:15.052Z</time></trkpt><trkpt lat="43.2920713" lon="10.886011"><ele>348.0</ele><time>2026-04-03T13:08:16.057Z</time></trkpt><trkpt lat="43.2920342" lon="10.8859278"><ele>348.0</ele><time>2026-04-03T13:08:17.058Z</time></trkpt><trkpt lat="43.2919808" lon="10.8858483"><ele>348.0</ele><time>2026-04-03T13:08:18.058Z</time></trkpt><trkpt lat="43.2919125" lon="10.8857737"><ele>348.0</ele><time>2026-04-03T13:08:19.049Z</time></trkpt><trkpt lat="43.291837" lon="10.8857002"><ele>348.0</ele><time>2026-04-03T13:08:20.057Z</time></trkpt><trkpt lat="43.2917575" lon="10.8856257"><ele>348.0</ele><time>2026-04-03T13:08:21.07Z</time></trkpt><trkpt lat="43.2916757" lon="10.8855472"><ele>348.0</ele><time>2026-04-03T13:08:22.071Z</time></trkpt><trkpt lat="43.2915959" lon="10.8854605"><ele>348.0</ele><time>2026-04-03T13:08:23.053Z</time></trkpt><trkpt lat="43.2915168" lon="10.8853632"><ele>348.0</ele><time>2026-04-03T13:08:24.063Z</time></trkpt><trkpt lat="43.2914379" lon="10.8852594"><ele>348.0</ele><time>2026-04-03T13:08:25.048Z</time></trkpt><trkpt lat="43.2913628" lon="10.8851562"><ele>348.0</ele><time>2026-04-03T13:08:26.043Z</time></trkpt><trkpt lat="43.2912929" lon="10.88506"><ele>348.0</ele><time>2026-04-03T13:08:27.05Z</time></trkpt><trkpt lat="43.2912219" lon="10.88497"><ele>348.0</ele><time>2026-04-03T13:08:28.055Z</time></trkpt><trkpt lat="43.2911483" lon="10.8848798"><ele>348.0</ele><time>2026-04-03T13:08:29.06Z</time></trkpt><trkpt lat="43.2910753" lon="10.8847909"><ele>348.0</ele><time>2026-04-03T13:08:30.08Z</time></trkpt><trkpt lat="43.291007" lon="10.8847054"><ele>348.0</ele><time>2026-04-03T13:08:31.045Z</time></trkpt><trkpt lat="43.2909398" lon="10.8846197"><ele>348.0</ele><time>2026-04-03T13:08:32.046Z</time></trkpt><trkpt lat="43.2908774" lon="10.8845396"><ele>348.0</ele><time>2026-04-03T13:08:33.06Z</time></trkpt><trkpt lat="43.2908225" lon="10.8844697"><ele>348.0</ele><time>2026-04-03T13:08:34.053Z</time></trkpt><trkpt lat="43.2907714" lon="10.8844142"><ele>348.0</ele><time>2026-04-03T13:08:35.048Z</time></trkpt><trkpt lat="43.2906982" lon="10.884374"><ele>348.0</ele><time>2026-04-03T13:08:37.067Z</time></trkpt><trkpt lat="43.2906716" lon="10.8842945"><ele>348.0</ele><time>2026-04-03T13:08:42.053Z</time></trkpt><trkpt lat="43.2907031" lon="10.884219"><ele>348.0</ele><time>2026-04-03T13:08:45.936Z</time></trkpt><trkpt lat="43.2906684" lon="10.8841403"><ele>348.0</ele><time>2026-04-03T13:08:49.137Z</time></trkpt><trkpt lat="43.2906276" lon="10.884071"><ele>348.0</ele><time>2026-04-03T13:08:51.101Z</time></trkpt><trkpt lat="43.2905482" lon="10.8840368"><ele>348.0</ele><time>2026-04-03T13:08:53.052Z</time></trkpt><trkpt lat="43.290477" lon="10.884003"><ele>347.0</ele><time>2026-04-03T13:08:55.101Z</time></trkpt><trkpt lat="43.2904405" lon="10.8839258"><ele>346.0</ele><time>2026-04-03T13:09:08.125Z</time></trkpt><trkpt lat="43.2904161" lon="10.883827"><ele>345.0</ele><time>2026-04-03T13:09:11.057Z</time></trkpt><trkpt lat="43.2903257" lon="10.8837843"><ele>344.0</ele><time>2026-04-03T13:09:14.07Z</time></trkpt><trkpt lat="43.2902379" lon="10.8837517"><ele>343.0</ele><time>2026-04-03T13:09:16.126Z</time></trkpt><trkpt lat="43.2902216" lon="10.8835569"><ele>341.59999999999997</ele><time>2026-04-03T13:09:18.01Z</time></trkpt><trkpt lat="43.2902436" lon="10.8833972"><ele>340.2</ele><time>2026-04-03T13:09:19.043Z</time></trkpt><trkpt lat="43.2902851" lon="10.8832924"><ele>338.8</ele><time>2026-04-03T13:09:21.067Z</time></trkpt><trkpt lat="43.2903341" lon="10.8831462"><ele>337.4</ele><time>2026-04-03T13:09:23.053Z</time></trkpt><trkpt lat="43.2903639" lon="10.8830652"><ele>336.0</ele><time>2026-04-03T13:09:24.058Z</time></trkpt><trkpt lat="43.2904046" lon="10.8829215"><ele>336.0</ele><time>2026-04-03T13:09:26.046Z</time></trkpt><trkpt lat="43.2904211" lon="10.8827747"><ele>336.0</ele><time>2026-04-03T13:09:28.046Z</time></trkpt><trkpt lat="43.2904014" lon="10.8826134"><ele>336.0</ele><time>2026-04-03T13:09:30.047Z</time></trkpt><trkpt lat="43.2903809" lon="10.8824636"><ele>336.0</ele><time>2026-04-03T13:09:32.062Z</time></trkpt><trkpt lat="43.2903833" lon="10.8823254"><ele>336.0</ele><time>2026-04-03T13:09:34.05Z</time></trkpt><trkpt lat="43.2903942" lon="10.8821924"><ele>334.0</ele><time>2026-04-03T13:09:36.055Z</time></trkpt><trkpt lat="43.2904353" lon="10.8820586"><ele>332.0</ele><time>2026-04-03T13:09:38.056Z</time></trkpt><trkpt lat="43.2904707" lon="10.8819861"><ele>330.0</ele><time>2026-04-03T13:09:39.072Z</time></trkpt><trkpt lat="43.2905265" lon="10.8819115"><ele>328.0</ele><time>2026-04-03T13:09:40.045Z</time></trkpt><trkpt lat="43.2905816" lon="10.8818327"><ele>326.0</ele><time>2026-04-03T13:09:41.044Z</time></trkpt><trkpt lat="43.2906385" lon="10.8817532"><ele>324.0</ele><time>2026-04-03T13:09:42.043Z</time></trkpt><trkpt lat="43.2906904" lon="10.8816747"><ele>322.8333333333333</ele><time>2026-04-03T13:09:43.042Z</time></trkpt><trkpt lat="43.290734" lon="10.8815888"><ele>321.6666666666667</ele><time>2026-04-03T13:09:44.044Z</time></trkpt><trkpt lat="43.2907732" lon="10.8814897"><ele>320.5</ele><time>2026-04-03T13:09:45.054Z</time></trkpt><trkpt lat="43.2908138" lon="10.8813883"><ele>319.33333333333337</ele><time>2026-04-03T13:09:46.054Z</time></trkpt><trkpt lat="43.290861" lon="10.8812895"><ele>318.1666666666667</ele><time>2026-04-03T13:09:47.046Z</time></trkpt><trkpt lat="43.290912" lon="10.8811923"><ele>317.0</ele><time>2026-04-03T13:09:48.058Z</time></trkpt><trkpt lat="43.2909613" lon="10.8810989"><ele>317.0</ele><time>2026-04-03T13:09:49.05Z</time></trkpt><trkpt lat="43.2910088" lon="10.8810104"><ele>317.0</ele><time>2026-04-03T13:09:50.041Z</time></trkpt><trkpt lat="43.291054" lon="10.8809252"><ele>317.0</ele><time>2026-04-03T13:09:51.048Z</time></trkpt><trkpt lat="43.2910933" lon="10.8808481"><ele>317.0</ele><time>2026-04-03T13:09:52.049Z</time></trkpt><trkpt lat="43.2911289" lon="10.8807666"><ele>317.0</ele><time>2026-04-03T13:09:53.049Z</time></trkpt><trkpt lat="43.2911627" lon="10.88067"><ele>317.0</ele><time>2026-04-03T13:09:54.051Z</time></trkpt><trkpt lat="43.2911958" lon="10.8805508"><ele>315.83333333333337</ele><time>2026-04-03T13:09:55.048Z</time></trkpt><trkpt lat="43.2912266" lon="10.8804272"><ele>314.6666666666667</ele><time>2026-04-03T13:09:56.042Z</time></trkpt><trkpt lat="43.2912562" lon="10.8803113"><ele>313.5</ele><time>2026-04-03T13:09:57.045Z</time></trkpt><trkpt lat="43.2912861" lon="10.8802058"><ele>312.3333333333333</ele><time>2026-04-03T13:09:58.051Z</time></trkpt><trkpt lat="43.291316" lon="10.8800975"><ele>311.16666666666663</ele><time>2026-04-03T13:09:59.066Z</time></trkpt><trkpt lat="43.2913443" lon="10.8800047"><ele>310.0</ele><time>2026-04-03T13:10:00.048Z</time></trkpt><trkpt lat="43.2913701" lon="10.8799219"><ele>309.2</ele><time>2026-04-03T13:10:01.045Z</time></trkpt><trkpt lat="43.2913745" lon="10.8797667"><ele>308.4</ele><time>2026-04-03T13:10:03.055Z</time></trkpt><trkpt lat="43.2912933" lon="10.8796394"><ele>307.6</ele><time>2026-04-03T13:10:05.051Z</time></trkpt><trkpt lat="43.2912417" lon="10.8795693"><ele>306.8</ele><time>2026-04-03T13:10:06.045Z</time></trkpt><trkpt lat="43.2912013" lon="10.8794928"><ele>306.0</ele><time>2026-04-03T13:10:07.061Z</time></trkpt><trkpt lat="43.291213" lon="10.8793498"><ele>305.6</ele><time>2026-04-03T13:10:09.053Z</time></trkpt><trkpt lat="43.2913187" lon="10.8792421"><ele>305.20000000000005</ele><time>2026-04-03T13:10:11.051Z</time></trkpt><trkpt lat="43.2913773" lon="10.8791858"><ele>304.79999999999995</ele><time>2026-04-03T13:10:12.048Z</time></trkpt><trkpt lat="43.291442" lon="10.8791281"><ele>304.4</ele><time>2026-04-03T13:10:13.045Z</time></trkpt><trkpt lat="43.2915161" lon="10.8790692"><ele>304.0</ele><time>2026-04-03T13:10:14.056Z</time></trkpt><trkpt lat="43.2915957" lon="10.8790298"><ele>303.3333333333333</ele><time>2026-04-03T13:10:15.046Z</time></trkpt><trkpt lat="43.291676" lon="10.8790172"><ele>302.66666666666663</ele><time>2026-04-03T13:10:16.052Z</time></trkpt><trkpt lat="43.2917541" lon="10.8790248"><ele>302.0</ele><time>2026-04-03T13:10:17.056Z</time></trkpt><trkpt lat="43.2918319" lon="10.8790432"><ele>301.3333333333333</ele><time>2026-04-03T13:10:18.054Z</time></trkpt><trkpt lat="43.2919111" lon="10.8790178"><ele>300.6666666666667</ele><time>2026-04-03T13:10:19.04Z</time></trkpt><trkpt lat="43.2919866" lon="10.8789577"><ele>300.0</ele><time>2026-04-03T13:10:20.056Z</time></trkpt><trkpt lat="43.2920555" lon="10.8788961"><ele>300.0</ele><time>2026-04-03T13:10:21.062Z</time></trkpt><trkpt lat="43.2921155" lon="10.8788451"><ele>300.0</ele><time>2026-04-03T13:10:22.084Z</time></trkpt><trkpt lat="43.2922139" lon="10.8787519"><ele>300.0</ele><time>2026-04-03T13:10:24.046Z</time></trkpt><trkpt lat="43.2922693" lon="10.8786463"><ele>300.0</ele><time>2026-04-03T13:10:26.049Z</time></trkpt><trkpt lat="43.2922078" lon="10.8785114"><ele>300.0</ele><time>2026-04-03T13:10:28.044Z</time></trkpt><trkpt lat="43.2921678" lon="10.8784418"><ele>300.71428571428567</ele><time>2026-04-03T13:10:29.049Z</time></trkpt><trkpt lat="43.2921391" lon="10.8783567"><ele>301.42857142857144</ele><time>2026-04-03T13:10:30.052Z</time></trkpt><trkpt lat="43.2921054" lon="10.8782835"><ele>302.1428571428571</ele><time>2026-04-03T13:10:31.038Z</time></trkpt><trkpt lat="43.2920573" lon="10.8782172"><ele>302.85714285714283</ele><time>2026-04-03T13:10:32.053Z</time></trkpt><trkpt lat="43.292004" lon="10.8781573"><ele>303.57142857142856</ele><time>2026-04-03T13:10:33.053Z</time></trkpt><trkpt lat="43.2919505" lon="10.8780993"><ele>304.2857142857143</ele><time>2026-04-03T13:10:34.051Z</time></trkpt><trkpt lat="43.2919088" lon="10.8780339"><ele>305.0</ele><time>2026-04-03T13:10:35.047Z</time></trkpt><trkpt lat="43.2918969" lon="10.8778593"><ele>305.0</ele><time>2026-04-03T13:10:37.052Z</time></trkpt><trkpt lat="43.291908" lon="10.8777648"><ele>305.0</ele><time>2026-04-03T13:10:38.059Z</time></trkpt><trkpt lat="43.2919197" lon="10.8776783"><ele>305.0</ele><time>2026-04-03T13:10:39.064Z</time></trkpt><trkpt lat="43.2918722" lon="10.8775427"><ele>305.0</ele><time>2026-04-03T13:10:41.053Z</time></trkpt><trkpt lat="43.2918134" lon="10.8775065"><ele>305.0</ele><time>2026-04-03T13:10:42.047Z</time></trkpt><trkpt lat="43.2917412" lon="10.8774813"><ele>305.0</ele><time>2026-04-03T13:10:43.056Z</time></trkpt><trkpt lat="43.2916617" lon="10.8774566"><ele>306.5</ele><time>2026-04-03T13:10:44.056Z</time></trkpt><trkpt lat="43.2915806" lon="10.8774372"><ele>308.0</ele><time>2026-04-03T13:10:45.056Z</time></trkpt><trkpt lat="43.2914968" lon="10.8774135"><ele>309.5</ele><time>2026-04-03T13:10:46.055Z</time></trkpt><trkpt lat="43.2914148" lon="10.8773989"><ele>311.0</ele><time>2026-04-03T13:10:47.043Z</time></trkpt><trkpt lat="43.2913371" lon="10.8773895"><ele>312.5</ele><time>2026-04-03T13:10:48.08Z</time></trkpt><trkpt lat="43.2912664" lon="10.877371"><ele>314.0</ele><time>2026-04-03T13:10:49.054Z</time></trkpt><trkpt lat="43.2912024" lon="10.8773278"><ele>314.0</ele><time>2026-04-03T13:10:50.046Z</time></trkpt><trkpt lat="43.2911426" lon="10.8772757"><ele>314.0</ele><time>2026-04-03T13:10:51.053Z</time></trkpt><trkpt lat="43.2910769" lon="10.8772019"><ele>314.0</ele><time>2026-04-03T13:10:52.065Z</time></trkpt><trkpt lat="43.2910093" lon="10.8771244"><ele>314.0</ele><time>2026-04-03T13:10:53.061Z</time></trkpt><trkpt lat="43.2909406" lon="10.8770535"><ele>314.0</ele><time>2026-04-03T13:10:54.053Z</time></trkpt><trkpt lat="43.2908651" lon="10.8769871"><ele>314.0</ele><time>2026-04-03T13:10:55.061Z</time></trkpt><trkpt lat="43.2907846" lon="10.8769323"><ele>314.0</ele><time>2026-04-03T13:10:56.046Z</time></trkpt><trkpt lat="43.2906945" lon="10.8768896"><ele>314.0</ele><time>2026-04-03T13:10:57.056Z</time></trkpt><trkpt lat="43.2906045" lon="10.8768499"><ele>314.0</ele><time>2026-04-03T13:10:58.066Z</time></trkpt><trkpt lat="43.2905192" lon="10.8768136"><ele>314.0</ele><time>2026-04-03T13:10:59.043Z</time></trkpt><trkpt lat="43.2904413" lon="10.876776"><ele>314.0</ele><time>2026-04-03T13:11:00.06Z</time></trkpt><trkpt lat="43.2903778" lon="10.8767459"><ele>314.0</ele><time>2026-04-03T13:11:01.054Z</time></trkpt><trkpt lat="43.2903036" lon="10.8767076"><ele>314.2</ele><time>2026-04-03T13:11:03.052Z</time></trkpt><trkpt lat="43.2902105" lon="10.876741"><ele>314.4</ele><time>2026-04-03T13:11:06.067Z</time></trkpt><trkpt lat="43.2901562" lon="10.8768091"><ele>314.6</ele><time>2026-04-03T13:11:07.067Z</time></trkpt><trkpt lat="43.2900999" lon="10.8768973"><ele>314.8</ele><time>2026-04-03T13:11:08.065Z</time></trkpt><trkpt lat="43.2900404" lon="10.8770028"><ele>315.0</ele><time>2026-04-03T13:11:09.043Z</time></trkpt><trkpt lat="43.2899744" lon="10.877118"><ele>315.0</ele><time>2026-04-03T13:11:10.073Z</time></trkpt><trkpt lat="43.2899068" lon="10.8772351"><ele>315.0</ele><time>2026-04-03T13:11:11.055Z</time></trkpt><trkpt lat="43.2898371" lon="10.8773576"><ele>315.0</ele><time>2026-04-03T13:11:12.05Z</time></trkpt><trkpt lat="43.2897696" lon="10.8774739"><ele>315.0</ele><time>2026-04-03T13:11:13.052Z</time></trkpt><trkpt lat="43.2897085" lon="10.8775805"><ele>315.0</ele><time>2026-04-03T13:11:14.062Z</time></trkpt><trkpt lat="43.2896556" lon="10.8776766"><ele>315.0</ele><time>2026-04-03T13:11:15.045Z</time></trkpt><trkpt lat="43.2896073" lon="10.8777614"><ele>315.0</ele><time>2026-04-03T13:11:16.053Z</time></trkpt><trkpt lat="43.2895617" lon="10.8778362"><ele>315.0</ele><time>2026-04-03T13:11:17.051Z</time></trkpt><trkpt lat="43.2895201" lon="10.877906"><ele>315.0</ele><time>2026-04-03T13:11:18.046Z</time></trkpt><trkpt lat="43.2894431" lon="10.8780199"><ele>315.0</ele><time>2026-04-03T13:11:20.052Z</time></trkpt><trkpt lat="43.2893641" lon="10.8779493"><ele>315.0</ele><time>2026-04-03T13:11:23.051Z</time></trkpt><trkpt lat="43.2892962" lon="10.8778723"><ele>315.0</ele><time>2026-04-03T13:11:25.055Z</time></trkpt><trkpt lat="43.289194" lon="10.8778439"><ele>315.0</ele><time>2026-04-03T13:11:27.061Z</time></trkpt><trkpt lat="43.2890884" lon="10.8777588"><ele>315.0</ele><time>2026-04-03T13:11:29.058Z</time></trkpt><trkpt lat="43.2890279" lon="10.8776865"><ele>315.0</ele><time>2026-04-03T13:11:30.058Z</time></trkpt><trkpt lat="43.288959" lon="10.8776107"><ele>315.0</ele><time>2026-04-03T13:11:31.052Z</time></trkpt><trkpt lat="43.2888758" lon="10.8775322"><ele>314.5</ele><time>2026-04-03T13:11:32.052Z</time></trkpt><trkpt lat="43.2887993" lon="10.8774552"><ele>314.0</ele><time>2026-04-03T13:11:33.067Z</time></trkpt><trkpt lat="43.2887362" lon="10.8773761"><ele>313.5</ele><time>2026-04-03T13:11:34.052Z</time></trkpt><trkpt lat="43.2886871" lon="10.8772952"><ele>313.0</ele><time>2026-04-03T13:11:35.047Z</time></trkpt><trkpt lat="43.2886519" lon="10.8772095"><ele>312.5</ele><time>2026-04-03T13:11:36.062Z</time></trkpt><trkpt lat="43.2886281" lon="10.8771235"><ele>312.0</ele><time>2026-04-03T13:11:37.075Z</time></trkpt><trkpt lat="43.2886033" lon="10.87704"><ele>312.0</ele><time>2026-04-03T13:11:38.054Z</time></trkpt><trkpt lat="43.2885688" lon="10.8769562"><ele>312.0</ele><time>2026-04-03T13:11:39.065Z</time></trkpt><trkpt lat="43.2885329" lon="10.8768769"><ele>312.0</ele><time>2026-04-03T13:11:40.065Z</time></trkpt><trkpt lat="43.2884728" lon="10.8768244"><ele>312.0</ele><time>2026-04-03T13:11:41.082Z</time></trkpt><trkpt lat="43.2884013" lon="10.8767914"><ele>312.0</ele><time>2026-04-03T13:11:42.054Z</time></trkpt><trkpt lat="43.2883263" lon="10.8767588"><ele>312.0</ele><time>2026-04-03T13:11:43.064Z</time></trkpt><trkpt lat="43.2882592" lon="10.876724"><ele>312.0</ele><time>2026-04-03T13:11:44.053Z</time></trkpt><trkpt lat="43.2882006" lon="10.8766823"><ele>311.6</ele><time>2026-04-03T13:11:45.057Z</time></trkpt><trkpt lat="43.2881415" lon="10.8766384"><ele>311.2</ele><time>2026-04-03T13:11:46.068Z</time></trkpt><trkpt lat="43.288035" lon="10.8765602"><ele>310.8</ele><time>2026-04-03T13:11:48.06Z</time></trkpt><trkpt lat="43.2879843" lon="10.8764021"><ele>310.4</ele><time>2026-04-03T13:11:50.043Z</time></trkpt><trkpt lat="43.2879829" lon="10.8762914"><ele>310.0</ele><time>2026-04-03T13:11:51.063Z</time></trkpt><trkpt lat="43.2879986" lon="10.8761749"><ele>309.0</ele><time>2026-04-03T13:11:52.057Z</time></trkpt><trkpt lat="43.2880298" lon="10.8760502"><ele>308.0</ele><time>2026-04-03T13:11:53.049Z</time></trkpt><trkpt lat="43.2880561" lon="10.8759173"><ele>307.0</ele><time>2026-04-03T13:11:54.046Z</time></trkpt><trkpt lat="43.2880766" lon="10.8757815"><ele>306.0</ele><time>2026-04-03T13:11:55.062Z</time></trkpt><trkpt lat="43.2880792" lon="10.8756523"><ele>305.0</ele><time>2026-04-03T13:11:56.068Z</time></trkpt><trkpt lat="43.2880749" lon="10.8755279"><ele>304.83333333333337</ele><time>2026-04-03T13:11:57.047Z</time></trkpt><trkpt lat="43.2880579" lon="10.8754177"><ele>304.6666666666667</ele><time>2026-04-03T13:11:58.066Z</time></trkpt><trkpt lat="43.288024" lon="10.8753128"><ele>304.5</ele><time>2026-04-03T13:11:59.06Z</time></trkpt><trkpt lat="43.2879883" lon="10.8752052"><ele>304.3333333333333</ele><time>2026-04-03T13:12:00.043Z</time></trkpt><trkpt lat="43.2879546" lon="10.875097"><ele>304.16666666666663</ele><time>2026-04-03T13:12:01.063Z</time></trkpt><trkpt lat="43.2879229" lon="10.8749957"><ele>304.0</ele><time>2026-04-03T13:12:02.052Z</time></trkpt><trkpt lat="43.287893" lon="10.8749018"><ele>304.0</ele><time>2026-04-03T13:12:03.043Z</time></trkpt><trkpt lat="43.2878664" lon="10.8748157"><ele>304.0</ele><time>2026-04-03T13:12:04.056Z</time></trkpt><trkpt lat="43.2878423" lon="10.8747338"><ele>304.0</ele><time>2026-04-03T13:12:05.061Z</time></trkpt><trkpt lat="43.2878194" lon="10.8746528"><ele>304.0</ele><time>2026-04-03T13:12:06.049Z</time></trkpt><trkpt lat="43.2877917" lon="10.8745695"><ele>304.0</ele><time>2026-04-03T13:12:07.066Z</time></trkpt><trkpt lat="43.2877626" lon="10.8744925"><ele>304.0</ele><time>2026-04-03T13:12:08.058Z</time></trkpt><trkpt lat="43.2877056" lon="10.8743667"><ele>304.0</ele><time>2026-04-03T13:12:10.061Z</time></trkpt><trkpt lat="43.2876561" lon="10.8742248"><ele>307.25</ele><time>2026-04-03T13:12:12.053Z</time></trkpt><trkpt lat="43.2876178" lon="10.874068"><ele>310.5</ele><time>2026-04-03T13:12:14.082Z</time></trkpt><trkpt lat="43.2875697" lon="10.8739147"><ele>313.75</ele><time>2026-04-03T13:12:16.065Z</time></trkpt><trkpt lat="43.2875796" lon="10.8737629"><ele>317.0</ele><time>2026-04-03T13:12:18.053Z</time></trkpt><trkpt lat="43.2876473" lon="10.873624"><ele>317.0</ele><time>2026-04-03T13:12:20.059Z</time></trkpt><trkpt lat="43.2877095" lon="10.8735711"><ele>317.0</ele><time>2026-04-03T13:12:21.045Z</time></trkpt><trkpt lat="43.287786" lon="10.8735276"><ele>317.0</ele><time>2026-04-03T13:12:22.049Z</time></trkpt><trkpt lat="43.2878699" lon="10.8734875"><ele>317.0</ele><time>2026-04-03T13:12:23.043Z</time></trkpt><trkpt lat="43.2879616" lon="10.8734478"><ele>317.0</ele><time>2026-04-03T13:12:24.052Z</time></trkpt><trkpt lat="43.2880623" lon="10.8733923"><ele>317.0</ele><time>2026-04-03T13:12:25.049Z</time></trkpt><trkpt lat="43.2881615" lon="10.8733305"><ele>318.6</ele><time>2026-04-03T13:12:26.041Z</time></trkpt><trkpt lat="43.2882563" lon="10.8732704"><ele>320.2</ele><time>2026-04-03T13:12:27.054Z</time></trkpt><trkpt lat="43.2883479" lon="10.8732108"><ele>321.8</ele><time>2026-04-03T13:12:28.044Z</time></trkpt><trkpt lat="43.2884435" lon="10.8731488"><ele>323.4</ele><time>2026-04-03T13:12:29.055Z</time></trkpt><trkpt lat="43.28854" lon="10.8730809"><ele>325.0</ele><time>2026-04-03T13:12:30.047Z</time></trkpt><trkpt lat="43.2886374" lon="10.8730039"><ele>325.0</ele><time>2026-04-03T13:12:31.053Z</time></trkpt><trkpt lat="43.2887348" lon="10.8729216"><ele>325.0</ele><time>2026-04-03T13:12:32.046Z</time></trkpt><trkpt lat="43.2888296" lon="10.8728291"><ele>325.0</ele><time>2026-04-03T13:12:33.046Z</time></trkpt><trkpt lat="43.2889227" lon="10.8727309"><ele>325.0</ele><time>2026-04-03T13:12:34.052Z</time></trkpt><trkpt lat="43.2890151" lon="10.8726328"><ele>325.2</ele><time>2026-04-03T13:12:35.046Z</time></trkpt><trkpt lat="43.2891031" lon="10.8725397"><ele>325.4</ele><time>2026-04-03T13:12:36.053Z</time></trkpt><trkpt lat="43.2891826" lon="10.8724564"><ele>325.6</ele><time>2026-04-03T13:12:37.046Z</time></trkpt><trkpt lat="43.2892549" lon="10.8723801"><ele>325.8</ele><time>2026-04-03T13:12:38.042Z</time></trkpt><trkpt lat="43.2893245" lon="10.8723017"><ele>326.0</ele><time>2026-04-03T13:12:39.047Z</time></trkpt><trkpt lat="43.2893956" lon="10.8722187"><ele>326.0</ele><time>2026-04-03T13:12:40.048Z</time></trkpt><trkpt lat="43.2894703" lon="10.8721332"><ele>326.0</ele><time>2026-04-03T13:12:41.048Z</time></trkpt><trkpt lat="43.2895476" lon="10.8720457"><ele>326.0</ele><time>2026-04-03T13:12:42.051Z</time></trkpt><trkpt lat="43.2896253" lon="10.8719547"><ele>326.0</ele><time>2026-04-03T13:12:43.047Z</time></trkpt><trkpt lat="43.2897044" lon="10.8718599"><ele>326.0</ele><time>2026-04-03T13:12:44.04Z</time></trkpt><trkpt lat="43.2897857" lon="10.871763"><ele>326.5</ele><time>2026-04-03T13:12:45.044Z</time></trkpt><trkpt lat="43.2898626" lon="10.8716749"><ele>327.0</ele><time>2026-04-03T13:12:46.047Z</time></trkpt><trkpt lat="43.2899337" lon="10.871595"><ele>327.5</ele><time>2026-04-03T13:12:47.043Z</time></trkpt><trkpt lat="43.2900062" lon="10.8715282"><ele>328.0</ele><time>2026-04-03T13:12:48.048Z</time></trkpt><trkpt lat="43.2900829" lon="10.8714971"><ele>328.5</ele><time>2026-04-03T13:12:49.049Z</time></trkpt><trkpt lat="43.2901637" lon="10.8715087"><ele>329.0</ele><time>2026-04-03T13:12:50.048Z</time></trkpt><trkpt lat="43.2902423" lon="10.8715608"><ele>329.0</ele><time>2026-04-03T13:12:51.045Z</time></trkpt><trkpt lat="43.2903187" lon="10.8716342"><ele>329.0</ele><time>2026-04-03T13:12:52.058Z</time></trkpt><trkpt lat="43.2904012" lon="10.8717133"><ele>329.0</ele><time>2026-04-03T13:12:53.053Z</time></trkpt><trkpt lat="43.2904951" lon="10.8717928"><ele>329.0</ele><time>2026-04-03T13:12:54.046Z</time></trkpt><trkpt lat="43.290601" lon="10.8718721"><ele>329.0</ele><time>2026-04-03T13:12:55.069Z</time></trkpt><trkpt lat="43.2907162" lon="10.8719498"><ele>329.5</ele><time>2026-04-03T13:12:56.043Z</time></trkpt><trkpt lat="43.2908419" lon="10.872036"><ele>330.0</ele><time>2026-04-03T13:12:57.046Z</time></trkpt><trkpt lat="43.2909735" lon="10.8721334"><ele>330.5</ele><time>2026-04-03T13:12:58.056Z</time></trkpt><trkpt lat="43.291106" lon="10.872248"><ele>331.0</ele><time>2026-04-03T13:12:59.051Z</time></trkpt><trkpt lat="43.2912364" lon="10.8723796"><ele>331.0</ele><time>2026-04-03T13:13:00.05Z</time></trkpt><trkpt lat="43.2913636" lon="10.8725157"><ele>331.0</ele><time>2026-04-03T13:13:01.049Z</time></trkpt><trkpt lat="43.2914846" lon="10.8726415"><ele>331.0</ele><time>2026-04-03T13:13:02.063Z</time></trkpt><trkpt lat="43.2915844" lon="10.8727474"><ele>331.0</ele><time>2026-04-03T13:13:03.074Z</time></trkpt><trkpt lat="43.2916741" lon="10.8728388"><ele>332.16666666666663</ele><time>2026-04-03T13:13:04.053Z</time></trkpt><trkpt lat="43.2917549" lon="10.872909"><ele>333.3333333333333</ele><time>2026-04-03T13:13:05.066Z</time></trkpt><trkpt lat="43.2918248" lon="10.872965"><ele>334.5</ele><time>2026-04-03T13:13:06.065Z</time></trkpt><trkpt lat="43.2918869" lon="10.873008"><ele>335.6666666666667</ele><time>2026-04-03T13:13:07.06Z</time></trkpt><trkpt lat="43.2919871" lon="10.8730655"><ele>336.83333333333337</ele><time>2026-04-03T13:13:09.06Z</time></trkpt><trkpt lat="43.2920787" lon="10.873062"><ele>338.0</ele><time>2026-04-03T13:13:11.055Z</time></trkpt><trkpt lat="43.2921386" lon="10.8730281"><ele>338.0</ele><time>2026-04-03T13:13:12.054Z</time></trkpt><trkpt lat="43.2922017" lon="10.8729596"><ele>338.0</ele><time>2026-04-03T13:13:13.052Z</time></trkpt><trkpt lat="43.2922688" lon="10.8728682"><ele>338.0</ele><time>2026-04-03T13:13:14.053Z</time></trkpt><trkpt lat="43.2923403" lon="10.8727657"><ele>338.0</ele><time>2026-04-03T13:13:15.05Z</time></trkpt><trkpt lat="43.2924111" lon="10.8726681"><ele>338.0</ele><time>2026-04-03T13:13:16.046Z</time></trkpt><trkpt lat="43.2924859" lon="10.8725752"><ele>340.0</ele><time>2026-04-03T13:13:17.05Z</time></trkpt><trkpt lat="43.2925685" lon="10.8724785"><ele>342.0</ele><time>2026-04-03T13:13:18.045Z</time></trkpt><trkpt lat="43.2926566" lon="10.8723748"><ele>344.0</ele><time>2026-04-03T13:13:19.046Z</time></trkpt><trkpt lat="43.2927488" lon="10.872266"><ele>346.0</ele><time>2026-04-03T13:13:20.061Z</time></trkpt><trkpt lat="43.2928428" lon="10.8721541"><ele>346.0</ele><time>2026-04-03T13:13:21.055Z</time></trkpt><trkpt lat="43.2929395" lon="10.8720382"><ele>346.0</ele><time>2026-04-03T13:13:22.053Z</time></trkpt><trkpt lat="43.2930378" lon="10.871919"><ele>346.0</ele><time>2026-04-03T13:13:23.054Z</time></trkpt><trkpt lat="43.2931383" lon="10.871797"><ele>346.0</ele><time>2026-04-03T13:13:24.044Z</time></trkpt><trkpt lat="43.2932389" lon="10.871674"><ele>347.0</ele><time>2026-04-03T13:13:25.05Z</time></trkpt><trkpt lat="43.2933334" lon="10.8715576"><ele>348.0</ele><time>2026-04-03T13:13:26.049Z</time></trkpt><trkpt lat="43.2934201" lon="10.8714567"><ele>349.0</ele><time>2026-04-03T13:13:27.052Z</time></trkpt><trkpt lat="43.2934952" lon="10.8713813"><ele>350.0</ele><time>2026-04-03T13:13:28.044Z</time></trkpt><trkpt lat="43.2935583" lon="10.8713326"><ele>351.0</ele><time>2026-04-03T13:13:29.055Z</time></trkpt><trkpt lat="43.2936741" lon="10.8713199"><ele>351.0</ele><time>2026-04-03T13:13:31.069Z</time></trkpt><trkpt lat="43.2937266" lon="10.8713857"><ele>351.0</ele><time>2026-04-03T13:13:32.046Z</time></trkpt><trkpt lat="43.2937892" lon="10.8714787"><ele>351.0</ele><time>2026-04-03T13:13:33.053Z</time></trkpt><trkpt lat="43.2938691" lon="10.8715784"><ele>351.0</ele><time>2026-04-03T13:13:34.05Z</time></trkpt><trkpt lat="43.2939648" lon="10.8716682"><ele>351.0</ele><time>2026-04-03T13:13:35.047Z</time></trkpt><trkpt lat="43.2940736" lon="10.8717305"><ele>351.5</ele><time>2026-04-03T13:13:36.066Z</time></trkpt><trkpt lat="43.2941954" lon="10.8717603"><ele>352.0</ele><time>2026-04-03T13:13:37.048Z</time></trkpt><trkpt lat="43.2943166" lon="10.8717554"><ele>352.5</ele><time>2026-04-03T13:13:38.053Z</time></trkpt><trkpt lat="43.2944282" lon="10.8717171"><ele>353.0</ele><time>2026-04-03T13:13:39.05Z</time></trkpt><trkpt lat="43.294531" lon="10.8716485"><ele>353.0</ele><time>2026-04-03T13:13:40.043Z</time></trkpt><trkpt lat="43.2946149" lon="10.8715273"><ele>353.0</ele><time>2026-04-03T13:13:41.044Z</time></trkpt><trkpt lat="43.2946946" lon="10.8713921"><ele>353.0</ele><time>2026-04-03T13:13:42.047Z</time></trkpt><trkpt lat="43.2947377" lon="10.8712224"><ele>353.0</ele><time>2026-04-03T13:13:43.039Z</time></trkpt><trkpt lat="43.2947527" lon="10.8710408"><ele>353.5</ele><time>2026-04-03T13:13:44.045Z</time></trkpt><trkpt lat="43.2947374" lon="10.8708709"><ele>354.0</ele><time>2026-04-03T13:13:45.05Z</time></trkpt><trkpt lat="43.2946784" lon="10.8707224"><ele>354.5</ele><time>2026-04-03T13:13:46.048Z</time></trkpt><trkpt lat="43.2946003" lon="10.8705947"><ele>355.0</ele><time>2026-04-03T13:13:47.047Z</time></trkpt><trkpt lat="43.2945094" lon="10.8704834"><ele>355.0</ele><time>2026-04-03T13:13:48.048Z</time></trkpt><trkpt lat="43.2944413" lon="10.8703712"><ele>355.0</ele><time>2026-04-03T13:13:49.059Z</time></trkpt><trkpt lat="43.2943912" lon="10.8702551"><ele>355.0</ele><time>2026-04-03T13:13:50.058Z</time></trkpt><trkpt lat="43.2943889" lon="10.8701354"><ele>355.0</ele><time>2026-04-03T13:13:51.049Z</time></trkpt><trkpt lat="43.2944444" lon="10.8700193"><ele>355.0</ele><time>2026-04-03T13:13:52.065Z</time></trkpt><trkpt lat="43.2945401" lon="10.8699315"><ele>355.5</ele><time>2026-04-03T13:13:53.047Z</time></trkpt><trkpt lat="43.2946404" lon="10.8698357"><ele>356.0</ele><time>2026-04-03T13:13:54.05Z</time></trkpt><trkpt lat="43.29474" lon="10.8697216"><ele>356.5</ele><time>2026-04-03T13:13:55.058Z</time></trkpt><trkpt lat="43.2948244" lon="10.8695913"><ele>357.0</ele><time>2026-04-03T13:13:56.052Z</time></trkpt><trkpt lat="43.2949039" lon="10.8694543"><ele>357.75</ele><time>2026-04-03T13:13:57.043Z</time></trkpt><trkpt lat="43.2949817" lon="10.8693119"><ele>358.5</ele><time>2026-04-03T13:13:58.088Z</time></trkpt><trkpt lat="43.2950535" lon="10.8691756"><ele>359.25</ele><time>2026-04-03T13:13:59.053Z</time></trkpt><trkpt lat="43.2951254" lon="10.8690358"><ele>360.0</ele><time>2026-04-03T13:14:00.055Z</time></trkpt><trkpt lat="43.2951946" lon="10.8688979"><ele>360.2</ele><time>2026-04-03T13:14:01.061Z</time></trkpt><trkpt lat="43.2952628" lon="10.8687621"><ele>360.4</ele><time>2026-04-03T13:14:02.065Z</time></trkpt><trkpt lat="43.2953309" lon="10.8686385"><ele>360.6</ele><time>2026-04-03T13:14:03.052Z</time></trkpt><trkpt lat="43.2953982" lon="10.8685365"><ele>360.8</ele><time>2026-04-03T13:14:04.073Z</time></trkpt><trkpt lat="43.2954591" lon="10.8684713"><ele>361.0</ele><time>2026-04-03T13:14:05.054Z</time></trkpt><trkpt lat="43.2955058" lon="10.8684132"><ele>361.3333333333333</ele><time>2026-04-03T13:14:06.061Z</time></trkpt><trkpt lat="43.2955077" lon="10.868271"><ele>361.66666666666663</ele><time>2026-04-03T13:14:08.053Z</time></trkpt><trkpt lat="43.2954585" lon="10.8682055"><ele>362.0</ele><time>2026-04-03T13:14:09.044Z</time></trkpt><trkpt lat="43.2953893" lon="10.8681445"><ele>362.3333333333333</ele><time>2026-04-03T13:14:10.072Z</time></trkpt><trkpt lat="43.2953359" lon="10.868077"><ele>362.6666666666667</ele><time>2026-04-03T13:14:11.054Z</time></trkpt><trkpt lat="43.2953116" lon="10.8679961"><ele>363.0</ele><time>2026-04-03T13:14:12.042Z</time></trkpt><trkpt lat="43.2953178" lon="10.8678998"><ele>363.0</ele><time>2026-04-03T13:14:13.043Z</time></trkpt><trkpt lat="43.2953546" lon="10.8677923"><ele>363.0</ele><time>2026-04-03T13:14:14.052Z</time></trkpt><trkpt lat="43.2954232" lon="10.8676773"><ele>363.0</ele><time>2026-04-03T13:14:15.077Z</time></trkpt><trkpt lat="43.2954967" lon="10.8675606"><ele>363.0</ele><time>2026-04-03T13:14:16.052Z</time></trkpt><trkpt lat="43.2955714" lon="10.8674391"><ele>363.0</ele><time>2026-04-03T13:14:17.065Z</time></trkpt><trkpt lat="43.2956455" lon="10.8673139"><ele>363.0</ele><time>2026-04-03T13:14:18.085Z</time></trkpt><trkpt lat="43.2957178" lon="10.867186"><ele>363.0</ele><time>2026-04-03T13:14:19.058Z</time></trkpt><trkpt lat="43.295789" lon="10.8670542"><ele>363.0</ele><time>2026-04-03T13:14:20.056Z</time></trkpt><trkpt lat="43.2958609" lon="10.8669261"><ele>363.0</ele><time>2026-04-03T13:14:21.097Z</time></trkpt><trkpt lat="43.2959265" lon="10.8668193"><ele>363.5</ele><time>2026-04-03T13:14:22.049Z</time></trkpt><trkpt lat="43.2959835" lon="10.8667317"><ele>364.0</ele><time>2026-04-03T13:14:23.045Z</time></trkpt><trkpt lat="43.2960267" lon="10.8666579"><ele>364.5</ele><time>2026-04-03T13:14:24.06Z</time></trkpt><trkpt lat="43.2960909" lon="10.8665198"><ele>365.0</ele><time>2026-04-03T13:14:26.049Z</time></trkpt><trkpt lat="43.2961246" lon="10.8664298"><ele>365.5</ele><time>2026-04-03T13:14:27.052Z</time></trkpt><trkpt lat="43.2961587" lon="10.866316"><ele>366.0</ele><time>2026-04-03T13:14:28.052Z</time></trkpt><trkpt lat="43.2961883" lon="10.8661767"><ele>366.0</ele><time>2026-04-03T13:14:29.045Z</time></trkpt><trkpt lat="43.2962045" lon="10.8660107"><ele>366.0</ele><time>2026-04-03T13:14:30.056Z</time></trkpt><trkpt lat="43.2962045" lon="10.8658334"><ele>366.0</ele><time>2026-04-03T13:14:31.057Z</time></trkpt><trkpt lat="43.2961946" lon="10.8656497"><ele>366.0</ele><time>2026-04-03T13:14:32.044Z</time></trkpt><trkpt lat="43.2961836" lon="10.8654613"><ele>366.0</ele><time>2026-04-03T13:14:33.045Z</time></trkpt><trkpt lat="43.2961737" lon="10.8652697"><ele>366.0</ele><time>2026-04-03T13:14:34.049Z</time></trkpt><trkpt lat="43.296168" lon="10.8650774"><ele>366.0</ele><time>2026-04-03T13:14:35.043Z</time></trkpt><trkpt lat="43.2961767" lon="10.864884"><ele>366.0</ele><time>2026-04-03T13:14:36.056Z</time></trkpt><trkpt lat="43.2962076" lon="10.864697"><ele>366.0</ele><time>2026-04-03T13:14:37.047Z</time></trkpt><trkpt lat="43.2962535" lon="10.864514"><ele>366.0</ele><time>2026-04-03T13:14:38.049Z</time></trkpt><trkpt lat="43.2963037" lon="10.8643397"><ele>366.0</ele><time>2026-04-03T13:14:39.056Z</time></trkpt><trkpt lat="43.2963501" lon="10.8641795"><ele>366.0</ele><time>2026-04-03T13:14:40.049Z</time></trkpt><trkpt lat="43.2963912" lon="10.8640369"><ele>367.4</ele><time>2026-04-03T13:14:41.05Z</time></trkpt><trkpt lat="43.2964324" lon="10.8639148"><ele>368.8</ele><time>2026-04-03T13:14:42.045Z</time></trkpt><trkpt lat="43.2964877" lon="10.8638135"><ele>370.2</ele><time>2026-04-03T13:14:43.065Z</time></trkpt><trkpt lat="43.2965651" lon="10.8637321"><ele>371.59999999999997</ele><time>2026-04-03T13:14:44.044Z</time></trkpt><trkpt lat="43.2966715" lon="10.8636608"><ele>373.0</ele><time>2026-04-03T13:14:45.051Z</time></trkpt><trkpt lat="43.2967869" lon="10.8635849"><ele>373.0</ele><time>2026-04-03T13:14:46.046Z</time></trkpt><trkpt lat="43.2969032" lon="10.8634902"><ele>373.0</ele><time>2026-04-03T13:14:47.045Z</time></trkpt><trkpt lat="43.2970144" lon="10.8633715"><ele>373.0</ele><time>2026-04-03T13:14:48.06Z</time></trkpt><trkpt lat="43.2971197" lon="10.8632321"><ele>373.0</ele><time>2026-04-03T13:14:49.069Z</time></trkpt><trkpt lat="43.2972142" lon="10.8630745"><ele>372.5</ele><time>2026-04-03T13:14:50.051Z</time></trkpt><trkpt lat="43.2972934" lon="10.8629091"><ele>372.0</ele><time>2026-04-03T13:14:51.046Z</time></trkpt><trkpt lat="43.2973495" lon="10.862741"><ele>371.5</ele><time>2026-04-03T13:14:52.047Z</time></trkpt><trkpt lat="43.2973777" lon="10.8625718"><ele>371.0</ele><time>2026-04-03T13:14:53.058Z</time></trkpt><trkpt lat="43.2973762" lon="10.8624118"><ele>371.0</ele><time>2026-04-03T13:14:54.049Z</time></trkpt><trkpt lat="43.2973378" lon="10.8622658"><ele>371.0</ele><time>2026-04-03T13:14:55.086Z</time></trkpt><trkpt lat="43.2972588" lon="10.8621442"><ele>371.0</ele><time>2026-04-03T13:14:56.056Z</time></trkpt><trkpt lat="43.2971643" lon="10.8620402"><ele>371.0</ele><time>2026-04-03T13:14:57.056Z</time></trkpt><trkpt lat="43.2970496" lon="10.8619592"><ele>367.25</ele><time>2026-04-03T13:14:58.048Z</time></trkpt><trkpt lat="43.2969318" lon="10.861887"><ele>363.5</ele><time>2026-04-03T13:14:59.061Z</time></trkpt><trkpt lat="43.2968202" lon="10.8618112"><ele>359.75</ele><time>2026-04-03T13:15:00.056Z</time></trkpt><trkpt lat="43.2967225" lon="10.8617122"><ele>356.0</ele><time>2026-04-03T13:15:01.058Z</time></trkpt><trkpt lat="43.2966497" lon="10.861585"><ele>356.0</ele><time>2026-04-03T13:15:02.07Z</time></trkpt><trkpt lat="43.2966098" lon="10.8614426"><ele>356.0</ele><time>2026-04-03T13:15:03.051Z</time></trkpt><trkpt lat="43.2965995" lon="10.8612893"><ele>356.0</ele><time>2026-04-03T13:15:04.062Z</time></trkpt><trkpt lat="43.2966196" lon="10.8611324"><ele>356.0</ele><time>2026-04-03T13:15:05.102Z</time></trkpt><trkpt lat="43.2966413" lon="10.8609768"><ele>356.25</ele><time>2026-04-03T13:15:06.064Z</time></trkpt><trkpt lat="43.2966642" lon="10.8608139"><ele>356.5</ele><time>2026-04-03T13:15:07.053Z</time></trkpt><trkpt lat="43.2966911" lon="10.8606493"><ele>356.75</ele><time>2026-04-03T13:15:08.06Z</time></trkpt><trkpt lat="43.2967278" lon="10.8605028"><ele>357.0</ele><time>2026-04-03T13:15:09.05Z</time></trkpt><trkpt lat="43.296765" lon="10.8603847"><ele>357.0</ele><time>2026-04-03T13:15:10.057Z</time></trkpt><trkpt lat="43.2968051" lon="10.8603153"><ele>357.0</ele><time>2026-04-03T13:15:11.072Z</time></trkpt><trkpt lat="43.2968923" lon="10.8602898"><ele>357.0</ele><time>2026-04-03T13:15:13.06Z</time></trkpt><trkpt lat="43.2969781" lon="10.8603992"><ele>357.0</ele><time>2026-04-03T13:15:15.059Z</time></trkpt><trkpt lat="43.2970259" lon="10.8604826"><ele>357.0</ele><time>2026-04-03T13:15:16.05Z</time></trkpt><trkpt lat="43.297083" lon="10.8605732"><ele>357.0</ele><time>2026-04-03T13:15:17.054Z</time></trkpt><trkpt lat="43.2971464" lon="10.8606662"><ele>357.0</ele><time>2026-04-03T13:15:18.06Z</time></trkpt><trkpt lat="43.2972154" lon="10.8607509"><ele>357.0</ele><time>2026-04-03T13:15:19.047Z</time></trkpt><trkpt lat="43.2972862" lon="10.8608324"><ele>357.0</ele><time>2026-04-03T13:15:20.05Z</time></trkpt><trkpt lat="43.2973571" lon="10.860906"><ele>357.0</ele><time>2026-04-03T13:15:21.052Z</time></trkpt><trkpt lat="43.2974319" lon="10.860983"><ele>357.0</ele><time>2026-04-03T13:15:22.059Z</time></trkpt><trkpt lat="43.2975039" lon="10.861059"><ele>359.5</ele><time>2026-04-03T13:15:23.05Z</time></trkpt><trkpt lat="43.2975711" lon="10.8611259"><ele>362.0</ele><time>2026-04-03T13:15:24.064Z</time></trkpt><trkpt lat="43.297635" lon="10.8611835"><ele>364.5</ele><time>2026-04-03T13:15:25.052Z</time></trkpt><trkpt lat="43.2976976" lon="10.8612279"><ele>367.0</ele><time>2026-04-03T13:15:26.06Z</time></trkpt><trkpt lat="43.2977582" lon="10.8612552"><ele>369.5</ele><time>2026-04-03T13:15:27.049Z</time></trkpt><trkpt lat="43.2978418" lon="10.8612544"><ele>372.0</ele><time>2026-04-03T13:15:29.051Z</time></trkpt><trkpt lat="43.2978866" lon="10.8611233"><ele>372.0</ele><time>2026-04-03T13:15:32.056Z</time></trkpt><trkpt lat="43.2978881" lon="10.8610354"><ele>372.0</ele><time>2026-04-03T13:15:33.045Z</time></trkpt><trkpt lat="43.2978775" lon="10.8609147"><ele>372.0</ele><time>2026-04-03T13:15:34.054Z</time></trkpt><trkpt lat="43.2978642" lon="10.8607799"><ele>372.0</ele><time>2026-04-03T13:15:35.07Z</time></trkpt><trkpt lat="43.2978496" lon="10.8606403"><ele>372.0</ele><time>2026-04-03T13:15:36.056Z</time></trkpt><trkpt lat="43.2978335" lon="10.8604951"><ele>371.5</ele><time>2026-04-03T13:15:37.074Z</time></trkpt><trkpt lat="43.297818" lon="10.8603416"><ele>371.0</ele><time>2026-04-03T13:15:38.049Z</time></trkpt><trkpt lat="43.2978052" lon="10.8601822"><ele>370.5</ele><time>2026-04-03T13:15:39.05Z</time></trkpt><trkpt lat="43.2977919" lon="10.8600221"><ele>370.0</ele><time>2026-04-03T13:15:40.049Z</time></trkpt><trkpt lat="43.2977729" lon="10.8598621"><ele>369.6</ele><time>2026-04-03T13:15:41.05Z</time></trkpt><trkpt lat="43.2977505" lon="10.8597058"><ele>369.2</ele><time>2026-04-03T13:15:42.062Z</time></trkpt><trkpt lat="43.2977314" lon="10.8595593"><ele>368.79999999999995</ele><time>2026-04-03T13:15:43.058Z</time></trkpt><trkpt lat="43.2977167" lon="10.8594117"><ele>368.4</ele><time>2026-04-03T13:15:44.059Z</time></trkpt><trkpt lat="43.2977032" lon="10.8592609"><ele>368.0</ele><time>2026-04-03T13:15:45.044Z</time></trkpt><trkpt lat="43.2976798" lon="10.8590942"><ele>367.25</ele><time>2026-04-03T13:15:46.048Z</time></trkpt><trkpt lat="43.2976417" lon="10.8589129"><ele>366.5</ele><time>2026-04-03T13:15:47.068Z</time></trkpt><trkpt lat="43.297594" lon="10.8587305"><ele>365.75</ele><time>2026-04-03T13:15:48.049Z</time></trkpt><trkpt lat="43.29754" lon="10.8585473"><ele>365.0</ele><time>2026-04-03T13:15:49.051Z</time></trkpt><trkpt lat="43.2974823" lon="10.8583631"><ele>362.5</ele><time>2026-04-03T13:15:50.063Z</time></trkpt><trkpt lat="43.2974256" lon="10.8581778"><ele>360.0</ele><time>2026-04-03T13:15:51.062Z</time></trkpt><trkpt lat="43.2973728" lon="10.8579969"><ele>357.5</ele><time>2026-04-03T13:15:52.05Z</time></trkpt><trkpt lat="43.2973237" lon="10.8578289"><ele>355.0</ele><time>2026-04-03T13:15:53.068Z</time></trkpt><trkpt lat="43.2972758" lon="10.8576793"><ele>350.75</ele><time>2026-04-03T13:15:54.047Z</time></trkpt><trkpt lat="43.2972112" lon="10.8575463"><ele>346.5</ele><time>2026-04-03T13:15:55.081Z</time></trkpt><trkpt lat="43.2971319" lon="10.8574192"><ele>342.25</ele><time>2026-04-03T13:15:56.048Z</time></trkpt><trkpt lat="43.2970139" lon="10.8573102"><ele>338.0</ele><time>2026-04-03T13:15:57.073Z</time></trkpt><trkpt lat="43.296891" lon="10.8572007"><ele>338.0</ele><time>2026-04-03T13:15:58.064Z</time></trkpt><trkpt lat="43.2967691" lon="10.8570941"><ele>338.0</ele><time>2026-04-03T13:15:59.054Z</time></trkpt><trkpt lat="43.2966557" lon="10.856984"><ele>338.0</ele><time>2026-04-03T13:16:00.06Z</time></trkpt><trkpt lat="43.2965517" lon="10.8568751"><ele>338.0</ele><time>2026-04-03T13:16:01.063Z</time></trkpt><trkpt lat="43.296472" lon="10.8567608"><ele>335.6666666666667</ele><time>2026-04-03T13:16:02.073Z</time></trkpt><trkpt lat="43.2964039" lon="10.8566559"><ele>333.33333333333337</ele><time>2026-04-03T13:16:03.061Z</time></trkpt><trkpt lat="43.2963499" lon="10.8565566"><ele>331.0</ele><time>2026-04-03T13:16:04.059Z</time></trkpt><trkpt lat="43.2963045" lon="10.8564615"><ele>328.6666666666667</ele><time>2026-04-03T13:16:05.044Z</time></trkpt><trkpt lat="43.2962646" lon="10.8563688"><ele>326.3333333333333</ele><time>2026-04-03T13:16:06.065Z</time></trkpt><trkpt lat="43.2962333" lon="10.8562868"><ele>324.0</ele><time>2026-04-03T13:16:07.062Z</time></trkpt><trkpt lat="43.2961737" lon="10.8561649"><ele>324.0</ele><time>2026-04-03T13:16:09.058Z</time></trkpt><trkpt lat="43.2961176" lon="10.8560783"><ele>324.0</ele><time>2026-04-03T13:16:10.053Z</time></trkpt><trkpt lat="43.2960443" lon="10.8559622"><ele>324.0</ele><time>2026-04-03T13:16:11.064Z</time></trkpt><trkpt lat="43.2959649" lon="10.8558316"><ele>324.0</ele><time>2026-04-03T13:16:12.059Z</time></trkpt><trkpt lat="43.2958805" lon="10.8556949"><ele>323.0</ele><time>2026-04-03T13:16:13.088Z</time></trkpt><trkpt lat="43.2958075" lon="10.8555757"><ele>322.0</ele><time>2026-04-03T13:16:14.049Z</time></trkpt><trkpt lat="43.2957512" lon="10.8554723"><ele>321.0</ele><time>2026-04-03T13:16:15.047Z</time></trkpt><trkpt lat="43.2957155" lon="10.8553736"><ele>320.0</ele><time>2026-04-03T13:16:16.052Z</time></trkpt><trkpt lat="43.2957057" lon="10.8552679"><ele>319.0</ele><time>2026-04-03T13:16:17.059Z</time></trkpt><trkpt lat="43.2957224" lon="10.8551502"><ele>317.4</ele><time>2026-04-03T13:16:18.048Z</time></trkpt><trkpt lat="43.2957533" lon="10.8550208"><ele>315.79999999999995</ele><time>2026-04-03T13:16:19.055Z</time></trkpt><trkpt lat="43.2957747" lon="10.8548844"><ele>314.20000000000005</ele><time>2026-04-03T13:16:20.048Z</time></trkpt><trkpt lat="43.2957861" lon="10.8547344"><ele>312.6</ele><time>2026-04-03T13:16:21.054Z</time></trkpt><trkpt lat="43.2957624" lon="10.854566"><ele>311.0</ele><time>2026-04-03T13:16:22.047Z</time></trkpt><trkpt lat="43.2957192" lon="10.8543851"><ele>309.0</ele><time>2026-04-03T13:16:23.055Z</time></trkpt><trkpt lat="43.2956686" lon="10.854204"><ele>307.0</ele><time>2026-04-03T13:16:24.048Z</time></trkpt><trkpt lat="43.2956204" lon="10.8540208"><ele>305.0</ele><time>2026-04-03T13:16:25.058Z</time></trkpt><trkpt lat="43.2955748" lon="10.8538397"><ele>303.0</ele><time>2026-04-03T13:16:26.061Z</time></trkpt><trkpt lat="43.2955308" lon="10.8536584"><ele>302.25</ele><time>2026-04-03T13:16:27.049Z</time></trkpt><trkpt lat="43.2954862" lon="10.8534769"><ele>301.5</ele><time>2026-04-03T13:16:28.049Z</time></trkpt><trkpt lat="43.2954391" lon="10.8533074"><ele>300.75</ele><time>2026-04-03T13:16:29.051Z</time></trkpt><trkpt lat="43.2953848" lon="10.8531548"><ele>300.0</ele><time>2026-04-03T13:16:30.048Z</time></trkpt><trkpt lat="43.2953182" lon="10.8530175"><ele>298.0</ele><time>2026-04-03T13:16:31.052Z</time></trkpt><trkpt lat="43.2952294" lon="10.8528984"><ele>296.0</ele><time>2026-04-03T13:16:32.065Z</time></trkpt><trkpt lat="43.2951228" lon="10.8527935"><ele>294.0</ele><time>2026-04-03T13:16:33.048Z</time></trkpt><trkpt lat="43.2950053" lon="10.8526922"><ele>292.0</ele><time>2026-04-03T13:16:34.056Z</time></trkpt><trkpt lat="43.2948858" lon="10.8525876"><ele>289.75</ele><time>2026-04-03T13:16:35.051Z</time></trkpt><trkpt lat="43.2947671" lon="10.8524725"><ele>287.5</ele><time>2026-04-03T13:16:36.052Z</time></trkpt><trkpt lat="43.2946501" lon="10.8523508"><ele>285.25</ele><time>2026-04-03T13:16:37.056Z</time></trkpt><trkpt lat="43.2945317" lon="10.8522297"><ele>283.0</ele><time>2026-04-03T13:16:38.054Z</time></trkpt><trkpt lat="43.2944073" lon="10.8521146"><ele>280.0</ele><time>2026-04-03T13:16:39.052Z</time></trkpt><trkpt lat="43.2942779" lon="10.852009"><ele>277.0</ele><time>2026-04-03T13:16:40.044Z</time></trkpt><trkpt lat="43.2941483" lon="10.8519052"><ele>274.0</ele><time>2026-04-03T13:16:41.051Z</time></trkpt><trkpt lat="43.2940267" lon="10.8517923"><ele>271.0</ele><time>2026-04-03T13:16:42.046Z</time></trkpt><trkpt lat="43.2939156" lon="10.8516613"><ele>266.0</ele><time>2026-04-03T13:16:43.046Z</time></trkpt><trkpt lat="43.2938151" lon="10.8515098"><ele>261.0</ele><time>2026-04-03T13:16:44.056Z</time></trkpt><trkpt lat="43.2937218" lon="10.851346"><ele>256.0</ele><time>2026-04-03T13:16:45.048Z</time></trkpt><trkpt lat="43.2936363" lon="10.8511715"><ele>256.0</ele><time>2026-04-03T13:16:46.041Z</time></trkpt><trkpt lat="43.2935646" lon="10.8509816"><ele>256.0</ele><time>2026-04-03T13:16:47.043Z</time></trkpt><trkpt lat="43.2935079" lon="10.850781"><ele>256.0</ele><time>2026-04-03T13:16:48.048Z</time></trkpt><trkpt lat="43.293468" lon="10.8505799"><ele>255.66666666666666</ele><time>2026-04-03T13:16:49.05Z</time></trkpt><trkpt lat="43.2934508" lon="10.8503742"><ele>255.33333333333331</ele><time>2026-04-03T13:16:50.042Z</time></trkpt><trkpt lat="43.2934413" lon="10.8501617"><ele>255.0</ele><time>2026-04-03T13:16:51.045Z</time></trkpt><trkpt lat="43.2934227" lon="10.8499487"><ele>253.66666666666669</ele><time>2026-04-03T13:16:52.069Z</time></trkpt><trkpt lat="43.293366" lon="10.8497499"><ele>252.33333333333334</ele><time>2026-04-03T13:16:53.045Z</time></trkpt><trkpt lat="43.2932963" lon="10.8495452"><ele>251.0</ele><time>2026-04-03T13:16:54.046Z</time></trkpt><trkpt lat="43.2932273" lon="10.8493354"><ele>250.33333333333334</ele><time>2026-04-03T13:16:55.051Z</time></trkpt><trkpt lat="43.2931567" lon="10.8491261"><ele>249.66666666666669</ele><time>2026-04-03T13:16:56.043Z</time></trkpt><trkpt lat="43.2930702" lon="10.8489287"><ele>249.0</ele><time>2026-04-03T13:16:57.048Z</time></trkpt><trkpt lat="43.2929651" lon="10.8487498"><ele>248.66666666666669</ele><time>2026-04-03T13:16:58.052Z</time></trkpt><trkpt lat="43.2928412" lon="10.8485931"><ele>248.33333333333334</ele><time>2026-04-03T13:16:59.052Z</time></trkpt><trkpt lat="43.2927093" lon="10.8484465"><ele>248.0</ele><time>2026-04-03T13:17:00.044Z</time></trkpt><trkpt lat="43.2925728" lon="10.8482984"><ele>248.0</ele><time>2026-04-03T13:17:01.048Z</time></trkpt><trkpt lat="43.2924348" lon="10.8481429"><ele>248.0</ele><time>2026-04-03T13:17:02.058Z</time></trkpt><trkpt lat="43.2922957" lon="10.8479836"><ele>248.0</ele><time>2026-04-03T13:17:03.045Z</time></trkpt><trkpt lat="43.2921552" lon="10.8478187"><ele>246.66666666666669</ele><time>2026-04-03T13:17:04.047Z</time></trkpt><trkpt lat="43.2920141" lon="10.8476514"><ele>245.33333333333331</ele><time>2026-04-03T13:17:05.044Z</time></trkpt><trkpt lat="43.2918725" lon="10.8474833"><ele>244.0</ele><time>2026-04-03T13:17:06.044Z</time></trkpt><trkpt lat="43.2917291" lon="10.8473182"><ele>246.66666666666666</ele><time>2026-04-03T13:17:07.05Z</time></trkpt><trkpt lat="43.2915867" lon="10.8471534"><ele>249.33333333333331</ele><time>2026-04-03T13:17:08.06Z</time></trkpt><trkpt lat="43.2914459" lon="10.8469909"><ele>252.0</ele><time>2026-04-03T13:17:09.063Z</time></trkpt><trkpt lat="43.291308" lon="10.8468329"><ele>256.0</ele><time>2026-04-03T13:17:10.054Z</time></trkpt><trkpt lat="43.2911742" lon="10.84668"><ele>260.0</ele><time>2026-04-03T13:17:11.055Z</time></trkpt><trkpt lat="43.2910469" lon="10.8465349"><ele>264.0</ele><time>2026-04-03T13:17:12.046Z</time></trkpt><trkpt lat="43.2909295" lon="10.8463932"><ele>264.0</ele><time>2026-04-03T13:17:13.051Z</time></trkpt><trkpt lat="43.29083" lon="10.8462441"><ele>264.0</ele><time>2026-04-03T13:17:14.053Z</time></trkpt><trkpt lat="43.2907553" lon="10.846076"><ele>264.0</ele><time>2026-04-03T13:17:15.051Z</time></trkpt><trkpt lat="43.2907042" lon="10.8458894"><ele>264.0</ele><time>2026-04-03T13:17:16.068Z</time></trkpt><trkpt lat="43.2906622" lon="10.8456959"><ele>265.75</ele><time>2026-04-03T13:17:17.077Z</time></trkpt><trkpt lat="43.2906195" lon="10.8455017"><ele>267.5</ele><time>2026-04-03T13:17:18.05Z</time></trkpt><trkpt lat="43.2905752" lon="10.8453033"><ele>269.25</ele><time>2026-04-03T13:17:19.066Z</time></trkpt><trkpt lat="43.2905305" lon="10.8451114"><ele>271.0</ele><time>2026-04-03T13:17:20.073Z</time></trkpt><trkpt lat="43.2904848" lon="10.8449291"><ele>275.5</ele><time>2026-04-03T13:17:21.051Z</time></trkpt><trkpt lat="43.2904388" lon="10.8447489"><ele>280.0</ele><time>2026-04-03T13:17:22.042Z</time></trkpt><trkpt lat="43.2903934" lon="10.8445729"><ele>284.5</ele><time>2026-04-03T13:17:23.067Z</time></trkpt><trkpt lat="43.290351" lon="10.8444153"><ele>289.0</ele><time>2026-04-03T13:17:24.056Z</time></trkpt><trkpt lat="43.2903092" lon="10.8442998"><ele>289.0</ele><time>2026-04-03T13:17:25.044Z</time></trkpt><trkpt lat="43.2902169" lon="10.8442297"><ele>289.0</ele><time>2026-04-03T13:17:27.053Z</time></trkpt><trkpt lat="43.2901575" lon="10.844356"><ele>289.0</ele><time>2026-04-03T13:17:29.055Z</time></trkpt><trkpt lat="43.2901418" lon="10.8444509"><ele>289.0</ele><time>2026-04-03T13:17:30.053Z</time></trkpt><trkpt lat="43.2901248" lon="10.8445536"><ele>289.0</ele><time>2026-04-03T13:17:31.057Z</time></trkpt><trkpt lat="43.2900907" lon="10.8446346"><ele>289.0</ele><time>2026-04-03T13:17:32.068Z</time></trkpt><trkpt lat="43.2900258" lon="10.8446788"><ele>289.0</ele><time>2026-04-03T13:17:33.053Z</time></trkpt><trkpt lat="43.2899458" lon="10.8446865"><ele>289.0</ele><time>2026-04-03T13:17:34.057Z</time></trkpt><trkpt lat="43.2898719" lon="10.84467"><ele>289.0</ele><time>2026-04-03T13:17:35.065Z</time></trkpt><trkpt lat="43.2897659" lon="10.8446373"><ele>289.0</ele><time>2026-04-03T13:17:37.074Z</time></trkpt><trkpt lat="43.2896512" lon="10.8445848"><ele>289.0</ele><time>2026-04-03T13:17:39.044Z</time></trkpt><trkpt lat="43.2895786" lon="10.8445413"><ele>289.14285714285717</ele><time>2026-04-03T13:17:40.064Z</time></trkpt><trkpt lat="43.2895031" lon="10.844497"><ele>289.2857142857143</ele><time>2026-04-03T13:17:41.067Z</time></trkpt><trkpt lat="43.2894291" lon="10.8444491"><ele>289.42857142857144</ele><time>2026-04-03T13:17:42.059Z</time></trkpt><trkpt lat="43.2893577" lon="10.8444066"><ele>289.57142857142856</ele><time>2026-04-03T13:17:43.046Z</time></trkpt><trkpt lat="43.2892945" lon="10.8443657"><ele>289.7142857142857</ele><time>2026-04-03T13:17:44.071Z</time></trkpt><trkpt lat="43.2892361" lon="10.8443299"><ele>289.8571428571429</ele><time>2026-04-03T13:17:45.056Z</time></trkpt><trkpt lat="43.2891731" lon="10.8442948"><ele>290.0</ele><time>2026-04-03T13:17:46.046Z</time></trkpt><trkpt lat="43.2891071" lon="10.8442667"><ele>290.0</ele><time>2026-04-03T13:17:47.059Z</time></trkpt><trkpt lat="43.2890464" lon="10.8442309"><ele>290.0</ele><time>2026-04-03T13:17:48.046Z</time></trkpt><trkpt lat="43.2889621" lon="10.8441048"><ele>290.0</ele><time>2026-04-03T13:17:50.052Z</time></trkpt><trkpt lat="43.2889553" lon="10.8439423"><ele>290.0</ele><time>2026-04-03T13:17:52.052Z</time></trkpt><trkpt lat="43.2889906" lon="10.8437908"><ele>290.0</ele><time>2026-04-03T13:17:54.058Z</time></trkpt><trkpt lat="43.2890327" lon="10.8436323"><ele>290.0</ele><time>2026-04-03T13:17:56.049Z</time></trkpt><trkpt lat="43.2890709" lon="10.8435492"><ele>290.0</ele><time>2026-04-03T13:17:57.052Z</time></trkpt><trkpt lat="43.2891016" lon="10.8434598"><ele>290.0</ele><time>2026-04-03T13:17:58.05Z</time></trkpt><trkpt lat="43.2891172" lon="10.8433752"><ele>290.0</ele><time>2026-04-03T13:17:59.052Z</time></trkpt><trkpt lat="43.2891278" lon="10.8432796"><ele>290.0</ele><time>2026-04-03T13:18:00.051Z</time></trkpt><trkpt lat="43.2891458" lon="10.8431869"><ele>290.0</ele><time>2026-04-03T13:18:01.042Z</time></trkpt><trkpt lat="43.2891646" lon="10.8430953"><ele>290.0</ele><time>2026-04-03T13:18:02.05Z</time></trkpt><trkpt lat="43.2891798" lon="10.8429985"><ele>287.8</ele><time>2026-04-03T13:18:03.049Z</time></trkpt><trkpt lat="43.2891947" lon="10.8429031"><ele>285.6</ele><time>2026-04-03T13:18:04.064Z</time></trkpt><trkpt lat="43.2892093" lon="10.8428156"><ele>283.4</ele><time>2026-04-03T13:18:05.049Z</time></trkpt><trkpt lat="43.2892451" lon="10.8426533"><ele>281.2</ele><time>2026-04-03T13:18:07.052Z</time></trkpt><trkpt lat="43.2892735" lon="10.8424887"><ele>279.0</ele><time>2026-04-03T13:18:09.054Z</time></trkpt><trkpt lat="43.2892931" lon="10.8423895"><ele>278.0</ele><time>2026-04-03T13:18:10.047Z</time></trkpt><trkpt lat="43.2893111" lon="10.8422782"><ele>277.0</ele><time>2026-04-03T13:18:11.048Z</time></trkpt><trkpt lat="43.2893232" lon="10.8421658"><ele>276.0</ele><time>2026-04-03T13:18:12.05Z</time></trkpt><trkpt lat="43.2893237" lon="10.842061"><ele>275.0</ele><time>2026-04-03T13:18:13.069Z</time></trkpt><trkpt lat="43.2893121" lon="10.8419549"><ele>274.0</ele><time>2026-04-03T13:18:14.065Z</time></trkpt><trkpt lat="43.2892873" lon="10.8418527"><ele>273.0</ele><time>2026-04-03T13:18:15.05Z</time></trkpt><trkpt lat="43.2892541" lon="10.8417603"><ele>272.0</ele><time>2026-04-03T13:18:16.051Z</time></trkpt><trkpt lat="43.289225" lon="10.8416715"><ele>271.0</ele><time>2026-04-03T13:18:17.055Z</time></trkpt><trkpt lat="43.28921" lon="10.8415784"><ele>270.0</ele><time>2026-04-03T13:18:18.044Z</time></trkpt><trkpt lat="43.2892072" lon="10.8414803"><ele>269.0</ele><time>2026-04-03T13:18:19.056Z</time></trkpt><trkpt lat="43.2892117" lon="10.8413803"><ele>268.0</ele><time>2026-04-03T13:18:20.054Z</time></trkpt><trkpt lat="43.2892189" lon="10.8412766"><ele>267.0</ele><time>2026-04-03T13:18:21.045Z</time></trkpt><trkpt lat="43.2892205" lon="10.8411707"><ele>266.0</ele><time>2026-04-03T13:18:22.048Z</time></trkpt><trkpt lat="43.2892093" lon="10.8410657"><ele>265.5</ele><time>2026-04-03T13:18:23.066Z</time></trkpt><trkpt lat="43.2891895" lon="10.8409596"><ele>265.0</ele><time>2026-04-03T13:18:24.046Z</time></trkpt><trkpt lat="43.2891666" lon="10.840852"><ele>264.5</ele><time>2026-04-03T13:18:25.051Z</time></trkpt><trkpt lat="43.2891333" lon="10.840749"><ele>264.0</ele><time>2026-04-03T13:18:26.045Z</time></trkpt><trkpt lat="43.2891105" lon="10.8406412"><ele>263.5</ele><time>2026-04-03T13:18:27.047Z</time></trkpt><trkpt lat="43.2890991" lon="10.8405213"><ele>263.0</ele><time>2026-04-03T13:18:28.051Z</time></trkpt><trkpt lat="43.2890882" lon="10.8403945"><ele>263.0</ele><time>2026-04-03T13:18:29.048Z</time></trkpt><trkpt lat="43.289084" lon="10.8402829"><ele>263.0</ele><time>2026-04-03T13:18:30.055Z</time></trkpt><trkpt lat="43.2890786" lon="10.8401787"><ele>263.0</ele><time>2026-04-03T13:18:31.049Z</time></trkpt><trkpt lat="43.2890789" lon="10.840081"><ele>263.0</ele><time>2026-04-03T13:18:32.054Z</time></trkpt><trkpt lat="43.2890881" lon="10.8399823"><ele>263.0</ele><time>2026-04-03T13:18:33.067Z</time></trkpt><trkpt lat="43.2891131" lon="10.8398901"><ele>263.0</ele><time>2026-04-03T13:18:34.054Z</time></trkpt><trkpt lat="43.2891434" lon="10.8398058"><ele>263.0</ele><time>2026-04-03T13:18:35.05Z</time></trkpt><trkpt lat="43.2891891" lon="10.8397225"><ele>262.0</ele><time>2026-04-03T13:18:36.048Z</time></trkpt><trkpt lat="43.2892403" lon="10.839619"><ele>261.0</ele><time>2026-04-03T13:18:37.047Z</time></trkpt><trkpt lat="43.2892759" lon="10.8395209"><ele>260.0</ele><time>2026-04-03T13:18:38.055Z</time></trkpt><trkpt lat="43.2892953" lon="10.8394174"><ele>259.0</ele><time>2026-04-03T13:18:39.054Z</time></trkpt><trkpt lat="43.2893026" lon="10.839304"><ele>258.0</ele><time>2026-04-03T13:18:40.062Z</time></trkpt><trkpt lat="43.2892849" lon="10.8391581"><ele>257.0</ele><time>2026-04-03T13:18:41.057Z</time></trkpt><trkpt lat="43.2892688" lon="10.8389969"><ele>255.6</ele><time>2026-04-03T13:18:42.048Z</time></trkpt><trkpt lat="43.2892609" lon="10.8388446"><ele>254.2</ele><time>2026-04-03T13:18:43.052Z</time></trkpt><trkpt lat="43.2892569" lon="10.8387101"><ele>252.8</ele><time>2026-04-03T13:18:44.058Z</time></trkpt><trkpt lat="43.2892495" lon="10.8385797"><ele>251.4</ele><time>2026-04-03T13:18:45.044Z</time></trkpt><trkpt lat="43.2892363" lon="10.8384428"><ele>250.0</ele><time>2026-04-03T13:18:46.053Z</time></trkpt><trkpt lat="43.2892173" lon="10.8383012"><ele>249.8</ele><time>2026-04-03T13:18:47.049Z</time></trkpt><trkpt lat="43.289187" lon="10.8381546"><ele>249.6</ele><time>2026-04-03T13:18:48.058Z</time></trkpt><trkpt lat="43.2891567" lon="10.8380081"><ele>249.39999999999998</ele><time>2026-04-03T13:18:49.046Z</time></trkpt><trkpt lat="43.2891333" lon="10.8378636"><ele>249.2</ele><time>2026-04-03T13:18:50.056Z</time></trkpt><trkpt lat="43.2891107" lon="10.8377355"><ele>249.0</ele><time>2026-04-03T13:18:51.045Z</time></trkpt><trkpt lat="43.2890842" lon="10.837617"><ele>249.0</ele><time>2026-04-03T13:18:52.047Z</time></trkpt><trkpt lat="43.289057" lon="10.8375035"><ele>248.99999999999997</ele><time>2026-04-03T13:18:53.066Z</time></trkpt><trkpt lat="43.2890136" lon="10.8373963"><ele>248.99999999999997</ele><time>2026-04-03T13:18:54.047Z</time></trkpt><trkpt lat="43.2889607" lon="10.8373062"><ele>249.0</ele><time>2026-04-03T13:18:55.067Z</time></trkpt><trkpt lat="43.2889106" lon="10.8372352"><ele>249.0</ele><time>2026-04-03T13:18:56.059Z</time></trkpt><trkpt lat="43.288853" lon="10.8370794"><ele>247.16666666666666</ele><time>2026-04-03T13:18:58.05Z</time></trkpt><trkpt lat="43.288827" lon="10.8369894"><ele>245.33333333333331</ele><time>2026-04-03T13:18:59.047Z</time></trkpt><trkpt lat="43.2888053" lon="10.8368976"><ele>243.5</ele><time>2026-04-03T13:19:00.052Z</time></trkpt><trkpt lat="43.2887897" lon="10.8368068"><ele>241.66666666666666</ele><time>2026-04-03T13:19:01.051Z</time></trkpt><trkpt lat="43.2887702" lon="10.8366432"><ele>239.83333333333331</ele><time>2026-04-03T13:19:03.051Z</time></trkpt><trkpt lat="43.2887675" lon="10.8365474"><ele>238.0</ele><time>2026-04-03T13:19:04.046Z</time></trkpt><trkpt lat="43.2887768" lon="10.8364433"><ele>238.0</ele><time>2026-04-03T13:19:05.057Z</time></trkpt><trkpt lat="43.2887986" lon="10.8363542"><ele>238.0</ele><time>2026-04-03T13:19:06.043Z</time></trkpt><trkpt lat="43.2888735" lon="10.8362229"><ele>238.0</ele><time>2026-04-03T13:19:08.052Z</time></trkpt><trkpt lat="43.2889556" lon="10.8361279"><ele>238.0</ele><time>2026-04-03T13:19:10.049Z</time></trkpt><trkpt lat="43.2890484" lon="10.8360637"><ele>238.0</ele><time>2026-04-03T13:19:12.049Z</time></trkpt><trkpt lat="43.289141" lon="10.8359845"><ele>239.0</ele><time>2026-04-03T13:19:14.046Z</time></trkpt><trkpt lat="43.2892309" lon="10.8358954"><ele>240.0</ele><time>2026-04-03T13:19:16.045Z</time></trkpt><trkpt lat="43.2893245" lon="10.835794"><ele>241.0</ele><time>2026-04-03T13:19:18.045Z</time></trkpt><trkpt lat="43.2894048" lon="10.8356908"><ele>242.0</ele><time>2026-04-03T13:19:20.05Z</time></trkpt><trkpt lat="43.2894431" lon="10.8355635"><ele>243.0</ele><time>2026-04-03T13:19:22.051Z</time></trkpt><trkpt lat="43.2894813" lon="10.8354131"><ele>243.0</ele><time>2026-04-03T13:19:24.041Z</time></trkpt><trkpt lat="43.2895595" lon="10.8352845"><ele>243.0</ele><time>2026-04-03T13:19:26.053Z</time></trkpt><trkpt lat="43.2896303" lon="10.8351819"><ele>243.0</ele><time>2026-04-03T13:19:28.05Z</time></trkpt><trkpt lat="43.2896889" lon="10.8350874"><ele>243.0</ele><time>2026-04-03T13:19:30.052Z</time></trkpt><trkpt lat="43.2897313" lon="10.8349674"><ele>243.0</ele><time>2026-04-03T13:19:32.06Z</time></trkpt><trkpt lat="43.2897645" lon="10.8348198"><ele>240.83333333333334</ele><time>2026-04-03T13:19:34.053Z</time></trkpt><trkpt lat="43.289777" lon="10.8347067"><ele>238.66666666666669</ele><time>2026-04-03T13:19:36.05Z</time></trkpt><trkpt lat="43.2897771" lon="10.8345834"><ele>236.5</ele><time>2026-04-03T13:19:38.064Z</time></trkpt><trkpt lat="43.2897781" lon="10.8344646"><ele>234.33333333333334</ele><time>2026-04-03T13:19:40.058Z</time></trkpt><trkpt lat="43.2897827" lon="10.8343582"><ele>232.16666666666669</ele><time>2026-04-03T13:19:43.046Z</time></trkpt><trkpt lat="43.2897865" lon="10.8342646"><ele>230.0</ele><time>2026-04-03T13:19:45.053Z</time></trkpt><trkpt lat="43.2897963" lon="10.8341785"><ele>228.8</ele><time>2026-04-03T13:19:47.022Z</time></trkpt><trkpt lat="43.2897856" lon="10.8340581"><ele>227.6</ele><time>2026-04-03T13:19:50.062Z</time></trkpt><trkpt lat="43.2897711" lon="10.833922"><ele>226.39999999999998</ele><time>2026-04-03T13:19:52.053Z</time></trkpt><trkpt lat="43.2897581" lon="10.8338356"><ele>225.2</ele><time>2026-04-03T13:19:53.055Z</time></trkpt><trkpt lat="43.289728" lon="10.8336866"><ele>224.0</ele><time>2026-04-03T13:19:55.045Z</time></trkpt><trkpt lat="43.2896935" lon="10.8335302"><ele>220.2</ele><time>2026-04-03T13:19:57.046Z</time></trkpt><trkpt lat="43.2896616" lon="10.8333782"><ele>216.39999999999998</ele><time>2026-04-03T13:19:59.055Z</time></trkpt><trkpt lat="43.2896554" lon="10.8332398"><ele>212.6</ele><time>2026-04-03T13:20:01.049Z</time></trkpt><trkpt lat="43.2896841" lon="10.8330776"><ele>208.8</ele><time>2026-04-03T13:20:03.057Z</time></trkpt><trkpt lat="43.2897095" lon="10.8329828"><ele>205.0</ele><time>2026-04-03T13:20:04.042Z</time></trkpt><trkpt lat="43.2897346" lon="10.8328902"><ele>205.0</ele><time>2026-04-03T13:20:05.098Z</time></trkpt><trkpt lat="43.2897554" lon="10.8328"><ele>205.0</ele><time>2026-04-03T13:20:06.048Z</time></trkpt><trkpt lat="43.2897651" lon="10.8327064"><ele>205.0</ele><time>2026-04-03T13:20:07.056Z</time></trkpt><trkpt lat="43.2897754" lon="10.8326207"><ele>205.0</ele><time>2026-04-03T13:20:08.05Z</time></trkpt><trkpt lat="43.2897935" lon="10.8324753"><ele>205.0</ele><time>2026-04-03T13:20:10.048Z</time></trkpt><trkpt lat="43.2897935" lon="10.8323738"><ele>205.0</ele><time>2026-04-03T13:20:12.047Z</time></trkpt><trkpt lat="43.2897518" lon="10.8323075"><ele>205.0</ele><time>2026-04-03T13:20:14.056Z</time></trkpt><trkpt lat="43.2896875" lon="10.8322502"><ele>204.99999999999997</ele><time>2026-04-03T13:20:16.053Z</time></trkpt><trkpt lat="43.2896083" lon="10.8322679"><ele>205.0</ele><time>2026-04-03T13:20:19.118Z</time></trkpt><trkpt lat="43.2895574" lon="10.8323457"><ele>205.0</ele><time>2026-04-03T13:20:20.051Z</time></trkpt><trkpt lat="43.289517" lon="10.8324125"><ele>205.0</ele><time>2026-04-03T13:20:21.06Z</time></trkpt><trkpt lat="43.2894525" lon="10.8325176"><ele>204.99999999999997</ele><time>2026-04-03T13:20:23.045Z</time></trkpt><trkpt lat="43.2893931" lon="10.8325976"><ele>205.0</ele><time>2026-04-03T13:20:25.057Z</time></trkpt><trkpt lat="43.2893365" lon="10.8326556"><ele>203.33333333333331</ele><time>2026-04-03T13:20:27.047Z</time></trkpt><trkpt lat="43.2892738" lon="10.8326016"><ele>201.66666666666666</ele><time>2026-04-03T13:20:29.051Z</time></trkpt><trkpt lat="43.2892374" lon="10.8324852"><ele>200.0</ele><time>2026-04-03T13:20:32.121Z</time></trkpt><trkpt lat="43.2892248" lon="10.8323758"><ele>198.33333333333331</ele><time>2026-04-03T13:20:33.058Z</time></trkpt><trkpt lat="43.2892341" lon="10.8322681"><ele>196.66666666666666</ele><time>2026-04-03T13:20:35.063Z</time></trkpt><trkpt lat="43.2892767" lon="10.8321319"><ele>195.0</ele><time>2026-04-03T13:20:37.057Z</time></trkpt><trkpt lat="43.289289" lon="10.8320189"><ele>195.0</ele><time>2026-04-03T13:20:40.12Z</time></trkpt><trkpt lat="43.2892283" lon="10.8319555"><ele>195.0</ele><time>2026-04-03T13:20:42.09Z</time></trkpt><trkpt lat="43.289146" lon="10.8319417"><ele>195.0</ele><time>2026-04-03T13:20:44.052Z</time></trkpt><trkpt lat="43.2890335" lon="10.831861"><ele>195.0</ele><time>2026-04-03T13:20:46.044Z</time></trkpt><trkpt lat="43.2889787" lon="10.8318148"><ele>195.0</ele><time>2026-04-03T13:20:47.046Z</time></trkpt><trkpt lat="43.2889205" lon="10.8317676"><ele>195.0</ele><time>2026-04-03T13:20:48.041Z</time></trkpt><trkpt lat="43.2888636" lon="10.8317218"><ele>190.83333333333334</ele><time>2026-04-03T13:20:49.041Z</time></trkpt><trkpt lat="43.2887712" lon="10.8316537"><ele>186.66666666666666</ele><time>2026-04-03T13:20:51.057Z</time></trkpt><trkpt lat="43.2887121" lon="10.8316044"><ele>182.5</ele><time>2026-04-03T13:20:53.05Z</time></trkpt><trkpt lat="43.2886514" lon="10.8315656"><ele>178.33333333333331</ele><time>2026-04-03T13:20:56.038Z</time></trkpt><trkpt lat="43.2885956" lon="10.8315248"><ele>174.16666666666666</ele><time>2026-04-03T13:20:58.047Z</time></trkpt><trkpt lat="43.2885324" lon="10.831523"><ele>170.0</ele><time>2026-04-03T13:21:00.635Z</time></trkpt><trkpt lat="43.2884989" lon="10.831395"><ele>170.0</ele><time>2026-04-03T13:21:03.014Z</time></trkpt><trkpt lat="43.2884604" lon="10.8312479"><ele>170.0</ele><time>2026-04-03T13:21:05.045Z</time></trkpt><trkpt lat="43.2884344" lon="10.8311096"><ele>170.0</ele><time>2026-04-03T13:21:07.041Z</time></trkpt><trkpt lat="43.2884466" lon="10.830993"><ele>170.0</ele><time>2026-04-03T13:21:09.041Z</time></trkpt><trkpt lat="43.2884624" lon="10.8308947"><ele>170.0</ele><time>2026-04-03T13:21:11.068Z</time></trkpt><trkpt lat="43.2884693" lon="10.8308"><ele>170.0</ele><time>2026-04-03T13:21:13.05Z</time></trkpt><trkpt lat="43.2884711" lon="10.8307035"><ele>169.16666666666666</ele><time>2026-04-03T13:21:15.048Z</time></trkpt><trkpt lat="43.2884837" lon="10.8306052"><ele>168.33333333333331</ele><time>2026-04-03T13:21:18.11Z</time></trkpt><trkpt lat="43.2885283" lon="10.8305118"><ele>167.5</ele><time>2026-04-03T13:21:20.051Z</time></trkpt><trkpt lat="43.288588" lon="10.8304682"><ele>166.66666666666666</ele><time>2026-04-03T13:21:22.155Z</time></trkpt><trkpt lat="43.2886255" lon="10.8303841"><ele>165.83333333333334</ele><time>2026-04-03T13:21:24.115Z</time></trkpt><trkpt lat="43.2886249" lon="10.8302809"><ele>165.0</ele><time>2026-04-03T13:21:26.071Z</time></trkpt><trkpt lat="43.2886105" lon="10.8301676"><ele>163.5</ele><time>2026-04-03T13:21:28.11Z</time></trkpt><trkpt lat="43.2885675" lon="10.8300635"><ele>162.0</ele><time>2026-04-03T13:21:30.057Z</time></trkpt><trkpt lat="43.2885113" lon="10.8299944"><ele>160.5</ele><time>2026-04-03T13:21:31.815Z</time></trkpt><trkpt lat="43.288453" lon="10.8299008"><ele>159.0</ele><time>2026-04-03T13:21:34.135Z</time></trkpt><trkpt lat="43.2884131" lon="10.8297994"><ele>157.5</ele><time>2026-04-03T13:21:36.113Z</time></trkpt><trkpt lat="43.2884022" lon="10.8296795"><ele>156.0</ele><time>2026-04-03T13:21:38.11Z</time></trkpt><trkpt lat="43.2884105" lon="10.8295733"><ele>156.0</ele><time>2026-04-03T13:21:40.072Z</time></trkpt><trkpt lat="43.2883383" lon="10.8295278"><ele>156.0</ele><time>2026-04-03T13:21:43.11Z</time></trkpt><trkpt lat="43.2882668" lon="10.8295732"><ele>156.0</ele><time>2026-04-03T13:21:46.092Z</time></trkpt><trkpt lat="43.2881929" lon="10.8295824"><ele>156.0</ele><time>2026-04-03T13:21:49.116Z</time></trkpt><trkpt lat="43.2881262" lon="10.8295162"><ele>156.0</ele><time>2026-04-03T13:21:51.056Z</time></trkpt><trkpt lat="43.28806" lon="10.8294893"><ele>156.0</ele><time>2026-04-03T13:21:53.115Z</time></trkpt><trkpt lat="43.2879939" lon="10.8295203"><ele>153.2857142857143</ele><time>2026-04-03T13:21:58.101Z</time></trkpt><trkpt lat="43.2879147" lon="10.8295488"><ele>150.57142857142856</ele><time>2026-04-03T13:22:15.086Z</time></trkpt><trkpt lat="43.2878544" lon="10.8295857"><ele>147.85714285714286</ele><time>2026-04-03T13:22:17.019Z</time></trkpt><trkpt lat="43.2877865" lon="10.8295394"><ele>145.14285714285717</ele><time>2026-04-03T13:22:30.052Z</time></trkpt><trkpt lat="43.2877239" lon="10.8295056"><ele>142.42857142857144</ele><time>2026-04-03T13:22:38.073Z</time></trkpt><trkpt lat="43.287703" lon="10.8294105"><ele>139.71428571428572</ele><time>2026-04-03T13:22:41.069Z</time></trkpt><trkpt lat="43.2876839" lon="10.8293175"><ele>137.0</ele><time>2026-04-03T13:22:44.092Z</time></trkpt><trkpt lat="43.2876515" lon="10.8292154"><ele>136.16666666666666</ele><time>2026-04-03T13:22:47.999Z</time></trkpt><trkpt lat="43.2876028" lon="10.8291374"><ele>135.33333333333331</ele><time>2026-04-03T13:22:52.055Z</time></trkpt><trkpt lat="43.2875237" lon="10.8290934"><ele>134.5</ele><time>2026-04-03T13:22:56.097Z</time></trkpt><trkpt lat="43.2874584" lon="10.8290412"><ele>133.66666666666666</ele><time>2026-04-03T13:22:59.002Z</time></trkpt><trkpt lat="43.2874059" lon="10.8289586"><ele>132.83333333333334</ele><time>2026-04-03T13:23:02.046Z</time></trkpt><trkpt lat="43.2873982" lon="10.8288662"><ele>132.0</ele><time>2026-04-03T13:27:18.042Z</time></trkpt><trkpt lat="43.287419" lon="10.8285534"><ele>130.6</ele><time>2026-04-03T13:27:21.049Z</time></trkpt><trkpt lat="43.2874403" lon="10.8284028"><ele>129.2</ele><time>2026-04-03T13:27:22.046Z</time></trkpt><trkpt lat="43.2874527" lon="10.8282878"><ele>127.8</ele><time>2026-04-03T13:27:23.05Z</time></trkpt><trkpt lat="43.2874592" lon="10.8281956"><ele>126.4</ele><time>2026-04-03T13:27:24.043Z</time></trkpt><trkpt lat="43.2874442" lon="10.8280325"><ele>125.0</ele><time>2026-04-03T13:27:26.045Z</time></trkpt><trkpt lat="43.2874299" lon="10.8278927"><ele>124.99999999999999</ele><time>2026-04-03T13:27:28.042Z</time></trkpt><trkpt lat="43.2874232" lon="10.8277506"><ele>125.0</ele><time>2026-04-03T13:27:30.039Z</time></trkpt><trkpt lat="43.2874078" lon="10.8276401"><ele>125.0</ele><time>2026-04-03T13:27:32.045Z</time></trkpt><trkpt lat="43.2874009" lon="10.8275433"><ele>125.0</ele><time>2026-04-03T13:27:34.063Z</time></trkpt><trkpt lat="43.2874004" lon="10.827455"><ele>124.99999999999999</ele><time>2026-04-03T13:27:36.047Z</time></trkpt><trkpt lat="43.2874034" lon="10.8273483"><ele>125.0</ele><time>2026-04-03T13:27:41.019Z</time></trkpt><trkpt lat="43.2873742" lon="10.8274471"><ele>124.71428571428571</ele><time>2026-04-03T13:28:12.065Z</time></trkpt><trkpt lat="43.2872965" lon="10.8274984"><ele>124.42857142857144</ele><time>2026-04-03T13:28:16.718Z</time></trkpt><trkpt lat="43.2872486" lon="10.827427"><ele>124.14285714285715</ele><time>2026-04-03T13:28:20.047Z</time></trkpt><trkpt lat="43.2871912" lon="10.827367"><ele>123.85714285714286</ele><time>2026-04-03T13:28:24.047Z</time></trkpt><trkpt lat="43.2871185" lon="10.8274014"><ele>123.57142857142858</ele><time>2026-04-03T13:28:36.087Z</time></trkpt><trkpt lat="43.2870632" lon="10.8274438"><ele>123.2857142857143</ele><time>2026-04-03T13:28:39.641Z</time></trkpt><trkpt lat="43.2870089" lon="10.8273918"><ele>123.00000000000001</ele><time>2026-04-03T13:28:44.981Z</time></trkpt><trkpt lat="43.2869495" lon="10.8273289"><ele>123.83333333333333</ele><time>2026-04-03T13:28:51.119Z</time></trkpt><trkpt lat="43.2868821" lon="10.8272768"><ele>124.66666666666666</ele><time>2026-04-03T13:28:54.96Z</time></trkpt><trkpt lat="43.2868024" lon="10.8272602"><ele>125.5</ele><time>2026-04-03T13:28:58.115Z</time></trkpt><trkpt lat="43.286792" lon="10.8271458"><ele>126.33333333333333</ele><time>2026-04-03T13:29:01.136Z</time></trkpt><trkpt lat="43.2867715" lon="10.8270516"><ele>127.16666666666666</ele><time>2026-04-03T13:29:04.077Z</time></trkpt><trkpt lat="43.2867652" lon="10.8269579"><ele>128.0</ele><time>2026-04-03T13:29:21.082Z</time></trkpt><trkpt lat="43.2868717" lon="10.826891"><ele>127.99999999999999</ele><time>2026-04-03T13:29:37.051Z</time></trkpt><trkpt lat="43.2869455" lon="10.8268442"><ele>128.0</ele><time>2026-04-03T13:29:38.139Z</time></trkpt><trkpt lat="43.2869834" lon="10.8269319"><ele>128.0</ele><time>2026-04-03T13:29:41.085Z</time></trkpt><trkpt lat="43.2870851" lon="10.8268923"><ele>128.0</ele><time>2026-04-03T13:29:44.085Z</time></trkpt><trkpt lat="43.2871613" lon="10.8268334"><ele>127.99999999999999</ele><time>2026-04-03T13:29:45.055Z</time></trkpt><trkpt lat="43.2872237" lon="10.8268168"><ele>128.0</ele><time>2026-04-03T13:29:48.085Z</time></trkpt><trkpt lat="43.2871392" lon="10.8269095"><ele>127.99999999999999</ele><time>2026-04-03T13:32:39.13Z</time></trkpt><trkpt lat="43.2871558" lon="10.8270025"><ele>128.0</ele><time>2026-04-03T13:32:42.102Z</time></trkpt><trkpt lat="43.2872384" lon="10.8270378"><ele>128.0</ele><time>2026-04-03T13:32:45.046Z</time></trkpt><trkpt lat="43.287326" lon="10.827073"><ele>128.0</ele><time>2026-04-03T13:32:48.055Z</time></trkpt><trkpt lat="43.2873864" lon="10.8271016"><ele>127.99999999999999</ele><time>2026-04-03T13:32:49.047Z</time></trkpt><trkpt lat="43.28745" lon="10.827131"><ele>128.0</ele><time>2026-04-03T13:32:51.044Z</time></trkpt><trkpt lat="43.2875389" lon="10.8271549"><ele>127.16666666666666</ele><time>2026-04-03T13:32:54.047Z</time></trkpt><trkpt lat="43.2876307" lon="10.8271588"><ele>126.33333333333333</ele><time>2026-04-03T13:32:57.049Z</time></trkpt><trkpt lat="43.2876975" lon="10.8271695"><ele>125.5</ele><time>2026-04-03T13:32:59.052Z</time></trkpt><trkpt lat="43.2877728" lon="10.8271335"><ele>124.66666666666666</ele><time>2026-04-03T13:33:02.053Z</time></trkpt><trkpt lat="43.2878227" lon="10.8270683"><ele>123.83333333333333</ele><time>2026-04-03T13:33:04.046Z</time></trkpt><trkpt lat="43.2878772" lon="10.8270082"><ele>123.0</ele><time>2026-04-03T13:33:06.049Z</time></trkpt><trkpt lat="43.2879179" lon="10.8268978"><ele>123.16666666666667</ele><time>2026-04-03T13:33:09.047Z</time></trkpt><trkpt lat="43.2879105" lon="10.8268101"><ele>123.33333333333334</ele><time>2026-04-03T13:33:11.059Z</time></trkpt><trkpt lat="43.2878376" lon="10.8267399"><ele>123.5</ele><time>2026-04-03T13:33:14.053Z</time></trkpt><trkpt lat="43.287773" lon="10.8267247"><ele>123.66666666666667</ele><time>2026-04-03T13:33:16.044Z</time></trkpt><trkpt lat="43.287705" lon="10.826718"><ele>123.83333333333334</ele><time>2026-04-03T13:33:18.043Z</time></trkpt><trkpt lat="43.2876138" lon="10.8266646"><ele>124.0</ele><time>2026-04-03T13:33:21.05Z</time></trkpt><trkpt lat="43.2875426" lon="10.8266282"><ele>124.00000000000001</ele><time>2026-04-03T13:33:23.054Z</time></trkpt><trkpt lat="43.2874805" lon="10.8265645"><ele>124.0</ele><time>2026-04-03T13:33:25.052Z</time></trkpt><trkpt lat="43.2875091" lon="10.8264804"><ele>124.0</ele><time>2026-04-03T13:33:27.058Z</time></trkpt><trkpt lat="43.2876026" lon="10.8264368"><ele>124.0</ele><time>2026-04-03T13:33:29.052Z</time></trkpt><trkpt lat="43.2877283" lon="10.8263865"><ele>124.00000000000001</ele><time>2026-04-03T13:33:31.051Z</time></trkpt><trkpt lat="43.2877882" lon="10.826345"><ele>124.0</ele><time>2026-04-03T13:33:32.044Z</time></trkpt><trkpt lat="43.287846" lon="10.8263089"><ele>124.00000000000001</ele><time>2026-04-03T13:33:33.055Z</time></trkpt><trkpt lat="43.2879156" lon="10.8262746"><ele>124.0</ele><time>2026-04-03T13:33:34.053Z</time></trkpt><trkpt lat="43.2879842" lon="10.8262648"><ele>124.0</ele><time>2026-04-03T13:33:35.05Z</time></trkpt><trkpt lat="43.2880856" lon="10.8262595"><ele>124.0</ele><time>2026-04-03T13:33:37.048Z</time></trkpt><trkpt lat="43.2881614" lon="10.8262618"><ele>124.00000000000001</ele><time>2026-04-03T13:33:39.056Z</time></trkpt><trkpt lat="43.2882353" lon="10.8262514"><ele>124.0</ele><time>2026-04-03T13:33:42.047Z</time></trkpt><trkpt lat="43.2881016" lon="10.826253"><ele>124.00000000000001</ele><time>2026-04-03T13:38:55.075Z</time></trkpt><trkpt lat="43.288009" lon="10.8262623"><ele>124.0</ele><time>2026-04-03T13:38:56.071Z</time></trkpt><trkpt lat="43.2879288" lon="10.8262824"><ele>124.0</ele><time>2026-04-03T13:38:57.05Z</time></trkpt><trkpt lat="43.2878441" lon="10.8263302"><ele>124.0</ele><time>2026-04-03T13:38:58.051Z</time></trkpt><trkpt lat="43.2877567" lon="10.8263807"><ele>124.00000000000001</ele><time>2026-04-03T13:38:59.047Z</time></trkpt><trkpt lat="43.287675" lon="10.8264229"><ele>124.0</ele><time>2026-04-03T13:39:00.051Z</time></trkpt><trkpt lat="43.2876065" lon="10.8264478"><ele>124.00000000000001</ele><time>2026-04-03T13:39:01.05Z</time></trkpt><trkpt lat="43.2875126" lon="10.8264996"><ele>124.0</ele><time>2026-04-03T13:39:03.06Z</time></trkpt><trkpt lat="43.2875175" lon="10.8266063"><ele>124.0</ele><time>2026-04-03T13:39:06.061Z</time></trkpt><trkpt lat="43.2875902" lon="10.8266585"><ele>124.0</ele><time>2026-04-03T13:39:08.053Z</time></trkpt><trkpt lat="43.2876594" lon="10.8266993"><ele>124.00000000000001</ele><time>2026-04-03T13:39:10.051Z</time></trkpt><trkpt lat="43.2877229" lon="10.8267437"><ele>124.0</ele><time>2026-04-03T13:39:12.054Z</time></trkpt><trkpt lat="43.2877968" lon="10.8267391"><ele>124.00000000000001</ele><time>2026-04-03T13:39:14.049Z</time></trkpt><trkpt lat="43.2878609" lon="10.8267566"><ele>124.0</ele><time>2026-04-03T13:39:16.051Z</time></trkpt><trkpt lat="43.2879193" lon="10.8268328"><ele>124.0</ele><time>2026-04-03T13:39:18.046Z</time></trkpt><trkpt lat="43.2879951" lon="10.8268629"><ele>124.0</ele><time>2026-04-03T13:39:20.051Z</time></trkpt><trkpt lat="43.2880787" lon="10.82686"><ele>124.00000000000001</ele><time>2026-04-03T13:39:22.047Z</time></trkpt><trkpt lat="43.2881662" lon="10.8268489"><ele>124.0</ele><time>2026-04-03T13:39:24.046Z</time></trkpt><trkpt lat="43.2882532" lon="10.826834"><ele>124.16666666666667</ele><time>2026-04-03T13:39:26.044Z</time></trkpt><trkpt lat="43.2883508" lon="10.8268234"><ele>124.33333333333334</ele><time>2026-04-03T13:39:28.049Z</time></trkpt><trkpt lat="43.2884356" lon="10.8268068"><ele>124.5</ele><time>2026-04-03T13:39:30.055Z</time></trkpt><trkpt lat="43.2885096" lon="10.8267761"><ele>124.66666666666666</ele><time>2026-04-03T13:39:32.051Z</time></trkpt><trkpt lat="43.2885826" lon="10.8267241"><ele>124.83333333333333</ele><time>2026-04-03T13:39:35.049Z</time></trkpt><trkpt lat="43.2885683" lon="10.8266181"><ele>125.0</ele><time>2026-04-03T13:39:38.047Z</time></trkpt><trkpt lat="43.2885291" lon="10.8265034"><ele>124.33333333333333</ele><time>2026-04-03T13:39:40.049Z</time></trkpt><trkpt lat="43.2884943" lon="10.8263645"><ele>123.66666666666666</ele><time>2026-04-03T13:39:42.052Z</time></trkpt><trkpt lat="43.2884814" lon="10.8262341"><ele>123.0</ele><time>2026-04-03T13:39:44.05Z</time></trkpt><trkpt lat="43.2885514" lon="10.8261914"><ele>122.33333333333334</ele><time>2026-04-03T13:39:48.047Z</time></trkpt><trkpt lat="43.288613" lon="10.826163"><ele>121.66666666666667</ele><time>2026-04-03T13:40:03.056Z</time></trkpt><trkpt lat="43.288585" lon="10.8260505"><ele>121.0</ele><time>2026-04-03T13:40:11.046Z</time></trkpt><trkpt lat="43.2885293" lon="10.8259998"><ele>121.19999999999999</ele><time>2026-04-03T13:41:10.059Z</time></trkpt><trkpt lat="43.288459" lon="10.825948"><ele>121.39999999999999</ele><time>2026-04-03T13:41:12.052Z</time></trkpt><trkpt lat="43.2883761" lon="10.8259008"><ele>121.6</ele><time>2026-04-03T13:41:14.05Z</time></trkpt><trkpt lat="43.2882744" lon="10.8258508"><ele>121.8</ele><time>2026-04-03T13:41:16.052Z</time></trkpt><trkpt lat="43.2881606" lon="10.8257972"><ele>122.0</ele><time>2026-04-03T13:41:18.045Z</time></trkpt><trkpt lat="43.2880484" lon="10.8257447"><ele>123.16666666666666</ele><time>2026-04-03T13:41:20.059Z</time></trkpt><trkpt lat="43.2879563" lon="10.8256614"><ele>124.33333333333333</ele><time>2026-04-03T13:41:22.049Z</time></trkpt><trkpt lat="43.2879017" lon="10.8256095"><ele>125.5</ele><time>2026-04-03T13:41:23.044Z</time></trkpt><trkpt lat="43.2878431" lon="10.8255466"><ele>126.66666666666666</ele><time>2026-04-03T13:41:24.052Z</time></trkpt><trkpt lat="43.2877839" lon="10.825478"><ele>127.83333333333333</ele><time>2026-04-03T13:41:25.052Z</time></trkpt><trkpt lat="43.2877242" lon="10.8254041"><ele>129.0</ele><time>2026-04-03T13:41:26.055Z</time></trkpt><trkpt lat="43.2876631" lon="10.8253348"><ele>129.0</ele><time>2026-04-03T13:41:27.048Z</time></trkpt><trkpt lat="43.2876153" lon="10.8252564"><ele>129.0</ele><time>2026-04-03T13:41:28.055Z</time></trkpt><trkpt lat="43.2875692" lon="10.8251806"><ele>129.0</ele><time>2026-04-03T13:41:29.055Z</time></trkpt><trkpt lat="43.2874942" lon="10.8250568"><ele>129.0</ele><time>2026-04-03T13:41:31.049Z</time></trkpt><trkpt lat="43.2873993" lon="10.8249648"><ele>129.0</ele><time>2026-04-03T13:41:33.056Z</time></trkpt><trkpt lat="43.2873422" lon="10.8248546"><ele>130.0</ele><time>2026-04-03T13:41:35.041Z</time></trkpt><trkpt lat="43.2873005" lon="10.824782"><ele>131.0</ele><time>2026-04-03T13:41:37.051Z</time></trkpt><trkpt lat="43.2872182" lon="10.8247435"><ele>132.0</ele><time>2026-04-03T13:41:39.043Z</time></trkpt><trkpt lat="43.2871463" lon="10.8247025"><ele>133.0</ele><time>2026-04-03T13:41:41.049Z</time></trkpt><trkpt lat="43.2870764" lon="10.8246293"><ele>134.0</ele><time>2026-04-03T13:41:43.047Z</time></trkpt><trkpt lat="43.2870122" lon="10.8245559"><ele>135.0</ele><time>2026-04-03T13:41:45.048Z</time></trkpt><trkpt lat="43.2869574" lon="10.8244647"><ele>136.83333333333334</ele><time>2026-04-03T13:41:48.061Z</time></trkpt><trkpt lat="43.2869747" lon="10.8243471"><ele>138.66666666666666</ele><time>2026-04-03T13:41:51.055Z</time></trkpt><trkpt lat="43.2870235" lon="10.8242715"><ele>140.5</ele><time>2026-04-03T13:41:53.05Z</time></trkpt><trkpt lat="43.2870772" lon="10.8242103"><ele>142.33333333333331</ele><time>2026-04-03T13:42:52.061Z</time></trkpt><trkpt lat="43.2871006" lon="10.8241229"><ele>144.16666666666666</ele><time>2026-04-03T13:42:54.052Z</time></trkpt><trkpt lat="43.2871365" lon="10.8240106"><ele>146.0</ele><time>2026-04-03T13:42:56.049Z</time></trkpt><trkpt lat="43.2871832" lon="10.8238856"><ele>145.8</ele><time>2026-04-03T13:42:58.059Z</time></trkpt><trkpt lat="43.2872194" lon="10.823813"><ele>145.6</ele><time>2026-04-03T13:42:59.051Z</time></trkpt><trkpt lat="43.2873018" lon="10.8236876"><ele>145.4</ele><time>2026-04-03T13:43:01.038Z</time></trkpt><trkpt lat="43.2873494" lon="10.8235576"><ele>145.2</ele><time>2026-04-03T13:43:03.053Z</time></trkpt><trkpt lat="43.2873619" lon="10.8234186"><ele>145.0</ele><time>2026-04-03T13:43:05.045Z</time></trkpt><trkpt lat="43.2873699" lon="10.8232625"><ele>147.8</ele><time>2026-04-03T13:43:07.047Z</time></trkpt><trkpt lat="43.2873896" lon="10.823112"><ele>150.6</ele><time>2026-04-03T13:43:09.047Z</time></trkpt><trkpt lat="43.2874094" lon="10.8229705"><ele>153.4</ele><time>2026-04-03T13:43:11.049Z</time></trkpt><trkpt lat="43.2873703" lon="10.8228422"><ele>156.2</ele><time>2026-04-03T13:43:13.048Z</time></trkpt><trkpt lat="43.2873098" lon="10.8227309"><ele>159.0</ele><time>2026-04-03T13:43:15.05Z</time></trkpt><trkpt lat="43.287263" lon="10.8226495"><ele>160.0</ele><time>2026-04-03T13:43:17.047Z</time></trkpt><trkpt lat="43.2872382" lon="10.8225554"><ele>161.0</ele><time>2026-04-03T13:43:19.058Z</time></trkpt><trkpt lat="43.2872195" lon="10.822472"><ele>162.0</ele><time>2026-04-03T13:43:22.053Z</time></trkpt><trkpt lat="43.2872273" lon="10.8223821"><ele>163.0</ele><time>2026-04-03T13:43:25.052Z</time></trkpt><trkpt lat="43.2872437" lon="10.8222895"><ele>164.0</ele><time>2026-04-03T13:43:27.049Z</time></trkpt><trkpt lat="43.2872674" lon="10.8221987"><ele>165.0</ele><time>2026-04-03T13:43:29.045Z</time></trkpt><trkpt lat="43.2873023" lon="10.8220979"><ele>166.0</ele><time>2026-04-03T13:43:31.046Z</time></trkpt><trkpt lat="43.2873268" lon="10.8219817"><ele>166.0</ele><time>2026-04-03T13:43:33.053Z</time></trkpt><trkpt lat="43.2873446" lon="10.821858"><ele>166.0</ele><time>2026-04-03T13:43:35.048Z</time></trkpt><trkpt lat="43.2873373" lon="10.8217489"><ele>166.0</ele><time>2026-04-03T13:43:37.043Z</time></trkpt><trkpt lat="43.2872576" lon="10.8216964"><ele>166.0</ele><time>2026-04-03T13:43:39.048Z</time></trkpt><trkpt lat="43.28718" lon="10.8216654"><ele>166.0</ele><time>2026-04-03T13:43:41.059Z</time></trkpt><trkpt lat="43.2871075" lon="10.8216805"><ele>166.0</ele><time>2026-04-03T13:43:43.049Z</time></trkpt><trkpt lat="43.2870514" lon="10.8217203"><ele>170.33333333333334</ele><time>2026-04-03T13:44:22.054Z</time></trkpt><trkpt lat="43.2869644" lon="10.8217648"><ele>174.66666666666669</ele><time>2026-04-03T13:44:25.046Z</time></trkpt><trkpt lat="43.2868818" lon="10.8217476"><ele>179.0</ele><time>2026-04-03T13:44:28.041Z</time></trkpt><trkpt lat="43.2868196" lon="10.8217143"><ele>183.33333333333334</ele><time>2026-04-03T13:44:30.046Z</time></trkpt><trkpt lat="43.28677" lon="10.8216562"><ele>187.66666666666666</ele><time>2026-04-03T13:44:32.042Z</time></trkpt><trkpt lat="43.2867214" lon="10.8215794"><ele>192.0</ele><time>2026-04-03T13:44:34.047Z</time></trkpt><trkpt lat="43.2866773" lon="10.8215071"><ele>192.0</ele><time>2026-04-03T13:44:36.048Z</time></trkpt><trkpt lat="43.2865949" lon="10.8214563"><ele>192.0</ele><time>2026-04-03T13:44:39.043Z</time></trkpt><trkpt lat="43.2865183" lon="10.8214281"><ele>192.0</ele><time>2026-04-03T13:44:42.055Z</time></trkpt><trkpt lat="43.2864384" lon="10.8214618"><ele>192.0</ele><time>2026-04-03T13:44:45.056Z</time></trkpt><trkpt lat="43.286367" lon="10.8214731"><ele>192.0</ele><time>2026-04-03T13:44:47.057Z</time></trkpt><trkpt lat="43.2862867" lon="10.8214269"><ele>192.0</ele><time>2026-04-03T13:44:49.044Z</time></trkpt><trkpt lat="43.2862166" lon="10.8213457"><ele>194.57142857142856</ele><time>2026-04-03T13:44:51.053Z</time></trkpt><trkpt lat="43.2861628" lon="10.8212985"><ele>197.14285714285714</ele><time>2026-04-03T13:44:53.052Z</time></trkpt><trkpt lat="43.2861" lon="10.8212738"><ele>199.71428571428572</ele><time>2026-04-03T13:45:38.056Z</time></trkpt><trkpt lat="43.2860283" lon="10.8212359"><ele>202.28571428571428</ele><time>2026-04-03T13:45:41.053Z</time></trkpt><trkpt lat="43.2859837" lon="10.8212998"><ele>204.85714285714286</ele><time>2026-04-03T13:45:45.046Z</time></trkpt><trkpt lat="43.2859364" lon="10.8213617"><ele>207.42857142857142</ele><time>2026-04-03T13:45:47.056Z</time></trkpt><trkpt lat="43.285864" lon="10.8213693"><ele>210.0</ele><time>2026-04-03T13:45:49.056Z</time></trkpt><trkpt lat="43.2857966" lon="10.8213773"><ele>210.0</ele><time>2026-04-03T13:45:51.049Z</time></trkpt><trkpt lat="43.2857232" lon="10.8214373"><ele>210.0</ele><time>2026-04-03T13:45:54.052Z</time></trkpt><trkpt lat="43.2856664" lon="10.8214863"><ele>210.0</ele><time>2026-04-03T13:45:57.056Z</time></trkpt><trkpt lat="43.2855727" lon="10.8214896"><ele>210.0</ele><time>2026-04-03T13:45:59.039Z</time></trkpt><trkpt lat="43.285478" lon="10.8214671"><ele>210.0</ele><time>2026-04-03T13:46:01.048Z</time></trkpt><trkpt lat="43.2853693" lon="10.8214339"><ele>209.0</ele><time>2026-04-03T13:46:03.043Z</time></trkpt><trkpt lat="43.2852724" lon="10.8213959"><ele>208.0</ele><time>2026-04-03T13:46:05.046Z</time></trkpt><trkpt lat="43.2851853" lon="10.8213383"><ele>207.0</ele><time>2026-04-03T13:46:07.047Z</time></trkpt><trkpt lat="43.2851357" lon="10.8212413"><ele>206.0</ele><time>2026-04-03T13:46:09.063Z</time></trkpt><trkpt lat="43.2851297" lon="10.8211365"><ele>205.0</ele><time>2026-04-03T13:46:11.046Z</time></trkpt><trkpt lat="43.2851449" lon="10.8210212"><ele>204.0</ele><time>2026-04-03T13:46:13.045Z</time></trkpt><trkpt lat="43.2851517" lon="10.8209242"><ele>206.33333333333334</ele><time>2026-04-03T13:46:15.058Z</time></trkpt><trkpt lat="43.285099" lon="10.8208204"><ele>208.66666666666669</ele><time>2026-04-03T13:46:18.049Z</time></trkpt><trkpt lat="43.2850845" lon="10.8207335"><ele>211.0</ele><time>2026-04-03T13:46:20.058Z</time></trkpt><trkpt lat="43.2850388" lon="10.8206333"><ele>213.33333333333334</ele><time>2026-04-03T13:46:23.062Z</time></trkpt><trkpt lat="43.2850055" lon="10.8205266"><ele>215.66666666666669</ele><time>2026-04-03T13:46:26.05Z</time></trkpt><trkpt lat="43.2849596" lon="10.8204539"><ele>218.0</ele><time>2026-04-03T13:46:28.048Z</time></trkpt><trkpt lat="43.2849039" lon="10.8203833"><ele>218.0</ele><time>2026-04-03T13:46:30.047Z</time></trkpt><trkpt lat="43.2848647" lon="10.8203144"><ele>218.0</ele><time>2026-04-03T13:46:32.063Z</time></trkpt><trkpt lat="43.2848372" lon="10.8202222"><ele>218.0</ele><time>2026-04-03T13:46:34.051Z</time></trkpt><trkpt lat="43.2848036" lon="10.820141"><ele>229.0</ele><time>2026-04-03T13:46:36.043Z</time></trkpt></trkseg><trkseg><trkpt lat="43.2854573" lon="10.8180655"><ele>240.0</ele><time>2026-04-03T14:11:28.068Z</time></trkpt><trkpt lat="43.2854998" lon="10.8179997"><ele>240.0</ele><time>2026-04-03T14:11:39.103Z</time></trkpt><trkpt lat="43.2855287" lon="10.8179135"><ele>240.0</ele><time>2026-04-03T14:11:50.082Z</time></trkpt><trkpt lat="43.2855377" lon="10.8178137"><ele>240.0</ele><time>2026-04-03T14:11:57.078Z</time></trkpt><trkpt lat="43.2855888" lon="10.817746"><ele>240.0</ele><time>2026-04-03T14:12:09.099Z</time></trkpt><trkpt lat="43.2856502" lon="10.8176624"><ele>240.0</ele><time>2026-04-03T14:12:16.109Z</time></trkpt><trkpt lat="43.2856566" lon="10.8175402"><ele>240.66666666666666</ele><time>2026-04-03T14:12:19.09Z</time></trkpt><trkpt lat="43.2857236" lon="10.8174944"><ele>241.33333333333331</ele><time>2026-04-03T14:14:00.99Z</time></trkpt><trkpt lat="43.2857804" lon="10.8174471"><ele>242.0</ele><time>2026-04-03T14:14:02.994Z</time></trkpt><trkpt lat="43.2858496" lon="10.8173894"><ele>242.66666666666666</ele><time>2026-04-03T14:14:04.999Z</time></trkpt><trkpt lat="43.2859137" lon="10.8173366"><ele>243.33333333333331</ele><time>2026-04-03T14:14:08.981Z</time></trkpt><trkpt lat="43.2858876" lon="10.8172324"><ele>244.0</ele><time>2026-04-03T14:14:14.019Z</time></trkpt><trkpt lat="43.2858892" lon="10.8171226"><ele>243.99999999999997</ele><time>2026-04-03T14:14:28.016Z</time></trkpt><trkpt lat="43.2858661" lon="10.8170147"><ele>244.0</ele><time>2026-04-03T14:14:30.992Z</time></trkpt><trkpt lat="43.285846" lon="10.8168941"><ele>244.0</ele><time>2026-04-03T14:14:33.995Z</time></trkpt><trkpt lat="43.2858011" lon="10.81679"><ele>244.0</ele><time>2026-04-03T14:14:36.984Z</time></trkpt><trkpt lat="43.2857671" lon="10.8167105"><ele>243.99999999999997</ele><time>2026-04-03T14:14:38.992Z</time></trkpt><trkpt lat="43.2857288" lon="10.8166327"><ele>244.0</ele><time>2026-04-03T14:14:40.998Z</time></trkpt><trkpt lat="43.2856949" lon="10.8165144"><ele>245.16666666666666</ele><time>2026-04-03T14:14:43.99Z</time></trkpt><trkpt lat="43.2856998" lon="10.816406"><ele>246.33333333333331</ele><time>2026-04-03T14:14:46.011Z</time></trkpt><trkpt lat="43.2856714" lon="10.8162886"><ele>247.5</ele><time>2026-04-03T14:14:48.991Z</time></trkpt><trkpt lat="43.2856055" lon="10.8162045"><ele>248.66666666666669</ele><time>2026-04-03T14:14:51.981Z</time></trkpt><trkpt lat="43.2855259" lon="10.816154"><ele>249.83333333333334</ele><time>2026-04-03T14:14:54.985Z</time></trkpt><trkpt lat="43.2855105" lon="10.816047"><ele>251.0</ele><time>2026-04-03T14:16:26.989Z</time></trkpt><trkpt lat="43.2855531" lon="10.815961"><ele>251.83333333333334</ele><time>2026-04-03T14:16:30.982Z</time></trkpt><trkpt lat="43.2856177" lon="10.8159169"><ele>252.66666666666669</ele><time>2026-04-03T14:16:32.993Z</time></trkpt><trkpt lat="43.2856804" lon="10.8158476"><ele>253.5</ele><time>2026-04-03T14:16:34.986Z</time></trkpt><trkpt lat="43.2857367" lon="10.8157775"><ele>254.33333333333331</ele><time>2026-04-03T14:16:36.98Z</time></trkpt><trkpt lat="43.2857734" lon="10.815703"><ele>255.16666666666666</ele><time>2026-04-03T14:16:38.987Z</time></trkpt><trkpt lat="43.2857762" lon="10.8156019"><ele>256.0</ele><time>2026-04-03T14:16:40.997Z</time></trkpt><trkpt lat="43.285747" lon="10.8154691"><ele>256.0</ele><time>2026-04-03T14:16:42.99Z</time></trkpt><trkpt lat="43.2857002" lon="10.8153426"><ele>256.0</ele><time>2026-04-03T14:16:45.007Z</time></trkpt><trkpt lat="43.285663" lon="10.8152244"><ele>256.0</ele><time>2026-04-03T14:16:46.989Z</time></trkpt><trkpt lat="43.2857156" lon="10.8151362"><ele>256.0</ele><time>2026-04-03T14:16:49.983Z</time></trkpt><trkpt lat="43.2858021" lon="10.815071"><ele>256.0</ele><time>2026-04-03T14:16:51.991Z</time></trkpt><trkpt lat="43.2858984" lon="10.8150145"><ele>257.66666666666663</ele><time>2026-04-03T14:16:54.006Z</time></trkpt><trkpt lat="43.2859853" lon="10.8149649"><ele>259.3333333333333</ele><time>2026-04-03T14:16:55.991Z</time></trkpt><trkpt lat="43.2860654" lon="10.8149046"><ele>261.0</ele><time>2026-04-03T14:16:57.985Z</time></trkpt><trkpt lat="43.2861297" lon="10.8148381"><ele>262.6666666666667</ele><time>2026-04-03T14:16:59.99Z</time></trkpt><trkpt lat="43.2861794" lon="10.81477"><ele>264.33333333333337</ele><time>2026-04-03T14:17:02.986Z</time></trkpt><trkpt lat="43.2862333" lon="10.8146963"><ele>266.0</ele><time>2026-04-03T14:17:09.985Z</time></trkpt><trkpt lat="43.2861843" lon="10.8147577"><ele>266.0</ele><time>2026-04-03T14:17:25.989Z</time></trkpt><trkpt lat="43.2861086" lon="10.8147331"><ele>266.0</ele><time>2026-04-03T14:17:28.004Z</time></trkpt><trkpt lat="43.2860955" lon="10.8146482"><ele>266.0</ele><time>2026-04-03T14:17:35.987Z</time></trkpt><trkpt lat="43.2861693" lon="10.8145743"><ele>266.0</ele><time>2026-04-03T14:18:38.996Z</time></trkpt><trkpt lat="43.2862114" lon="10.8144856"><ele>266.0</ele><time>2026-04-03T14:18:40.014Z</time></trkpt><trkpt lat="43.2862536" lon="10.8143679"><ele>266.0</ele><time>2026-04-03T14:18:40.996Z</time></trkpt><trkpt lat="43.2863069" lon="10.814225"><ele>262.33333333333337</ele><time>2026-04-03T14:18:41.998Z</time></trkpt><trkpt lat="43.2864645" lon="10.8139731"><ele>258.6666666666667</ele><time>2026-04-03T14:18:43.999Z</time></trkpt><trkpt lat="43.2865627" lon="10.8138786"><ele>255.0</ele><time>2026-04-03T14:18:44.996Z</time></trkpt><trkpt lat="43.2866615" lon="10.8137884"><ele>255.0</ele><time>2026-04-03T14:18:45.982Z</time></trkpt><trkpt lat="43.2867528" lon="10.8136945"><ele>255.0</ele><time>2026-04-03T14:18:46.993Z</time></trkpt><trkpt lat="43.2868344" lon="10.8135997"><ele>255.0</ele><time>2026-04-03T14:18:47.992Z</time></trkpt><trkpt lat="43.28691" lon="10.8135053"><ele>255.0</ele><time>2026-04-03T14:18:48.992Z</time></trkpt><trkpt lat="43.2869774" lon="10.8134109"><ele>255.0</ele><time>2026-04-03T14:18:50.017Z</time></trkpt><trkpt lat="43.2870349" lon="10.8133233"><ele>256.0</ele><time>2026-04-03T14:18:50.988Z</time></trkpt><trkpt lat="43.2870593" lon="10.8132225"><ele>257.0</ele><time>2026-04-03T14:18:52.009Z</time></trkpt><trkpt lat="43.2870507" lon="10.8131123"><ele>258.0</ele><time>2026-04-03T14:18:52.99Z</time></trkpt><trkpt lat="43.2870135" lon="10.8129973"><ele>259.0</ele><time>2026-04-03T14:18:53.995Z</time></trkpt><trkpt lat="43.2869707" lon="10.8128783"><ele>260.0</ele><time>2026-04-03T14:18:54.989Z</time></trkpt><trkpt lat="43.2869327" lon="10.8127483"><ele>261.0</ele><time>2026-04-03T14:18:55.992Z</time></trkpt><trkpt lat="43.2869069" lon="10.812607"><ele>261.6</ele><time>2026-04-03T14:18:56.982Z</time></trkpt><trkpt lat="43.2868963" lon="10.8124627"><ele>262.20000000000005</ele><time>2026-04-03T14:18:57.995Z</time></trkpt><trkpt lat="43.2868977" lon="10.8123254"><ele>262.79999999999995</ele><time>2026-04-03T14:18:58.983Z</time></trkpt><trkpt lat="43.2869354" lon="10.8122009"><ele>263.4</ele><time>2026-04-03T14:18:59.983Z</time></trkpt><trkpt lat="43.2869831" lon="10.8120754"><ele>264.0</ele><time>2026-04-03T14:19:00.983Z</time></trkpt><trkpt lat="43.2870564" lon="10.8119684"><ele>264.0</ele><time>2026-04-03T14:19:01.987Z</time></trkpt><trkpt lat="43.2871472" lon="10.8118743"><ele>264.0</ele><time>2026-04-03T14:19:02.985Z</time></trkpt><trkpt lat="43.2872503" lon="10.8118023"><ele>264.0</ele><time>2026-04-03T14:19:03.983Z</time></trkpt><trkpt lat="43.2873615" lon="10.811747"><ele>264.0</ele><time>2026-04-03T14:19:04.986Z</time></trkpt><trkpt lat="43.2874802" lon="10.811711"><ele>260.5</ele><time>2026-04-03T14:19:05.99Z</time></trkpt><trkpt lat="43.2876026" lon="10.8116805"><ele>257.0</ele><time>2026-04-03T14:19:06.985Z</time></trkpt><trkpt lat="43.2877199" lon="10.8116233"><ele>253.5</ele><time>2026-04-03T14:19:07.991Z</time></trkpt><trkpt lat="43.2878331" lon="10.8115393"><ele>250.0</ele><time>2026-04-03T14:19:08.984Z</time></trkpt><trkpt lat="43.2879391" lon="10.8114465"><ele>250.0</ele><time>2026-04-03T14:19:09.985Z</time></trkpt><trkpt lat="43.2880385" lon="10.8113497"><ele>250.0</ele><time>2026-04-03T14:19:10.984Z</time></trkpt><trkpt lat="43.2881243" lon="10.8112425"><ele>250.0</ele><time>2026-04-03T14:19:11.982Z</time></trkpt><trkpt lat="43.2881943" lon="10.8111191"><ele>250.0</ele><time>2026-04-03T14:19:12.983Z</time></trkpt><trkpt lat="43.2882488" lon="10.8109773"><ele>248.0</ele><time>2026-04-03T14:19:13.992Z</time></trkpt><trkpt lat="43.2882825" lon="10.8108187"><ele>246.0</ele><time>2026-04-03T14:19:14.993Z</time></trkpt><trkpt lat="43.2882975" lon="10.8106433"><ele>244.0</ele><time>2026-04-03T14:19:15.983Z</time></trkpt><trkpt lat="43.2882965" lon="10.8104599"><ele>242.0</ele><time>2026-04-03T14:19:16.983Z</time></trkpt><trkpt lat="43.2883029" lon="10.8102733"><ele>243.25</ele><time>2026-04-03T14:19:17.998Z</time></trkpt><trkpt lat="43.2883217" lon="10.8100903"><ele>244.5</ele><time>2026-04-03T14:19:18.991Z</time></trkpt><trkpt lat="43.2883493" lon="10.8099097"><ele>245.75</ele><time>2026-04-03T14:19:19.986Z</time></trkpt><trkpt lat="43.2883861" lon="10.8097349"><ele>247.0</ele><time>2026-04-03T14:19:20.991Z</time></trkpt><trkpt lat="43.2884275" lon="10.8095689"><ele>247.0</ele><time>2026-04-03T14:19:21.987Z</time></trkpt><trkpt lat="43.2884681" lon="10.809412"><ele>247.0</ele><time>2026-04-03T14:19:22.989Z</time></trkpt><trkpt lat="43.2885042" lon="10.8092685"><ele>247.0</ele><time>2026-04-03T14:19:23.989Z</time></trkpt><trkpt lat="43.2885382" lon="10.8091422"><ele>247.0</ele><time>2026-04-03T14:19:24.987Z</time></trkpt><trkpt lat="43.2885697" lon="10.8090363"><ele>247.0</ele><time>2026-04-03T14:19:25.988Z</time></trkpt><trkpt lat="43.2886544" lon="10.8089682"><ele>247.0</ele><time>2026-04-03T14:19:27.989Z</time></trkpt><trkpt lat="43.2887094" lon="10.8090228"><ele>247.0</ele><time>2026-04-03T14:19:28.984Z</time></trkpt><trkpt lat="43.2887442" lon="10.809107"><ele>247.0</ele><time>2026-04-03T14:19:29.981Z</time></trkpt><trkpt lat="43.2887738" lon="10.809228"><ele>247.0</ele><time>2026-04-03T14:19:30.984Z</time></trkpt><trkpt lat="43.2887693" lon="10.8093829"><ele>247.0</ele><time>2026-04-03T14:19:31.991Z</time></trkpt><trkpt lat="43.2887572" lon="10.8095318"><ele>247.0</ele><time>2026-04-03T14:19:32.986Z</time></trkpt><trkpt lat="43.2887362" lon="10.8096803"><ele>247.0</ele><time>2026-04-03T14:19:33.99Z</time></trkpt><trkpt lat="43.2887135" lon="10.8098386"><ele>247.0</ele><time>2026-04-03T14:19:34.997Z</time></trkpt><trkpt lat="43.2887" lon="10.8100014"><ele>247.0</ele><time>2026-04-03T14:19:35.979Z</time></trkpt><trkpt lat="43.2886949" lon="10.8101731"><ele>245.75</ele><time>2026-04-03T14:19:36.987Z</time></trkpt><trkpt lat="43.2887217" lon="10.8103425"><ele>244.5</ele><time>2026-04-03T14:19:37.982Z</time></trkpt><trkpt lat="43.288763" lon="10.8105096"><ele>243.25</ele><time>2026-04-03T14:19:38.983Z</time></trkpt><trkpt lat="43.2888052" lon="10.8106805"><ele>242.0</ele><time>2026-04-03T14:19:39.982Z</time></trkpt><trkpt lat="43.2888463" lon="10.8108465"><ele>241.0</ele><time>2026-04-03T14:19:40.986Z</time></trkpt><trkpt lat="43.2888826" lon="10.810997"><ele>240.0</ele><time>2026-04-03T14:19:41.985Z</time></trkpt><trkpt lat="43.2889085" lon="10.8111289"><ele>239.0</ele><time>2026-04-03T14:19:42.978Z</time></trkpt><trkpt lat="43.2889056" lon="10.8112631"><ele>238.0</ele><time>2026-04-03T14:19:43.985Z</time></trkpt><trkpt lat="43.288895" lon="10.8113889"><ele>237.0</ele><time>2026-04-03T14:19:44.986Z</time></trkpt><trkpt lat="43.2888752" lon="10.8115033"><ele>237.0</ele><time>2026-04-03T14:19:45.982Z</time></trkpt><trkpt lat="43.2888621" lon="10.8116088"><ele>237.0</ele><time>2026-04-03T14:19:46.986Z</time></trkpt><trkpt lat="43.2888687" lon="10.8117005"><ele>237.0</ele><time>2026-04-03T14:19:47.983Z</time></trkpt><trkpt lat="43.2889526" lon="10.8118047"><ele>237.0</ele><time>2026-04-03T14:19:49.982Z</time></trkpt><trkpt lat="43.2890137" lon="10.8117802"><ele>237.0</ele><time>2026-04-03T14:19:50.986Z</time></trkpt><trkpt lat="43.2890727" lon="10.8117318"><ele>237.0</ele><time>2026-04-03T14:19:51.98Z</time></trkpt><trkpt lat="43.289118" lon="10.8116254"><ele>234.25</ele><time>2026-04-03T14:19:52.998Z</time></trkpt><trkpt lat="43.2891639" lon="10.8114991"><ele>231.5</ele><time>2026-04-03T14:19:53.986Z</time></trkpt><trkpt lat="43.2892148" lon="10.8113532"><ele>228.75</ele><time>2026-04-03T14:19:54.989Z</time></trkpt><trkpt lat="43.2892679" lon="10.8111928"><ele>226.0</ele><time>2026-04-03T14:19:55.99Z</time></trkpt><trkpt lat="43.289321" lon="10.8110322"><ele>226.20000000000002</ele><time>2026-04-03T14:19:56.984Z</time></trkpt><trkpt lat="43.2893672" lon="10.8108854"><ele>226.40000000000003</ele><time>2026-04-03T14:19:57.997Z</time></trkpt><trkpt lat="43.2893944" lon="10.810751"><ele>226.6</ele><time>2026-04-03T14:19:58.99Z</time></trkpt><trkpt lat="43.289392" lon="10.8106174"><ele>226.8</ele><time>2026-04-03T14:19:59.987Z</time></trkpt><trkpt lat="43.2893598" lon="10.8104817"><ele>227.0</ele><time>2026-04-03T14:20:00.99Z</time></trkpt><trkpt lat="43.2893379" lon="10.8103465"><ele>227.0</ele><time>2026-04-03T14:20:01.996Z</time></trkpt><trkpt lat="43.2893267" lon="10.8102077"><ele>227.0</ele><time>2026-04-03T14:20:02.982Z</time></trkpt><trkpt lat="43.2893702" lon="10.810071"><ele>227.0</ele><time>2026-04-03T14:20:03.986Z</time></trkpt><trkpt lat="43.2894331" lon="10.8099429"><ele>227.0</ele><time>2026-04-03T14:20:04.982Z</time></trkpt><trkpt lat="43.2895039" lon="10.8098214"><ele>227.0</ele><time>2026-04-03T14:20:05.984Z</time></trkpt><trkpt lat="43.2895794" lon="10.8097125"><ele>227.0</ele><time>2026-04-03T14:20:06.993Z</time></trkpt><trkpt lat="43.2896624" lon="10.8096322"><ele>227.0</ele><time>2026-04-03T14:20:07.991Z</time></trkpt><trkpt lat="43.2897545" lon="10.8095781"><ele>227.0</ele><time>2026-04-03T14:20:08.984Z</time></trkpt><trkpt lat="43.2898529" lon="10.8095245"><ele>227.0</ele><time>2026-04-03T14:20:09.991Z</time></trkpt><trkpt lat="43.289945" lon="10.8094615"><ele>227.0</ele><time>2026-04-03T14:20:10.984Z</time></trkpt><trkpt lat="43.2900021" lon="10.8093399"><ele>223.5</ele><time>2026-04-03T14:20:11.989Z</time></trkpt><trkpt lat="43.2900344" lon="10.8091882"><ele>220.0</ele><time>2026-04-03T14:20:12.99Z</time></trkpt><trkpt lat="43.2900526" lon="10.8090221"><ele>216.5</ele><time>2026-04-03T14:20:13.984Z</time></trkpt><trkpt lat="43.2900776" lon="10.8088563"><ele>213.0</ele><time>2026-04-03T14:20:14.985Z</time></trkpt><trkpt lat="43.2901164" lon="10.8086992"><ele>213.0</ele><time>2026-04-03T14:20:15.995Z</time></trkpt><trkpt lat="43.2901771" lon="10.8085594"><ele>213.0</ele><time>2026-04-03T14:20:16.983Z</time></trkpt><trkpt lat="43.2902643" lon="10.8084347"><ele>213.0</ele><time>2026-04-03T14:20:17.987Z</time></trkpt><trkpt lat="43.2903591" lon="10.8083185"><ele>213.0</ele><time>2026-04-03T14:20:18.995Z</time></trkpt><trkpt lat="43.2904426" lon="10.8082026"><ele>213.25</ele><time>2026-04-03T14:20:19.988Z</time></trkpt><trkpt lat="43.2905122" lon="10.8080734"><ele>213.5</ele><time>2026-04-03T14:20:20.985Z</time></trkpt><trkpt lat="43.2905671" lon="10.8079227"><ele>213.75</ele><time>2026-04-03T14:20:21.985Z</time></trkpt><trkpt lat="43.2906067" lon="10.8077529"><ele>214.0</ele><time>2026-04-03T14:20:22.987Z</time></trkpt><trkpt lat="43.2906388" lon="10.8075795"><ele>210.5</ele><time>2026-04-03T14:20:23.993Z</time></trkpt><trkpt lat="43.2906632" lon="10.8074132"><ele>207.0</ele><time>2026-04-03T14:20:24.997Z</time></trkpt><trkpt lat="43.2906762" lon="10.8072547"><ele>203.5</ele><time>2026-04-03T14:20:25.998Z</time></trkpt><trkpt lat="43.2906816" lon="10.8071024"><ele>200.0</ele><time>2026-04-03T14:20:26.99Z</time></trkpt><trkpt lat="43.290679" lon="10.8069504"><ele>199.66666666666669</ele><time>2026-04-03T14:20:27.994Z</time></trkpt><trkpt lat="43.2906696" lon="10.8068025"><ele>199.33333333333334</ele><time>2026-04-03T14:20:28.989Z</time></trkpt><trkpt lat="43.2906643" lon="10.8066687"><ele>199.0</ele><time>2026-04-03T14:20:30Z</time></trkpt><trkpt lat="43.2906759" lon="10.8065612"><ele>198.66666666666669</ele><time>2026-04-03T14:20:30.987Z</time></trkpt><trkpt lat="43.2907145" lon="10.8064864"><ele>198.33333333333334</ele><time>2026-04-03T14:20:31.985Z</time></trkpt><trkpt lat="43.2907748" lon="10.8064557"><ele>198.0</ele><time>2026-04-03T14:20:32.985Z</time></trkpt><trkpt lat="43.2908434" lon="10.8064728"><ele>198.0</ele><time>2026-04-03T14:20:33.987Z</time></trkpt><trkpt lat="43.2909085" lon="10.8065349"><ele>198.0</ele><time>2026-04-03T14:20:34.983Z</time></trkpt><trkpt lat="43.2909721" lon="10.8066205"><ele>198.0</ele><time>2026-04-03T14:20:35.985Z</time></trkpt><trkpt lat="43.2910264" lon="10.8067439"><ele>198.0</ele><time>2026-04-03T14:20:36.992Z</time></trkpt><trkpt lat="43.2910728" lon="10.806881"><ele>198.0</ele><time>2026-04-03T14:20:37.989Z</time></trkpt><trkpt lat="43.291113" lon="10.8070221"><ele>198.5</ele><time>2026-04-03T14:20:38.981Z</time></trkpt><trkpt lat="43.2911383" lon="10.8071791"><ele>199.0</ele><time>2026-04-03T14:20:39.992Z</time></trkpt><trkpt lat="43.291165" lon="10.8073369"><ele>199.5</ele><time>2026-04-03T14:20:40.985Z</time></trkpt><trkpt lat="43.2911941" lon="10.8074969"><ele>200.0</ele><time>2026-04-03T14:20:41.999Z</time></trkpt><trkpt lat="43.2912221" lon="10.8076522"><ele>199.2</ele><time>2026-04-03T14:20:43.001Z</time></trkpt><trkpt lat="43.2912497" lon="10.8078001"><ele>198.4</ele><time>2026-04-03T14:20:43.986Z</time></trkpt><trkpt lat="43.2912792" lon="10.8079426"><ele>197.60000000000002</ele><time>2026-04-03T14:20:44.992Z</time></trkpt><trkpt lat="43.2913076" lon="10.8080779"><ele>196.8</ele><time>2026-04-03T14:20:45.996Z</time></trkpt><trkpt lat="43.2913292" lon="10.808207"><ele>196.0</ele><time>2026-04-03T14:20:46.987Z</time></trkpt><trkpt lat="43.2913296" lon="10.8083302"><ele>196.0</ele><time>2026-04-03T14:20:47.99Z</time></trkpt><trkpt lat="43.291297" lon="10.8084412"><ele>196.0</ele><time>2026-04-03T14:20:49.043Z</time></trkpt><trkpt lat="43.2912318" lon="10.8085362"><ele>196.0</ele><time>2026-04-03T14:20:50.004Z</time></trkpt><trkpt lat="43.2911693" lon="10.8086418"><ele>196.0</ele><time>2026-04-03T14:20:50.985Z</time></trkpt><trkpt lat="43.2911198" lon="10.8087716"><ele>196.0</ele><time>2026-04-03T14:20:51.987Z</time></trkpt><trkpt lat="43.2910776" lon="10.8089067"><ele>195.0</ele><time>2026-04-03T14:20:52.984Z</time></trkpt><trkpt lat="43.291048" lon="10.8090434"><ele>194.0</ele><time>2026-04-03T14:20:53.989Z</time></trkpt><trkpt lat="43.2910248" lon="10.809176"><ele>193.0</ele><time>2026-04-03T14:20:54.999Z</time></trkpt><trkpt lat="43.2910276" lon="10.8093156"><ele>192.0</ele><time>2026-04-03T14:20:56.046Z</time></trkpt><trkpt lat="43.2910439" lon="10.8094555"><ele>191.0</ele><time>2026-04-03T14:20:56.986Z</time></trkpt><trkpt lat="43.2910661" lon="10.8096024"><ele>190.8</ele><time>2026-04-03T14:20:57.996Z</time></trkpt><trkpt lat="43.2910979" lon="10.8097338"><ele>190.60000000000002</ele><time>2026-04-03T14:20:58.991Z</time></trkpt><trkpt lat="43.2911453" lon="10.8098506"><ele>190.4</ele><time>2026-04-03T14:21:00.013Z</time></trkpt><trkpt lat="43.2912114" lon="10.8099616"><ele>190.2</ele><time>2026-04-03T14:21:01.01Z</time></trkpt><trkpt lat="43.2912908" lon="10.8100772"><ele>190.0</ele><time>2026-04-03T14:21:01.99Z</time></trkpt><trkpt lat="43.2913613" lon="10.8102"><ele>190.6</ele><time>2026-04-03T14:21:02.989Z</time></trkpt><trkpt lat="43.291418" lon="10.8103209"><ele>191.2</ele><time>2026-04-03T14:21:03.988Z</time></trkpt><trkpt lat="43.2914726" lon="10.8104341"><ele>191.8</ele><time>2026-04-03T14:21:04.992Z</time></trkpt><trkpt lat="43.2915322" lon="10.8105375"><ele>192.4</ele><time>2026-04-03T14:21:05.982Z</time></trkpt><trkpt lat="43.2916022" lon="10.8106253"><ele>193.0</ele><time>2026-04-03T14:21:06.986Z</time></trkpt><trkpt lat="43.2916859" lon="10.8106922"><ele>189.75</ele><time>2026-04-03T14:21:07.984Z</time></trkpt><trkpt lat="43.2917818" lon="10.8107396"><ele>186.5</ele><time>2026-04-03T14:21:08.978Z</time></trkpt><trkpt lat="43.2918896" lon="10.8107671"><ele>183.25</ele><time>2026-04-03T14:21:09.982Z</time></trkpt><trkpt lat="43.2920076" lon="10.8107784"><ele>180.0</ele><time>2026-04-03T14:21:10.981Z</time></trkpt><trkpt lat="43.2921328" lon="10.8107682"><ele>177.5</ele><time>2026-04-03T14:21:11.982Z</time></trkpt><trkpt lat="43.2922609" lon="10.8107605"><ele>175.0</ele><time>2026-04-03T14:21:12.998Z</time></trkpt><trkpt lat="43.2923803" lon="10.8107597"><ele>172.5</ele><time>2026-04-03T14:21:13.995Z</time></trkpt><trkpt lat="43.2924902" lon="10.8107714"><ele>170.0</ele><time>2026-04-03T14:21:14.984Z</time></trkpt><trkpt lat="43.2925954" lon="10.8107994"><ele>170.0</ele><time>2026-04-03T14:21:15.993Z</time></trkpt><trkpt lat="43.2926957" lon="10.8108395"><ele>170.0</ele><time>2026-04-03T14:21:16.983Z</time></trkpt><trkpt lat="43.2928003" lon="10.8108839"><ele>170.0</ele><time>2026-04-03T14:21:17.987Z</time></trkpt><trkpt lat="43.292908" lon="10.8109286"><ele>170.0</ele><time>2026-04-03T14:21:18.985Z</time></trkpt><trkpt lat="43.293024" lon="10.8109731"><ele>170.0</ele><time>2026-04-03T14:21:19.983Z</time></trkpt><trkpt lat="43.2931379" lon="10.8110178"><ele>167.8</ele><time>2026-04-03T14:21:20.989Z</time></trkpt><trkpt lat="43.2932451" lon="10.8110651"><ele>165.6</ele><time>2026-04-03T14:21:21.99Z</time></trkpt><trkpt lat="43.2933448" lon="10.8111211"><ele>163.4</ele><time>2026-04-03T14:21:22.983Z</time></trkpt><trkpt lat="43.2934383" lon="10.8111854"><ele>161.2</ele><time>2026-04-03T14:21:23.986Z</time></trkpt><trkpt lat="43.2935272" lon="10.811248"><ele>159.0</ele><time>2026-04-03T14:21:24.985Z</time></trkpt><trkpt lat="43.2936147" lon="10.8112929"><ele>159.0</ele><time>2026-04-03T14:21:25.977Z</time></trkpt><trkpt lat="43.2937122" lon="10.8113048"><ele>159.0</ele><time>2026-04-03T14:21:26.99Z</time></trkpt><trkpt lat="43.2938177" lon="10.8112724"><ele>159.0</ele><time>2026-04-03T14:21:28.007Z</time></trkpt><trkpt lat="43.2939178" lon="10.8111931"><ele>159.0</ele><time>2026-04-03T14:21:28.989Z</time></trkpt><trkpt lat="43.2940124" lon="10.8110948"><ele>159.0</ele><time>2026-04-03T14:21:29.995Z</time></trkpt><trkpt lat="43.2941064" lon="10.811009"><ele>157.4</ele><time>2026-04-03T14:21:30.983Z</time></trkpt><trkpt lat="43.2942027" lon="10.810951"><ele>155.8</ele><time>2026-04-03T14:21:31.983Z</time></trkpt><trkpt lat="43.2942977" lon="10.8109191"><ele>154.2</ele><time>2026-04-03T14:21:32.982Z</time></trkpt><trkpt lat="43.294389" lon="10.8109054"><ele>152.6</ele><time>2026-04-03T14:21:33.99Z</time></trkpt><trkpt lat="43.2944729" lon="10.8109029"><ele>151.0</ele><time>2026-04-03T14:21:34.982Z</time></trkpt><trkpt lat="43.2945499" lon="10.8109113"><ele>151.0</ele><time>2026-04-03T14:21:35.98Z</time></trkpt><trkpt lat="43.2946126" lon="10.8109203"><ele>151.0</ele><time>2026-04-03T14:21:36.983Z</time></trkpt><trkpt lat="43.2946886" lon="10.8109355"><ele>151.0</ele><time>2026-04-03T14:21:39.987Z</time></trkpt><trkpt lat="43.2947527" lon="10.8109526"><ele>151.0</ele><time>2026-04-03T14:21:41.98Z</time></trkpt><trkpt lat="43.2948813" lon="10.810964"><ele>151.0</ele><time>2026-04-03T14:21:43.983Z</time></trkpt><trkpt lat="43.2949674" lon="10.8109733"><ele>151.0</ele><time>2026-04-03T14:21:44.984Z</time></trkpt><trkpt lat="43.295066" lon="10.8109837"><ele>150.75</ele><time>2026-04-03T14:21:45.99Z</time></trkpt><trkpt lat="43.2951742" lon="10.8109918"><ele>150.5</ele><time>2026-04-03T14:21:46.99Z</time></trkpt><trkpt lat="43.2952886" lon="10.8110007"><ele>150.25</ele><time>2026-04-03T14:21:47.988Z</time></trkpt><trkpt lat="43.2954065" lon="10.8110105"><ele>150.0</ele><time>2026-04-03T14:21:48.994Z</time></trkpt><trkpt lat="43.295527" lon="10.8110197"><ele>150.2</ele><time>2026-04-03T14:21:50.024Z</time></trkpt><trkpt lat="43.2956413" lon="10.8110236"><ele>150.4</ele><time>2026-04-03T14:21:50.988Z</time></trkpt><trkpt lat="43.2957503" lon="10.8110159"><ele>150.6</ele><time>2026-04-03T14:21:51.986Z</time></trkpt><trkpt lat="43.2958525" lon="10.8109954"><ele>150.8</ele><time>2026-04-03T14:21:52.985Z</time></trkpt><trkpt lat="43.2959486" lon="10.8109653"><ele>151.0</ele><time>2026-04-03T14:21:53.987Z</time></trkpt><trkpt lat="43.2960392" lon="10.8109297"><ele>150.6</ele><time>2026-04-03T14:21:54.988Z</time></trkpt><trkpt lat="43.2961261" lon="10.8108875"><ele>150.2</ele><time>2026-04-03T14:21:55.981Z</time></trkpt><trkpt lat="43.2962134" lon="10.8108402"><ele>149.8</ele><time>2026-04-03T14:21:56.989Z</time></trkpt><trkpt lat="43.296304" lon="10.8107936"><ele>149.4</ele><time>2026-04-03T14:21:57.986Z</time></trkpt><trkpt lat="43.2964007" lon="10.8107432"><ele>149.0</ele><time>2026-04-03T14:21:58.992Z</time></trkpt><trkpt lat="43.2965033" lon="10.8106867"><ele>149.0</ele><time>2026-04-03T14:21:59.997Z</time></trkpt><trkpt lat="43.2966117" lon="10.8106284"><ele>149.0</ele><time>2026-04-03T14:22:00.99Z</time></trkpt><trkpt lat="43.2967243" lon="10.8105678"><ele>149.0</ele><time>2026-04-03T14:22:02.002Z</time></trkpt><trkpt lat="43.2968367" lon="10.8105069"><ele>149.0</ele><time>2026-04-03T14:22:02.989Z</time></trkpt><trkpt lat="43.296952" lon="10.810444"><ele>149.0</ele><time>2026-04-03T14:22:03.99Z</time></trkpt><trkpt lat="43.2970688" lon="10.81038"><ele>149.0</ele><time>2026-04-03T14:22:04.985Z</time></trkpt><trkpt lat="43.2971861" lon="10.8103161"><ele>149.0</ele><time>2026-04-03T14:22:05.992Z</time></trkpt><trkpt lat="43.2973022" lon="10.810253"><ele>149.0</ele><time>2026-04-03T14:22:06.996Z</time></trkpt><trkpt lat="43.2974191" lon="10.8101906"><ele>147.25</ele><time>2026-04-03T14:22:07.993Z</time></trkpt><trkpt lat="43.2975375" lon="10.8101276"><ele>145.5</ele><time>2026-04-03T14:22:08.999Z</time></trkpt><trkpt lat="43.2976562" lon="10.8100638"><ele>143.75</ele><time>2026-04-03T14:22:09.987Z</time></trkpt><trkpt lat="43.297776" lon="10.8099986"><ele>142.0</ele><time>2026-04-03T14:22:10.985Z</time></trkpt><trkpt lat="43.2978965" lon="10.809932"><ele>142.0</ele><time>2026-04-03T14:22:11.991Z</time></trkpt><trkpt lat="43.2980175" lon="10.809865"><ele>142.0</ele><time>2026-04-03T14:22:13.008Z</time></trkpt><trkpt lat="43.2981352" lon="10.8098007"><ele>142.0</ele><time>2026-04-03T14:22:13.996Z</time></trkpt><trkpt lat="43.2982489" lon="10.8097416"><ele>142.0</ele><time>2026-04-03T14:22:14.992Z</time></trkpt><trkpt lat="43.2983622" lon="10.8096886"><ele>142.25</ele><time>2026-04-03T14:22:15.997Z</time></trkpt><trkpt lat="43.2984787" lon="10.8096394"><ele>142.5</ele><time>2026-04-03T14:22:16.995Z</time></trkpt><trkpt lat="43.2985986" lon="10.8095909"><ele>142.75</ele><time>2026-04-03T14:22:17.983Z</time></trkpt><trkpt lat="43.2987222" lon="10.809543"><ele>143.0</ele><time>2026-04-03T14:22:18.989Z</time></trkpt><trkpt lat="43.298848" lon="10.8094965"><ele>142.75</ele><time>2026-04-03T14:22:19.991Z</time></trkpt><trkpt lat="43.2989733" lon="10.8094531"><ele>142.5</ele><time>2026-04-03T14:22:20.985Z</time></trkpt><trkpt lat="43.2990951" lon="10.809411"><ele>142.25</ele><time>2026-04-03T14:22:21.993Z</time></trkpt><trkpt lat="43.2992095" lon="10.8093711"><ele>142.0</ele><time>2026-04-03T14:22:22.985Z</time></trkpt><trkpt lat="43.2993132" lon="10.8093368"><ele>142.0</ele><time>2026-04-03T14:22:23.988Z</time></trkpt><trkpt lat="43.2994087" lon="10.8093076"><ele>142.0</ele><time>2026-04-03T14:22:24.989Z</time></trkpt><trkpt lat="43.2994973" lon="10.809309"><ele>142.0</ele><time>2026-04-03T14:22:25.985Z</time></trkpt><trkpt lat="43.2995806" lon="10.8093554"><ele>142.0</ele><time>2026-04-03T14:22:26.988Z</time></trkpt><trkpt lat="43.2996495" lon="10.8094422"><ele>142.0</ele><time>2026-04-03T14:22:27.987Z</time></trkpt><trkpt lat="43.2997037" lon="10.8095674"><ele>139.75</ele><time>2026-04-03T14:22:28.986Z</time></trkpt><trkpt lat="43.299751" lon="10.809714"><ele>137.5</ele><time>2026-04-03T14:22:29.993Z</time></trkpt><trkpt lat="43.2998109" lon="10.809865"><ele>135.25</ele><time>2026-04-03T14:22:30.987Z</time></trkpt><trkpt lat="43.2998803" lon="10.8100062"><ele>133.0</ele><time>2026-04-03T14:22:31.987Z</time></trkpt><trkpt lat="43.2999507" lon="10.8101391"><ele>133.4</ele><time>2026-04-03T14:22:32.985Z</time></trkpt><trkpt lat="43.3000072" lon="10.8102736"><ele>133.8</ele><time>2026-04-03T14:22:33.983Z</time></trkpt><trkpt lat="43.3000583" lon="10.8104128"><ele>134.2</ele><time>2026-04-03T14:22:34.982Z</time></trkpt><trkpt lat="43.300116" lon="10.8105435"><ele>134.6</ele><time>2026-04-03T14:22:35.997Z</time></trkpt><trkpt lat="43.3001768" lon="10.810649"><ele>135.0</ele><time>2026-04-03T14:22:36.984Z</time></trkpt><trkpt lat="43.3002369" lon="10.8107319"><ele>135.0</ele><time>2026-04-03T14:22:37.984Z</time></trkpt><trkpt lat="43.3002924" lon="10.8107772"><ele>135.0</ele><time>2026-04-03T14:22:38.981Z</time></trkpt><trkpt lat="43.3004007" lon="10.8107622"><ele>135.0</ele><time>2026-04-03T14:22:40.989Z</time></trkpt><trkpt lat="43.3004435" lon="10.8106795"><ele>135.0</ele><time>2026-04-03T14:22:41.984Z</time></trkpt><trkpt lat="43.3004585" lon="10.810557"><ele>135.0</ele><time>2026-04-03T14:22:42.986Z</time></trkpt><trkpt lat="43.300451" lon="10.8104098"><ele>135.0</ele><time>2026-04-03T14:22:43.977Z</time></trkpt><trkpt lat="43.3004534" lon="10.81025"><ele>134.6</ele><time>2026-04-03T14:22:44.986Z</time></trkpt><trkpt lat="43.3004717" lon="10.8100959"><ele>134.2</ele><time>2026-04-03T14:22:46.005Z</time></trkpt><trkpt lat="43.3004999" lon="10.8099567"><ele>133.8</ele><time>2026-04-03T14:22:46.988Z</time></trkpt><trkpt lat="43.3005417" lon="10.8098251"><ele>133.4</ele><time>2026-04-03T14:22:48Z</time></trkpt><trkpt lat="43.3006044" lon="10.8097074"><ele>133.0</ele><time>2026-04-03T14:22:48.989Z</time></trkpt><trkpt lat="43.3006834" lon="10.8095982"><ele>130.0</ele><time>2026-04-03T14:22:49.986Z</time></trkpt><trkpt lat="43.3007696" lon="10.8094926"><ele>127.0</ele><time>2026-04-03T14:22:50.985Z</time></trkpt><trkpt lat="43.3008633" lon="10.8093898"><ele>124.0</ele><time>2026-04-03T14:22:51.994Z</time></trkpt><trkpt lat="43.3009597" lon="10.8092927"><ele>121.0</ele><time>2026-04-03T14:22:52.988Z</time></trkpt><trkpt lat="43.3010522" lon="10.8091988"><ele>121.0</ele><time>2026-04-03T14:22:53.986Z</time></trkpt><trkpt lat="43.3011334" lon="10.8091116"><ele>121.0</ele><time>2026-04-03T14:22:54.982Z</time></trkpt><trkpt lat="43.3011961" lon="10.8090199"><ele>121.0</ele><time>2026-04-03T14:22:55.983Z</time></trkpt><trkpt lat="43.3012337" lon="10.8089113"><ele>121.0</ele><time>2026-04-03T14:22:56.99Z</time></trkpt><trkpt lat="43.3012404" lon="10.8087802"><ele>121.0</ele><time>2026-04-03T14:22:58.012Z</time></trkpt><trkpt lat="43.301219" lon="10.8086469"><ele>121.00000000000001</ele><time>2026-04-03T14:22:58.99Z</time></trkpt><trkpt lat="43.3011891" lon="10.808521"><ele>121.0</ele><time>2026-04-03T14:22:59.988Z</time></trkpt><trkpt lat="43.301166" lon="10.8084114"><ele>121.0</ele><time>2026-04-03T14:23:00.986Z</time></trkpt><trkpt lat="43.3011761" lon="10.8083256"><ele>121.0</ele><time>2026-04-03T14:23:01.986Z</time></trkpt><trkpt lat="43.3012812" lon="10.808249"><ele>121.00000000000001</ele><time>2026-04-03T14:23:03.997Z</time></trkpt><trkpt lat="43.3013451" lon="10.8082944"><ele>121.0</ele><time>2026-04-03T14:23:04.994Z</time></trkpt><trkpt lat="43.3014134" lon="10.8083722"><ele>118.6</ele><time>2026-04-03T14:23:05.987Z</time></trkpt><trkpt lat="43.301489" lon="10.8084636"><ele>116.19999999999999</ele><time>2026-04-03T14:23:06.988Z</time></trkpt><trkpt lat="43.3015716" lon="10.8085621"><ele>113.80000000000001</ele><time>2026-04-03T14:23:07.996Z</time></trkpt><trkpt lat="43.3016565" lon="10.8086594"><ele>111.4</ele><time>2026-04-03T14:23:08.992Z</time></trkpt><trkpt lat="43.3017408" lon="10.8087559"><ele>109.0</ele><time>2026-04-03T14:23:09.991Z</time></trkpt><trkpt lat="43.3018241" lon="10.8088479"><ele>109.0</ele><time>2026-04-03T14:23:10.993Z</time></trkpt><trkpt lat="43.3019028" lon="10.808938"><ele>109.0</ele><time>2026-04-03T14:23:12.013Z</time></trkpt><trkpt lat="43.3019738" lon="10.8090252"><ele>109.0</ele><time>2026-04-03T14:23:13.011Z</time></trkpt><trkpt lat="43.3020345" lon="10.8091062"><ele>109.0</ele><time>2026-04-03T14:23:14Z</time></trkpt><trkpt lat="43.3020864" lon="10.8091793"><ele>109.0</ele><time>2026-04-03T14:23:14.991Z</time></trkpt><trkpt lat="43.302166" lon="10.8092794"><ele>109.0</ele><time>2026-04-03T14:23:17.007Z</time></trkpt><trkpt lat="43.3022415" lon="10.8092877"><ele>109.0</ele><time>2026-04-03T14:23:18.999Z</time></trkpt><trkpt lat="43.3023377" lon="10.8091626"><ele>109.0</ele><time>2026-04-03T14:23:20.996Z</time></trkpt><trkpt lat="43.3023777" lon="10.80905"><ele>109.0</ele><time>2026-04-03T14:23:21.99Z</time></trkpt><trkpt lat="43.3024183" lon="10.8089202"><ele>109.0</ele><time>2026-04-03T14:23:23.014Z</time></trkpt><trkpt lat="43.3025096" lon="10.8086328"><ele>107.25</ele><time>2026-04-03T14:23:25Z</time></trkpt><trkpt lat="43.302559" lon="10.8084826"><ele>105.5</ele><time>2026-04-03T14:23:25.991Z</time></trkpt><trkpt lat="43.302608" lon="10.8083374"><ele>103.75</ele><time>2026-04-03T14:23:26.996Z</time></trkpt><trkpt lat="43.3026548" lon="10.808196"><ele>102.0</ele><time>2026-04-03T14:23:27.991Z</time></trkpt><trkpt lat="43.3027036" lon="10.8080534"><ele>102.0</ele><time>2026-04-03T14:23:29.009Z</time></trkpt><trkpt lat="43.3027574" lon="10.8079151"><ele>102.0</ele><time>2026-04-03T14:23:29.991Z</time></trkpt><trkpt lat="43.3028221" lon="10.8077786"><ele>102.0</ele><time>2026-04-03T14:23:31.001Z</time></trkpt><trkpt lat="43.3028931" lon="10.8076494"><ele>102.0</ele><time>2026-04-03T14:23:31.994Z</time></trkpt><trkpt lat="43.3029731" lon="10.8075253"><ele>102.0</ele><time>2026-04-03T14:23:33.01Z</time></trkpt><trkpt lat="43.3030582" lon="10.8074061"><ele>102.0</ele><time>2026-04-03T14:23:33.987Z</time></trkpt><trkpt lat="43.3031474" lon="10.8072852"><ele>102.0</ele><time>2026-04-03T14:23:34.995Z</time></trkpt><trkpt lat="43.3032368" lon="10.807162"><ele>102.0</ele><time>2026-04-03T14:23:35.995Z</time></trkpt><trkpt lat="43.3033276" lon="10.807037"><ele>101.33333333333334</ele><time>2026-04-03T14:23:36.984Z</time></trkpt><trkpt lat="43.3034201" lon="10.8069082"><ele>100.66666666666667</ele><time>2026-04-03T14:23:38.003Z</time></trkpt><trkpt lat="43.3036075" lon="10.8066429"><ele>100.0</ele><time>2026-04-03T14:23:39.989Z</time></trkpt><trkpt lat="43.3036999" lon="10.806509"><ele>100.0</ele><time>2026-04-03T14:23:41.01Z</time></trkpt><trkpt lat="43.303785" lon="10.8063853"><ele>100.0</ele><time>2026-04-03T14:23:42.005Z</time></trkpt><trkpt lat="43.3038637" lon="10.8062726"><ele>100.0</ele><time>2026-04-03T14:23:42.994Z</time></trkpt><trkpt lat="43.3039367" lon="10.8061694"><ele>100.0</ele><time>2026-04-03T14:23:43.988Z</time></trkpt><trkpt lat="43.3040032" lon="10.806061"><ele>100.0</ele><time>2026-04-03T14:23:44.987Z</time></trkpt><trkpt lat="43.3040579" lon="10.8059254"><ele>100.0</ele><time>2026-04-03T14:23:46.002Z</time></trkpt><trkpt lat="43.3040925" lon="10.8057639"><ele>100.0</ele><time>2026-04-03T14:23:46.988Z</time></trkpt><trkpt lat="43.3041053" lon="10.8055814"><ele>100.0</ele><time>2026-04-03T14:23:47.991Z</time></trkpt><trkpt lat="43.3041074" lon="10.8053888"><ele>100.0</ele><time>2026-04-03T14:23:48.999Z</time></trkpt><trkpt lat="43.3040929" lon="10.8051923"><ele>100.75</ele><time>2026-04-03T14:23:50.007Z</time></trkpt><trkpt lat="43.3040627" lon="10.8049979"><ele>101.5</ele><time>2026-04-03T14:23:50.991Z</time></trkpt><trkpt lat="43.3040172" lon="10.8048012"><ele>102.25</ele><time>2026-04-03T14:23:51.99Z</time></trkpt><trkpt lat="43.3039726" lon="10.8046005"><ele>103.0</ele><time>2026-04-03T14:23:53.003Z</time></trkpt><trkpt lat="43.3039305" lon="10.8044003"><ele>108.0</ele><time>2026-04-03T14:23:53.995Z</time></trkpt><trkpt lat="43.3038907" lon="10.804202"><ele>113.0</ele><time>2026-04-03T14:23:54.991Z</time></trkpt><trkpt lat="43.3038546" lon="10.8040051"><ele>118.0</ele><time>2026-04-03T14:23:56.005Z</time></trkpt><trkpt lat="43.3038236" lon="10.8038125"><ele>123.0</ele><time>2026-04-03T14:23:56.995Z</time></trkpt><trkpt lat="43.3037932" lon="10.803624"><ele>124.75</ele><time>2026-04-03T14:23:57.992Z</time></trkpt><trkpt lat="43.3037646" lon="10.8034469"><ele>126.5</ele><time>2026-04-03T14:23:59.003Z</time></trkpt><trkpt lat="43.3037378" lon="10.8032848"><ele>128.25</ele><time>2026-04-03T14:23:59.996Z</time></trkpt><trkpt lat="43.3037126" lon="10.8031339"><ele>130.0</ele><time>2026-04-03T14:24:00.988Z</time></trkpt><trkpt lat="43.3036845" lon="10.8029941"><ele>130.0</ele><time>2026-04-03T14:24:02.007Z</time></trkpt><trkpt lat="43.3036455" lon="10.8028717"><ele>130.0</ele><time>2026-04-03T14:24:03.015Z</time></trkpt><trkpt lat="43.3035946" lon="10.8027815"><ele>130.0</ele><time>2026-04-03T14:24:04.004Z</time></trkpt><trkpt lat="43.3035297" lon="10.8027165"><ele>130.0</ele><time>2026-04-03T14:24:04.994Z</time></trkpt><trkpt lat="43.3034514" lon="10.8026703"><ele>130.0</ele><time>2026-04-03T14:24:05.998Z</time></trkpt><trkpt lat="43.3033533" lon="10.8026534"><ele>130.0</ele><time>2026-04-03T14:24:06.993Z</time></trkpt><trkpt lat="43.3032356" lon="10.8026538"><ele>130.0</ele><time>2026-04-03T14:24:07.998Z</time></trkpt><trkpt lat="43.3031108" lon="10.802675"><ele>130.0</ele><time>2026-04-03T14:24:08.989Z</time></trkpt><trkpt lat="43.3029894" lon="10.8027357"><ele>130.0</ele><time>2026-04-03T14:24:09.995Z</time></trkpt><trkpt lat="43.3028726" lon="10.8028249"><ele>130.0</ele><time>2026-04-03T14:24:10.998Z</time></trkpt><trkpt lat="43.3027582" lon="10.8029073"><ele>131.0</ele><time>2026-04-03T14:24:11.992Z</time></trkpt><trkpt lat="43.3026351" lon="10.8029595"><ele>132.0</ele><time>2026-04-03T14:24:12.996Z</time></trkpt><trkpt lat="43.3025061" lon="10.8029628"><ele>133.0</ele><time>2026-04-03T14:24:13.994Z</time></trkpt><trkpt lat="43.3023785" lon="10.8029273"><ele>134.0</ele><time>2026-04-03T14:24:14.987Z</time></trkpt><trkpt lat="43.3022522" lon="10.8028493"><ele>134.0</ele><time>2026-04-03T14:24:15.993Z</time></trkpt><trkpt lat="43.302128" lon="10.8027446"><ele>134.0</ele><time>2026-04-03T14:24:16.996Z</time></trkpt><trkpt lat="43.3020069" lon="10.8026328"><ele>134.0</ele><time>2026-04-03T14:24:18.004Z</time></trkpt><trkpt lat="43.3018854" lon="10.8025187"><ele>134.0</ele><time>2026-04-03T14:24:18.991Z</time></trkpt><trkpt lat="43.3017587" lon="10.802401"><ele>136.0</ele><time>2026-04-03T14:24:19.997Z</time></trkpt><trkpt lat="43.3016308" lon="10.8022823"><ele>138.0</ele><time>2026-04-03T14:24:20.985Z</time></trkpt><trkpt lat="43.3015031" lon="10.8021603"><ele>140.0</ele><time>2026-04-03T14:24:21.996Z</time></trkpt><trkpt lat="43.301378" lon="10.8020374"><ele>140.33333333333331</ele><time>2026-04-03T14:24:22.984Z</time></trkpt><trkpt lat="43.3012545" lon="10.8019087"><ele>140.66666666666666</ele><time>2026-04-03T14:24:24.01Z</time></trkpt><trkpt lat="43.3011357" lon="10.8017785"><ele>141.0</ele><time>2026-04-03T14:24:25.027Z</time></trkpt><trkpt lat="43.3010203" lon="10.8016495"><ele>141.5</ele><time>2026-04-03T14:24:25.992Z</time></trkpt><trkpt lat="43.3009014" lon="10.8015196"><ele>142.0</ele><time>2026-04-03T14:24:27.005Z</time></trkpt><trkpt lat="43.3007821" lon="10.8014098"><ele>142.5</ele><time>2026-04-03T14:24:28.008Z</time></trkpt><trkpt lat="43.3006574" lon="10.8013359"><ele>143.0</ele><time>2026-04-03T14:24:28.992Z</time></trkpt><trkpt lat="43.3005207" lon="10.8013008"><ele>143.25</ele><time>2026-04-03T14:24:30.015Z</time></trkpt><trkpt lat="43.3003781" lon="10.8013018"><ele>143.5</ele><time>2026-04-03T14:24:31.006Z</time></trkpt><trkpt lat="43.3002279" lon="10.801316"><ele>143.75</ele><time>2026-04-03T14:24:32.018Z</time></trkpt><trkpt lat="43.3000797" lon="10.8013133"><ele>144.0</ele><time>2026-04-03T14:24:32.996Z</time></trkpt><trkpt lat="43.2999378" lon="10.801289"><ele>144.0</ele><time>2026-04-03T14:24:33.993Z</time></trkpt><trkpt lat="43.2998053" lon="10.8012499"><ele>144.0</ele><time>2026-04-03T14:24:34.993Z</time></trkpt><trkpt lat="43.2996808" lon="10.8011996"><ele>144.0</ele><time>2026-04-03T14:24:35.992Z</time></trkpt><trkpt lat="43.2995652" lon="10.8011371"><ele>144.0</ele><time>2026-04-03T14:24:36.988Z</time></trkpt><trkpt lat="43.2994595" lon="10.8010578"><ele>142.8</ele><time>2026-04-03T14:24:38.001Z</time></trkpt><trkpt lat="43.2993611" lon="10.8009641"><ele>141.60000000000002</ele><time>2026-04-03T14:24:38.992Z</time></trkpt><trkpt lat="43.299301" lon="10.8008389"><ele>140.4</ele><time>2026-04-03T14:24:39.995Z</time></trkpt><trkpt lat="43.2992777" lon="10.8006986"><ele>139.20000000000002</ele><time>2026-04-03T14:24:40.99Z</time></trkpt><trkpt lat="43.2992924" lon="10.8005653"><ele>138.0</ele><time>2026-04-03T14:24:41.997Z</time></trkpt><trkpt lat="43.2993563" lon="10.8004502"><ele>138.0</ele><time>2026-04-03T14:24:43.003Z</time></trkpt><trkpt lat="43.2994135" lon="10.8003357"><ele>138.0</ele><time>2026-04-03T14:24:43.996Z</time></trkpt><trkpt lat="43.299446" lon="10.8002018"><ele>138.0</ele><time>2026-04-03T14:24:44.994Z</time></trkpt><trkpt lat="43.2994597" lon="10.8000499"><ele>138.0</ele><time>2026-04-03T14:24:45.989Z</time></trkpt><trkpt lat="43.299445" lon="10.7998794"><ele>138.0</ele><time>2026-04-03T14:24:47.013Z</time></trkpt><trkpt lat="43.2994367" lon="10.7997104"><ele>138.5</ele><time>2026-04-03T14:24:47.99Z</time></trkpt><trkpt lat="43.2994361" lon="10.7995421"><ele>139.0</ele><time>2026-04-03T14:24:48.986Z</time></trkpt><trkpt lat="43.2994295" lon="10.7993683"><ele>139.5</ele><time>2026-04-03T14:24:50.01Z</time></trkpt><trkpt lat="43.2994008" lon="10.7992017"><ele>140.0</ele><time>2026-04-03T14:24:50.99Z</time></trkpt><trkpt lat="43.2993391" lon="10.7990402"><ele>141.5</ele><time>2026-04-03T14:24:51.99Z</time></trkpt><trkpt lat="43.2992696" lon="10.798881"><ele>143.0</ele><time>2026-04-03T14:24:52.991Z</time></trkpt><trkpt lat="43.2991936" lon="10.7987209"><ele>144.5</ele><time>2026-04-03T14:24:54Z</time></trkpt><trkpt lat="43.2991118" lon="10.7985671"><ele>146.0</ele><time>2026-04-03T14:24:54.994Z</time></trkpt><trkpt lat="43.2990308" lon="10.7984168"><ele>148.33333333333331</ele><time>2026-04-03T14:24:55.997Z</time></trkpt><trkpt lat="43.2989638" lon="10.7982674"><ele>150.66666666666666</ele><time>2026-04-03T14:24:56.996Z</time></trkpt><trkpt lat="43.2989158" lon="10.7981152"><ele>153.0</ele><time>2026-04-03T14:24:58.002Z</time></trkpt><trkpt lat="43.2988785" lon="10.7978403"><ele>151.6</ele><time>2026-04-03T14:25:00.007Z</time></trkpt><trkpt lat="43.2988525" lon="10.79772"><ele>150.20000000000002</ele><time>2026-04-03T14:25:00.986Z</time></trkpt><trkpt lat="43.2988024" lon="10.7976046"><ele>148.8</ele><time>2026-04-03T14:25:01.995Z</time></trkpt><trkpt lat="43.298737" lon="10.7974923"><ele>147.4</ele><time>2026-04-03T14:25:02.988Z</time></trkpt><trkpt lat="43.2986632" lon="10.7973785"><ele>146.0</ele><time>2026-04-03T14:25:03.992Z</time></trkpt><trkpt lat="43.2985885" lon="10.7972582"><ele>146.0</ele><time>2026-04-03T14:25:05.013Z</time></trkpt><trkpt lat="43.2985185" lon="10.79713"><ele>146.0</ele><time>2026-04-03T14:25:06.012Z</time></trkpt><trkpt lat="43.2984554" lon="10.7969943"><ele>146.0</ele><time>2026-04-03T14:25:06.995Z</time></trkpt><trkpt lat="43.2984111" lon="10.7968471"><ele>146.0</ele><time>2026-04-03T14:25:07.991Z</time></trkpt><trkpt lat="43.2983958" lon="10.7966929"><ele>148.0</ele><time>2026-04-03T14:25:08.994Z</time></trkpt><trkpt lat="43.2983998" lon="10.7965398"><ele>150.0</ele><time>2026-04-03T14:25:09.983Z</time></trkpt><trkpt lat="43.2984082" lon="10.796386"><ele>152.0</ele><time>2026-04-03T14:25:10.995Z</time></trkpt><trkpt lat="43.2984175" lon="10.7962308"><ele>154.0</ele><time>2026-04-03T14:25:11.989Z</time></trkpt><trkpt lat="43.2984259" lon="10.7960787"><ele>156.0</ele><time>2026-04-03T14:25:12.995Z</time></trkpt><trkpt lat="43.2984264" lon="10.7959435"><ele>157.5</ele><time>2026-04-03T14:25:13.995Z</time></trkpt><trkpt lat="43.2984159" lon="10.7958254"><ele>159.0</ele><time>2026-04-03T14:25:14.994Z</time></trkpt><trkpt lat="43.2983376" lon="10.7955951"><ele>160.5</ele><time>2026-04-03T14:25:17.01Z</time></trkpt><trkpt lat="43.2982666" lon="10.7954822"><ele>162.0</ele><time>2026-04-03T14:25:18.004Z</time></trkpt><trkpt lat="43.29818" lon="10.7953808"><ele>161.5</ele><time>2026-04-03T14:25:19.006Z</time></trkpt><trkpt lat="43.2980777" lon="10.7953022"><ele>161.0</ele><time>2026-04-03T14:25:20.007Z</time></trkpt><trkpt lat="43.2979615" lon="10.7952558"><ele>160.5</ele><time>2026-04-03T14:25:20.999Z</time></trkpt><trkpt lat="43.2978309" lon="10.7952538"><ele>160.0</ele><time>2026-04-03T14:25:22.004Z</time></trkpt><trkpt lat="43.2976935" lon="10.7952625"><ele>160.0</ele><time>2026-04-03T14:25:22.995Z</time></trkpt><trkpt lat="43.2975496" lon="10.7952658"><ele>160.0</ele><time>2026-04-03T14:25:23.995Z</time></trkpt><trkpt lat="43.2974039" lon="10.7952567"><ele>160.0</ele><time>2026-04-03T14:25:24.989Z</time></trkpt><trkpt lat="43.2972599" lon="10.7952345"><ele>160.0</ele><time>2026-04-03T14:25:25.994Z</time></trkpt><trkpt lat="43.2971269" lon="10.7952057"><ele>162.4</ele><time>2026-04-03T14:25:27.027Z</time></trkpt><trkpt lat="43.297015" lon="10.7951992"><ele>164.8</ele><time>2026-04-03T14:25:27.992Z</time></trkpt><trkpt lat="43.2969183" lon="10.7952391"><ele>167.2</ele><time>2026-04-03T14:25:28.997Z</time></trkpt><trkpt lat="43.2968397" lon="10.7953281"><ele>169.6</ele><time>2026-04-03T14:25:30.002Z</time></trkpt><trkpt lat="43.296787" lon="10.7954635"><ele>172.0</ele><time>2026-04-03T14:25:30.991Z</time></trkpt><trkpt lat="43.2967372" lon="10.7956031"><ele>172.0</ele><time>2026-04-03T14:25:31.998Z</time></trkpt><trkpt lat="43.2966747" lon="10.7957295"><ele>172.0</ele><time>2026-04-03T14:25:32.997Z</time></trkpt><trkpt lat="43.2965873" lon="10.7958289"><ele>172.0</ele><time>2026-04-03T14:25:34.266Z</time></trkpt><trkpt lat="43.2963773" lon="10.7958734"><ele>172.0</ele><time>2026-04-03T14:25:35.985Z</time></trkpt><trkpt lat="43.2962642" lon="10.7958942"><ele>173.8</ele><time>2026-04-03T14:25:36.989Z</time></trkpt><trkpt lat="43.2961539" lon="10.7959333"><ele>175.6</ele><time>2026-04-03T14:25:37.986Z</time></trkpt><trkpt lat="43.2960479" lon="10.795982"><ele>177.4</ele><time>2026-04-03T14:25:38.996Z</time></trkpt><trkpt lat="43.2959417" lon="10.7960217"><ele>179.20000000000002</ele><time>2026-04-03T14:25:40.004Z</time></trkpt><trkpt lat="43.2958334" lon="10.7960316"><ele>181.0</ele><time>2026-04-03T14:25:41.016Z</time></trkpt><trkpt lat="43.2957281" lon="10.7960249"><ele>181.0</ele><time>2026-04-03T14:25:41.991Z</time></trkpt><trkpt lat="43.2956308" lon="10.796044"><ele>181.0</ele><time>2026-04-03T14:25:43Z</time></trkpt><trkpt lat="43.295558" lon="10.7961087"><ele>181.0</ele><time>2026-04-03T14:25:43.994Z</time></trkpt><trkpt lat="43.2955069" lon="10.7962185"><ele>181.0</ele><time>2026-04-03T14:25:44.993Z</time></trkpt><trkpt lat="43.2954121" lon="10.79647"><ele>183.4</ele><time>2026-04-03T14:25:47.021Z</time></trkpt><trkpt lat="43.2953389" lon="10.7965725"><ele>185.8</ele><time>2026-04-03T14:25:47.999Z</time></trkpt><trkpt lat="43.2952496" lon="10.796657"><ele>188.20000000000002</ele><time>2026-04-03T14:25:49.005Z</time></trkpt><trkpt lat="43.2951512" lon="10.7967082"><ele>190.60000000000002</ele><time>2026-04-03T14:25:50Z</time></trkpt><trkpt lat="43.2950463" lon="10.796722"><ele>193.0</ele><time>2026-04-03T14:25:50.999Z</time></trkpt><trkpt lat="43.2949369" lon="10.7967049"><ele>193.0</ele><time>2026-04-03T14:25:51.991Z</time></trkpt><trkpt lat="43.294823" lon="10.7966737"><ele>193.0</ele><time>2026-04-03T14:25:52.994Z</time></trkpt><trkpt lat="43.2945956" lon="10.7966631"><ele>193.0</ele><time>2026-04-03T14:25:55.011Z</time></trkpt><trkpt lat="43.2944889" lon="10.7966581"><ele>194.4</ele><time>2026-04-03T14:25:55.995Z</time></trkpt><trkpt lat="43.2943849" lon="10.7966245"><ele>195.8</ele><time>2026-04-03T14:25:56.995Z</time></trkpt><trkpt lat="43.294287" lon="10.7965638"><ele>197.2</ele><time>2026-04-03T14:25:58Z</time></trkpt><trkpt lat="43.2941979" lon="10.7964845"><ele>198.6</ele><time>2026-04-03T14:25:58.999Z</time></trkpt><trkpt lat="43.2941159" lon="10.7963878"><ele>200.0</ele><time>2026-04-03T14:25:59.996Z</time></trkpt><trkpt lat="43.2940427" lon="10.796273"><ele>200.0</ele><time>2026-04-03T14:26:00.994Z</time></trkpt><trkpt lat="43.2939786" lon="10.7961439"><ele>200.0</ele><time>2026-04-03T14:26:01.999Z</time></trkpt><trkpt lat="43.2939196" lon="10.7960087"><ele>200.0</ele><time>2026-04-03T14:26:03.017Z</time></trkpt><trkpt lat="43.2938601" lon="10.795886"><ele>200.0</ele><time>2026-04-03T14:26:04.017Z</time></trkpt><trkpt lat="43.2937218" lon="10.7957481"><ele>199.8</ele><time>2026-04-03T14:26:05.993Z</time></trkpt><trkpt lat="43.29364" lon="10.7957379"><ele>199.6</ele><time>2026-04-03T14:26:06.99Z</time></trkpt><trkpt lat="43.2935559" lon="10.7957717"><ele>199.39999999999998</ele><time>2026-04-03T14:26:08.002Z</time></trkpt><trkpt lat="43.293475" lon="10.7958649"><ele>199.2</ele><time>2026-04-03T14:26:09.003Z</time></trkpt><trkpt lat="43.2933883" lon="10.7959501"><ele>199.0</ele><time>2026-04-03T14:26:09.993Z</time></trkpt><trkpt lat="43.2932901" lon="10.796005"><ele>199.0</ele><time>2026-04-03T14:26:11.001Z</time></trkpt><trkpt lat="43.2931887" lon="10.7960134"><ele>199.0</ele><time>2026-04-03T14:26:11.987Z</time></trkpt><trkpt lat="43.2930918" lon="10.795989"><ele>199.0</ele><time>2026-04-03T14:26:12.989Z</time></trkpt><trkpt lat="43.2930079" lon="10.7959325"><ele>199.0</ele><time>2026-04-03T14:26:13.996Z</time></trkpt><trkpt lat="43.2929392" lon="10.7958284"><ele>199.0</ele><time>2026-04-03T14:26:14.991Z</time></trkpt><trkpt lat="43.2928761" lon="10.7957198"><ele>201.2</ele><time>2026-04-03T14:26:15.979Z</time></trkpt><trkpt lat="43.2928141" lon="10.7956027"><ele>203.39999999999998</ele><time>2026-04-03T14:26:16.991Z</time></trkpt><trkpt lat="43.292751" lon="10.7954811"><ele>205.6</ele><time>2026-04-03T14:26:18.004Z</time></trkpt><trkpt lat="43.2926796" lon="10.795365"><ele>207.8</ele><time>2026-04-03T14:26:18.993Z</time></trkpt><trkpt lat="43.2925914" lon="10.7952632"><ele>210.0</ele><time>2026-04-03T14:26:19.993Z</time></trkpt><trkpt lat="43.2924863" lon="10.7951733"><ele>212.75</ele><time>2026-04-03T14:26:21.013Z</time></trkpt><trkpt lat="43.2923733" lon="10.7950918"><ele>215.5</ele><time>2026-04-03T14:26:21.984Z</time></trkpt><trkpt lat="43.2922575" lon="10.7950119"><ele>218.25</ele><time>2026-04-03T14:26:22.995Z</time></trkpt><trkpt lat="43.2921458" lon="10.7949295"><ele>221.0</ele><time>2026-04-03T14:26:23.994Z</time></trkpt><trkpt lat="43.2920405" lon="10.7948371"><ele>221.0</ele><time>2026-04-03T14:26:24.991Z</time></trkpt><trkpt lat="43.2919475" lon="10.7947325"><ele>221.0</ele><time>2026-04-03T14:26:25.991Z</time></trkpt><trkpt lat="43.2918718" lon="10.7946119"><ele>221.0</ele><time>2026-04-03T14:26:26.989Z</time></trkpt><trkpt lat="43.2918126" lon="10.7944788"><ele>221.0</ele><time>2026-04-03T14:26:27.992Z</time></trkpt><trkpt lat="43.2917593" lon="10.7943393"><ele>223.8</ele><time>2026-04-03T14:26:29.007Z</time></trkpt><trkpt lat="43.2917003" lon="10.7942085"><ele>226.60000000000002</ele><time>2026-04-03T14:26:30.001Z</time></trkpt><trkpt lat="43.2916281" lon="10.7941053"><ele>229.4</ele><time>2026-04-03T14:26:30.988Z</time></trkpt><trkpt lat="43.2915485" lon="10.7940364"><ele>232.2</ele><time>2026-04-03T14:26:32.018Z</time></trkpt><trkpt lat="43.291482" lon="10.7939735"><ele>235.0</ele><time>2026-04-03T14:26:32.991Z</time></trkpt><trkpt lat="43.291449" lon="10.7938979"><ele>235.0</ele><time>2026-04-03T14:26:34.004Z</time></trkpt><trkpt lat="43.291508" lon="10.7938004"><ele>235.0</ele><time>2026-04-03T14:26:35.994Z</time></trkpt><trkpt lat="43.2916449" lon="10.7937992"><ele>235.0</ele><time>2026-04-03T14:26:38.011Z</time></trkpt><trkpt lat="43.2917406" lon="10.7938274"><ele>235.0</ele><time>2026-04-03T14:26:39.009Z</time></trkpt><trkpt lat="43.2918559" lon="10.7938808"><ele>235.0</ele><time>2026-04-03T14:26:40.003Z</time></trkpt><trkpt lat="43.2919687" lon="10.7939609"><ele>235.0</ele><time>2026-04-03T14:26:41.001Z</time></trkpt><trkpt lat="43.2921616" lon="10.7940946"><ele>235.0</ele><time>2026-04-03T14:26:42.989Z</time></trkpt><trkpt lat="43.2922408" lon="10.7941262"><ele>235.0</ele><time>2026-04-03T14:26:43.994Z</time></trkpt><trkpt lat="43.2923175" lon="10.7941516"><ele>235.0</ele><time>2026-04-03T14:26:44.996Z</time></trkpt><trkpt lat="43.2924023" lon="10.7941564"><ele>236.16666666666666</ele><time>2026-04-03T14:26:46.006Z</time></trkpt><trkpt lat="43.2924904" lon="10.7941596"><ele>237.33333333333331</ele><time>2026-04-03T14:26:46.996Z</time></trkpt><trkpt lat="43.2925788" lon="10.7941589"><ele>238.5</ele><time>2026-04-03T14:26:47.994Z</time></trkpt><trkpt lat="43.2926536" lon="10.7941473"><ele>239.66666666666669</ele><time>2026-04-03T14:26:48.987Z</time></trkpt><trkpt lat="43.2927153" lon="10.794103"><ele>240.83333333333334</ele><time>2026-04-03T14:26:49.985Z</time></trkpt><trkpt lat="43.2927795" lon="10.7939841"><ele>242.0</ele><time>2026-04-03T14:26:51.997Z</time></trkpt><trkpt lat="43.292694" lon="10.7938794"><ele>242.0</ele><time>2026-04-03T14:26:53.998Z</time></trkpt><trkpt lat="43.2926246" lon="10.7938334"><ele>242.0</ele><time>2026-04-03T14:26:54.99Z</time></trkpt><trkpt lat="43.2925499" lon="10.7937801"><ele>242.0</ele><time>2026-04-03T14:26:55.987Z</time></trkpt><trkpt lat="43.2924929" lon="10.793675"><ele>242.0</ele><time>2026-04-03T14:26:57.001Z</time></trkpt><trkpt lat="43.2924372" lon="10.7935514"><ele>242.0</ele><time>2026-04-03T14:26:57.996Z</time></trkpt><trkpt lat="43.2923734" lon="10.7934235"><ele>242.75</ele><time>2026-04-03T14:26:58.994Z</time></trkpt><trkpt lat="43.2922972" lon="10.7932924"><ele>243.5</ele><time>2026-04-03T14:26:59.997Z</time></trkpt><trkpt lat="43.2922179" lon="10.7931684"><ele>244.25</ele><time>2026-04-03T14:27:00.99Z</time></trkpt><trkpt lat="43.292146" lon="10.7930507"><ele>245.0</ele><time>2026-04-03T14:27:02.007Z</time></trkpt><trkpt lat="43.2920837" lon="10.7929479"><ele>245.00000000000003</ele><time>2026-04-03T14:27:02.99Z</time></trkpt><trkpt lat="43.2920307" lon="10.7928658"><ele>245.0</ele><time>2026-04-03T14:27:04.002Z</time></trkpt><trkpt lat="43.2919833" lon="10.7928006"><ele>245.0</ele><time>2026-04-03T14:27:05.004Z</time></trkpt><trkpt lat="43.2918941" lon="10.7927241"><ele>245.0</ele><time>2026-04-03T14:27:07.001Z</time></trkpt><trkpt lat="43.2917866" lon="10.7926663"><ele>245.00000000000003</ele><time>2026-04-03T14:27:09.021Z</time></trkpt><trkpt lat="43.2917222" lon="10.7926491"><ele>245.0</ele><time>2026-04-03T14:27:09.995Z</time></trkpt><trkpt lat="43.2916511" lon="10.7926364"><ele>247.50000000000003</ele><time>2026-04-03T14:27:11.022Z</time></trkpt><trkpt lat="43.2915788" lon="10.7926232"><ele>250.0</ele><time>2026-04-03T14:27:11.992Z</time></trkpt><trkpt lat="43.2915019" lon="10.7926094"><ele>252.5</ele><time>2026-04-03T14:27:13Z</time></trkpt><trkpt lat="43.291422" lon="10.792591"><ele>255.0</ele><time>2026-04-03T14:27:14Z</time></trkpt><trkpt lat="43.2913443" lon="10.7925534"><ele>257.5</ele><time>2026-04-03T14:27:14.991Z</time></trkpt><trkpt lat="43.2912685" lon="10.7925056"><ele>260.0</ele><time>2026-04-03T14:27:15.994Z</time></trkpt><trkpt lat="43.2911901" lon="10.792448"><ele>261.75</ele><time>2026-04-03T14:27:16.998Z</time></trkpt><trkpt lat="43.2911" lon="10.7924067"><ele>263.5</ele><time>2026-04-03T14:27:18.018Z</time></trkpt><trkpt lat="43.2910039" lon="10.7923909"><ele>265.25</ele><time>2026-04-03T14:27:18.982Z</time></trkpt><trkpt lat="43.2909058" lon="10.7924024"><ele>267.0</ele><time>2026-04-03T14:27:19.994Z</time></trkpt><trkpt lat="43.2907232" lon="10.7924722"><ele>267.0</ele><time>2026-04-03T14:27:22.005Z</time></trkpt><trkpt lat="43.29063" lon="10.7924935"><ele>267.0</ele><time>2026-04-03T14:27:23.004Z</time></trkpt><trkpt lat="43.2905348" lon="10.7925136"><ele>267.0</ele><time>2026-04-03T14:27:23.991Z</time></trkpt><trkpt lat="43.290435" lon="10.7925283"><ele>267.0</ele><time>2026-04-03T14:27:24.995Z</time></trkpt><trkpt lat="43.2903389" lon="10.7925638"><ele>267.0</ele><time>2026-04-03T14:27:25.988Z</time></trkpt><trkpt lat="43.2902462" lon="10.7926212"><ele>267.8</ele><time>2026-04-03T14:27:26.99Z</time></trkpt><trkpt lat="43.2901767" lon="10.7927249"><ele>268.6</ele><time>2026-04-03T14:27:27.993Z</time></trkpt><trkpt lat="43.2901124" lon="10.7928357"><ele>269.40000000000003</ele><time>2026-04-03T14:27:29.01Z</time></trkpt><trkpt lat="43.2900352" lon="10.7929143"><ele>270.2</ele><time>2026-04-03T14:27:30.001Z</time></trkpt><trkpt lat="43.2899531" lon="10.7929595"><ele>271.0</ele><time>2026-04-03T14:27:30.983Z</time></trkpt><trkpt lat="43.2898778" lon="10.7930122"><ele>271.0</ele><time>2026-04-03T14:27:31.996Z</time></trkpt><trkpt lat="43.2897979" lon="10.7930833"><ele>271.0</ele><time>2026-04-03T14:27:33.021Z</time></trkpt><trkpt lat="43.2897339" lon="10.7931858"><ele>271.0</ele><time>2026-04-03T14:27:33.995Z</time></trkpt><trkpt lat="43.2896813" lon="10.7933062"><ele>271.0</ele><time>2026-04-03T14:27:35.003Z</time></trkpt><trkpt lat="43.289643" lon="10.7934395"><ele>271.0</ele><time>2026-04-03T14:27:35.996Z</time></trkpt><trkpt lat="43.2896162" lon="10.7935839"><ele>273.6</ele><time>2026-04-03T14:27:36.983Z</time></trkpt><trkpt lat="43.2895959" lon="10.7937247"><ele>276.20000000000005</ele><time>2026-04-03T14:27:38.007Z</time></trkpt><trkpt lat="43.2895784" lon="10.7938512"><ele>278.79999999999995</ele><time>2026-04-03T14:27:38.982Z</time></trkpt><trkpt lat="43.2895734" lon="10.7939806"><ele>281.4</ele><time>2026-04-03T14:27:40Z</time></trkpt><trkpt lat="43.2895755" lon="10.7941035"><ele>284.0</ele><time>2026-04-03T14:27:40.994Z</time></trkpt><trkpt lat="43.2896076" lon="10.7942033"><ele>284.0</ele><time>2026-04-03T14:27:41.987Z</time></trkpt><trkpt lat="43.2896569" lon="10.7942759"><ele>284.0</ele><time>2026-04-03T14:27:42.985Z</time></trkpt><trkpt lat="43.2897055" lon="10.794339"><ele>284.0</ele><time>2026-04-03T14:27:43.989Z</time></trkpt><trkpt lat="43.2897015" lon="10.7944446"><ele>284.0</ele><time>2026-04-03T14:27:46.005Z</time></trkpt><trkpt lat="43.2895959" lon="10.7944192"><ele>284.0</ele><time>2026-04-03T14:27:48.016Z</time></trkpt><trkpt lat="43.2895314" lon="10.7943427"><ele>284.0</ele><time>2026-04-03T14:27:48.99Z</time></trkpt><trkpt lat="43.289462" lon="10.7942532"><ele>284.0</ele><time>2026-04-03T14:27:50.004Z</time></trkpt><trkpt lat="43.2893896" lon="10.7941708"><ele>284.0</ele><time>2026-04-03T14:27:50.995Z</time></trkpt><trkpt lat="43.2893165" lon="10.794106"><ele>284.0</ele><time>2026-04-03T14:27:52.003Z</time></trkpt><trkpt lat="43.2892501" lon="10.7940577"><ele>284.0</ele><time>2026-04-03T14:27:53.01Z</time></trkpt><trkpt lat="43.2891909" lon="10.7939919"><ele>284.0</ele><time>2026-04-03T14:27:53.997Z</time></trkpt><trkpt lat="43.2891636" lon="10.7939027"><ele>284.0</ele><time>2026-04-03T14:27:55.001Z</time></trkpt><trkpt lat="43.2891869" lon="10.7937841"><ele>284.0</ele><time>2026-04-03T14:27:56.01Z</time></trkpt><trkpt lat="43.289237" lon="10.7936689"><ele>284.0</ele><time>2026-04-03T14:27:56.979Z</time></trkpt><trkpt lat="43.2893049" lon="10.7935556"><ele>284.0</ele><time>2026-04-03T14:27:57.991Z</time></trkpt><trkpt lat="43.2893755" lon="10.793481"><ele>284.0</ele><time>2026-04-03T14:27:58.991Z</time></trkpt><trkpt lat="43.2894361" lon="10.7933994"><ele>284.0</ele><time>2026-04-03T14:27:59.997Z</time></trkpt><trkpt lat="43.2894526" lon="10.7932846"><ele>286.0</ele><time>2026-04-03T14:28:01.005Z</time></trkpt><trkpt lat="43.2894557" lon="10.7931613"><ele>288.0</ele><time>2026-04-03T14:28:01.99Z</time></trkpt><trkpt lat="43.2894334" lon="10.7930327"><ele>290.0</ele><time>2026-04-03T14:28:02.995Z</time></trkpt><trkpt lat="43.2894061" lon="10.7928908"><ele>292.0</ele><time>2026-04-03T14:28:03.999Z</time></trkpt><trkpt lat="43.2893897" lon="10.792738"><ele>294.0</ele><time>2026-04-03T14:28:04.994Z</time></trkpt><trkpt lat="43.2894073" lon="10.7925831"><ele>298.59999999999997</ele><time>2026-04-03T14:28:05.992Z</time></trkpt><trkpt lat="43.2894412" lon="10.792433"><ele>303.2</ele><time>2026-04-03T14:28:06.993Z</time></trkpt><trkpt lat="43.2894894" lon="10.7923045"><ele>307.79999999999995</ele><time>2026-04-03T14:28:07.99Z</time></trkpt><trkpt lat="43.2895702" lon="10.7922162"><ele>312.4</ele><time>2026-04-03T14:28:08.987Z</time></trkpt><trkpt lat="43.2896598" lon="10.7921666"><ele>317.0</ele><time>2026-04-03T14:28:09.991Z</time></trkpt><trkpt lat="43.2897456" lon="10.7921129"><ele>315.4</ele><time>2026-04-03T14:28:11.006Z</time></trkpt><trkpt lat="43.2898032" lon="10.7920237"><ele>313.79999999999995</ele><time>2026-04-03T14:28:11.993Z</time></trkpt><trkpt lat="43.2898366" lon="10.79191"><ele>312.2</ele><time>2026-04-03T14:28:12.998Z</time></trkpt><trkpt lat="43.2898505" lon="10.7917801"><ele>310.59999999999997</ele><time>2026-04-03T14:28:13.991Z</time></trkpt><trkpt lat="43.2898571" lon="10.7916357"><ele>309.0</ele><time>2026-04-03T14:28:15.011Z</time></trkpt><trkpt lat="43.2898788" lon="10.7915136"><ele>309.0</ele><time>2026-04-03T14:28:16.007Z</time></trkpt><trkpt lat="43.2899067" lon="10.7914225"><ele>309.0</ele><time>2026-04-03T14:28:16.994Z</time></trkpt><trkpt lat="43.2900363" lon="10.7913709"><ele>309.0</ele><time>2026-04-03T14:28:18.991Z</time></trkpt><trkpt lat="43.2901274" lon="10.7913866"><ele>309.0</ele><time>2026-04-03T14:28:20.027Z</time></trkpt><trkpt lat="43.2903142" lon="10.7913918"><ele>309.0</ele><time>2026-04-03T14:28:21.996Z</time></trkpt><trkpt lat="43.2903816" lon="10.791374"><ele>309.0</ele><time>2026-04-03T14:28:22.994Z</time></trkpt><trkpt lat="43.2904207" lon="10.7912576"><ele>309.0</ele><time>2026-04-03T14:28:24.982Z</time></trkpt><trkpt lat="43.290324" lon="10.7911464"><ele>309.0</ele><time>2026-04-03T14:28:26.992Z</time></trkpt><trkpt lat="43.2902347" lon="10.7911276"><ele>309.0</ele><time>2026-04-03T14:28:27.999Z</time></trkpt><trkpt lat="43.2901446" lon="10.791112"><ele>309.0</ele><time>2026-04-03T14:28:29.002Z</time></trkpt><trkpt lat="43.2900721" lon="10.7910696"><ele>309.0</ele><time>2026-04-03T14:28:29.995Z</time></trkpt><trkpt lat="43.2900147" lon="10.7910199"><ele>309.0</ele><time>2026-04-03T14:28:30.992Z</time></trkpt><trkpt lat="43.2900131" lon="10.7909195"><ele>309.0</ele><time>2026-04-03T14:28:32.993Z</time></trkpt><trkpt lat="43.2901476" lon="10.7909128"><ele>309.0</ele><time>2026-04-03T14:28:34.989Z</time></trkpt><trkpt lat="43.290243" lon="10.7909319"><ele>313.2</ele><time>2026-04-03T14:28:35.993Z</time></trkpt><trkpt lat="43.2903432" lon="10.7909512"><ele>317.4</ele><time>2026-04-03T14:28:36.987Z</time></trkpt><trkpt lat="43.2904421" lon="10.7909712"><ele>321.6</ele><time>2026-04-03T14:28:37.99Z</time></trkpt><trkpt lat="43.2905212" lon="10.7909848"><ele>325.8</ele><time>2026-04-03T14:28:38.993Z</time></trkpt><trkpt lat="43.2905903" lon="10.7909282"><ele>330.0</ele><time>2026-04-03T14:28:40.981Z</time></trkpt><trkpt lat="43.2905299" lon="10.7908209"><ele>330.0</ele><time>2026-04-03T14:28:42.992Z</time></trkpt><trkpt lat="43.2904469" lon="10.7907899"><ele>330.0</ele><time>2026-04-03T14:28:43.986Z</time></trkpt><trkpt lat="43.2903478" lon="10.7907491"><ele>330.0</ele><time>2026-04-03T14:28:44.987Z</time></trkpt><trkpt lat="43.2902444" lon="10.7907033"><ele>330.0</ele><time>2026-04-03T14:28:45.99Z</time></trkpt><trkpt lat="43.2901479" lon="10.7906498"><ele>330.0</ele><time>2026-04-03T14:28:46.989Z</time></trkpt><trkpt lat="43.2900612" lon="10.7905981"><ele>330.0</ele><time>2026-04-03T14:28:48Z</time></trkpt><trkpt lat="43.2899878" lon="10.7905442"><ele>330.0</ele><time>2026-04-03T14:28:49.004Z</time></trkpt><trkpt lat="43.2899352" lon="10.7904821"><ele>330.0</ele><time>2026-04-03T14:28:50.007Z</time></trkpt><trkpt lat="43.2899185" lon="10.7903871"><ele>330.0</ele><time>2026-04-03T14:28:51.996Z</time></trkpt><trkpt lat="43.2900217" lon="10.7903876"><ele>330.0</ele><time>2026-04-03T14:28:54.008Z</time></trkpt><trkpt lat="43.2900926" lon="10.7904436"><ele>330.0</ele><time>2026-04-03T14:28:55.037Z</time></trkpt><trkpt lat="43.2901705" lon="10.7904998"><ele>330.0</ele><time>2026-04-03T14:28:55.982Z</time></trkpt><trkpt lat="43.2902621" lon="10.7905189"><ele>330.0</ele><time>2026-04-03T14:28:56.991Z</time></trkpt><trkpt lat="43.2903554" lon="10.7905091"><ele>330.0</ele><time>2026-04-03T14:28:57.993Z</time></trkpt><trkpt lat="43.290443" lon="10.7905129"><ele>330.0</ele><time>2026-04-03T14:28:59.009Z</time></trkpt><trkpt lat="43.2905187" lon="10.7905466"><ele>330.0</ele><time>2026-04-03T14:29:00.005Z</time></trkpt><trkpt lat="43.2905778" lon="10.7905932"><ele>330.0</ele><time>2026-04-03T14:29:00.988Z</time></trkpt><trkpt lat="43.290661" lon="10.7905948"><ele>330.0</ele><time>2026-04-03T14:29:02.984Z</time></trkpt><trkpt lat="43.2906087" lon="10.7904782"><ele>330.0</ele><time>2026-04-03T14:29:04.995Z</time></trkpt><trkpt lat="43.2905378" lon="10.790428"><ele>330.0</ele><time>2026-04-03T14:29:05.98Z</time></trkpt><trkpt lat="43.2904624" lon="10.7903766"><ele>330.0</ele><time>2026-04-03T14:29:06.991Z</time></trkpt><trkpt lat="43.2903791" lon="10.7903185"><ele>330.0</ele><time>2026-04-03T14:29:07.997Z</time></trkpt><trkpt lat="43.2902955" lon="10.7902639"><ele>330.0</ele><time>2026-04-03T14:29:09.004Z</time></trkpt><trkpt lat="43.290213" lon="10.7902085"><ele>330.0</ele><time>2026-04-03T14:29:09.991Z</time></trkpt><trkpt lat="43.2901291" lon="10.790149"><ele>330.0</ele><time>2026-04-03T14:29:10.993Z</time></trkpt><trkpt lat="43.2900401" lon="10.7900955"><ele>330.0</ele><time>2026-04-03T14:29:11.999Z</time></trkpt><trkpt lat="43.2899497" lon="10.7900576"><ele>330.0</ele><time>2026-04-03T14:29:12.987Z</time></trkpt><trkpt lat="43.2898666" lon="10.7900458"><ele>334.1666666666667</ele><time>2026-04-03T14:29:13.993Z</time></trkpt><trkpt lat="43.2897974" lon="10.7900432"><ele>338.3333333333333</ele><time>2026-04-03T14:29:14.987Z</time></trkpt><trkpt lat="43.2897121" lon="10.7899725"><ele>342.5</ele><time>2026-04-03T14:29:17.018Z</time></trkpt><trkpt lat="43.2897746" lon="10.7898693"><ele>346.66666666666663</ele><time>2026-04-03T14:29:18.991Z</time></trkpt><trkpt lat="43.2898524" lon="10.7898751"><ele>350.8333333333333</ele><time>2026-04-03T14:29:19.986Z</time></trkpt><trkpt lat="43.2899506" lon="10.7899171"><ele>355.0</ele><time>2026-04-03T14:29:20.987Z</time></trkpt><trkpt lat="43.2900596" lon="10.7899672"><ele>355.0</ele><time>2026-04-03T14:29:22Z</time></trkpt><trkpt lat="43.2901744" lon="10.7900204"><ele>355.0</ele><time>2026-04-03T14:29:22.986Z</time></trkpt><trkpt lat="43.2902891" lon="10.7900756"><ele>355.0</ele><time>2026-04-03T14:29:24.003Z</time></trkpt><trkpt lat="43.2904" lon="10.7901278"><ele>355.0</ele><time>2026-04-03T14:29:25.001Z</time></trkpt><trkpt lat="43.2905025" lon="10.7901732"><ele>354.3333333333333</ele><time>2026-04-03T14:29:25.989Z</time></trkpt><trkpt lat="43.2905935" lon="10.790213"><ele>353.66666666666663</ele><time>2026-04-03T14:29:26.993Z</time></trkpt><trkpt lat="43.2906704" lon="10.7902446"><ele>353.0</ele><time>2026-04-03T14:29:28.011Z</time></trkpt><trkpt lat="43.290766" lon="10.7901919"><ele>352.3333333333333</ele><time>2026-04-03T14:29:29.985Z</time></trkpt><trkpt lat="43.2907604" lon="10.790087"><ele>351.6666666666667</ele><time>2026-04-03T14:29:31.993Z</time></trkpt><trkpt lat="43.2906981" lon="10.7900676"><ele>351.0</ele><time>2026-04-03T14:29:33.019Z</time></trkpt><trkpt lat="43.2906292" lon="10.7900571"><ele>351.8</ele><time>2026-04-03T14:29:34.005Z</time></trkpt><trkpt lat="43.2905517" lon="10.7900392"><ele>352.6</ele><time>2026-04-03T14:29:35.003Z</time></trkpt><trkpt lat="43.2904705" lon="10.7899959"><ele>353.4</ele><time>2026-04-03T14:29:35.997Z</time></trkpt><trkpt lat="43.2903867" lon="10.7899375"><ele>354.2</ele><time>2026-04-03T14:29:36.992Z</time></trkpt><trkpt lat="43.2902995" lon="10.7898628"><ele>355.0</ele><time>2026-04-03T14:29:38.006Z</time></trkpt><trkpt lat="43.2902177" lon="10.7897706"><ele>355.0</ele><time>2026-04-03T14:29:38.985Z</time></trkpt><trkpt lat="43.2901387" lon="10.7896667"><ele>355.0</ele><time>2026-04-03T14:29:39.993Z</time></trkpt><trkpt lat="43.2900527" lon="10.7895747"><ele>355.0</ele><time>2026-04-03T14:29:40.986Z</time></trkpt><trkpt lat="43.2899581" lon="10.7894885"><ele>355.0</ele><time>2026-04-03T14:29:41.992Z</time></trkpt><trkpt lat="43.2898505" lon="10.7894337"><ele>355.0</ele><time>2026-04-03T14:29:42.995Z</time></trkpt><trkpt lat="43.2897499" lon="10.7893832"><ele>359.4</ele><time>2026-04-03T14:29:44.006Z</time></trkpt><trkpt lat="43.2896668" lon="10.7893404"><ele>363.8</ele><time>2026-04-03T14:29:44.987Z</time></trkpt><trkpt lat="43.2895918" lon="10.7892987"><ele>368.20000000000005</ele><time>2026-04-03T14:29:46.012Z</time></trkpt><trkpt lat="43.289524" lon="10.7892721"><ele>372.6</ele><time>2026-04-03T14:29:47.017Z</time></trkpt><trkpt lat="43.2894612" lon="10.7892644"><ele>377.0</ele><time>2026-04-03T14:29:48.017Z</time></trkpt><trkpt lat="43.2892869" lon="10.7894064"><ele>377.0</ele><time>2026-04-03T14:29:51.016Z</time></trkpt><trkpt lat="43.2892413" lon="10.7895189"><ele>377.0</ele><time>2026-04-03T14:29:51.993Z</time></trkpt><trkpt lat="43.2892263" lon="10.789662"><ele>377.0</ele><time>2026-04-03T14:29:52.986Z</time></trkpt><trkpt lat="43.2892187" lon="10.7898203"><ele>377.0</ele><time>2026-04-03T14:29:53.979Z</time></trkpt><trkpt lat="43.2892017" lon="10.7899821"><ele>377.0</ele><time>2026-04-03T14:29:54.986Z</time></trkpt><trkpt lat="43.2891711" lon="10.790136"><ele>374.0</ele><time>2026-04-03T14:29:55.984Z</time></trkpt><trkpt lat="43.289132" lon="10.790286"><ele>371.0</ele><time>2026-04-03T14:29:57Z</time></trkpt><trkpt lat="43.2890847" lon="10.7904301"><ele>368.0</ele><time>2026-04-03T14:29:57.984Z</time></trkpt><trkpt lat="43.289032" lon="10.7905741"><ele>365.0</ele><time>2026-04-03T14:29:58.986Z</time></trkpt><trkpt lat="43.2889743" lon="10.7907149"><ele>361.8</ele><time>2026-04-03T14:29:59.998Z</time></trkpt><trkpt lat="43.2889133" lon="10.7908465"><ele>358.6</ele><time>2026-04-03T14:30:00.987Z</time></trkpt><trkpt lat="43.288853" lon="10.7909636"><ele>355.4</ele><time>2026-04-03T14:30:01.99Z</time></trkpt><trkpt lat="43.2887902" lon="10.7910565"><ele>352.2</ele><time>2026-04-03T14:30:03.004Z</time></trkpt><trkpt lat="43.2887224" lon="10.7911137"><ele>349.0</ele><time>2026-04-03T14:30:03.981Z</time></trkpt><trkpt lat="43.2886608" lon="10.7911382"><ele>349.0</ele><time>2026-04-03T14:30:04.982Z</time></trkpt><trkpt lat="43.2885949" lon="10.791109"><ele>349.0</ele><time>2026-04-03T14:30:06.995Z</time></trkpt><trkpt lat="43.2886326" lon="10.7910365"><ele>349.0</ele><time>2026-04-03T14:30:08.998Z</time></trkpt><trkpt lat="43.2887083" lon="10.7909817"><ele>349.0</ele><time>2026-04-03T14:30:09.989Z</time></trkpt><trkpt lat="43.2887668" lon="10.790906"><ele>349.0</ele><time>2026-04-03T14:30:10.995Z</time></trkpt><trkpt lat="43.2888107" lon="10.790791"><ele>349.0</ele><time>2026-04-03T14:30:11.985Z</time></trkpt><trkpt lat="43.2888343" lon="10.7906466"><ele>357.5</ele><time>2026-04-03T14:30:12.993Z</time></trkpt><trkpt lat="43.2888452" lon="10.7904954"><ele>366.0</ele><time>2026-04-03T14:30:13.991Z</time></trkpt><trkpt lat="43.2888573" lon="10.7903338"><ele>374.5</ele><time>2026-04-03T14:30:14.997Z</time></trkpt><trkpt lat="43.2888732" lon="10.7901713"><ele>383.0</ele><time>2026-04-03T14:30:15.995Z</time></trkpt><trkpt lat="43.2888934" lon="10.7900132"><ele>389.75</ele><time>2026-04-03T14:30:16.979Z</time></trkpt><trkpt lat="43.2888937" lon="10.7898499"><ele>396.5</ele><time>2026-04-03T14:30:17.99Z</time></trkpt><trkpt lat="43.2888825" lon="10.7896832"><ele>403.25</ele><time>2026-04-03T14:30:18.991Z</time></trkpt><trkpt lat="43.2888477" lon="10.7895178"><ele>410.0</ele><time>2026-04-03T14:30:19.982Z</time></trkpt><trkpt lat="43.2888073" lon="10.7893482"><ele>412.0</ele><time>2026-04-03T14:30:21.011Z</time></trkpt><trkpt lat="43.2887579" lon="10.7891771"><ele>414.0</ele><time>2026-04-03T14:30:21.984Z</time></trkpt><trkpt lat="43.2887002" lon="10.7890051"><ele>416.0</ele><time>2026-04-03T14:30:22.983Z</time></trkpt><trkpt lat="43.28864" lon="10.788832"><ele>418.0</ele><time>2026-04-03T14:30:23.987Z</time></trkpt><trkpt lat="43.2885852" lon="10.7886613"><ele>417.2</ele><time>2026-04-03T14:30:24.988Z</time></trkpt><trkpt lat="43.2885386" lon="10.7884944"><ele>416.4</ele><time>2026-04-03T14:30:25.988Z</time></trkpt><trkpt lat="43.2884992" lon="10.788343"><ele>415.59999999999997</ele><time>2026-04-03T14:30:26.991Z</time></trkpt><trkpt lat="43.288468" lon="10.7882162"><ele>414.79999999999995</ele><time>2026-04-03T14:30:27.984Z</time></trkpt><trkpt lat="43.2884493" lon="10.7880967"><ele>414.0</ele><time>2026-04-03T14:30:29.004Z</time></trkpt><trkpt lat="43.2884595" lon="10.7879882"><ele>414.0</ele><time>2026-04-03T14:30:29.989Z</time></trkpt><trkpt lat="43.2885007" lon="10.7878923"><ele>414.0</ele><time>2026-04-03T14:30:30.989Z</time></trkpt><trkpt lat="43.2885591" lon="10.7878105"><ele>414.0</ele><time>2026-04-03T14:30:31.983Z</time></trkpt><trkpt lat="43.2886334" lon="10.7877906"><ele>414.0</ele><time>2026-04-03T14:30:32.99Z</time></trkpt><trkpt lat="43.2887293" lon="10.7878308"><ele>414.0</ele><time>2026-04-03T14:30:33.981Z</time></trkpt><trkpt lat="43.2888361" lon="10.7878873"><ele>410.75</ele><time>2026-04-03T14:30:34.987Z</time></trkpt><trkpt lat="43.2889421" lon="10.7879702"><ele>407.5</ele><time>2026-04-03T14:30:35.986Z</time></trkpt><trkpt lat="43.2890568" lon="10.7880427"><ele>404.25</ele><time>2026-04-03T14:30:36.992Z</time></trkpt><trkpt lat="43.2891831" lon="10.7880928"><ele>401.0</ele><time>2026-04-03T14:30:38Z</time></trkpt><trkpt lat="43.2893122" lon="10.7881336"><ele>401.0</ele><time>2026-04-03T14:30:39Z</time></trkpt><trkpt lat="43.2894337" lon="10.7881533"><ele>401.0</ele><time>2026-04-03T14:30:39.984Z</time></trkpt><trkpt lat="43.2895469" lon="10.7881705"><ele>401.0</ele><time>2026-04-03T14:30:40.988Z</time></trkpt><trkpt lat="43.2896413" lon="10.7881914"><ele>401.0</ele><time>2026-04-03T14:30:41.991Z</time></trkpt><trkpt lat="43.289721" lon="10.7882054"><ele>401.0</ele><time>2026-04-03T14:30:42.992Z</time></trkpt><trkpt lat="43.2897856" lon="10.7881335"><ele>401.0</ele><time>2026-04-03T14:30:45.004Z</time></trkpt><trkpt lat="43.2897152" lon="10.7880146"><ele>401.0</ele><time>2026-04-03T14:30:46.981Z</time></trkpt><trkpt lat="43.2896281" lon="10.787988"><ele>401.0</ele><time>2026-04-03T14:30:47.987Z</time></trkpt><trkpt lat="43.2895322" lon="10.7879754"><ele>401.0</ele><time>2026-04-03T14:30:48.989Z</time></trkpt><trkpt lat="43.2894212" lon="10.7879562"><ele>401.0</ele><time>2026-04-03T14:30:49.994Z</time></trkpt><trkpt lat="43.2893051" lon="10.787918"><ele>401.0</ele><time>2026-04-03T14:30:50.98Z</time></trkpt><trkpt lat="43.2891931" lon="10.7878505"><ele>401.0</ele><time>2026-04-03T14:30:51.983Z</time></trkpt><trkpt lat="43.2890822" lon="10.7877565"><ele>401.0</ele><time>2026-04-03T14:30:52.984Z</time></trkpt><trkpt lat="43.2889713" lon="10.7876526"><ele>401.0</ele><time>2026-04-03T14:30:53.984Z</time></trkpt><trkpt lat="43.2888621" lon="10.7875533"><ele>405.5</ele><time>2026-04-03T14:30:54.984Z</time></trkpt><trkpt lat="43.2887546" lon="10.7874574"><ele>410.0</ele><time>2026-04-03T14:30:55.992Z</time></trkpt><trkpt lat="43.288648" lon="10.7873665"><ele>414.5</ele><time>2026-04-03T14:30:56.987Z</time></trkpt><trkpt lat="43.2885427" lon="10.7872804"><ele>419.0</ele><time>2026-04-03T14:30:57.983Z</time></trkpt><trkpt lat="43.2884389" lon="10.7871972"><ele>419.0</ele><time>2026-04-03T14:30:58.979Z</time></trkpt><trkpt lat="43.2883231" lon="10.787152"><ele>419.0</ele><time>2026-04-03T14:30:59.987Z</time></trkpt><trkpt lat="43.2882038" lon="10.7871361"><ele>419.0</ele><time>2026-04-03T14:31:00.979Z</time></trkpt><trkpt lat="43.2880867" lon="10.787147"><ele>419.0</ele><time>2026-04-03T14:31:01.985Z</time></trkpt><trkpt lat="43.2879842" lon="10.7871746"><ele>419.49999999999994</ele><time>2026-04-03T14:31:02.988Z</time></trkpt><trkpt lat="43.2878997" lon="10.7872067"><ele>420.0</ele><time>2026-04-03T14:31:03.981Z</time></trkpt><trkpt lat="43.2878301" lon="10.7872127"><ele>420.5</ele><time>2026-04-03T14:31:04.984Z</time></trkpt><trkpt lat="43.287734" lon="10.7871415"><ele>421.0</ele><time>2026-04-03T14:31:06.992Z</time></trkpt><trkpt lat="43.2877094" lon="10.7870554"><ele>421.49999999999994</ele><time>2026-04-03T14:31:08.009Z</time></trkpt><trkpt lat="43.2877047" lon="10.7869463"><ele>422.0</ele><time>2026-04-03T14:31:09.006Z</time></trkpt><trkpt lat="43.2876891" lon="10.7868298"><ele>422.0</ele><time>2026-04-03T14:31:09.987Z</time></trkpt><trkpt lat="43.2876526" lon="10.7867151"><ele>422.0</ele><time>2026-04-03T14:31:11.002Z</time></trkpt><trkpt lat="43.2875961" lon="10.786604"><ele>422.0</ele><time>2026-04-03T14:31:11.992Z</time></trkpt><trkpt lat="43.287526" lon="10.7864912"><ele>422.0</ele><time>2026-04-03T14:31:12.993Z</time></trkpt><trkpt lat="43.2874569" lon="10.7863794"><ele>422.0</ele><time>2026-04-03T14:31:13.982Z</time></trkpt><trkpt lat="43.287383" lon="10.7862619"><ele>422.0</ele><time>2026-04-03T14:31:14.986Z</time></trkpt><trkpt lat="43.2873078" lon="10.7861519"><ele>422.0</ele><time>2026-04-03T14:31:15.986Z</time></trkpt><trkpt lat="43.2872212" lon="10.7860637"><ele>422.0</ele><time>2026-04-03T14:31:16.992Z</time></trkpt><trkpt lat="43.287131" lon="10.7859891"><ele>422.0</ele><time>2026-04-03T14:31:17.994Z</time></trkpt><trkpt lat="43.2870305" lon="10.7859423"><ele>422.0</ele><time>2026-04-03T14:31:18.991Z</time></trkpt><trkpt lat="43.2869172" lon="10.7859362"><ele>422.6</ele><time>2026-04-03T14:31:19.988Z</time></trkpt><trkpt lat="43.2868115" lon="10.7859292"><ele>423.20000000000005</ele><time>2026-04-03T14:31:21.002Z</time></trkpt><trkpt lat="43.2867265" lon="10.7858964"><ele>423.8</ele><time>2026-04-03T14:31:21.995Z</time></trkpt><trkpt lat="43.2866564" lon="10.7858115"><ele>424.4</ele><time>2026-04-03T14:31:22.995Z</time></trkpt><trkpt lat="43.2865929" lon="10.7857062"><ele>425.0</ele><time>2026-04-03T14:31:23.993Z</time></trkpt><trkpt lat="43.2865605" lon="10.7855663"><ele>425.0</ele><time>2026-04-03T14:31:24.993Z</time></trkpt><trkpt lat="43.2865226" lon="10.7854211"><ele>425.0</ele><time>2026-04-03T14:31:25.982Z</time></trkpt><trkpt lat="43.2864737" lon="10.7852628"><ele>425.0</ele><time>2026-04-03T14:31:26.993Z</time></trkpt><trkpt lat="43.2864163" lon="10.7851014"><ele>425.0</ele><time>2026-04-03T14:31:27.982Z</time></trkpt><trkpt lat="43.2863529" lon="10.784942"><ele>425.2</ele><time>2026-04-03T14:31:28.984Z</time></trkpt><trkpt lat="43.2862911" lon="10.7847941"><ele>425.4</ele><time>2026-04-03T14:31:29.99Z</time></trkpt><trkpt lat="43.2862355" lon="10.7846575"><ele>425.6</ele><time>2026-04-03T14:31:31Z</time></trkpt><trkpt lat="43.286188" lon="10.7845349"><ele>425.8</ele><time>2026-04-03T14:31:31.99Z</time></trkpt><trkpt lat="43.286128" lon="10.7844235"><ele>426.0</ele><time>2026-04-03T14:31:32.993Z</time></trkpt><trkpt lat="43.286061" lon="10.7843223"><ele>426.0</ele><time>2026-04-03T14:31:33.994Z</time></trkpt><trkpt lat="43.2859714" lon="10.7842684"><ele>426.0</ele><time>2026-04-03T14:31:34.987Z</time></trkpt><trkpt lat="43.2858621" lon="10.7842475"><ele>426.0</ele><time>2026-04-03T14:31:35.995Z</time></trkpt><trkpt lat="43.2857553" lon="10.7842168"><ele>426.0</ele><time>2026-04-03T14:31:36.982Z</time></trkpt><trkpt lat="43.2856519" lon="10.7841693"><ele>426.0</ele><time>2026-04-03T14:31:37.987Z</time></trkpt><trkpt lat="43.2855513" lon="10.7840973"><ele>423.5</ele><time>2026-04-03T14:31:38.986Z</time></trkpt><trkpt lat="43.2854492" lon="10.7840211"><ele>421.0</ele><time>2026-04-03T14:31:39.994Z</time></trkpt><trkpt lat="43.2853453" lon="10.7839477"><ele>418.5</ele><time>2026-04-03T14:31:40.982Z</time></trkpt><trkpt lat="43.2852377" lon="10.783878"><ele>416.0</ele><time>2026-04-03T14:31:41.984Z</time></trkpt><trkpt lat="43.2851306" lon="10.7838059"><ele>416.0</ele><time>2026-04-03T14:31:42.984Z</time></trkpt><trkpt lat="43.2850245" lon="10.7837427"><ele>416.0</ele><time>2026-04-03T14:31:43.989Z</time></trkpt><trkpt lat="43.2849231" lon="10.7836908"><ele>416.0</ele><time>2026-04-03T14:31:45.014Z</time></trkpt><trkpt lat="43.284826" lon="10.7836457"><ele>416.0</ele><time>2026-04-03T14:31:46.003Z</time></trkpt><trkpt lat="43.2847285" lon="10.7836005"><ele>416.0</ele><time>2026-04-03T14:31:46.984Z</time></trkpt><trkpt lat="43.2846298" lon="10.7835474"><ele>413.5</ele><time>2026-04-03T14:31:47.997Z</time></trkpt><trkpt lat="43.2845299" lon="10.7834892"><ele>411.0</ele><time>2026-04-03T14:31:48.982Z</time></trkpt><trkpt lat="43.2844247" lon="10.7834238"><ele>408.5</ele><time>2026-04-03T14:31:49.989Z</time></trkpt><trkpt lat="43.2843172" lon="10.7833568"><ele>406.0</ele><time>2026-04-03T14:31:50.989Z</time></trkpt><trkpt lat="43.2842083" lon="10.7832818"><ele>406.0</ele><time>2026-04-03T14:31:52.008Z</time></trkpt><trkpt lat="43.2841011" lon="10.7832132"><ele>406.0</ele><time>2026-04-03T14:31:52.993Z</time></trkpt><trkpt lat="43.2839904" lon="10.7831442"><ele>406.0</ele><time>2026-04-03T14:31:54.012Z</time></trkpt><trkpt lat="43.2838889" lon="10.7830809"><ele>406.0</ele><time>2026-04-03T14:31:55.005Z</time></trkpt><trkpt lat="43.2837906" lon="10.7830218"><ele>403.0</ele><time>2026-04-03T14:31:55.993Z</time></trkpt><trkpt lat="43.2836898" lon="10.7829667"><ele>400.0</ele><time>2026-04-03T14:31:56.987Z</time></trkpt><trkpt lat="43.2835731" lon="10.7829167"><ele>397.0</ele><time>2026-04-03T14:31:58.015Z</time></trkpt><trkpt lat="43.2834539" lon="10.7828716"><ele>394.0</ele><time>2026-04-03T14:31:58.983Z</time></trkpt><trkpt lat="43.2833305" lon="10.7828324"><ele>394.0</ele><time>2026-04-03T14:31:59.997Z</time></trkpt><trkpt lat="43.283212" lon="10.7827938"><ele>394.0</ele><time>2026-04-03T14:32:00.987Z</time></trkpt><trkpt lat="43.2830998" lon="10.7827657"><ele>394.0</ele><time>2026-04-03T14:32:01.987Z</time></trkpt><trkpt lat="43.2829931" lon="10.7827452"><ele>394.0</ele><time>2026-04-03T14:32:03.007Z</time></trkpt><trkpt lat="43.282899" lon="10.7827294"><ele>394.0</ele><time>2026-04-03T14:32:03.991Z</time></trkpt><trkpt lat="43.2828141" lon="10.782714"><ele>393.83333333333337</ele><time>2026-04-03T14:32:04.985Z</time></trkpt><trkpt lat="43.2827382" lon="10.7827026"><ele>393.6666666666667</ele><time>2026-04-03T14:32:05.997Z</time></trkpt><trkpt lat="43.282662" lon="10.7826773"><ele>393.5</ele><time>2026-04-03T14:32:06.993Z</time></trkpt><trkpt lat="43.2825836" lon="10.782645"><ele>393.33333333333337</ele><time>2026-04-03T14:32:07.991Z</time></trkpt><trkpt lat="43.2825065" lon="10.7825788"><ele>393.1666666666667</ele><time>2026-04-03T14:32:08.988Z</time></trkpt><trkpt lat="43.2824361" lon="10.7824773"><ele>393.0</ele><time>2026-04-03T14:32:10Z</time></trkpt><trkpt lat="43.2823687" lon="10.782355"><ele>393.0</ele><time>2026-04-03T14:32:10.986Z</time></trkpt><trkpt lat="43.2822948" lon="10.7822215"><ele>393.0</ele><time>2026-04-03T14:32:11.995Z</time></trkpt><trkpt lat="43.2822194" lon="10.7820882"><ele>393.0</ele><time>2026-04-03T14:32:13.01Z</time></trkpt><trkpt lat="43.2821456" lon="10.7819629"><ele>393.0</ele><time>2026-04-03T14:32:14.009Z</time></trkpt><trkpt lat="43.2820811" lon="10.7818382"><ele>393.0</ele><time>2026-04-03T14:32:14.996Z</time></trkpt><trkpt lat="43.2820221" lon="10.7816981"><ele>393.0</ele><time>2026-04-03T14:32:15.999Z</time></trkpt><trkpt lat="43.2819714" lon="10.7815432"><ele>393.0</ele><time>2026-04-03T14:32:17.004Z</time></trkpt><trkpt lat="43.2819256" lon="10.7813832"><ele>393.0</ele><time>2026-04-03T14:32:18.017Z</time></trkpt><trkpt lat="43.2818839" lon="10.7812292"><ele>393.0</ele><time>2026-04-03T14:32:18.985Z</time></trkpt><trkpt lat="43.2818407" lon="10.7810825"><ele>393.0</ele><time>2026-04-03T14:32:20Z</time></trkpt><trkpt lat="43.281799" lon="10.78095"><ele>393.0</ele><time>2026-04-03T14:32:21.001Z</time></trkpt><trkpt lat="43.2817595" lon="10.780824"><ele>393.0</ele><time>2026-04-03T14:32:22.006Z</time></trkpt><trkpt lat="43.2817206" lon="10.7807065"><ele>393.0</ele><time>2026-04-03T14:32:22.989Z</time></trkpt><trkpt lat="43.2816748" lon="10.7805912"><ele>393.4</ele><time>2026-04-03T14:32:24.003Z</time></trkpt><trkpt lat="43.2816249" lon="10.7804756"><ele>393.79999999999995</ele><time>2026-04-03T14:32:24.997Z</time></trkpt><trkpt lat="43.281558" lon="10.7803574"><ele>394.2</ele><time>2026-04-03T14:32:25.997Z</time></trkpt><trkpt lat="43.2814924" lon="10.7802371"><ele>394.6</ele><time>2026-04-03T14:32:26.991Z</time></trkpt><trkpt lat="43.2814344" lon="10.7801031"><ele>395.0</ele><time>2026-04-03T14:32:28Z</time></trkpt><trkpt lat="43.2813746" lon="10.7799709"><ele>394.0</ele><time>2026-04-03T14:32:28.987Z</time></trkpt><trkpt lat="43.2813269" lon="10.7798242"><ele>393.0</ele><time>2026-04-03T14:32:29.997Z</time></trkpt><trkpt lat="43.2812894" lon="10.7796613"><ele>392.0</ele><time>2026-04-03T14:32:30.996Z</time></trkpt><trkpt lat="43.281257" lon="10.7794935"><ele>391.0</ele><time>2026-04-03T14:32:31.99Z</time></trkpt><trkpt lat="43.2812389" lon="10.7793059"><ele>393.25</ele><time>2026-04-03T14:32:32.978Z</time></trkpt><trkpt lat="43.2812255" lon="10.7791089"><ele>395.5</ele><time>2026-04-03T14:32:33.992Z</time></trkpt><trkpt lat="43.2812162" lon="10.7789151"><ele>397.75</ele><time>2026-04-03T14:32:35.012Z</time></trkpt><trkpt lat="43.281203" lon="10.7787239"><ele>400.0</ele><time>2026-04-03T14:32:35.983Z</time></trkpt><trkpt lat="43.2811848" lon="10.7785281"><ele>398.25</ele><time>2026-04-03T14:32:36.983Z</time></trkpt><trkpt lat="43.2811575" lon="10.778333"><ele>396.5</ele><time>2026-04-03T14:32:37.978Z</time></trkpt><trkpt lat="43.2811231" lon="10.7781457"><ele>394.75</ele><time>2026-04-03T14:32:38.988Z</time></trkpt><trkpt lat="43.2810878" lon="10.7779677"><ele>393.0</ele><time>2026-04-03T14:32:39.983Z</time></trkpt><trkpt lat="43.2810564" lon="10.7777909"><ele>390.75</ele><time>2026-04-03T14:32:41.004Z</time></trkpt><trkpt lat="43.2810322" lon="10.7776203"><ele>388.5</ele><time>2026-04-03T14:32:41.994Z</time></trkpt><trkpt lat="43.2810148" lon="10.7774479"><ele>386.25</ele><time>2026-04-03T14:32:42.993Z</time></trkpt><trkpt lat="43.2810049" lon="10.7772723"><ele>384.0</ele><time>2026-04-03T14:32:43.985Z</time></trkpt><trkpt lat="43.2809995" lon="10.7770944"><ele>384.0</ele><time>2026-04-03T14:32:44.999Z</time></trkpt><trkpt lat="43.2810054" lon="10.7769094"><ele>384.0</ele><time>2026-04-03T14:32:45.992Z</time></trkpt><trkpt lat="43.2810168" lon="10.7767152"><ele>384.0</ele><time>2026-04-03T14:32:46.993Z</time></trkpt><trkpt lat="43.2810328" lon="10.7765238"><ele>384.0</ele><time>2026-04-03T14:32:47.986Z</time></trkpt><trkpt lat="43.2810478" lon="10.776341"><ele>381.75</ele><time>2026-04-03T14:32:48.995Z</time></trkpt><trkpt lat="43.2810575" lon="10.7761681"><ele>379.5</ele><time>2026-04-03T14:32:49.984Z</time></trkpt><trkpt lat="43.2810663" lon="10.775998"><ele>377.25</ele><time>2026-04-03T14:32:50.984Z</time></trkpt><trkpt lat="43.2810809" lon="10.7758334"><ele>375.0</ele><time>2026-04-03T14:32:51.989Z</time></trkpt><trkpt lat="43.2811114" lon="10.7756731"><ele>373.75</ele><time>2026-04-03T14:32:52.985Z</time></trkpt><trkpt lat="43.2811521" lon="10.7755151"><ele>372.5</ele><time>2026-04-03T14:32:53.999Z</time></trkpt><trkpt lat="43.2811952" lon="10.7753559"><ele>371.25</ele><time>2026-04-03T14:32:54.985Z</time></trkpt><trkpt lat="43.2812346" lon="10.7751885"><ele>370.0</ele><time>2026-04-03T14:32:55.984Z</time></trkpt><trkpt lat="43.2812704" lon="10.77502"><ele>370.0</ele><time>2026-04-03T14:32:56.996Z</time></trkpt><trkpt lat="43.2813035" lon="10.7748575"><ele>370.0</ele><time>2026-04-03T14:32:57.998Z</time></trkpt><trkpt lat="43.2813378" lon="10.7747019"><ele>370.0</ele><time>2026-04-03T14:32:58.991Z</time></trkpt><trkpt lat="43.2813763" lon="10.7745528"><ele>370.0</ele><time>2026-04-03T14:32:59.988Z</time></trkpt><trkpt lat="43.2814146" lon="10.7744092"><ele>364.8</ele><time>2026-04-03T14:33:00.997Z</time></trkpt><trkpt lat="43.2814484" lon="10.7742732"><ele>359.6</ele><time>2026-04-03T14:33:01.99Z</time></trkpt><trkpt lat="43.2814737" lon="10.7741375"><ele>354.4</ele><time>2026-04-03T14:33:02.98Z</time></trkpt><trkpt lat="43.2814854" lon="10.7740015"><ele>349.2</ele><time>2026-04-03T14:33:03.984Z</time></trkpt><trkpt lat="43.2814877" lon="10.7738667"><ele>344.0</ele><time>2026-04-03T14:33:04.984Z</time></trkpt><trkpt lat="43.2814529" lon="10.7737263"><ele>349.0</ele><time>2026-04-03T14:33:05.999Z</time></trkpt><trkpt lat="43.281403" lon="10.7735687"><ele>354.0</ele><time>2026-04-03T14:33:06.98Z</time></trkpt><trkpt lat="43.2813683" lon="10.7733972"><ele>359.0</ele><time>2026-04-03T14:33:07.995Z</time></trkpt><trkpt lat="43.2813723" lon="10.7732341"><ele>364.0</ele><time>2026-04-03T14:33:09Z</time></trkpt><trkpt lat="43.2813947" lon="10.7730853"><ele>364.0</ele><time>2026-04-03T14:33:09.986Z</time></trkpt><trkpt lat="43.2814198" lon="10.7729428"><ele>364.0</ele><time>2026-04-03T14:33:10.997Z</time></trkpt><trkpt lat="43.2814191" lon="10.772798"><ele>364.0</ele><time>2026-04-03T14:33:12.002Z</time></trkpt><trkpt lat="43.2813955" lon="10.7726486"><ele>364.0</ele><time>2026-04-03T14:33:12.985Z</time></trkpt><trkpt lat="43.2813567" lon="10.7724968"><ele>364.0</ele><time>2026-04-03T14:33:13.987Z</time></trkpt><trkpt lat="43.2813127" lon="10.7723535"><ele>360.25</ele><time>2026-04-03T14:33:14.986Z</time></trkpt><trkpt lat="43.281247" lon="10.7722271"><ele>356.5</ele><time>2026-04-03T14:33:15.983Z</time></trkpt><trkpt lat="43.2811581" lon="10.7721141"><ele>352.75</ele><time>2026-04-03T14:33:16.996Z</time></trkpt><trkpt lat="43.2810683" lon="10.7720166"><ele>349.0</ele><time>2026-04-03T14:33:17.993Z</time></trkpt><trkpt lat="43.2809807" lon="10.7719334"><ele>345.25</ele><time>2026-04-03T14:33:18.986Z</time></trkpt><trkpt lat="43.2808839" lon="10.7718374"><ele>341.5</ele><time>2026-04-03T14:33:19.977Z</time></trkpt><trkpt lat="43.2807953" lon="10.7717242"><ele>337.75</ele><time>2026-04-03T14:33:20.988Z</time></trkpt><trkpt lat="43.2807439" lon="10.7715731"><ele>334.0</ele><time>2026-04-03T14:33:21.997Z</time></trkpt><trkpt lat="43.2807224" lon="10.7714118"><ele>334.0</ele><time>2026-04-03T14:33:22.992Z</time></trkpt><trkpt lat="43.2807193" lon="10.771246"><ele>334.0</ele><time>2026-04-03T14:33:23.996Z</time></trkpt><trkpt lat="43.280717" lon="10.7710784"><ele>334.0</ele><time>2026-04-03T14:33:24.984Z</time></trkpt><trkpt lat="43.2807107" lon="10.7709059"><ele>334.0</ele><time>2026-04-03T14:33:25.997Z</time></trkpt><trkpt lat="43.2806988" lon="10.770744"><ele>333.6</ele><time>2026-04-03T14:33:27.001Z</time></trkpt><trkpt lat="43.2806832" lon="10.7705967"><ele>333.2</ele><time>2026-04-03T14:33:27.994Z</time></trkpt><trkpt lat="43.280673" lon="10.7704502"><ele>332.8</ele><time>2026-04-03T14:33:28.989Z</time></trkpt><trkpt lat="43.2806782" lon="10.7702951"><ele>332.40000000000003</ele><time>2026-04-03T14:33:29.993Z</time></trkpt><trkpt lat="43.2807091" lon="10.7701388"><ele>332.0</ele><time>2026-04-03T14:33:30.983Z</time></trkpt><trkpt lat="43.2807581" lon="10.7699848"><ele>333.25</ele><time>2026-04-03T14:33:31.98Z</time></trkpt><trkpt lat="43.2808373" lon="10.7698454"><ele>334.5</ele><time>2026-04-03T14:33:32.995Z</time></trkpt><trkpt lat="43.2809381" lon="10.7697293"><ele>335.75</ele><time>2026-04-03T14:33:33.986Z</time></trkpt><trkpt lat="43.2810636" lon="10.769644"><ele>337.0</ele><time>2026-04-03T14:33:34.991Z</time></trkpt><trkpt lat="43.2812012" lon="10.7695881"><ele>337.0</ele><time>2026-04-03T14:33:35.993Z</time></trkpt><trkpt lat="43.2813424" lon="10.7695664"><ele>337.0</ele><time>2026-04-03T14:33:36.989Z</time></trkpt><trkpt lat="43.2814778" lon="10.7695445"><ele>337.0</ele><time>2026-04-03T14:33:37.99Z</time></trkpt><trkpt lat="43.2816019" lon="10.7695172"><ele>337.0</ele><time>2026-04-03T14:33:38.988Z</time></trkpt><trkpt lat="43.2817179" lon="10.7694667"><ele>336.5</ele><time>2026-04-03T14:33:39.981Z</time></trkpt><trkpt lat="43.2818253" lon="10.7693799"><ele>336.0</ele><time>2026-04-03T14:33:40.982Z</time></trkpt><trkpt lat="43.2819238" lon="10.7692611"><ele>335.5</ele><time>2026-04-03T14:33:41.999Z</time></trkpt><trkpt lat="43.2820167" lon="10.7691317"><ele>335.0</ele><time>2026-04-03T14:33:42.984Z</time></trkpt><trkpt lat="43.2821072" lon="10.7689955"><ele>335.0</ele><time>2026-04-03T14:33:43.992Z</time></trkpt><trkpt lat="43.2821986" lon="10.76887"><ele>335.0</ele><time>2026-04-03T14:33:44.989Z</time></trkpt><trkpt lat="43.2822987" lon="10.7687658"><ele>335.0</ele><time>2026-04-03T14:33:45.991Z</time></trkpt><trkpt lat="43.2824013" lon="10.7686845"><ele>335.0</ele><time>2026-04-03T14:33:46.99Z</time></trkpt><trkpt lat="43.2825157" lon="10.7686312"><ele>332.75</ele><time>2026-04-03T14:33:47.988Z</time></trkpt><trkpt lat="43.2826367" lon="10.7685891"><ele>330.5</ele><time>2026-04-03T14:33:48.981Z</time></trkpt><trkpt lat="43.2827569" lon="10.768561"><ele>328.25</ele><time>2026-04-03T14:33:49.987Z</time></trkpt><trkpt lat="43.2828709" lon="10.7685349"><ele>326.0</ele><time>2026-04-03T14:33:50.982Z</time></trkpt><trkpt lat="43.2829828" lon="10.7684973"><ele>326.0</ele><time>2026-04-03T14:33:51.983Z</time></trkpt><trkpt lat="43.2830959" lon="10.7684366"><ele>326.0</ele><time>2026-04-03T14:33:52.986Z</time></trkpt><trkpt lat="43.2832069" lon="10.7683481"><ele>326.0</ele><time>2026-04-03T14:33:54Z</time></trkpt><trkpt lat="43.2833019" lon="10.76823"><ele>326.0</ele><time>2026-04-03T14:33:55Z</time></trkpt><trkpt lat="43.2833776" lon="10.7680905"><ele>323.75</ele><time>2026-04-03T14:33:55.987Z</time></trkpt><trkpt lat="43.2834352" lon="10.7679308"><ele>321.5</ele><time>2026-04-03T14:33:56.989Z</time></trkpt><trkpt lat="43.283466" lon="10.7677469"><ele>319.25</ele><time>2026-04-03T14:33:57.987Z</time></trkpt><trkpt lat="43.2834866" lon="10.7675563"><ele>317.0</ele><time>2026-04-03T14:33:58.986Z</time></trkpt><trkpt lat="43.2835052" lon="10.767368"><ele>317.0</ele><time>2026-04-03T14:33:59.993Z</time></trkpt><trkpt lat="43.2835261" lon="10.7671938"><ele>317.0</ele><time>2026-04-03T14:34:00.987Z</time></trkpt><trkpt lat="43.2835404" lon="10.7670364"><ele>317.0</ele><time>2026-04-03T14:34:02Z</time></trkpt><trkpt lat="43.2835357" lon="10.766885"><ele>317.0</ele><time>2026-04-03T14:34:02.993Z</time></trkpt><trkpt lat="43.2835085" lon="10.766732"><ele>317.0</ele><time>2026-04-03T14:34:03.988Z</time></trkpt><trkpt lat="43.2834604" lon="10.7665774"><ele>317.0</ele><time>2026-04-03T14:34:04.99Z</time></trkpt><trkpt lat="43.2833957" lon="10.7664168"><ele>317.0</ele><time>2026-04-03T14:34:05.996Z</time></trkpt><trkpt lat="43.2833342" lon="10.7662511"><ele>317.0</ele><time>2026-04-03T14:34:06.985Z</time></trkpt><trkpt lat="43.2832854" lon="10.7660818"><ele>314.75</ele><time>2026-04-03T14:34:07.986Z</time></trkpt><trkpt lat="43.2832553" lon="10.7659143"><ele>312.5</ele><time>2026-04-03T14:34:08.983Z</time></trkpt><trkpt lat="43.2832393" lon="10.7657481"><ele>310.25</ele><time>2026-04-03T14:34:09.982Z</time></trkpt><trkpt lat="43.283234" lon="10.7655901"><ele>308.0</ele><time>2026-04-03T14:34:10.996Z</time></trkpt><trkpt lat="43.2832381" lon="10.765456"><ele>308.0</ele><time>2026-04-03T14:34:12.002Z</time></trkpt><trkpt lat="43.2832567" lon="10.7653384"><ele>308.0</ele><time>2026-04-03T14:34:12.989Z</time></trkpt><trkpt lat="43.2832841" lon="10.7652313"><ele>308.0</ele><time>2026-04-03T14:34:14.001Z</time></trkpt><trkpt lat="43.2833464" lon="10.7651622"><ele>308.0</ele><time>2026-04-03T14:34:14.995Z</time></trkpt><trkpt lat="43.2834319" lon="10.7651163"><ele>308.0</ele><time>2026-04-03T14:34:15.986Z</time></trkpt><trkpt lat="43.2835386" lon="10.7651173"><ele>308.0</ele><time>2026-04-03T14:34:17.001Z</time></trkpt><trkpt lat="43.2836576" lon="10.7651258"><ele>308.5</ele><time>2026-04-03T14:34:18.016Z</time></trkpt><trkpt lat="43.2837887" lon="10.7651206"><ele>309.0</ele><time>2026-04-03T14:34:18.987Z</time></trkpt><trkpt lat="43.2839247" lon="10.7650989"><ele>309.5</ele><time>2026-04-03T14:34:19.988Z</time></trkpt><trkpt lat="43.2840614" lon="10.7650998"><ele>310.0</ele><time>2026-04-03T14:34:20.977Z</time></trkpt><trkpt lat="43.2841972" lon="10.7651229"><ele>308.75</ele><time>2026-04-03T14:34:21.997Z</time></trkpt><trkpt lat="43.2843316" lon="10.7651648"><ele>307.5</ele><time>2026-04-03T14:34:22.987Z</time></trkpt><trkpt lat="43.2844671" lon="10.7652128"><ele>306.25</ele><time>2026-04-03T14:34:23.984Z</time></trkpt><trkpt lat="43.2846011" lon="10.7652639"><ele>305.0</ele><time>2026-04-03T14:34:24.989Z</time></trkpt><trkpt lat="43.284733" lon="10.7653147"><ele>299.5</ele><time>2026-04-03T14:34:25.982Z</time></trkpt><trkpt lat="43.2848656" lon="10.7653624"><ele>294.0</ele><time>2026-04-03T14:34:26.992Z</time></trkpt><trkpt lat="43.2849955" lon="10.7654065"><ele>288.5</ele><time>2026-04-03T14:34:27.991Z</time></trkpt><trkpt lat="43.2851248" lon="10.7654495"><ele>283.0</ele><time>2026-04-03T14:34:28.98Z</time></trkpt><trkpt lat="43.2852574" lon="10.765488"><ele>283.0</ele><time>2026-04-03T14:34:30.001Z</time></trkpt><trkpt lat="43.2853895" lon="10.7655239"><ele>283.0</ele><time>2026-04-03T14:34:30.996Z</time></trkpt><trkpt lat="43.2855191" lon="10.7655611"><ele>283.0</ele><time>2026-04-03T14:34:31.986Z</time></trkpt><trkpt lat="43.2856468" lon="10.7655967"><ele>283.0</ele><time>2026-04-03T14:34:32.997Z</time></trkpt><trkpt lat="43.2857712" lon="10.7656128"><ele>282.75</ele><time>2026-04-03T14:34:33.985Z</time></trkpt><trkpt lat="43.2858993" lon="10.7656035"><ele>282.5</ele><time>2026-04-03T14:34:34.991Z</time></trkpt><trkpt lat="43.2860266" lon="10.7655835"><ele>282.25</ele><time>2026-04-03T14:34:35.995Z</time></trkpt><trkpt lat="43.2861503" lon="10.7655684"><ele>282.0</ele><time>2026-04-03T14:34:36.983Z</time></trkpt><trkpt lat="43.2862719" lon="10.7655654"><ele>282.0</ele><time>2026-04-03T14:34:37.983Z</time></trkpt><trkpt lat="43.2863931" lon="10.7655684"><ele>282.0</ele><time>2026-04-03T14:34:38.998Z</time></trkpt><trkpt lat="43.2865168" lon="10.7655928"><ele>282.0</ele><time>2026-04-03T14:34:39.981Z</time></trkpt><trkpt lat="43.2866451" lon="10.7656211"><ele>282.0</ele><time>2026-04-03T14:34:40.984Z</time></trkpt><trkpt lat="43.2867696" lon="10.7656501"><ele>281.25</ele><time>2026-04-03T14:34:41.986Z</time></trkpt><trkpt lat="43.2868905" lon="10.765681"><ele>280.5</ele><time>2026-04-03T14:34:42.979Z</time></trkpt><trkpt lat="43.2870108" lon="10.7657327"><ele>279.75</ele><time>2026-04-03T14:34:43.987Z</time></trkpt><trkpt lat="43.2871358" lon="10.7657976"><ele>279.0</ele><time>2026-04-03T14:34:44.981Z</time></trkpt><trkpt lat="43.2872639" lon="10.7658891"><ele>277.75</ele><time>2026-04-03T14:34:45.985Z</time></trkpt><trkpt lat="43.2873901" lon="10.7659898"><ele>276.5</ele><time>2026-04-03T14:34:46.983Z</time></trkpt><trkpt lat="43.2875131" lon="10.7660977"><ele>275.25</ele><time>2026-04-03T14:34:47.99Z</time></trkpt><trkpt lat="43.2876312" lon="10.7662079"><ele>274.0</ele><time>2026-04-03T14:34:48.981Z</time></trkpt><trkpt lat="43.2877419" lon="10.7663302"><ele>271.75</ele><time>2026-04-03T14:34:49.989Z</time></trkpt><trkpt lat="43.2878382" lon="10.7664637"><ele>269.5</ele><time>2026-04-03T14:34:51.001Z</time></trkpt><trkpt lat="43.287915" lon="10.766607"><ele>267.25</ele><time>2026-04-03T14:34:51.991Z</time></trkpt><trkpt lat="43.2879741" lon="10.7667615"><ele>265.0</ele><time>2026-04-03T14:34:52.984Z</time></trkpt><trkpt lat="43.288017" lon="10.7669276"><ele>261.5</ele><time>2026-04-03T14:34:54.006Z</time></trkpt><trkpt lat="43.2880469" lon="10.7670932"><ele>258.0</ele><time>2026-04-03T14:34:54.987Z</time></trkpt><trkpt lat="43.2880845" lon="10.7672526"><ele>254.5</ele><time>2026-04-03T14:34:55.981Z</time></trkpt><trkpt lat="43.2881327" lon="10.7674122"><ele>251.0</ele><time>2026-04-03T14:34:56.992Z</time></trkpt><trkpt lat="43.2882102" lon="10.7675589"><ele>247.5</ele><time>2026-04-03T14:34:57.983Z</time></trkpt><trkpt lat="43.2883017" lon="10.7676966"><ele>244.0</ele><time>2026-04-03T14:34:58.978Z</time></trkpt><trkpt lat="43.2883997" lon="10.7678237"><ele>240.5</ele><time>2026-04-03T14:34:59.998Z</time></trkpt><trkpt lat="43.2884923" lon="10.7679322"><ele>237.0</ele><time>2026-04-03T14:35:00.989Z</time></trkpt><trkpt lat="43.2885871" lon="10.7680161"><ele>237.0</ele><time>2026-04-03T14:35:01.982Z</time></trkpt><trkpt lat="43.2886904" lon="10.7680737"><ele>237.0</ele><time>2026-04-03T14:35:02.987Z</time></trkpt><trkpt lat="43.2888075" lon="10.7681016"><ele>237.0</ele><time>2026-04-03T14:35:03.99Z</time></trkpt><trkpt lat="43.2889362" lon="10.7681063"><ele>237.0</ele><time>2026-04-03T14:35:04.982Z</time></trkpt><trkpt lat="43.2890852" lon="10.7680905"><ele>235.0</ele><time>2026-04-03T14:35:05.989Z</time></trkpt><trkpt lat="43.2892444" lon="10.7680875"><ele>233.0</ele><time>2026-04-03T14:35:06.996Z</time></trkpt><trkpt lat="43.2894152" lon="10.7680895"><ele>231.0</ele><time>2026-04-03T14:35:07.982Z</time></trkpt><trkpt lat="43.2895886" lon="10.7680947"><ele>227.66666666666669</ele><time>2026-04-03T14:35:08.981Z</time></trkpt><trkpt lat="43.2897591" lon="10.7680994"><ele>224.33333333333334</ele><time>2026-04-03T14:35:09.987Z</time></trkpt><trkpt lat="43.2899301" lon="10.768102"><ele>221.0</ele><time>2026-04-03T14:35:10.986Z</time></trkpt><trkpt lat="43.2901068" lon="10.7681048"><ele>221.0</ele><time>2026-04-03T14:35:11.987Z</time></trkpt><trkpt lat="43.2902901" lon="10.7681085"><ele>221.0</ele><time>2026-04-03T14:35:12.987Z</time></trkpt><trkpt lat="43.2904774" lon="10.7681152"><ele>221.0</ele><time>2026-04-03T14:35:13.983Z</time></trkpt><trkpt lat="43.290669" lon="10.7681185"><ele>217.66666666666669</ele><time>2026-04-03T14:35:14.994Z</time></trkpt><trkpt lat="43.2908643" lon="10.7681205"><ele>214.33333333333331</ele><time>2026-04-03T14:35:16.02Z</time></trkpt><trkpt lat="43.291056" lon="10.7681241"><ele>211.0</ele><time>2026-04-03T14:35:16.979Z</time></trkpt><trkpt lat="43.2912505" lon="10.7681299"><ele>209.66666666666666</ele><time>2026-04-03T14:35:17.978Z</time></trkpt><trkpt lat="43.2914384" lon="10.7681374"><ele>208.33333333333331</ele><time>2026-04-03T14:35:18.982Z</time></trkpt><trkpt lat="43.291615" lon="10.7681486"><ele>207.0</ele><time>2026-04-03T14:35:19.987Z</time></trkpt><trkpt lat="43.2917784" lon="10.7681741"><ele>207.0</ele><time>2026-04-03T14:35:20.983Z</time></trkpt><trkpt lat="43.2919327" lon="10.7682214"><ele>207.0</ele><time>2026-04-03T14:35:21.99Z</time></trkpt><trkpt lat="43.2920814" lon="10.7682794"><ele>207.0</ele><time>2026-04-03T14:35:22.985Z</time></trkpt><trkpt lat="43.2922331" lon="10.7683435"><ele>207.0</ele><time>2026-04-03T14:35:23.982Z</time></trkpt><trkpt lat="43.2923881" lon="10.7684048"><ele>207.0</ele><time>2026-04-03T14:35:24.988Z</time></trkpt><trkpt lat="43.2925448" lon="10.7684639"><ele>207.0</ele><time>2026-04-03T14:35:26.001Z</time></trkpt><trkpt lat="43.2926998" lon="10.7685213"><ele>204.5</ele><time>2026-04-03T14:35:26.985Z</time></trkpt><trkpt lat="43.2928503" lon="10.7685739"><ele>202.0</ele><time>2026-04-03T14:35:27.988Z</time></trkpt><trkpt lat="43.2929901" lon="10.7686171"><ele>199.5</ele><time>2026-04-03T14:35:28.987Z</time></trkpt><trkpt lat="43.2931233" lon="10.7686462"><ele>197.0</ele><time>2026-04-03T14:35:29.984Z</time></trkpt><trkpt lat="43.2932562" lon="10.7686557"><ele>196.75</ele><time>2026-04-03T14:35:30.993Z</time></trkpt><trkpt lat="43.2933893" lon="10.7686493"><ele>196.5</ele><time>2026-04-03T14:35:31.983Z</time></trkpt><trkpt lat="43.2935259" lon="10.768639"><ele>196.25</ele><time>2026-04-03T14:35:32.985Z</time></trkpt><trkpt lat="43.2936651" lon="10.7686238"><ele>196.0</ele><time>2026-04-03T14:35:33.997Z</time></trkpt><trkpt lat="43.2938078" lon="10.7686085"><ele>195.33333333333331</ele><time>2026-04-03T14:35:34.984Z</time></trkpt><trkpt lat="43.2939602" lon="10.7685756"><ele>194.66666666666669</ele><time>2026-04-03T14:35:35.977Z</time></trkpt><trkpt lat="43.2941171" lon="10.7685301"><ele>194.0</ele><time>2026-04-03T14:35:36.993Z</time></trkpt><trkpt lat="43.294264" lon="10.7684983"><ele>194.0</ele><time>2026-04-03T14:35:37.986Z</time></trkpt><trkpt lat="43.2944108" lon="10.7684898"><ele>194.0</ele><time>2026-04-03T14:35:38.983Z</time></trkpt><trkpt lat="43.2945588" lon="10.7685107"><ele>194.0</ele><time>2026-04-03T14:35:39.999Z</time></trkpt><trkpt lat="43.2947009" lon="10.768532"><ele>194.0</ele><time>2026-04-03T14:35:40.993Z</time></trkpt><trkpt lat="43.294846" lon="10.7685396"><ele>194.66666666666669</ele><time>2026-04-03T14:35:42.008Z</time></trkpt><trkpt lat="43.2949942" lon="10.7685307"><ele>195.33333333333331</ele><time>2026-04-03T14:35:42.993Z</time></trkpt><trkpt lat="43.2951449" lon="10.7685039"><ele>196.0</ele><time>2026-04-03T14:35:43.987Z</time></trkpt><trkpt lat="43.295297" lon="10.768468"><ele>198.0</ele><time>2026-04-03T14:35:44.993Z</time></trkpt><trkpt lat="43.2954394" lon="10.7684223"><ele>200.0</ele><time>2026-04-03T14:35:45.992Z</time></trkpt><trkpt lat="43.295568" lon="10.7683864"><ele>202.0</ele><time>2026-04-03T14:35:46.993Z</time></trkpt><trkpt lat="43.2956879" lon="10.7683689"><ele>204.0</ele><time>2026-04-03T14:35:47.987Z</time></trkpt><trkpt lat="43.2958081" lon="10.7683651"><ele>204.0</ele><time>2026-04-03T14:35:49.01Z</time></trkpt><trkpt lat="43.295933" lon="10.7683818"><ele>204.0</ele><time>2026-04-03T14:35:50.001Z</time></trkpt><trkpt lat="43.2960604" lon="10.768399"><ele>204.0</ele><time>2026-04-03T14:35:50.99Z</time></trkpt><trkpt lat="43.2961872" lon="10.7684138"><ele>204.0</ele><time>2026-04-03T14:35:52.022Z</time></trkpt><trkpt lat="43.2963061" lon="10.7684274"><ele>203.0</ele><time>2026-04-03T14:35:52.992Z</time></trkpt><trkpt lat="43.2964243" lon="10.7684395"><ele>202.0</ele><time>2026-04-03T14:35:53.981Z</time></trkpt><trkpt lat="43.2965427" lon="10.7684458"><ele>201.0</ele><time>2026-04-03T14:35:54.993Z</time></trkpt><trkpt lat="43.296662" lon="10.7684334"><ele>200.0</ele><time>2026-04-03T14:35:55.993Z</time></trkpt><trkpt lat="43.2967819" lon="10.7684019"><ele>200.0</ele><time>2026-04-03T14:35:56.981Z</time></trkpt><trkpt lat="43.2969018" lon="10.768341"><ele>200.0</ele><time>2026-04-03T14:35:57.998Z</time></trkpt><trkpt lat="43.297008" lon="10.7682524"><ele>200.0</ele><time>2026-04-03T14:35:58.988Z</time></trkpt><trkpt lat="43.2971071" lon="10.7681598"><ele>200.0</ele><time>2026-04-03T14:35:59.977Z</time></trkpt><trkpt lat="43.2972088" lon="10.7680632"><ele>197.0</ele><time>2026-04-03T14:36:00.99Z</time></trkpt><trkpt lat="43.2973149" lon="10.7679653"><ele>194.0</ele><time>2026-04-03T14:36:01.985Z</time></trkpt><trkpt lat="43.2974277" lon="10.7678729"><ele>191.0</ele><time>2026-04-03T14:36:02.983Z</time></trkpt><trkpt lat="43.2975497" lon="10.7677941"><ele>188.0</ele><time>2026-04-03T14:36:03.984Z</time></trkpt><trkpt lat="43.2976757" lon="10.7677365"><ele>188.0</ele><time>2026-04-03T14:36:05Z</time></trkpt><trkpt lat="43.2977984" lon="10.7676953"><ele>188.0</ele><time>2026-04-03T14:36:05.986Z</time></trkpt><trkpt lat="43.2979214" lon="10.7676668"><ele>188.0</ele><time>2026-04-03T14:36:06.999Z</time></trkpt><trkpt lat="43.298042" lon="10.7676572"><ele>188.0</ele><time>2026-04-03T14:36:07.992Z</time></trkpt><trkpt lat="43.2981662" lon="10.7676757"><ele>186.0</ele><time>2026-04-03T14:36:08.985Z</time></trkpt><trkpt lat="43.2982961" lon="10.7677166"><ele>184.0</ele><time>2026-04-03T14:36:09.987Z</time></trkpt><trkpt lat="43.2984316" lon="10.7677789"><ele>182.0</ele><time>2026-04-03T14:36:11.001Z</time></trkpt><trkpt lat="43.2985711" lon="10.7678446"><ele>180.0</ele><time>2026-04-03T14:36:11.991Z</time></trkpt><trkpt lat="43.2987176" lon="10.7679083"><ele>180.0</ele><time>2026-04-03T14:36:12.979Z</time></trkpt><trkpt lat="43.2988711" lon="10.7679717"><ele>180.0</ele><time>2026-04-03T14:36:13.99Z</time></trkpt><trkpt lat="43.2990273" lon="10.768033"><ele>180.0</ele><time>2026-04-03T14:36:14.985Z</time></trkpt><trkpt lat="43.2991826" lon="10.7680908"><ele>176.66666666666666</ele><time>2026-04-03T14:36:15.985Z</time></trkpt><trkpt lat="43.2993328" lon="10.7681452"><ele>173.33333333333331</ele><time>2026-04-03T14:36:16.991Z</time></trkpt><trkpt lat="43.2994791" lon="10.7681954"><ele>170.0</ele><time>2026-04-03T14:36:17.995Z</time></trkpt><trkpt lat="43.2996206" lon="10.7682399"><ele>168.5</ele><time>2026-04-03T14:36:18.988Z</time></trkpt><trkpt lat="43.2997611" lon="10.7682739"><ele>167.0</ele><time>2026-04-03T14:36:19.992Z</time></trkpt><trkpt lat="43.2998994" lon="10.7682926"><ele>165.5</ele><time>2026-04-03T14:36:20.993Z</time></trkpt><trkpt lat="43.3000392" lon="10.7682971"><ele>164.0</ele><time>2026-04-03T14:36:21.986Z</time></trkpt><trkpt lat="43.3001825" lon="10.7682895"><ele>164.0</ele><time>2026-04-03T14:36:22.99Z</time></trkpt><trkpt lat="43.3003281" lon="10.7682721"><ele>164.0</ele><time>2026-04-03T14:36:23.986Z</time></trkpt><trkpt lat="43.3004759" lon="10.768248"><ele>164.0</ele><time>2026-04-03T14:36:24.986Z</time></trkpt><trkpt lat="43.3006257" lon="10.7682149"><ele>164.0</ele><time>2026-04-03T14:36:25.995Z</time></trkpt><trkpt lat="43.3007748" lon="10.7681695"><ele>161.66666666666666</ele><time>2026-04-03T14:36:26.983Z</time></trkpt><trkpt lat="43.3009258" lon="10.7681166"><ele>159.33333333333334</ele><time>2026-04-03T14:36:27.995Z</time></trkpt><trkpt lat="43.301076" lon="10.7680608"><ele>157.0</ele><time>2026-04-03T14:36:28.986Z</time></trkpt><trkpt lat="43.3012281" lon="10.7680035"><ele>157.0</ele><time>2026-04-03T14:36:29.983Z</time></trkpt><trkpt lat="43.3013818" lon="10.7679436"><ele>157.0</ele><time>2026-04-03T14:36:30.99Z</time></trkpt><trkpt lat="43.3015352" lon="10.7678838"><ele>157.0</ele><time>2026-04-03T14:36:31.998Z</time></trkpt><trkpt lat="43.3016851" lon="10.7678241"><ele>156.66666666666669</ele><time>2026-04-03T14:36:32.998Z</time></trkpt><trkpt lat="43.3018331" lon="10.7677643"><ele>156.33333333333334</ele><time>2026-04-03T14:36:34Z</time></trkpt><trkpt lat="43.3019796" lon="10.7677074"><ele>156.0</ele><time>2026-04-03T14:36:34.999Z</time></trkpt><trkpt lat="43.3021254" lon="10.7676539"><ele>155.75</ele><time>2026-04-03T14:36:36Z</time></trkpt><trkpt lat="43.3022709" lon="10.7676024"><ele>155.5</ele><time>2026-04-03T14:36:37.027Z</time></trkpt><trkpt lat="43.3024124" lon="10.7675518"><ele>155.25</ele><time>2026-04-03T14:36:37.998Z</time></trkpt><trkpt lat="43.3025574" lon="10.7675"><ele>155.0</ele><time>2026-04-03T14:36:39.012Z</time></trkpt><trkpt lat="43.3027031" lon="10.7674487"><ele>155.0</ele><time>2026-04-03T14:36:40.022Z</time></trkpt><trkpt lat="43.3028495" lon="10.7673975"><ele>155.0</ele><time>2026-04-03T14:36:40.989Z</time></trkpt><trkpt lat="43.3030014" lon="10.7673443"><ele>155.0</ele><time>2026-04-03T14:36:41.993Z</time></trkpt><trkpt lat="43.3031528" lon="10.7672899"><ele>154.75</ele><time>2026-04-03T14:36:42.999Z</time></trkpt><trkpt lat="43.3033005" lon="10.7672351"><ele>154.5</ele><time>2026-04-03T14:36:44Z</time></trkpt><trkpt lat="43.3034427" lon="10.7671815"><ele>154.25</ele><time>2026-04-03T14:36:44.987Z</time></trkpt><trkpt lat="43.3035839" lon="10.7671337"><ele>154.0</ele><time>2026-04-03T14:36:46.024Z</time></trkpt><trkpt lat="43.3037196" lon="10.7671006"><ele>154.0</ele><time>2026-04-03T14:36:46.99Z</time></trkpt><trkpt lat="43.3038556" lon="10.7670847"><ele>154.0</ele><time>2026-04-03T14:36:47.982Z</time></trkpt><trkpt lat="43.3039896" lon="10.7670894"><ele>154.0</ele><time>2026-04-03T14:36:48.989Z</time></trkpt><trkpt lat="43.3041214" lon="10.7671206"><ele>154.0</ele><time>2026-04-03T14:36:49.983Z</time></trkpt><trkpt lat="43.304254" lon="10.767169"><ele>153.25</ele><time>2026-04-03T14:36:50.984Z</time></trkpt><trkpt lat="43.3043892" lon="10.7672263"><ele>152.5</ele><time>2026-04-03T14:36:52.008Z</time></trkpt><trkpt lat="43.3045261" lon="10.7672851"><ele>151.75</ele><time>2026-04-03T14:36:52.998Z</time></trkpt><trkpt lat="43.3046648" lon="10.7673407"><ele>151.0</ele><time>2026-04-03T14:36:53.991Z</time></trkpt><trkpt lat="43.3048041" lon="10.7673858"><ele>150.25</ele><time>2026-04-03T14:36:55.023Z</time></trkpt><trkpt lat="43.3049421" lon="10.7674097"><ele>149.5</ele><time>2026-04-03T14:36:56.003Z</time></trkpt><trkpt lat="43.305086" lon="10.7674138"><ele>148.75</ele><time>2026-04-03T14:36:56.982Z</time></trkpt><trkpt lat="43.3052374" lon="10.7674045"><ele>148.0</ele><time>2026-04-03T14:36:58.008Z</time></trkpt><trkpt lat="43.3053876" lon="10.7673933"><ele>148.0</ele><time>2026-04-03T14:36:58.987Z</time></trkpt><trkpt lat="43.3055385" lon="10.7673892"><ele>148.0</ele><time>2026-04-03T14:36:59.989Z</time></trkpt><trkpt lat="43.3056881" lon="10.7673854"><ele>148.0</ele><time>2026-04-03T14:37:00.987Z</time></trkpt><trkpt lat="43.3058383" lon="10.7673652"><ele>146.66666666666669</ele><time>2026-04-03T14:37:01.984Z</time></trkpt><trkpt lat="43.3059873" lon="10.7673188"><ele>145.33333333333334</ele><time>2026-04-03T14:37:02.986Z</time></trkpt><trkpt lat="43.3061344" lon="10.7672352"><ele>144.0</ele><time>2026-04-03T14:37:03.985Z</time></trkpt><trkpt lat="43.3062808" lon="10.7671424"><ele>142.66666666666666</ele><time>2026-04-03T14:37:04.989Z</time></trkpt><trkpt lat="43.3064286" lon="10.7670546"><ele>141.33333333333331</ele><time>2026-04-03T14:37:05.984Z</time></trkpt><trkpt lat="43.3065798" lon="10.7669841"><ele>140.0</ele><time>2026-04-03T14:37:06.986Z</time></trkpt><trkpt lat="43.3067296" lon="10.76692"><ele>140.25</ele><time>2026-04-03T14:37:07.991Z</time></trkpt><trkpt lat="43.3068665" lon="10.7668368"><ele>140.5</ele><time>2026-04-03T14:37:08.986Z</time></trkpt><trkpt lat="43.3069784" lon="10.7667128"><ele>140.75</ele><time>2026-04-03T14:37:09.987Z</time></trkpt><trkpt lat="43.3070701" lon="10.7665635"><ele>141.0</ele><time>2026-04-03T14:37:10.984Z</time></trkpt><trkpt lat="43.3071523" lon="10.7663999"><ele>141.0</ele><time>2026-04-03T14:37:11.982Z</time></trkpt><trkpt lat="43.3072333" lon="10.7662335"><ele>141.0</ele><time>2026-04-03T14:37:12.989Z</time></trkpt><trkpt lat="43.3073227" lon="10.7660793"><ele>141.0</ele><time>2026-04-03T14:37:13.99Z</time></trkpt><trkpt lat="43.3074225" lon="10.7659367"><ele>141.0</ele><time>2026-04-03T14:37:14.986Z</time></trkpt><trkpt lat="43.307527" lon="10.7658017"><ele>142.0</ele><time>2026-04-03T14:37:15.987Z</time></trkpt><trkpt lat="43.3076338" lon="10.7656804"><ele>143.0</ele><time>2026-04-03T14:37:16.987Z</time></trkpt><trkpt lat="43.3077491" lon="10.7655733"><ele>144.0</ele><time>2026-04-03T14:37:17.99Z</time></trkpt><trkpt lat="43.3078751" lon="10.7654677"><ele>145.0</ele><time>2026-04-03T14:37:18.992Z</time></trkpt><trkpt lat="43.3080154" lon="10.7653582"><ele>144.0</ele><time>2026-04-03T14:37:19.992Z</time></trkpt><trkpt lat="43.3081672" lon="10.7652461"><ele>143.0</ele><time>2026-04-03T14:37:20.988Z</time></trkpt><trkpt lat="43.3083216" lon="10.7651316"><ele>142.0</ele><time>2026-04-03T14:37:21.987Z</time></trkpt><trkpt lat="43.3084662" lon="10.7650202"><ele>142.0</ele><time>2026-04-03T14:37:22.986Z</time></trkpt><trkpt lat="43.3086039" lon="10.7649129"><ele>142.0</ele><time>2026-04-03T14:37:23.981Z</time></trkpt><trkpt lat="43.3087415" lon="10.7648105"><ele>142.0</ele><time>2026-04-03T14:37:24.988Z</time></trkpt><trkpt lat="43.3088774" lon="10.7647117"><ele>142.0</ele><time>2026-04-03T14:37:25.989Z</time></trkpt><trkpt lat="43.3090036" lon="10.7646057"><ele>142.0</ele><time>2026-04-03T14:37:26.994Z</time></trkpt><trkpt lat="43.3091166" lon="10.7644823"><ele>142.0</ele><time>2026-04-03T14:37:27.992Z</time></trkpt><trkpt lat="43.309218" lon="10.7643547"><ele>142.0</ele><time>2026-04-03T14:37:28.984Z</time></trkpt><trkpt lat="43.3093073" lon="10.7642344"><ele>140.6</ele><time>2026-04-03T14:37:29.986Z</time></trkpt><trkpt lat="43.3093815" lon="10.7641426"><ele>139.2</ele><time>2026-04-03T14:37:30.994Z</time></trkpt><trkpt lat="43.3094463" lon="10.7640767"><ele>137.8</ele><time>2026-04-03T14:37:31.997Z</time></trkpt><trkpt lat="43.3095144" lon="10.7641054"><ele>136.4</ele><time>2026-04-03T14:37:32.991Z</time></trkpt><trkpt lat="43.3095846" lon="10.7641905"><ele>135.0</ele><time>2026-04-03T14:37:33.983Z</time></trkpt><trkpt lat="43.3096543" lon="10.7643287"><ele>137.33333333333334</ele><time>2026-04-03T14:37:34.989Z</time></trkpt><trkpt lat="43.3097217" lon="10.7645407"><ele>139.66666666666669</ele><time>2026-04-03T14:37:35.983Z</time></trkpt><trkpt lat="43.3097852" lon="10.7647706"><ele>142.0</ele><time>2026-04-03T14:37:36.982Z</time></trkpt><trkpt lat="43.3098542" lon="10.7650025"><ele>136.66666666666669</ele><time>2026-04-03T14:37:37.982Z</time></trkpt><trkpt lat="43.3099339" lon="10.7652165"><ele>131.33333333333334</ele><time>2026-04-03T14:37:38.987Z</time></trkpt><trkpt lat="43.3100346" lon="10.7654152"><ele>126.0</ele><time>2026-04-03T14:37:39.99Z</time></trkpt><trkpt lat="43.31016" lon="10.765598"><ele>126.0</ele><time>2026-04-03T14:37:40.989Z</time></trkpt><trkpt lat="43.3103153" lon="10.7657505"><ele>126.0</ele><time>2026-04-03T14:37:41.983Z</time></trkpt><trkpt lat="43.3104862" lon="10.7658734"><ele>126.0</ele><time>2026-04-03T14:37:43.006Z</time></trkpt><trkpt lat="43.3106535" lon="10.7659588"><ele>123.0</ele><time>2026-04-03T14:37:43.988Z</time></trkpt><trkpt lat="43.3108214" lon="10.7660233"><ele>120.0</ele><time>2026-04-03T14:37:44.991Z</time></trkpt><trkpt lat="43.3109815" lon="10.7660718"><ele>117.0</ele><time>2026-04-03T14:37:45.99Z</time></trkpt><trkpt lat="43.3111307" lon="10.7661102"><ele>117.0</ele><time>2026-04-03T14:37:46.991Z</time></trkpt><trkpt lat="43.3112655" lon="10.766133"><ele>117.0</ele><time>2026-04-03T14:37:47.994Z</time></trkpt><trkpt lat="43.3113873" lon="10.7661234"><ele>117.0</ele><time>2026-04-03T14:37:49.008Z</time></trkpt><trkpt lat="43.3114927" lon="10.7660583"><ele>117.0</ele><time>2026-04-03T14:37:49.99Z</time></trkpt><trkpt lat="43.311585" lon="10.7659406"><ele>112.66666666666666</ele><time>2026-04-03T14:37:50.985Z</time></trkpt><trkpt lat="43.3116725" lon="10.765779"><ele>108.33333333333333</ele><time>2026-04-03T14:37:51.994Z</time></trkpt><trkpt lat="43.3117586" lon="10.7655495"><ele>104.0</ele><time>2026-04-03T14:37:52.992Z</time></trkpt><trkpt lat="43.3118496" lon="10.7653324"><ele>103.0</ele><time>2026-04-03T14:37:53.984Z</time></trkpt><trkpt lat="43.3119454" lon="10.7651492"><ele>102.0</ele><time>2026-04-03T14:37:54.988Z</time></trkpt><trkpt lat="43.3120558" lon="10.764985"><ele>101.0</ele><time>2026-04-03T14:37:55.99Z</time></trkpt><trkpt lat="43.3121985" lon="10.7648252"><ele>97.66666666666666</ele><time>2026-04-03T14:37:56.983Z</time></trkpt><trkpt lat="43.3123623" lon="10.7646629"><ele>94.33333333333333</ele><time>2026-04-03T14:37:57.985Z</time></trkpt><trkpt lat="43.3125342" lon="10.7645031"><ele>91.0</ele><time>2026-04-03T14:37:58.984Z</time></trkpt><trkpt lat="43.3127055" lon="10.7643566"><ele>91.0</ele><time>2026-04-03T14:38:00.001Z</time></trkpt><trkpt lat="43.3128713" lon="10.764234"><ele>91.0</ele><time>2026-04-03T14:38:00.984Z</time></trkpt><trkpt lat="43.3130333" lon="10.7641288"><ele>91.0</ele><time>2026-04-03T14:38:01.988Z</time></trkpt><trkpt lat="43.3131821" lon="10.7640357"><ele>85.66666666666666</ele><time>2026-04-03T14:38:02.979Z</time></trkpt><trkpt lat="43.3133169" lon="10.7639278"><ele>80.33333333333333</ele><time>2026-04-03T14:38:03.988Z</time></trkpt><trkpt lat="43.3134425" lon="10.763785"><ele>75.0</ele><time>2026-04-03T14:38:04.983Z</time></trkpt><trkpt lat="43.3135683" lon="10.7635986"><ele>76.33333333333333</ele><time>2026-04-03T14:38:05.989Z</time></trkpt><trkpt lat="43.3136997" lon="10.7633777"><ele>77.66666666666666</ele><time>2026-04-03T14:38:07.023Z</time></trkpt><trkpt lat="43.3138371" lon="10.7631431"><ele>79.0</ele><time>2026-04-03T14:38:07.989Z</time></trkpt><trkpt lat="43.31398" lon="10.7629093"><ele>76.0</ele><time>2026-04-03T14:38:08.989Z</time></trkpt><trkpt lat="43.3141308" lon="10.7626892"><ele>73.0</ele><time>2026-04-03T14:38:09.99Z</time></trkpt><trkpt lat="43.3142882" lon="10.7624987"><ele>70.0</ele><time>2026-04-03T14:38:10.994Z</time></trkpt><trkpt lat="43.3144452" lon="10.7623416"><ele>70.0</ele><time>2026-04-03T14:38:11.989Z</time></trkpt><trkpt lat="43.3145966" lon="10.7622111"><ele>70.0</ele><time>2026-04-03T14:38:12.987Z</time></trkpt><trkpt lat="43.3147342" lon="10.7620914"><ele>70.0</ele><time>2026-04-03T14:38:13.986Z</time></trkpt><trkpt lat="43.314854" lon="10.7619691"><ele>69.25</ele><time>2026-04-03T14:38:14.985Z</time></trkpt><trkpt lat="43.3149631" lon="10.7618307"><ele>68.5</ele><time>2026-04-03T14:38:15.985Z</time></trkpt><trkpt lat="43.3150694" lon="10.7616833"><ele>67.75</ele><time>2026-04-03T14:38:16.991Z</time></trkpt><trkpt lat="43.3151783" lon="10.761546"><ele>67.0</ele><time>2026-04-03T14:38:17.989Z</time></trkpt><trkpt lat="43.3152926" lon="10.7614179"><ele>67.0</ele><time>2026-04-03T14:38:18.987Z</time></trkpt><trkpt lat="43.3154182" lon="10.7612966"><ele>67.0</ele><time>2026-04-03T14:38:19.983Z</time></trkpt><trkpt lat="43.3155627" lon="10.7611911"><ele>67.0</ele><time>2026-04-03T14:38:20.982Z</time></trkpt><trkpt lat="43.3157245" lon="10.7611094"><ele>67.25</ele><time>2026-04-03T14:38:21.987Z</time></trkpt><trkpt lat="43.3158762" lon="10.7610539"><ele>67.5</ele><time>2026-04-03T14:38:22.987Z</time></trkpt><trkpt lat="43.3159981" lon="10.7610134"><ele>67.75</ele><time>2026-04-03T14:38:23.982Z</time></trkpt><trkpt lat="43.3160886" lon="10.7609932"><ele>68.0</ele><time>2026-04-03T14:38:24.989Z</time></trkpt><trkpt lat="43.3161959" lon="10.7609486"><ele>68.83333333333334</ele><time>2026-04-03T14:38:26.979Z</time></trkpt><trkpt lat="43.316251" lon="10.7608701"><ele>69.66666666666667</ele><time>2026-04-03T14:38:28.993Z</time></trkpt><trkpt lat="43.3162802" lon="10.7607918"><ele>70.5</ele><time>2026-04-03T14:38:30.985Z</time></trkpt><trkpt lat="43.3163201" lon="10.7606717"><ele>71.33333333333333</ele><time>2026-04-03T14:38:44.003Z</time></trkpt><trkpt lat="43.3163546" lon="10.7605262"><ele>72.16666666666666</ele><time>2026-04-03T14:38:46.001Z</time></trkpt><trkpt lat="43.3163713" lon="10.7604415"><ele>73.0</ele><time>2026-04-03T14:38:47.01Z</time></trkpt><trkpt lat="43.3163916" lon="10.7602747"><ele>71.6</ele><time>2026-04-03T14:38:48.983Z</time></trkpt><trkpt lat="43.3164103" lon="10.7601787"><ele>70.19999999999999</ele><time>2026-04-03T14:38:49.982Z</time></trkpt><trkpt lat="43.3164376" lon="10.7600585"><ele>68.8</ele><time>2026-04-03T14:38:50.981Z</time></trkpt><trkpt lat="43.3164703" lon="10.7599109"><ele>67.39999999999999</ele><time>2026-04-03T14:38:51.982Z</time></trkpt><trkpt lat="43.3165055" lon="10.7597383"><ele>66.0</ele><time>2026-04-03T14:38:52.985Z</time></trkpt><trkpt lat="43.3165393" lon="10.7595601"><ele>66.0</ele><time>2026-04-03T14:38:53.982Z</time></trkpt><trkpt lat="43.316573" lon="10.7593833"><ele>66.0</ele><time>2026-04-03T14:38:54.979Z</time></trkpt><trkpt lat="43.31661" lon="10.7592027"><ele>66.0</ele><time>2026-04-03T14:38:55.987Z</time></trkpt><trkpt lat="43.3166494" lon="10.7590157"><ele>66.0</ele><time>2026-04-03T14:38:56.99Z</time></trkpt><trkpt lat="43.3166911" lon="10.7588214"><ele>66.66666666666667</ele><time>2026-04-03T14:38:57.986Z</time></trkpt><trkpt lat="43.3167351" lon="10.7586185"><ele>67.33333333333334</ele><time>2026-04-03T14:38:58.987Z</time></trkpt><trkpt lat="43.3167794" lon="10.7584099"><ele>68.0</ele><time>2026-04-03T14:38:59.98Z</time></trkpt><trkpt lat="43.3168235" lon="10.7582056"><ele>70.0</ele><time>2026-04-03T14:39:00.989Z</time></trkpt><trkpt lat="43.3168682" lon="10.7580003"><ele>72.0</ele><time>2026-04-03T14:39:01.984Z</time></trkpt><trkpt lat="43.316913" lon="10.757788"><ele>74.0</ele><time>2026-04-03T14:39:02.981Z</time></trkpt><trkpt lat="43.3169589" lon="10.7575765"><ele>76.66666666666667</ele><time>2026-04-03T14:39:03.985Z</time></trkpt><trkpt lat="43.3170092" lon="10.7573641"><ele>79.33333333333333</ele><time>2026-04-03T14:39:04.996Z</time></trkpt><trkpt lat="43.3170633" lon="10.7571549"><ele>82.0</ele><time>2026-04-03T14:39:05.986Z</time></trkpt><trkpt lat="43.3171263" lon="10.7569467"><ele>81.0</ele><time>2026-04-03T14:39:06.997Z</time></trkpt><trkpt lat="43.317191" lon="10.7567426"><ele>80.0</ele><time>2026-04-03T14:39:07.981Z</time></trkpt><trkpt lat="43.3172617" lon="10.7565334"><ele>79.0</ele><time>2026-04-03T14:39:08.98Z</time></trkpt><trkpt lat="43.3173333" lon="10.7563213"><ele>74.66666666666666</ele><time>2026-04-03T14:39:09.984Z</time></trkpt><trkpt lat="43.3174021" lon="10.7561094"><ele>70.33333333333333</ele><time>2026-04-03T14:39:10.982Z</time></trkpt><trkpt lat="43.3174691" lon="10.7558965"><ele>66.0</ele><time>2026-04-03T14:39:11.983Z</time></trkpt><trkpt lat="43.3175301" lon="10.755686"><ele>66.0</ele><time>2026-04-03T14:39:12.986Z</time></trkpt><trkpt lat="43.31759" lon="10.755478"><ele>66.0</ele><time>2026-04-03T14:39:13.985Z</time></trkpt><trkpt lat="43.3176513" lon="10.755269"><ele>66.0</ele><time>2026-04-03T14:39:14.98Z</time></trkpt><trkpt lat="43.3177168" lon="10.7550555"><ele>66.33333333333333</ele><time>2026-04-03T14:39:15.987Z</time></trkpt><trkpt lat="43.3177867" lon="10.7548416"><ele>66.66666666666666</ele><time>2026-04-03T14:39:16.978Z</time></trkpt><trkpt lat="43.3178603" lon="10.7546267"><ele>67.0</ele><time>2026-04-03T14:39:17.984Z</time></trkpt><trkpt lat="43.317939" lon="10.7544137"><ele>66.0</ele><time>2026-04-03T14:39:18.993Z</time></trkpt><trkpt lat="43.3180193" lon="10.7542015"><ele>65.0</ele><time>2026-04-03T14:39:19.982Z</time></trkpt><trkpt lat="43.3180989" lon="10.7539869"><ele>64.0</ele><time>2026-04-03T14:39:20.985Z</time></trkpt><trkpt lat="43.3181768" lon="10.7537692"><ele>64.0</ele><time>2026-04-03T14:39:21.985Z</time></trkpt><trkpt lat="43.3182544" lon="10.7535507"><ele>64.0</ele><time>2026-04-03T14:39:22.989Z</time></trkpt><trkpt lat="43.3183322" lon="10.7533324"><ele>64.0</ele><time>2026-04-03T14:39:23.982Z</time></trkpt><trkpt lat="43.3184111" lon="10.7531121"><ele>66.0</ele><time>2026-04-03T14:39:24.984Z</time></trkpt><trkpt lat="43.3184896" lon="10.7528922"><ele>68.0</ele><time>2026-04-03T14:39:25.982Z</time></trkpt><trkpt lat="43.3185717" lon="10.7526747"><ele>70.0</ele><time>2026-04-03T14:39:26.984Z</time></trkpt><trkpt lat="43.3186525" lon="10.7524573"><ele>70.33333333333333</ele><time>2026-04-03T14:39:27.994Z</time></trkpt><trkpt lat="43.3187319" lon="10.7522428"><ele>70.66666666666667</ele><time>2026-04-03T14:39:28.989Z</time></trkpt><trkpt lat="43.3188107" lon="10.7520276"><ele>71.0</ele><time>2026-04-03T14:39:29.986Z</time></trkpt><trkpt lat="43.3188897" lon="10.751814"><ele>68.0</ele><time>2026-04-03T14:39:30.99Z</time></trkpt><trkpt lat="43.3189717" lon="10.7516067"><ele>65.0</ele><time>2026-04-03T14:39:31.985Z</time></trkpt><trkpt lat="43.3190668" lon="10.7514123"><ele>62.0</ele><time>2026-04-03T14:39:32.984Z</time></trkpt><trkpt lat="43.3191787" lon="10.7512357"><ele>62.0</ele><time>2026-04-03T14:39:33.989Z</time></trkpt><trkpt lat="43.3193062" lon="10.7510782"><ele>62.0</ele><time>2026-04-03T14:39:34.99Z</time></trkpt><trkpt lat="43.3194408" lon="10.7509305"><ele>62.0</ele><time>2026-04-03T14:39:35.982Z</time></trkpt><trkpt lat="43.3195782" lon="10.750785"><ele>63.0</ele><time>2026-04-03T14:39:36.981Z</time></trkpt><trkpt lat="43.3197162" lon="10.7506376"><ele>64.0</ele><time>2026-04-03T14:39:37.984Z</time></trkpt><trkpt lat="43.3198522" lon="10.7504853"><ele>65.0</ele><time>2026-04-03T14:39:38.982Z</time></trkpt><trkpt lat="43.3199833" lon="10.7503258"><ele>64.0</ele><time>2026-04-03T14:39:39.987Z</time></trkpt><trkpt lat="43.3201052" lon="10.7501564"><ele>63.0</ele><time>2026-04-03T14:39:40.985Z</time></trkpt><trkpt lat="43.3202157" lon="10.7499731"><ele>62.0</ele><time>2026-04-03T14:39:41.982Z</time></trkpt><trkpt lat="43.3203124" lon="10.7497745"><ele>62.0</ele><time>2026-04-03T14:39:42.986Z</time></trkpt><trkpt lat="43.3203981" lon="10.7495668"><ele>62.0</ele><time>2026-04-03T14:39:43.977Z</time></trkpt><trkpt lat="43.3204799" lon="10.7493547"><ele>62.0</ele><time>2026-04-03T14:39:44.983Z</time></trkpt><trkpt lat="43.3205604" lon="10.7491426"><ele>61.66666666666667</ele><time>2026-04-03T14:39:45.985Z</time></trkpt><trkpt lat="43.3206429" lon="10.7489342"><ele>61.33333333333333</ele><time>2026-04-03T14:39:46.983Z</time></trkpt><trkpt lat="43.3207272" lon="10.7487259"><ele>61.0</ele><time>2026-04-03T14:39:47.984Z</time></trkpt><trkpt lat="43.3208114" lon="10.7485181"><ele>61.0</ele><time>2026-04-03T14:39:48.99Z</time></trkpt><trkpt lat="43.3208932" lon="10.7483119"><ele>61.0</ele><time>2026-04-03T14:39:49.983Z</time></trkpt><trkpt lat="43.3209752" lon="10.7481083"><ele>61.0</ele><time>2026-04-03T14:39:50.982Z</time></trkpt><trkpt lat="43.3210563" lon="10.7479075"><ele>63.0</ele><time>2026-04-03T14:39:51.981Z</time></trkpt><trkpt lat="43.3211366" lon="10.747708"><ele>65.0</ele><time>2026-04-03T14:39:52.986Z</time></trkpt><trkpt lat="43.3212176" lon="10.7475089"><ele>67.0</ele><time>2026-04-03T14:39:54.001Z</time></trkpt><trkpt lat="43.3212989" lon="10.7473138"><ele>67.0</ele><time>2026-04-03T14:39:54.979Z</time></trkpt><trkpt lat="43.3213817" lon="10.7471152"><ele>67.0</ele><time>2026-04-03T14:39:55.979Z</time></trkpt><trkpt lat="43.3214641" lon="10.7469182"><ele>67.0</ele><time>2026-04-03T14:39:56.991Z</time></trkpt><trkpt lat="43.32154" lon="10.7467329"><ele>64.25</ele><time>2026-04-03T14:39:57.981Z</time></trkpt><trkpt lat="43.3216095" lon="10.7465599"><ele>61.5</ele><time>2026-04-03T14:39:58.983Z</time></trkpt><trkpt lat="43.3216766" lon="10.7463937"><ele>58.75</ele><time>2026-04-03T14:39:59.99Z</time></trkpt><trkpt lat="43.3217473" lon="10.746225"><ele>56.0</ele><time>2026-04-03T14:40:00.986Z</time></trkpt><trkpt lat="43.3218235" lon="10.7460478"><ele>57.66666666666667</ele><time>2026-04-03T14:40:01.984Z</time></trkpt><trkpt lat="43.3219068" lon="10.7458645"><ele>59.33333333333333</ele><time>2026-04-03T14:40:02.99Z</time></trkpt><trkpt lat="43.3219988" lon="10.7456826"><ele>61.0</ele><time>2026-04-03T14:40:03.982Z</time></trkpt><trkpt lat="43.3221007" lon="10.7455008"><ele>61.0</ele><time>2026-04-03T14:40:04.99Z</time></trkpt><trkpt lat="43.3222088" lon="10.7453207"><ele>61.0</ele><time>2026-04-03T14:40:05.979Z</time></trkpt><trkpt lat="43.3223218" lon="10.7451369"><ele>61.0</ele><time>2026-04-03T14:40:06.985Z</time></trkpt><trkpt lat="43.3224356" lon="10.74495"><ele>59.666666666666664</ele><time>2026-04-03T14:40:07.98Z</time></trkpt><trkpt lat="43.3225514" lon="10.7447619"><ele>58.33333333333333</ele><time>2026-04-03T14:40:08.989Z</time></trkpt><trkpt lat="43.3226665" lon="10.7445754"><ele>57.0</ele><time>2026-04-03T14:40:09.985Z</time></trkpt><trkpt lat="43.3227805" lon="10.7443877"><ele>56.33333333333333</ele><time>2026-04-03T14:40:10.982Z</time></trkpt><trkpt lat="43.3228935" lon="10.7442016"><ele>55.666666666666664</ele><time>2026-04-03T14:40:11.982Z</time></trkpt><trkpt lat="43.3230047" lon="10.7440202"><ele>55.0</ele><time>2026-04-03T14:40:12.984Z</time></trkpt><trkpt lat="43.3231122" lon="10.7438411"><ele>55.0</ele><time>2026-04-03T14:40:13.981Z</time></trkpt><trkpt lat="43.32322" lon="10.7436626"><ele>55.0</ele><time>2026-04-03T14:40:14.99Z</time></trkpt><trkpt lat="43.3233285" lon="10.7434835"><ele>55.0</ele><time>2026-04-03T14:40:15.994Z</time></trkpt><trkpt lat="43.3234369" lon="10.7433032"><ele>56.0</ele><time>2026-04-03T14:40:16.986Z</time></trkpt><trkpt lat="43.3235457" lon="10.7431224"><ele>57.0</ele><time>2026-04-03T14:40:17.989Z</time></trkpt><trkpt lat="43.3236538" lon="10.7429454"><ele>58.0</ele><time>2026-04-03T14:40:18.98Z</time></trkpt><trkpt lat="43.3237613" lon="10.7427702"><ele>57.666666666666664</ele><time>2026-04-03T14:40:19.984Z</time></trkpt><trkpt lat="43.3238655" lon="10.7425982"><ele>57.33333333333333</ele><time>2026-04-03T14:40:20.981Z</time></trkpt><trkpt lat="43.3239692" lon="10.7424316"><ele>57.0</ele><time>2026-04-03T14:40:21.983Z</time></trkpt><trkpt lat="43.3240722" lon="10.7422695"><ele>57.0</ele><time>2026-04-03T14:40:22.979Z</time></trkpt><trkpt lat="43.3241742" lon="10.7421086"><ele>57.0</ele><time>2026-04-03T14:40:23.994Z</time></trkpt><trkpt lat="43.3242743" lon="10.7419496"><ele>57.0</ele><time>2026-04-03T14:40:24.986Z</time></trkpt><trkpt lat="43.3243776" lon="10.7417919"><ele>58.66666666666667</ele><time>2026-04-03T14:40:25.981Z</time></trkpt><trkpt lat="43.3244866" lon="10.741636"><ele>60.333333333333336</ele><time>2026-04-03T14:40:26.992Z</time></trkpt><trkpt lat="43.3245967" lon="10.7414823"><ele>62.0</ele><time>2026-04-03T14:40:27.982Z</time></trkpt><trkpt lat="43.3247082" lon="10.741329"><ele>61.25</ele><time>2026-04-03T14:40:28.981Z</time></trkpt><trkpt lat="43.3248184" lon="10.7411787"><ele>60.5</ele><time>2026-04-03T14:40:29.985Z</time></trkpt><trkpt lat="43.3249253" lon="10.7410408"><ele>59.75</ele><time>2026-04-03T14:40:30.983Z</time></trkpt><trkpt lat="43.3250298" lon="10.740918"><ele>59.0</ele><time>2026-04-03T14:40:31.975Z</time></trkpt><trkpt lat="43.3251405" lon="10.7408107"><ele>60.0</ele><time>2026-04-03T14:40:32.981Z</time></trkpt><trkpt lat="43.3252586" lon="10.7407165"><ele>61.0</ele><time>2026-04-03T14:40:33.98Z</time></trkpt><trkpt lat="43.325383" lon="10.7406311"><ele>62.0</ele><time>2026-04-03T14:40:34.981Z</time></trkpt><trkpt lat="43.3255097" lon="10.7405459"><ele>63.0</ele><time>2026-04-03T14:40:35.98Z</time></trkpt><trkpt lat="43.3256376" lon="10.7404571"><ele>63.0</ele><time>2026-04-03T14:40:36.981Z</time></trkpt><trkpt lat="43.3257656" lon="10.740372"><ele>63.0</ele><time>2026-04-03T14:40:37.987Z</time></trkpt><trkpt lat="43.3258894" lon="10.7402931"><ele>63.0</ele><time>2026-04-03T14:40:38.986Z</time></trkpt><trkpt lat="43.3260096" lon="10.74022"><ele>63.0</ele><time>2026-04-03T14:40:39.985Z</time></trkpt><trkpt lat="43.3261278" lon="10.7401456"><ele>64.5</ele><time>2026-04-03T14:40:40.986Z</time></trkpt><trkpt lat="43.326232" lon="10.7400576"><ele>66.0</ele><time>2026-04-03T14:40:41.992Z</time></trkpt><trkpt lat="43.3263096" lon="10.7399458"><ele>67.5</ele><time>2026-04-03T14:40:42.981Z</time></trkpt><trkpt lat="43.3263478" lon="10.7397951"><ele>69.0</ele><time>2026-04-03T14:40:43.983Z</time></trkpt><trkpt lat="43.326359" lon="10.7396198"><ele>69.0</ele><time>2026-04-03T14:40:44.988Z</time></trkpt><trkpt lat="43.3263426" lon="10.7394292"><ele>69.0</ele><time>2026-04-03T14:40:45.984Z</time></trkpt><trkpt lat="43.3263274" lon="10.73924"><ele>69.0</ele><time>2026-04-03T14:40:46.98Z</time></trkpt><trkpt lat="43.3263329" lon="10.7390606"><ele>69.0</ele><time>2026-04-03T14:40:47.982Z</time></trkpt><trkpt lat="43.326376" lon="10.738892"><ele>69.5</ele><time>2026-04-03T14:40:48.988Z</time></trkpt><trkpt lat="43.3264463" lon="10.7387375"><ele>70.0</ele><time>2026-04-03T14:40:49.986Z</time></trkpt><trkpt lat="43.3265397" lon="10.738592"><ele>70.5</ele><time>2026-04-03T14:40:50.988Z</time></trkpt><trkpt lat="43.3266437" lon="10.7384605"><ele>71.0</ele><time>2026-04-03T14:40:51.986Z</time></trkpt><trkpt lat="43.3267444" lon="10.7383485"><ele>72.75</ele><time>2026-04-03T14:40:52.98Z</time></trkpt><trkpt lat="43.3268641" lon="10.7382675"><ele>74.5</ele><time>2026-04-03T14:40:53.98Z</time></trkpt><trkpt lat="43.3269881" lon="10.7382103"><ele>76.25</ele><time>2026-04-03T14:40:54.981Z</time></trkpt><trkpt lat="43.3270971" lon="10.7381499"><ele>78.0</ele><time>2026-04-03T14:40:55.99Z</time></trkpt><trkpt lat="43.3271854" lon="10.7380794"><ele>77.75</ele><time>2026-04-03T14:40:56.995Z</time></trkpt><trkpt lat="43.3272663" lon="10.7379905"><ele>77.5</ele><time>2026-04-03T14:40:57.984Z</time></trkpt><trkpt lat="43.3273543" lon="10.737894"><ele>77.25</ele><time>2026-04-03T14:40:58.985Z</time></trkpt><trkpt lat="43.32746" lon="10.737806"><ele>77.0</ele><time>2026-04-03T14:40:59.988Z</time></trkpt><trkpt lat="43.3275829" lon="10.7377305"><ele>77.25</ele><time>2026-04-03T14:41:00.982Z</time></trkpt><trkpt lat="43.3277089" lon="10.7376601"><ele>77.5</ele><time>2026-04-03T14:41:01.988Z</time></trkpt><trkpt lat="43.3278323" lon="10.7375909"><ele>77.75</ele><time>2026-04-03T14:41:02.985Z</time></trkpt><trkpt lat="43.3279581" lon="10.7375208"><ele>78.0</ele><time>2026-04-03T14:41:03.988Z</time></trkpt><trkpt lat="43.3280879" lon="10.7374482"><ele>77.33333333333333</ele><time>2026-04-03T14:41:04.997Z</time></trkpt><trkpt lat="43.3282247" lon="10.7373775"><ele>76.66666666666666</ele><time>2026-04-03T14:41:05.988Z</time></trkpt><trkpt lat="43.3283694" lon="10.7373032"><ele>76.0</ele><time>2026-04-03T14:41:06.986Z</time></trkpt><trkpt lat="43.328519" lon="10.7372233"><ele>76.0</ele><time>2026-04-03T14:41:07.997Z</time></trkpt><trkpt lat="43.3286693" lon="10.7371393"><ele>76.0</ele><time>2026-04-03T14:41:08.987Z</time></trkpt><trkpt lat="43.3288222" lon="10.7370527"><ele>76.0</ele><time>2026-04-03T14:41:09.994Z</time></trkpt><trkpt lat="43.3289753" lon="10.7369673"><ele>75.0</ele><time>2026-04-03T14:41:10.995Z</time></trkpt><trkpt lat="43.3291258" lon="10.7368831"><ele>74.0</ele><time>2026-04-03T14:41:11.99Z</time></trkpt><trkpt lat="43.3292725" lon="10.7368027"><ele>73.0</ele><time>2026-04-03T14:41:12.987Z</time></trkpt><trkpt lat="43.3294129" lon="10.7367273"><ele>73.0</ele><time>2026-04-03T14:41:14.004Z</time></trkpt><trkpt lat="43.3295452" lon="10.7366571"><ele>73.0</ele><time>2026-04-03T14:41:14.983Z</time></trkpt><trkpt lat="43.3296721" lon="10.7365913"><ele>73.0</ele><time>2026-04-03T14:41:15.983Z</time></trkpt><trkpt lat="43.3297939" lon="10.7365265"><ele>73.0</ele><time>2026-04-03T14:41:16.995Z</time></trkpt><trkpt lat="43.3299132" lon="10.7364643"><ele>72.75</ele><time>2026-04-03T14:41:17.994Z</time></trkpt><trkpt lat="43.3300316" lon="10.7364099"><ele>72.5</ele><time>2026-04-03T14:41:19Z</time></trkpt><trkpt lat="43.3301467" lon="10.7363591"><ele>72.25</ele><time>2026-04-03T14:41:19.99Z</time></trkpt><trkpt lat="43.330257" lon="10.7363035"><ele>72.0</ele><time>2026-04-03T14:41:20.989Z</time></trkpt><trkpt lat="43.3303523" lon="10.7362518"><ele>72.0</ele><time>2026-04-03T14:41:21.991Z</time></trkpt><trkpt lat="43.3304225" lon="10.7362167"><ele>72.0</ele><time>2026-04-03T14:41:22.997Z</time></trkpt><trkpt lat="43.3305239" lon="10.7361625"><ele>72.0</ele><time>2026-04-03T14:41:25.001Z</time></trkpt><trkpt lat="43.3305814" lon="10.7361196"><ele>72.0</ele><time>2026-04-03T14:41:26.999Z</time></trkpt><trkpt lat="43.3306129" lon="10.7359848"><ele>72.0</ele><time>2026-04-03T14:41:29.035Z</time></trkpt><trkpt lat="43.3306138" lon="10.735882"><ele>72.0</ele><time>2026-04-03T14:41:29.986Z</time></trkpt><trkpt lat="43.3306116" lon="10.7357624"><ele>72.2</ele><time>2026-04-03T14:41:30.985Z</time></trkpt><trkpt lat="43.3306117" lon="10.7356334"><ele>72.4</ele><time>2026-04-03T14:41:31.994Z</time></trkpt><trkpt lat="43.3306226" lon="10.7354839"><ele>72.6</ele><time>2026-04-03T14:41:32.995Z</time></trkpt><trkpt lat="43.3306427" lon="10.7353437"><ele>72.8</ele><time>2026-04-03T14:41:33.992Z</time></trkpt><trkpt lat="43.330664" lon="10.7351969"><ele>73.0</ele><time>2026-04-03T14:41:34.991Z</time></trkpt><trkpt lat="43.3306875" lon="10.7350456"><ele>73.0</ele><time>2026-04-03T14:41:35.984Z</time></trkpt><trkpt lat="43.3307127" lon="10.734893"><ele>73.0</ele><time>2026-04-03T14:41:36.985Z</time></trkpt><trkpt lat="43.3307417" lon="10.7347514"><ele>73.0</ele><time>2026-04-03T14:41:37.988Z</time></trkpt><trkpt lat="43.3307973" lon="10.7346126"><ele>73.0</ele><time>2026-04-03T14:41:38.993Z</time></trkpt><trkpt lat="43.3308765" lon="10.7344923"><ele>74.0</ele><time>2026-04-03T14:41:39.982Z</time></trkpt><trkpt lat="43.3309614" lon="10.7343831"><ele>75.0</ele><time>2026-04-03T14:41:40.987Z</time></trkpt><trkpt lat="43.331032" lon="10.7342722"><ele>76.0</ele><time>2026-04-03T14:41:41.987Z</time></trkpt><trkpt lat="43.3310666" lon="10.7341429"><ele>77.0</ele><time>2026-04-03T14:41:42.981Z</time></trkpt><trkpt lat="43.3310452" lon="10.7340107"><ele>78.0</ele><time>2026-04-03T14:41:43.988Z</time></trkpt><trkpt lat="43.3309962" lon="10.7338901"><ele>78.0</ele><time>2026-04-03T14:41:44.985Z</time></trkpt><trkpt lat="43.3309139" lon="10.7337952"><ele>78.0</ele><time>2026-04-03T14:41:45.978Z</time></trkpt><trkpt lat="43.330799" lon="10.7337387"><ele>78.0</ele><time>2026-04-03T14:41:46.982Z</time></trkpt><trkpt lat="43.3306747" lon="10.7337013"><ele>78.0</ele><time>2026-04-03T14:41:47.982Z</time></trkpt><trkpt lat="43.3305385" lon="10.7336715"><ele>78.0</ele><time>2026-04-03T14:41:48.987Z</time></trkpt><trkpt lat="43.3303976" lon="10.7336343"><ele>78.0</ele><time>2026-04-03T14:41:49.987Z</time></trkpt><trkpt lat="43.3302477" lon="10.7335941"><ele>78.0</ele><time>2026-04-03T14:41:50.993Z</time></trkpt><trkpt lat="43.3300951" lon="10.7335525"><ele>79.66666666666667</ele><time>2026-04-03T14:41:51.992Z</time></trkpt><trkpt lat="43.3299425" lon="10.7335137"><ele>81.33333333333334</ele><time>2026-04-03T14:41:52.991Z</time></trkpt><trkpt lat="43.3297878" lon="10.7334726"><ele>83.0</ele><time>2026-04-03T14:41:53.987Z</time></trkpt><trkpt lat="43.3296308" lon="10.7334316"><ele>83.66666666666667</ele><time>2026-04-03T14:41:54.987Z</time></trkpt><trkpt lat="43.3294671" lon="10.7333874"><ele>84.33333333333333</ele><time>2026-04-03T14:41:55.991Z</time></trkpt><trkpt lat="43.3293024" lon="10.733342"><ele>85.0</ele><time>2026-04-03T14:41:56.984Z</time></trkpt><trkpt lat="43.3291333" lon="10.7332955"><ele>85.0</ele><time>2026-04-03T14:41:58.018Z</time></trkpt><trkpt lat="43.3289673" lon="10.7332504"><ele>85.0</ele><time>2026-04-03T14:41:59.001Z</time></trkpt><trkpt lat="43.3288006" lon="10.7332025"><ele>85.0</ele><time>2026-04-03T14:41:59.994Z</time></trkpt><trkpt lat="43.3286312" lon="10.7331555"><ele>83.33333333333333</ele><time>2026-04-03T14:42:00.993Z</time></trkpt><trkpt lat="43.3284646" lon="10.7331062"><ele>81.66666666666667</ele><time>2026-04-03T14:42:01.989Z</time></trkpt><trkpt lat="43.3282966" lon="10.7330586"><ele>80.0</ele><time>2026-04-03T14:42:02.997Z</time></trkpt><trkpt lat="43.3281456" lon="10.7330161"><ele>79.5</ele><time>2026-04-03T14:42:03.99Z</time></trkpt><trkpt lat="43.3279979" lon="10.7329749"><ele>79.0</ele><time>2026-04-03T14:42:04.983Z</time></trkpt><trkpt lat="43.3278534" lon="10.7329302"><ele>78.5</ele><time>2026-04-03T14:42:05.987Z</time></trkpt><trkpt lat="43.3277255" lon="10.7328661"><ele>78.0</ele><time>2026-04-03T14:42:06.99Z</time></trkpt><trkpt lat="43.3276176" lon="10.732775"><ele>77.75</ele><time>2026-04-03T14:42:07.981Z</time></trkpt><trkpt lat="43.327526" lon="10.7326431"><ele>77.5</ele><time>2026-04-03T14:42:08.993Z</time></trkpt><trkpt lat="43.3274571" lon="10.7324814"><ele>77.25</ele><time>2026-04-03T14:42:09.984Z</time></trkpt><trkpt lat="43.3274055" lon="10.7322914"><ele>77.0</ele><time>2026-04-03T14:42:10.992Z</time></trkpt><trkpt lat="43.3273627" lon="10.7320861"><ele>77.0</ele><time>2026-04-03T14:42:11.984Z</time></trkpt><trkpt lat="43.3273213" lon="10.7318735"><ele>77.0</ele><time>2026-04-03T14:42:12.987Z</time></trkpt><trkpt lat="43.327275" lon="10.7316446"><ele>77.0</ele><time>2026-04-03T14:42:13.981Z</time></trkpt><trkpt lat="43.3272274" lon="10.7314171"><ele>77.33333333333334</ele><time>2026-04-03T14:42:14.993Z</time></trkpt><trkpt lat="43.3271757" lon="10.7311904"><ele>77.66666666666667</ele><time>2026-04-03T14:42:15.984Z</time></trkpt><trkpt lat="43.3271211" lon="10.7309552"><ele>78.0</ele><time>2026-04-03T14:42:16.991Z</time></trkpt><trkpt lat="43.3270665" lon="10.7307203"><ele>78.0</ele><time>2026-04-03T14:42:18Z</time></trkpt><trkpt lat="43.3270142" lon="10.7304935"><ele>78.0</ele><time>2026-04-03T14:42:18.985Z</time></trkpt><trkpt lat="43.3269622" lon="10.7302784"><ele>78.0</ele><time>2026-04-03T14:42:19.984Z</time></trkpt><trkpt lat="43.3269155" lon="10.7300753"><ele>77.75</ele><time>2026-04-03T14:42:20.99Z</time></trkpt><trkpt lat="43.326877" lon="10.7298931"><ele>77.5</ele><time>2026-04-03T14:42:21.987Z</time></trkpt><trkpt lat="43.3268598" lon="10.7297309"><ele>77.25</ele><time>2026-04-03T14:42:22.979Z</time></trkpt><trkpt lat="43.3268701" lon="10.7295858"><ele>77.0</ele><time>2026-04-03T14:42:23.983Z</time></trkpt><trkpt lat="43.3269237" lon="10.7294632"><ele>76.75</ele><time>2026-04-03T14:42:24.99Z</time></trkpt><trkpt lat="43.3270071" lon="10.7293703"><ele>76.5</ele><time>2026-04-03T14:42:25.987Z</time></trkpt><trkpt lat="43.3271053" lon="10.7292878"><ele>76.25</ele><time>2026-04-03T14:42:26.987Z</time></trkpt><trkpt lat="43.3272314" lon="10.7292254"><ele>76.0</ele><time>2026-04-03T14:42:27.992Z</time></trkpt><trkpt lat="43.3273471" lon="10.7291576"><ele>75.25</ele><time>2026-04-03T14:42:28.979Z</time></trkpt><trkpt lat="43.3274576" lon="10.7290616"><ele>74.5</ele><time>2026-04-03T14:42:29.986Z</time></trkpt><trkpt lat="43.3275539" lon="10.7289265"><ele>73.75</ele><time>2026-04-03T14:42:30.981Z</time></trkpt><trkpt lat="43.3276318" lon="10.7287651"><ele>73.0</ele><time>2026-04-03T14:42:31.984Z</time></trkpt><trkpt lat="43.3277012" lon="10.7286009"><ele>71.75</ele><time>2026-04-03T14:42:32.992Z</time></trkpt><trkpt lat="43.3277748" lon="10.7284583"><ele>70.5</ele><time>2026-04-03T14:42:33.984Z</time></trkpt><trkpt lat="43.3278484" lon="10.7283362"><ele>69.25</ele><time>2026-04-03T14:42:34.981Z</time></trkpt><trkpt lat="43.3279324" lon="10.7282501"><ele>68.0</ele><time>2026-04-03T14:42:35.989Z</time></trkpt><trkpt lat="43.3280338" lon="10.7282268"><ele>68.0</ele><time>2026-04-03T14:42:36.985Z</time></trkpt><trkpt lat="43.3281442" lon="10.7282497"><ele>68.0</ele><time>2026-04-03T14:42:37.98Z</time></trkpt><trkpt lat="43.3282525" lon="10.7282718"><ele>68.0</ele><time>2026-04-03T14:42:38.988Z</time></trkpt><trkpt lat="43.3283438" lon="10.7282519"><ele>68.0</ele><time>2026-04-03T14:42:39.981Z</time></trkpt><trkpt lat="43.3283983" lon="10.7281922"><ele>68.0</ele><time>2026-04-03T14:42:40.978Z</time></trkpt><trkpt lat="43.3283836" lon="10.7280396"><ele>68.0</ele><time>2026-04-03T14:42:42.987Z</time></trkpt><trkpt lat="43.3282967" lon="10.7279915"><ele>68.0</ele><time>2026-04-03T14:42:43.979Z</time></trkpt><trkpt lat="43.3281774" lon="10.7279751"><ele>68.0</ele><time>2026-04-03T14:42:44.981Z</time></trkpt><trkpt lat="43.3280569" lon="10.7279645"><ele>68.0</ele><time>2026-04-03T14:42:45.985Z</time></trkpt><trkpt lat="43.3279306" lon="10.7279559"><ele>68.0</ele><time>2026-04-03T14:42:46.983Z</time></trkpt><trkpt lat="43.3277957" lon="10.7279478"><ele>68.0</ele><time>2026-04-03T14:42:47.983Z</time></trkpt><trkpt lat="43.3276675" lon="10.7279334"><ele>68.0</ele><time>2026-04-03T14:42:48.987Z</time></trkpt><trkpt lat="43.3275525" lon="10.727878"><ele>68.0</ele><time>2026-04-03T14:42:49.988Z</time></trkpt><trkpt lat="43.3274448" lon="10.7277881"><ele>66.0</ele><time>2026-04-03T14:42:50.986Z</time></trkpt><trkpt lat="43.3273443" lon="10.7276727"><ele>64.0</ele><time>2026-04-03T14:42:51.984Z</time></trkpt><trkpt lat="43.3272392" lon="10.7275588"><ele>62.0</ele><time>2026-04-03T14:42:52.989Z</time></trkpt><trkpt lat="43.3271285" lon="10.7274582"><ele>60.0</ele><time>2026-04-03T14:42:54.001Z</time></trkpt><trkpt lat="43.3270139" lon="10.7273694"><ele>60.0</ele><time>2026-04-03T14:42:54.989Z</time></trkpt><trkpt lat="43.3268806" lon="10.7273187"><ele>60.0</ele><time>2026-04-03T14:42:55.986Z</time></trkpt><trkpt lat="43.3267408" lon="10.7272849"><ele>60.0</ele><time>2026-04-03T14:42:56.992Z</time></trkpt><trkpt lat="43.3266042" lon="10.7272683"><ele>60.0</ele><time>2026-04-03T14:42:57.997Z</time></trkpt><trkpt lat="43.3264652" lon="10.7272521"><ele>60.0</ele><time>2026-04-03T14:42:58.989Z</time></trkpt><trkpt lat="43.3263261" lon="10.7272246"><ele>60.0</ele><time>2026-04-03T14:42:59.992Z</time></trkpt><trkpt lat="43.3261906" lon="10.7271892"><ele>60.0</ele><time>2026-04-03T14:43:00.995Z</time></trkpt><trkpt lat="43.3260667" lon="10.7271278"><ele>60.0</ele><time>2026-04-03T14:43:01.991Z</time></trkpt><trkpt lat="43.3259547" lon="10.7270542"><ele>60.0</ele><time>2026-04-03T14:43:02.995Z</time></trkpt><trkpt lat="43.3258584" lon="10.7269679"><ele>60.0</ele><time>2026-04-03T14:43:03.988Z</time></trkpt><trkpt lat="43.3257681" lon="10.7268843"><ele>60.0</ele><time>2026-04-03T14:43:04.989Z</time></trkpt><trkpt lat="43.3256821" lon="10.7268054"><ele>60.0</ele><time>2026-04-03T14:43:06Z</time></trkpt><trkpt lat="43.3256057" lon="10.7267276"><ele>60.0</ele><time>2026-04-03T14:43:06.988Z</time></trkpt><trkpt lat="43.3255397" lon="10.7266486"><ele>59.5</ele><time>2026-04-03T14:43:07.992Z</time></trkpt><trkpt lat="43.3254986" lon="10.7265651"><ele>59.0</ele><time>2026-04-03T14:43:08.989Z</time></trkpt><trkpt lat="43.325474" lon="10.7264682"><ele>58.5</ele><time>2026-04-03T14:43:09.989Z</time></trkpt><trkpt lat="43.3254591" lon="10.7263569"><ele>58.0</ele><time>2026-04-03T14:43:10.985Z</time></trkpt><trkpt lat="43.3254483" lon="10.7262305"><ele>57.5</ele><time>2026-04-03T14:43:11.978Z</time></trkpt><trkpt lat="43.325445" lon="10.7260832"><ele>57.0</ele><time>2026-04-03T14:43:12.986Z</time></trkpt><trkpt lat="43.3254428" lon="10.7259296"><ele>55.25</ele><time>2026-04-03T14:43:13.991Z</time></trkpt><trkpt lat="43.3254368" lon="10.7257715"><ele>53.5</ele><time>2026-04-03T14:43:14.99Z</time></trkpt><trkpt lat="43.3254303" lon="10.725602"><ele>51.75</ele><time>2026-04-03T14:43:15.994Z</time></trkpt><trkpt lat="43.3254177" lon="10.7254278"><ele>50.0</ele><time>2026-04-03T14:43:16.99Z</time></trkpt><trkpt lat="43.3254029" lon="10.7252521"><ele>50.0</ele><time>2026-04-03T14:43:17.984Z</time></trkpt><trkpt lat="43.3253888" lon="10.7250725"><ele>50.0</ele><time>2026-04-03T14:43:18.984Z</time></trkpt><trkpt lat="43.3253724" lon="10.7248885"><ele>50.0</ele><time>2026-04-03T14:43:19.991Z</time></trkpt><trkpt lat="43.3253579" lon="10.7247132"><ele>50.0</ele><time>2026-04-03T14:43:20.992Z</time></trkpt><trkpt lat="43.3253478" lon="10.7245483"><ele>50.25</ele><time>2026-04-03T14:43:21.986Z</time></trkpt><trkpt lat="43.3253415" lon="10.7243736"><ele>50.5</ele><time>2026-04-03T14:43:22.981Z</time></trkpt><trkpt lat="43.3253252" lon="10.7241918"><ele>50.75</ele><time>2026-04-03T14:43:23.989Z</time></trkpt><trkpt lat="43.3253171" lon="10.7239971"><ele>51.0</ele><time>2026-04-03T14:43:24.994Z</time></trkpt><trkpt lat="43.3253045" lon="10.7238066"><ele>51.0</ele><time>2026-04-03T14:43:25.99Z</time></trkpt><trkpt lat="43.3252903" lon="10.7236312"><ele>51.0</ele><time>2026-04-03T14:43:26.986Z</time></trkpt><trkpt lat="43.3252755" lon="10.723467"><ele>51.0</ele><time>2026-04-03T14:43:27.997Z</time></trkpt><trkpt lat="43.3252645" lon="10.7233074"><ele>51.0</ele><time>2026-04-03T14:43:28.992Z</time></trkpt><trkpt lat="43.3252599" lon="10.7231493"><ele>52.4</ele><time>2026-04-03T14:43:29.982Z</time></trkpt><trkpt lat="43.3252651" lon="10.7230133"><ele>53.8</ele><time>2026-04-03T14:43:30.986Z</time></trkpt><trkpt lat="43.3252734" lon="10.7228965"><ele>55.199999999999996</ele><time>2026-04-03T14:43:31.982Z</time></trkpt><trkpt lat="43.3252985" lon="10.7228089"><ele>56.599999999999994</ele><time>2026-04-03T14:43:32.988Z</time></trkpt><trkpt lat="43.3253782" lon="10.7226776"><ele>58.0</ele><time>2026-04-03T14:43:34.985Z</time></trkpt><trkpt lat="43.3254476" lon="10.7225561"><ele>58.599999999999994</ele><time>2026-04-03T14:43:36.984Z</time></trkpt><trkpt lat="43.3254885" lon="10.7224396"><ele>59.199999999999996</ele><time>2026-04-03T14:43:38.982Z</time></trkpt><trkpt lat="43.3255433" lon="10.7222757"><ele>59.8</ele><time>2026-04-03T14:43:40.994Z</time></trkpt><trkpt lat="43.3255796" lon="10.7221684"><ele>60.4</ele><time>2026-04-03T14:43:41.985Z</time></trkpt><trkpt lat="43.3256134" lon="10.7220545"><ele>61.0</ele><time>2026-04-03T14:43:42.985Z</time></trkpt><trkpt lat="43.3256211" lon="10.7219263"><ele>60.75</ele><time>2026-04-03T14:43:43.98Z</time></trkpt><trkpt lat="43.325615" lon="10.721784"><ele>60.5</ele><time>2026-04-03T14:43:44.986Z</time></trkpt><trkpt lat="43.3255849" lon="10.7216092"><ele>60.25</ele><time>2026-04-03T14:43:45.989Z</time></trkpt><trkpt lat="43.3255602" lon="10.7214158"><ele>60.0</ele><time>2026-04-03T14:43:46.986Z</time></trkpt><trkpt lat="43.3255341" lon="10.721219"><ele>59.25</ele><time>2026-04-03T14:43:47.987Z</time></trkpt><trkpt lat="43.3255155" lon="10.721023"><ele>58.5</ele><time>2026-04-03T14:43:48.999Z</time></trkpt><trkpt lat="43.3254854" lon="10.7208281"><ele>57.75</ele><time>2026-04-03T14:43:49.992Z</time></trkpt><trkpt lat="43.3254597" lon="10.7206146"><ele>57.0</ele><time>2026-04-03T14:43:50.991Z</time></trkpt><trkpt lat="43.3254382" lon="10.7204032"><ele>55.0</ele><time>2026-04-03T14:43:51.994Z</time></trkpt><trkpt lat="43.3254158" lon="10.7202019"><ele>53.0</ele><time>2026-04-03T14:43:52.985Z</time></trkpt><trkpt lat="43.3253924" lon="10.7200002"><ele>51.0</ele><time>2026-04-03T14:43:53.997Z</time></trkpt><trkpt lat="43.3253663" lon="10.7198007"><ele>49.0</ele><time>2026-04-03T14:43:54.995Z</time></trkpt><trkpt lat="43.3253411" lon="10.7195963"><ele>47.25</ele><time>2026-04-03T14:43:56.012Z</time></trkpt><trkpt lat="43.3253158" lon="10.7193952"><ele>45.5</ele><time>2026-04-03T14:43:56.989Z</time></trkpt><trkpt lat="43.3252892" lon="10.7191947"><ele>43.75</ele><time>2026-04-03T14:43:57.983Z</time></trkpt><trkpt lat="43.3252681" lon="10.7189954"><ele>42.0</ele><time>2026-04-03T14:43:58.986Z</time></trkpt><trkpt lat="43.3252481" lon="10.7187951"><ele>42.0</ele><time>2026-04-03T14:43:59.987Z</time></trkpt><trkpt lat="43.3252292" lon="10.7185977"><ele>42.0</ele><time>2026-04-03T14:44:00.986Z</time></trkpt><trkpt lat="43.3252084" lon="10.7184054"><ele>42.0</ele><time>2026-04-03T14:44:01.985Z</time></trkpt><trkpt lat="43.3251847" lon="10.7182113"><ele>42.0</ele><time>2026-04-03T14:44:02.992Z</time></trkpt><trkpt lat="43.3251621" lon="10.7180154"><ele>41.75</ele><time>2026-04-03T14:44:03.992Z</time></trkpt><trkpt lat="43.325142" lon="10.7178193"><ele>41.5</ele><time>2026-04-03T14:44:04.993Z</time></trkpt><trkpt lat="43.3251214" lon="10.7176295"><ele>41.25</ele><time>2026-04-03T14:44:05.986Z</time></trkpt><trkpt lat="43.3251013" lon="10.7174376"><ele>41.0</ele><time>2026-04-03T14:44:06.988Z</time></trkpt><trkpt lat="43.3250789" lon="10.7172476"><ele>41.0</ele><time>2026-04-03T14:44:07.982Z</time></trkpt><trkpt lat="43.3250565" lon="10.7170549"><ele>41.0</ele><time>2026-04-03T14:44:08.989Z</time></trkpt><trkpt lat="43.3250341" lon="10.7168567"><ele>41.0</ele><time>2026-04-03T14:44:09.987Z</time></trkpt><trkpt lat="43.3250134" lon="10.7166573"><ele>41.0</ele><time>2026-04-03T14:44:10.982Z</time></trkpt><trkpt lat="43.3249905" lon="10.7164592"><ele>41.0</ele><time>2026-04-03T14:44:11.992Z</time></trkpt><trkpt lat="43.3249687" lon="10.716264"><ele>41.0</ele><time>2026-04-03T14:44:12.981Z</time></trkpt><trkpt lat="43.3249471" lon="10.7160649"><ele>41.0</ele><time>2026-04-03T14:44:13.994Z</time></trkpt><trkpt lat="43.3249256" lon="10.7158673"><ele>41.0</ele><time>2026-04-03T14:44:14.99Z</time></trkpt><trkpt lat="43.3249054" lon="10.7156717"><ele>40.75</ele><time>2026-04-03T14:44:15.987Z</time></trkpt><trkpt lat="43.3248867" lon="10.7154792"><ele>40.5</ele><time>2026-04-03T14:44:16.982Z</time></trkpt><trkpt lat="43.3248657" lon="10.715293"><ele>40.25</ele><time>2026-04-03T14:44:17.994Z</time></trkpt><trkpt lat="43.3248481" lon="10.715113"><ele>40.0</ele><time>2026-04-03T14:44:18.984Z</time></trkpt><trkpt lat="43.3248292" lon="10.7149298"><ele>40.0</ele><time>2026-04-03T14:44:19.994Z</time></trkpt><trkpt lat="43.3248111" lon="10.7147497"><ele>40.0</ele><time>2026-04-03T14:44:21.01Z</time></trkpt><trkpt lat="43.3247923" lon="10.7145739"><ele>40.0</ele><time>2026-04-03T14:44:22.003Z</time></trkpt><trkpt lat="43.3247721" lon="10.7143957"><ele>40.0</ele><time>2026-04-03T14:44:22.99Z</time></trkpt><trkpt lat="43.3247498" lon="10.7142092"><ele>40.5</ele><time>2026-04-03T14:44:24.004Z</time></trkpt><trkpt lat="43.3247277" lon="10.7140218"><ele>41.0</ele><time>2026-04-03T14:44:24.99Z</time></trkpt><trkpt lat="43.3247066" lon="10.7138312"><ele>41.5</ele><time>2026-04-03T14:44:25.989Z</time></trkpt><trkpt lat="43.324685" lon="10.7136425"><ele>42.0</ele><time>2026-04-03T14:44:27.007Z</time></trkpt><trkpt lat="43.324664" lon="10.7134596"><ele>42.0</ele><time>2026-04-03T14:44:27.999Z</time></trkpt><trkpt lat="43.3246461" lon="10.7132796"><ele>42.0</ele><time>2026-04-03T14:44:28.994Z</time></trkpt><trkpt lat="43.3246298" lon="10.7131103"><ele>42.0</ele><time>2026-04-03T14:44:29.996Z</time></trkpt><trkpt lat="43.3246165" lon="10.7129646"><ele>42.0</ele><time>2026-04-03T14:44:31Z</time></trkpt><trkpt lat="43.3246059" lon="10.7128452"><ele>42.0</ele><time>2026-04-03T14:44:32Z</time></trkpt><trkpt lat="43.3245985" lon="10.7127483"><ele>42.0</ele><time>2026-04-03T14:44:32.986Z</time></trkpt><trkpt lat="43.3245631" lon="10.7126139"><ele>42.0</ele><time>2026-04-03T14:44:34.987Z</time></trkpt><trkpt lat="43.3244586" lon="10.7125777"><ele>42.0</ele><time>2026-04-03T14:44:36.993Z</time></trkpt><trkpt lat="43.3243884" lon="10.7126057"><ele>42.0</ele><time>2026-04-03T14:44:37.994Z</time></trkpt><trkpt lat="43.324302" lon="10.7126655"><ele>42.0</ele><time>2026-04-03T14:44:39Z</time></trkpt><trkpt lat="43.3242037" lon="10.712757"><ele>42.0</ele><time>2026-04-03T14:44:39.995Z</time></trkpt><trkpt lat="43.3241063" lon="10.7128427"><ele>42.0</ele><time>2026-04-03T14:44:40.991Z</time></trkpt><trkpt lat="43.3240141" lon="10.7129274"><ele>42.0</ele><time>2026-04-03T14:44:42Z</time></trkpt><trkpt lat="43.3239191" lon="10.7130081"><ele>42.5</ele><time>2026-04-03T14:44:42.999Z</time></trkpt><trkpt lat="43.3238241" lon="10.71308"><ele>43.0</ele><time>2026-04-03T14:44:43.999Z</time></trkpt><trkpt lat="43.3237267" lon="10.7131535"><ele>43.5</ele><time>2026-04-03T14:44:44.995Z</time></trkpt><trkpt lat="43.3236253" lon="10.7132283"><ele>44.0</ele><time>2026-04-03T14:44:45.995Z</time></trkpt><trkpt lat="43.3235228" lon="10.7133035"><ele>44.0</ele><time>2026-04-03T14:44:46.995Z</time></trkpt><trkpt lat="43.3234227" lon="10.7133812"><ele>44.0</ele><time>2026-04-03T14:44:47.999Z</time></trkpt><trkpt lat="43.3233321" lon="10.7134566"><ele>44.0</ele><time>2026-04-03T14:44:49.004Z</time></trkpt><trkpt lat="43.323255" lon="10.7135199"><ele>44.0</ele><time>2026-04-03T14:44:49.986Z</time></trkpt><trkpt lat="43.3231887" lon="10.7135747"><ele>44.0</ele><time>2026-04-03T14:44:51.06Z</time></trkpt><trkpt lat="43.3230883" lon="10.7136122"><ele>45.800000000000004</ele><time>2026-04-03T14:44:52.994Z</time></trkpt><trkpt lat="43.3230175" lon="10.7135114"><ele>47.6</ele><time>2026-04-03T14:44:54.992Z</time></trkpt><trkpt lat="43.3230085" lon="10.7134075"><ele>49.4</ele><time>2026-04-03T14:44:55.986Z</time></trkpt><trkpt lat="43.323014" lon="10.7132724"><ele>51.2</ele><time>2026-04-03T14:44:56.995Z</time></trkpt><trkpt lat="43.3230201" lon="10.7131159"><ele>53.0</ele><time>2026-04-03T14:44:57.989Z</time></trkpt><trkpt lat="43.3230196" lon="10.7129525"><ele>53.0</ele><time>2026-04-03T14:44:58.988Z</time></trkpt><trkpt lat="43.3230176" lon="10.7127819"><ele>53.0</ele><time>2026-04-03T14:44:59.991Z</time></trkpt><trkpt lat="43.3230156" lon="10.712612"><ele>53.0</ele><time>2026-04-03T14:45:00.987Z</time></trkpt><trkpt lat="43.3230082" lon="10.7124511"><ele>53.0</ele><time>2026-04-03T14:45:01.991Z</time></trkpt><trkpt lat="43.323001" lon="10.71229"><ele>53.25</ele><time>2026-04-03T14:45:02.994Z</time></trkpt><trkpt lat="43.3229898" lon="10.7121276"><ele>53.5</ele><time>2026-04-03T14:45:03.992Z</time></trkpt><trkpt lat="43.3229783" lon="10.7119624"><ele>53.75</ele><time>2026-04-03T14:45:04.986Z</time></trkpt><trkpt lat="43.3229701" lon="10.7117963"><ele>54.0</ele><time>2026-04-03T14:45:05.988Z</time></trkpt><trkpt lat="43.3229655" lon="10.7116279"><ele>53.0</ele><time>2026-04-03T14:45:06.985Z</time></trkpt><trkpt lat="43.322964" lon="10.7114561"><ele>52.0</ele><time>2026-04-03T14:45:07.992Z</time></trkpt><trkpt lat="43.3229604" lon="10.7112825"><ele>51.0</ele><time>2026-04-03T14:45:08.987Z</time></trkpt><trkpt lat="43.322954" lon="10.7111058"><ele>50.0</ele><time>2026-04-03T14:45:09.997Z</time></trkpt><trkpt lat="43.3229449" lon="10.7109288"><ele>49.0</ele><time>2026-04-03T14:45:11.002Z</time></trkpt><trkpt lat="43.3229352" lon="10.7107517"><ele>48.0</ele><time>2026-04-03T14:45:11.993Z</time></trkpt><trkpt lat="43.3229267" lon="10.7105731"><ele>47.0</ele><time>2026-04-03T14:45:12.989Z</time></trkpt><trkpt lat="43.3229249" lon="10.7103936"><ele>46.0</ele><time>2026-04-03T14:45:13.997Z</time></trkpt><trkpt lat="43.3229243" lon="10.7102139"><ele>45.5</ele><time>2026-04-03T14:45:14.988Z</time></trkpt><trkpt lat="43.322919" lon="10.7100333"><ele>45.0</ele><time>2026-04-03T14:45:15.998Z</time></trkpt><trkpt lat="43.3229112" lon="10.7098547"><ele>44.5</ele><time>2026-04-03T14:45:16.982Z</time></trkpt><trkpt lat="43.3229035" lon="10.7096739"><ele>44.0</ele><time>2026-04-03T14:45:17.991Z</time></trkpt><trkpt lat="43.3228934" lon="10.7094958"><ele>44.25</ele><time>2026-04-03T14:45:18.988Z</time></trkpt><trkpt lat="43.3228832" lon="10.7093174"><ele>44.5</ele><time>2026-04-03T14:45:19.997Z</time></trkpt><trkpt lat="43.3228761" lon="10.7091396"><ele>44.75</ele><time>2026-04-03T14:45:21.002Z</time></trkpt><trkpt lat="43.3228727" lon="10.708962"><ele>45.0</ele><time>2026-04-03T14:45:21.985Z</time></trkpt><trkpt lat="43.3228685" lon="10.7087822"><ele>45.0</ele><time>2026-04-03T14:45:22.992Z</time></trkpt><trkpt lat="43.322864" lon="10.7086032"><ele>45.0</ele><time>2026-04-03T14:45:24.006Z</time></trkpt><trkpt lat="43.3228574" lon="10.7084285"><ele>45.0</ele><time>2026-04-03T14:45:24.984Z</time></trkpt><trkpt lat="43.3228501" lon="10.7082423"><ele>45.0</ele><time>2026-04-03T14:45:25.993Z</time></trkpt><trkpt lat="43.3228451" lon="10.7080593"><ele>44.5</ele><time>2026-04-03T14:45:26.996Z</time></trkpt><trkpt lat="43.3228372" lon="10.7078796"><ele>44.0</ele><time>2026-04-03T14:45:27.997Z</time></trkpt><trkpt lat="43.3228286" lon="10.7076931"><ele>43.5</ele><time>2026-04-03T14:45:28.994Z</time></trkpt><trkpt lat="43.3228214" lon="10.7075057"><ele>43.0</ele><time>2026-04-03T14:45:29.986Z</time></trkpt><trkpt lat="43.3228162" lon="10.7073156"><ele>43.0</ele><time>2026-04-03T14:45:30.986Z</time></trkpt><trkpt lat="43.3228101" lon="10.7071272"><ele>43.0</ele><time>2026-04-03T14:45:31.986Z</time></trkpt><trkpt lat="43.3228003" lon="10.7069367"><ele>43.0</ele><time>2026-04-03T14:45:32.989Z</time></trkpt><trkpt lat="43.322792" lon="10.7067474"><ele>43.0</ele><time>2026-04-03T14:45:33.987Z</time></trkpt><trkpt lat="43.3227822" lon="10.7065556"><ele>43.0</ele><time>2026-04-03T14:45:34.989Z</time></trkpt><trkpt lat="43.3227755" lon="10.7063649"><ele>43.0</ele><time>2026-04-03T14:45:35.986Z</time></trkpt><trkpt lat="43.3227737" lon="10.7061735"><ele>43.0</ele><time>2026-04-03T14:45:36.989Z</time></trkpt><trkpt lat="43.3227722" lon="10.7059793"><ele>43.0</ele><time>2026-04-03T14:45:38.003Z</time></trkpt><trkpt lat="43.3227671" lon="10.7057838"><ele>43.0</ele><time>2026-04-03T14:45:38.993Z</time></trkpt><trkpt lat="43.3227602" lon="10.7055833"><ele>43.0</ele><time>2026-04-03T14:45:39.989Z</time></trkpt><trkpt lat="43.3227518" lon="10.7053815"><ele>43.0</ele><time>2026-04-03T14:45:40.985Z</time></trkpt><trkpt lat="43.3227426" lon="10.7051767"><ele>43.0</ele><time>2026-04-03T14:45:41.992Z</time></trkpt><trkpt lat="43.3227353" lon="10.7049698"><ele>43.0</ele><time>2026-04-03T14:45:42.987Z</time></trkpt><trkpt lat="43.3227286" lon="10.7047603"><ele>43.0</ele><time>2026-04-03T14:45:43.986Z</time></trkpt><trkpt lat="43.3227204" lon="10.7045492"><ele>43.0</ele><time>2026-04-03T14:45:44.989Z</time></trkpt><trkpt lat="43.3227135" lon="10.7043372"><ele>43.0</ele><time>2026-04-03T14:45:45.992Z</time></trkpt><trkpt lat="43.3227069" lon="10.7041261"><ele>43.0</ele><time>2026-04-03T14:45:46.987Z</time></trkpt><trkpt lat="43.3227001" lon="10.7039145"><ele>43.0</ele><time>2026-04-03T14:45:47.987Z</time></trkpt><trkpt lat="43.3226915" lon="10.7037034"><ele>42.66666666666667</ele><time>2026-04-03T14:45:48.985Z</time></trkpt><trkpt lat="43.3226821" lon="10.7034913"><ele>42.333333333333336</ele><time>2026-04-03T14:45:49.995Z</time></trkpt><trkpt lat="43.3226744" lon="10.7032795"><ele>42.0</ele><time>2026-04-03T14:45:50.985Z</time></trkpt><trkpt lat="43.3226676" lon="10.7030648"><ele>42.0</ele><time>2026-04-03T14:45:51.994Z</time></trkpt><trkpt lat="43.32266" lon="10.7028504"><ele>42.0</ele><time>2026-04-03T14:45:52.992Z</time></trkpt><trkpt lat="43.3226509" lon="10.7026368"><ele>42.0</ele><time>2026-04-03T14:45:53.986Z</time></trkpt><trkpt lat="43.3226426" lon="10.7024235"><ele>42.0</ele><time>2026-04-03T14:45:54.983Z</time></trkpt><trkpt lat="43.3226341" lon="10.7022106"><ele>42.0</ele><time>2026-04-03T14:45:55.986Z</time></trkpt><trkpt lat="43.3226249" lon="10.701997"><ele>42.0</ele><time>2026-04-03T14:45:56.99Z</time></trkpt><trkpt lat="43.3226172" lon="10.7017829"><ele>42.0</ele><time>2026-04-03T14:45:57.991Z</time></trkpt><trkpt lat="43.3226102" lon="10.7015681"><ele>42.0</ele><time>2026-04-03T14:45:58.993Z</time></trkpt><trkpt lat="43.3226029" lon="10.7013528"><ele>42.0</ele><time>2026-04-03T14:45:59.99Z</time></trkpt><trkpt lat="43.3225955" lon="10.701137"><ele>42.333333333333336</ele><time>2026-04-03T14:46:00.99Z</time></trkpt><trkpt lat="43.322589" lon="10.700921"><ele>42.66666666666667</ele><time>2026-04-03T14:46:01.989Z</time></trkpt><trkpt lat="43.3225818" lon="10.7007036"><ele>43.0</ele><time>2026-04-03T14:46:02.991Z</time></trkpt><trkpt lat="43.3225741" lon="10.7004848"><ele>43.0</ele><time>2026-04-03T14:46:03.991Z</time></trkpt><trkpt lat="43.3225655" lon="10.7002648"><ele>43.0</ele><time>2026-04-03T14:46:04.992Z</time></trkpt><trkpt lat="43.3225557" lon="10.7000455"><ele>43.0</ele><time>2026-04-03T14:46:05.99Z</time></trkpt><trkpt lat="43.322546" lon="10.6998277"><ele>42.333333333333336</ele><time>2026-04-03T14:46:06.99Z</time></trkpt><trkpt lat="43.3225366" lon="10.6996123"><ele>41.666666666666664</ele><time>2026-04-03T14:46:07.99Z</time></trkpt><trkpt lat="43.3225276" lon="10.6993998"><ele>41.0</ele><time>2026-04-03T14:46:08.988Z</time></trkpt><trkpt lat="43.3225196" lon="10.6991872"><ele>41.0</ele><time>2026-04-03T14:46:09.986Z</time></trkpt><trkpt lat="43.3225137" lon="10.6989765"><ele>41.0</ele><time>2026-04-03T14:46:10.994Z</time></trkpt><trkpt lat="43.3225091" lon="10.6987697"><ele>41.0</ele><time>2026-04-03T14:46:11.989Z</time></trkpt><trkpt lat="43.3225032" lon="10.698563"><ele>40.666666666666664</ele><time>2026-04-03T14:46:12.987Z</time></trkpt><trkpt lat="43.322494" lon="10.6983556"><ele>40.333333333333336</ele><time>2026-04-03T14:46:13.995Z</time></trkpt><trkpt lat="43.3224849" lon="10.6981478"><ele>40.0</ele><time>2026-04-03T14:46:14.995Z</time></trkpt><trkpt lat="43.3224778" lon="10.697939"><ele>40.0</ele><time>2026-04-03T14:46:15.994Z</time></trkpt><trkpt lat="43.3224715" lon="10.6977294"><ele>40.0</ele><time>2026-04-03T14:46:16.992Z</time></trkpt><trkpt lat="43.3224632" lon="10.6975204"><ele>40.0</ele><time>2026-04-03T14:46:17.989Z</time></trkpt><trkpt lat="43.3224558" lon="10.6973121"><ele>40.0</ele><time>2026-04-03T14:46:18.985Z</time></trkpt><trkpt lat="43.3224502" lon="10.6971035"><ele>40.0</ele><time>2026-04-03T14:46:19.985Z</time></trkpt><trkpt lat="43.3224443" lon="10.6968959"><ele>40.0</ele><time>2026-04-03T14:46:20.995Z</time></trkpt><trkpt lat="43.322437" lon="10.6966907"><ele>40.0</ele><time>2026-04-03T14:46:21.985Z</time></trkpt><trkpt lat="43.3224308" lon="10.6964833"><ele>40.0</ele><time>2026-04-03T14:46:22.993Z</time></trkpt><trkpt lat="43.3224236" lon="10.6962767"><ele>40.0</ele><time>2026-04-03T14:46:23.992Z</time></trkpt><trkpt lat="43.3224149" lon="10.6960689"><ele>40.333333333333336</ele><time>2026-04-03T14:46:24.987Z</time></trkpt><trkpt lat="43.3224046" lon="10.6958651"><ele>40.666666666666664</ele><time>2026-04-03T14:46:25.987Z</time></trkpt><trkpt lat="43.3223974" lon="10.6956599"><ele>41.0</ele><time>2026-04-03T14:46:26.999Z</time></trkpt><trkpt lat="43.322389" lon="10.6954454"><ele>40.666666666666664</ele><time>2026-04-03T14:46:27.994Z</time></trkpt><trkpt lat="43.3223804" lon="10.6952273"><ele>40.333333333333336</ele><time>2026-04-03T14:46:28.987Z</time></trkpt><trkpt lat="43.3223701" lon="10.6950045"><ele>40.0</ele><time>2026-04-03T14:46:29.987Z</time></trkpt><trkpt lat="43.3223611" lon="10.6947838"><ele>40.0</ele><time>2026-04-03T14:46:30.993Z</time></trkpt><trkpt lat="43.3223525" lon="10.6945651"><ele>40.0</ele><time>2026-04-03T14:46:31.987Z</time></trkpt><trkpt lat="43.3223429" lon="10.6943469"><ele>40.0</ele><time>2026-04-03T14:46:32.99Z</time></trkpt><trkpt lat="43.3223335" lon="10.6941285"><ele>40.0</ele><time>2026-04-03T14:46:33.982Z</time></trkpt><trkpt lat="43.3223246" lon="10.6939108"><ele>40.0</ele><time>2026-04-03T14:46:34.988Z</time></trkpt><trkpt lat="43.3223164" lon="10.6936941"><ele>40.0</ele><time>2026-04-03T14:46:35.988Z</time></trkpt><trkpt lat="43.3223096" lon="10.6934774"><ele>40.0</ele><time>2026-04-03T14:46:36.985Z</time></trkpt><trkpt lat="43.322302" lon="10.6932608"><ele>40.0</ele><time>2026-04-03T14:46:37.986Z</time></trkpt><trkpt lat="43.322295" lon="10.693043"><ele>40.0</ele><time>2026-04-03T14:46:38.988Z</time></trkpt><trkpt lat="43.3222876" lon="10.692825"><ele>39.66666666666667</ele><time>2026-04-03T14:46:39.99Z</time></trkpt><trkpt lat="43.3222829" lon="10.6926081"><ele>39.333333333333336</ele><time>2026-04-03T14:46:40.986Z</time></trkpt><trkpt lat="43.3222785" lon="10.6923906"><ele>39.0</ele><time>2026-04-03T14:46:41.985Z</time></trkpt><trkpt lat="43.3222728" lon="10.6921732"><ele>39.0</ele><time>2026-04-03T14:46:42.985Z</time></trkpt><trkpt lat="43.3222656" lon="10.6919569"><ele>39.0</ele><time>2026-04-03T14:46:43.982Z</time></trkpt><trkpt lat="43.3222585" lon="10.6917409"><ele>39.0</ele><time>2026-04-03T14:46:44.99Z</time></trkpt><trkpt lat="43.3222497" lon="10.691527"><ele>39.0</ele><time>2026-04-03T14:46:45.989Z</time></trkpt><trkpt lat="43.3222391" lon="10.6913155"><ele>39.0</ele><time>2026-04-03T14:46:46.984Z</time></trkpt><trkpt lat="43.3222326" lon="10.6911043"><ele>39.0</ele><time>2026-04-03T14:46:47.986Z</time></trkpt><trkpt lat="43.3222268" lon="10.690888"><ele>39.0</ele><time>2026-04-03T14:46:48.992Z</time></trkpt><trkpt lat="43.3222199" lon="10.6906752"><ele>39.0</ele><time>2026-04-03T14:46:49.982Z</time></trkpt><trkpt lat="43.3222135" lon="10.6904611"><ele>39.0</ele><time>2026-04-03T14:46:50.983Z</time></trkpt><trkpt lat="43.3222068" lon="10.6902457"><ele>39.0</ele><time>2026-04-03T14:46:51.985Z</time></trkpt><trkpt lat="43.3222" lon="10.6900315"><ele>39.0</ele><time>2026-04-03T14:46:52.99Z</time></trkpt><trkpt lat="43.3221921" lon="10.6898189"><ele>39.0</ele><time>2026-04-03T14:46:53.983Z</time></trkpt><trkpt lat="43.3221845" lon="10.6896055"><ele>39.0</ele><time>2026-04-03T14:46:55.003Z</time></trkpt><trkpt lat="43.3221724" lon="10.6893968"><ele>39.0</ele><time>2026-04-03T14:46:55.991Z</time></trkpt><trkpt lat="43.3221615" lon="10.689184"><ele>39.0</ele><time>2026-04-03T14:46:56.986Z</time></trkpt><trkpt lat="43.322154" lon="10.6889735"><ele>39.0</ele><time>2026-04-03T14:46:57.987Z</time></trkpt><trkpt lat="43.3221477" lon="10.688764"><ele>39.0</ele><time>2026-04-03T14:46:58.986Z</time></trkpt><trkpt lat="43.3221418" lon="10.6885525"><ele>39.0</ele><time>2026-04-03T14:47:00.003Z</time></trkpt><trkpt lat="43.3221357" lon="10.6883435"><ele>39.0</ele><time>2026-04-03T14:47:00.986Z</time></trkpt><trkpt lat="43.3221282" lon="10.6881312"><ele>39.0</ele><time>2026-04-03T14:47:01.99Z</time></trkpt><trkpt lat="43.3221186" lon="10.6879194"><ele>39.0</ele><time>2026-04-03T14:47:02.991Z</time></trkpt><trkpt lat="43.32211" lon="10.6877086"><ele>38.666666666666664</ele><time>2026-04-03T14:47:03.989Z</time></trkpt><trkpt lat="43.3221017" lon="10.687499"><ele>38.33333333333333</ele><time>2026-04-03T14:47:04.987Z</time></trkpt><trkpt lat="43.3220922" lon="10.6872918"><ele>38.0</ele><time>2026-04-03T14:47:05.989Z</time></trkpt><trkpt lat="43.3220831" lon="10.6870856"><ele>38.33333333333333</ele><time>2026-04-03T14:47:06.992Z</time></trkpt><trkpt lat="43.3220746" lon="10.6868796"><ele>38.666666666666664</ele><time>2026-04-03T14:47:07.988Z</time></trkpt><trkpt lat="43.3220667" lon="10.6866729"><ele>39.0</ele><time>2026-04-03T14:47:08.993Z</time></trkpt><trkpt lat="43.3220605" lon="10.6864673"><ele>39.0</ele><time>2026-04-03T14:47:09.988Z</time></trkpt><trkpt lat="43.3220538" lon="10.6862606"><ele>39.0</ele><time>2026-04-03T14:47:10.985Z</time></trkpt><trkpt lat="43.3220456" lon="10.6860521"><ele>39.0</ele><time>2026-04-03T14:47:11.987Z</time></trkpt><trkpt lat="43.3220368" lon="10.6858471"><ele>39.0</ele><time>2026-04-03T14:47:12.986Z</time></trkpt><trkpt lat="43.3220298" lon="10.6856453"><ele>39.0</ele><time>2026-04-03T14:47:13.986Z</time></trkpt><trkpt lat="43.3220237" lon="10.6854458"><ele>39.0</ele><time>2026-04-03T14:47:14.982Z</time></trkpt><trkpt lat="43.3220174" lon="10.6852485"><ele>39.0</ele><time>2026-04-03T14:47:15.99Z</time></trkpt><trkpt lat="43.3220112" lon="10.6850551"><ele>39.0</ele><time>2026-04-03T14:47:16.987Z</time></trkpt><trkpt lat="43.3220039" lon="10.6848618"><ele>39.0</ele><time>2026-04-03T14:47:17.992Z</time></trkpt><trkpt lat="43.3219958" lon="10.6846688"><ele>39.0</ele><time>2026-04-03T14:47:18.985Z</time></trkpt><trkpt lat="43.3219889" lon="10.6844753"><ele>39.0</ele><time>2026-04-03T14:47:19.984Z</time></trkpt><trkpt lat="43.3219834" lon="10.6842804"><ele>38.75</ele><time>2026-04-03T14:47:20.992Z</time></trkpt><trkpt lat="43.3219777" lon="10.6840842"><ele>38.5</ele><time>2026-04-03T14:47:21.987Z</time></trkpt><trkpt lat="43.3219712" lon="10.6838877"><ele>38.25</ele><time>2026-04-03T14:47:22.989Z</time></trkpt><trkpt lat="43.321965" lon="10.6836938"><ele>38.0</ele><time>2026-04-03T14:47:23.983Z</time></trkpt><trkpt lat="43.3219587" lon="10.6835003"><ele>38.0</ele><time>2026-04-03T14:47:24.984Z</time></trkpt><trkpt lat="43.3219501" lon="10.6833067"><ele>38.0</ele><time>2026-04-03T14:47:25.986Z</time></trkpt><trkpt lat="43.3219406" lon="10.6831127"><ele>38.0</ele><time>2026-04-03T14:47:26.988Z</time></trkpt><trkpt lat="43.321932" lon="10.6829189"><ele>38.0</ele><time>2026-04-03T14:47:27.981Z</time></trkpt><trkpt lat="43.3219236" lon="10.6827261"><ele>37.75</ele><time>2026-04-03T14:47:28.984Z</time></trkpt><trkpt lat="43.3219155" lon="10.6825355"><ele>37.5</ele><time>2026-04-03T14:47:29.988Z</time></trkpt><trkpt lat="43.3219085" lon="10.6823468"><ele>37.25</ele><time>2026-04-03T14:47:30.985Z</time></trkpt><trkpt lat="43.3219042" lon="10.6821594"><ele>37.0</ele><time>2026-04-03T14:47:31.98Z</time></trkpt><trkpt lat="43.3219005" lon="10.6819728"><ele>37.0</ele><time>2026-04-03T14:47:32.983Z</time></trkpt><trkpt lat="43.3218961" lon="10.6817869"><ele>37.0</ele><time>2026-04-03T14:47:33.98Z</time></trkpt><trkpt lat="43.3218902" lon="10.6816006"><ele>37.0</ele><time>2026-04-03T14:47:34.984Z</time></trkpt><trkpt lat="43.3218832" lon="10.6814145"><ele>37.0</ele><time>2026-04-03T14:47:35.983Z</time></trkpt><trkpt lat="43.3218743" lon="10.6812295"><ele>37.0</ele><time>2026-04-03T14:47:36.983Z</time></trkpt><trkpt lat="43.3218679" lon="10.6810403"><ele>37.0</ele><time>2026-04-03T14:47:37.985Z</time></trkpt><trkpt lat="43.32186" lon="10.6808426"><ele>37.0</ele><time>2026-04-03T14:47:38.99Z</time></trkpt><trkpt lat="43.3218502" lon="10.6806427"><ele>37.0</ele><time>2026-04-03T14:47:39.983Z</time></trkpt><trkpt lat="43.3218422" lon="10.6804411"><ele>37.0</ele><time>2026-04-03T14:47:40.986Z</time></trkpt><trkpt lat="43.321834" lon="10.6802382"><ele>37.0</ele><time>2026-04-03T14:47:41.994Z</time></trkpt><trkpt lat="43.3218279" lon="10.6800368"><ele>37.0</ele><time>2026-04-03T14:47:42.984Z</time></trkpt><trkpt lat="43.3218224" lon="10.6798363"><ele>37.0</ele><time>2026-04-03T14:47:43.989Z</time></trkpt><trkpt lat="43.321816" lon="10.6796387"><ele>37.0</ele><time>2026-04-03T14:47:44.986Z</time></trkpt><trkpt lat="43.3218091" lon="10.6794453"><ele>37.0</ele><time>2026-04-03T14:47:45.984Z</time></trkpt><trkpt lat="43.3218017" lon="10.6792561"><ele>37.0</ele><time>2026-04-03T14:47:46.981Z</time></trkpt><trkpt lat="43.3217923" lon="10.6790676"><ele>37.0</ele><time>2026-04-03T14:47:47.987Z</time></trkpt><trkpt lat="43.3217841" lon="10.6788813"><ele>37.0</ele><time>2026-04-03T14:47:48.98Z</time></trkpt><trkpt lat="43.3217779" lon="10.6786945"><ele>37.0</ele><time>2026-04-03T14:47:49.984Z</time></trkpt><trkpt lat="43.3217723" lon="10.6785067"><ele>37.0</ele><time>2026-04-03T14:47:50.987Z</time></trkpt><trkpt lat="43.3217679" lon="10.6783171"><ele>37.0</ele><time>2026-04-03T14:47:51.981Z</time></trkpt><trkpt lat="43.3217651" lon="10.6781256"><ele>37.0</ele><time>2026-04-03T14:47:52.979Z</time></trkpt><trkpt lat="43.3217611" lon="10.6779296"><ele>37.0</ele><time>2026-04-03T14:47:53.987Z</time></trkpt><trkpt lat="43.3217553" lon="10.6777288"><ele>37.0</ele><time>2026-04-03T14:47:54.978Z</time></trkpt><trkpt lat="43.3217462" lon="10.6775116"><ele>37.0</ele><time>2026-04-03T14:47:55.983Z</time></trkpt><trkpt lat="43.3217346" lon="10.6772754"><ele>37.0</ele><time>2026-04-03T14:47:56.976Z</time></trkpt><trkpt lat="43.3217247" lon="10.676999"><ele>37.0</ele><time>2026-04-03T14:47:57.987Z</time></trkpt><trkpt lat="43.321714" lon="10.6767518"><ele>37.0</ele><time>2026-04-03T14:47:58.985Z</time></trkpt><trkpt lat="43.321705" lon="10.6765132"><ele>37.0</ele><time>2026-04-03T14:47:59.99Z</time></trkpt><trkpt lat="43.3216986" lon="10.6762824"><ele>37.0</ele><time>2026-04-03T14:48:00.982Z</time></trkpt><trkpt lat="43.3216926" lon="10.6760621"><ele>37.0</ele><time>2026-04-03T14:48:01.987Z</time></trkpt><trkpt lat="43.3216845" lon="10.6758447"><ele>37.333333333333336</ele><time>2026-04-03T14:48:02.99Z</time></trkpt><trkpt lat="43.3216788" lon="10.6756187"><ele>37.666666666666664</ele><time>2026-04-03T14:48:03.982Z</time></trkpt><trkpt lat="43.3216701" lon="10.675389"><ele>38.0</ele><time>2026-04-03T14:48:04.98Z</time></trkpt><trkpt lat="43.3216601" lon="10.6751584"><ele>37.33333333333333</ele><time>2026-04-03T14:48:05.98Z</time></trkpt><trkpt lat="43.32165" lon="10.6749243"><ele>36.666666666666664</ele><time>2026-04-03T14:48:06.991Z</time></trkpt><trkpt lat="43.3216407" lon="10.6746923"><ele>36.0</ele><time>2026-04-03T14:48:07.98Z</time></trkpt><trkpt lat="43.3216311" lon="10.6744608"><ele>35.666666666666664</ele><time>2026-04-03T14:48:08.982Z</time></trkpt><trkpt lat="43.3216229" lon="10.6742384"><ele>35.33333333333333</ele><time>2026-04-03T14:48:09.981Z</time></trkpt><trkpt lat="43.3216151" lon="10.6740316"><ele>35.0</ele><time>2026-04-03T14:48:10.985Z</time></trkpt><trkpt lat="43.3216062" lon="10.6738351"><ele>35.0</ele><time>2026-04-03T14:48:11.999Z</time></trkpt><trkpt lat="43.321599" lon="10.6736467"><ele>35.0</ele><time>2026-04-03T14:48:12.989Z</time></trkpt><trkpt lat="43.3215945" lon="10.6734676"><ele>35.0</ele><time>2026-04-03T14:48:13.991Z</time></trkpt><trkpt lat="43.3215887" lon="10.6732993"><ele>35.0</ele><time>2026-04-03T14:48:14.992Z</time></trkpt><trkpt lat="43.3215827" lon="10.6731376"><ele>35.2</ele><time>2026-04-03T14:48:15.996Z</time></trkpt><trkpt lat="43.3215772" lon="10.6729823"><ele>35.4</ele><time>2026-04-03T14:48:16.998Z</time></trkpt><trkpt lat="43.3215733" lon="10.6728374"><ele>35.6</ele><time>2026-04-03T14:48:18.002Z</time></trkpt><trkpt lat="43.3215698" lon="10.6727045"><ele>35.8</ele><time>2026-04-03T14:48:19.004Z</time></trkpt><trkpt lat="43.3215643" lon="10.6725826"><ele>36.0</ele><time>2026-04-03T14:48:19.998Z</time></trkpt><trkpt lat="43.321557" lon="10.6724754"><ele>36.2</ele><time>2026-04-03T14:48:20.995Z</time></trkpt><trkpt lat="43.3215515" lon="10.6723848"><ele>36.400000000000006</ele><time>2026-04-03T14:48:22.017Z</time></trkpt><trkpt lat="43.3215803" lon="10.6722643"><ele>36.6</ele><time>2026-04-03T14:48:23.995Z</time></trkpt><trkpt lat="43.3216813" lon="10.6721745"><ele>36.800000000000004</ele><time>2026-04-03T14:48:25.993Z</time></trkpt><trkpt lat="43.3217626" lon="10.6721455"><ele>37.0</ele><time>2026-04-03T14:48:26.989Z</time></trkpt><trkpt lat="43.3218596" lon="10.6721164"><ele>37.0</ele><time>2026-04-03T14:48:27.992Z</time></trkpt><trkpt lat="43.3219662" lon="10.672078"><ele>37.0</ele><time>2026-04-03T14:48:28.998Z</time></trkpt><trkpt lat="43.3220732" lon="10.6720351"><ele>37.0</ele><time>2026-04-03T14:48:29.994Z</time></trkpt><trkpt lat="43.3221783" lon="10.6719888"><ele>37.0</ele><time>2026-04-03T14:48:31Z</time></trkpt><trkpt lat="43.3222753" lon="10.6719417"><ele>37.0</ele><time>2026-04-03T14:48:32.003Z</time></trkpt><trkpt lat="43.3223637" lon="10.6718854"><ele>36.800000000000004</ele><time>2026-04-03T14:48:32.998Z</time></trkpt><trkpt lat="43.3224475" lon="10.6718132"><ele>36.6</ele><time>2026-04-03T14:48:33.991Z</time></trkpt><trkpt lat="43.3225198" lon="10.671719"><ele>36.400000000000006</ele><time>2026-04-03T14:48:34.995Z</time></trkpt><trkpt lat="43.3225785" lon="10.6716016"><ele>36.2</ele><time>2026-04-03T14:48:35.987Z</time></trkpt><trkpt lat="43.3226331" lon="10.6714722"><ele>36.0</ele><time>2026-04-03T14:48:37.007Z</time></trkpt><trkpt lat="43.3226655" lon="10.6713156"><ele>36.0</ele><time>2026-04-03T14:48:37.989Z</time></trkpt><trkpt lat="43.3226938" lon="10.6711352"><ele>36.0</ele><time>2026-04-03T14:48:38.986Z</time></trkpt><trkpt lat="43.3227211" lon="10.67094"><ele>36.0</ele><time>2026-04-03T14:48:39.991Z</time></trkpt><trkpt lat="43.3227531" lon="10.6707431"><ele>36.0</ele><time>2026-04-03T14:48:40.994Z</time></trkpt><trkpt lat="43.3227847" lon="10.6705562"><ele>36.0</ele><time>2026-04-03T14:48:41.995Z</time></trkpt><trkpt lat="43.322812" lon="10.6703933"><ele>36.0</ele><time>2026-04-03T14:48:42.988Z</time></trkpt><trkpt lat="43.322832" lon="10.6702551"><ele>36.0</ele><time>2026-04-03T14:48:44.012Z</time></trkpt><trkpt lat="43.3228458" lon="10.67014"><ele>36.0</ele><time>2026-04-03T14:48:45.003Z</time></trkpt><trkpt lat="43.3228563" lon="10.6700403"><ele>36.0</ele><time>2026-04-03T14:48:45.995Z</time></trkpt><trkpt lat="43.3228882" lon="10.6698998"><ele>36.4</ele><time>2026-04-03T14:48:48.006Z</time></trkpt><trkpt lat="43.3229779" lon="10.6698374"><ele>36.8</ele><time>2026-04-03T14:48:49.988Z</time></trkpt><trkpt lat="43.3230551" lon="10.6698327"><ele>37.199999999999996</ele><time>2026-04-03T14:48:50.984Z</time></trkpt><trkpt lat="43.3231512" lon="10.6698389"><ele>37.6</ele><time>2026-04-03T14:48:51.993Z</time></trkpt><trkpt lat="43.3232626" lon="10.6698451"><ele>38.0</ele><time>2026-04-03T14:48:52.988Z</time></trkpt><trkpt lat="43.3233866" lon="10.6698449"><ele>37.0</ele><time>2026-04-03T14:48:53.991Z</time></trkpt><trkpt lat="43.323512" lon="10.6698425"><ele>36.0</ele><time>2026-04-03T14:48:54.982Z</time></trkpt><trkpt lat="43.3236304" lon="10.6698409"><ele>35.0</ele><time>2026-04-03T14:48:55.995Z</time></trkpt><trkpt lat="43.3237379" lon="10.6698407"><ele>34.0</ele><time>2026-04-03T14:48:56.988Z</time></trkpt><trkpt lat="43.3238453" lon="10.6698424"><ele>34.5</ele><time>2026-04-03T14:48:57.983Z</time></trkpt><trkpt lat="43.3239583" lon="10.6698426"><ele>35.0</ele><time>2026-04-03T14:48:58.99Z</time></trkpt><trkpt lat="43.3240779" lon="10.6698444"><ele>35.5</ele><time>2026-04-03T14:48:59.991Z</time></trkpt><trkpt lat="43.3242049" lon="10.669852"><ele>36.0</ele><time>2026-04-03T14:49:00.983Z</time></trkpt><trkpt lat="43.3243355" lon="10.6698616"><ele>36.0</ele><time>2026-04-03T14:49:01.985Z</time></trkpt><trkpt lat="43.324467" lon="10.6698744"><ele>36.0</ele><time>2026-04-03T14:49:02.992Z</time></trkpt><trkpt lat="43.3245991" lon="10.6698906"><ele>36.0</ele><time>2026-04-03T14:49:03.983Z</time></trkpt><trkpt lat="43.3247318" lon="10.6699093"><ele>36.0</ele><time>2026-04-03T14:49:04.994Z</time></trkpt><trkpt lat="43.3248669" lon="10.6699269"><ele>36.0</ele><time>2026-04-03T14:49:05.986Z</time></trkpt><trkpt lat="43.3250043" lon="10.6699508"><ele>36.0</ele><time>2026-04-03T14:49:06.991Z</time></trkpt><trkpt lat="43.3251418" lon="10.6699764"><ele>36.0</ele><time>2026-04-03T14:49:07.984Z</time></trkpt><trkpt lat="43.3252812" lon="10.6700023"><ele>36.0</ele><time>2026-04-03T14:49:08.999Z</time></trkpt><trkpt lat="43.3254211" lon="10.6700287"><ele>36.0</ele><time>2026-04-03T14:49:09.997Z</time></trkpt><trkpt lat="43.3255631" lon="10.6700545"><ele>36.0</ele><time>2026-04-03T14:49:10.986Z</time></trkpt><trkpt lat="43.3257069" lon="10.6700825"><ele>36.0</ele><time>2026-04-03T14:49:11.987Z</time></trkpt><trkpt lat="43.3258502" lon="10.6701112"><ele>36.0</ele><time>2026-04-03T14:49:12.99Z</time></trkpt><trkpt lat="43.3259967" lon="10.6701408"><ele>36.0</ele><time>2026-04-03T14:49:13.989Z</time></trkpt><trkpt lat="43.3261467" lon="10.6701719"><ele>36.0</ele><time>2026-04-03T14:49:14.99Z</time></trkpt><trkpt lat="43.3262974" lon="10.6702017"><ele>36.0</ele><time>2026-04-03T14:49:15.99Z</time></trkpt><trkpt lat="43.3264482" lon="10.6702287"><ele>35.666666666666664</ele><time>2026-04-03T14:49:16.985Z</time></trkpt><trkpt lat="43.3265995" lon="10.6702572"><ele>35.33333333333333</ele><time>2026-04-03T14:49:17.988Z</time></trkpt><trkpt lat="43.3267514" lon="10.6702874"><ele>35.0</ele><time>2026-04-03T14:49:18.986Z</time></trkpt><trkpt lat="43.3269044" lon="10.6703189"><ele>35.666666666666664</ele><time>2026-04-03T14:49:19.989Z</time></trkpt><trkpt lat="43.3270573" lon="10.6703469"><ele>36.333333333333336</ele><time>2026-04-03T14:49:20.988Z</time></trkpt><trkpt lat="43.3272105" lon="10.670375"><ele>37.0</ele><time>2026-04-03T14:49:21.99Z</time></trkpt><trkpt lat="43.3273626" lon="10.6704066"><ele>37.0</ele><time>2026-04-03T14:49:22.992Z</time></trkpt><trkpt lat="43.3275076" lon="10.6704373"><ele>37.0</ele><time>2026-04-03T14:49:24.014Z</time></trkpt><trkpt lat="43.3276374" lon="10.6704642"><ele>37.0</ele><time>2026-04-03T14:49:24.997Z</time></trkpt><trkpt lat="43.3277605" lon="10.6704918"><ele>37.0</ele><time>2026-04-03T14:49:25.988Z</time></trkpt><trkpt lat="43.3278823" lon="10.6705209"><ele>37.0</ele><time>2026-04-03T14:49:26.983Z</time></trkpt><trkpt lat="43.3280091" lon="10.6705479"><ele>37.0</ele><time>2026-04-03T14:49:27.997Z</time></trkpt><trkpt lat="43.3281361" lon="10.6705715"><ele>37.0</ele><time>2026-04-03T14:49:28.984Z</time></trkpt><trkpt lat="43.32826" lon="10.6705925"><ele>37.0</ele><time>2026-04-03T14:49:29.996Z</time></trkpt><trkpt lat="43.328377" lon="10.6706107"><ele>36.800000000000004</ele><time>2026-04-03T14:49:30.996Z</time></trkpt><trkpt lat="43.3284873" lon="10.670621"><ele>36.6</ele><time>2026-04-03T14:49:32.009Z</time></trkpt><trkpt lat="43.3285879" lon="10.6706181"><ele>36.400000000000006</ele><time>2026-04-03T14:49:33.014Z</time></trkpt><trkpt lat="43.3286798" lon="10.6705979"><ele>36.2</ele><time>2026-04-03T14:49:34Z</time></trkpt><trkpt lat="43.3287608" lon="10.6705634"><ele>36.0</ele><time>2026-04-03T14:49:34.994Z</time></trkpt><trkpt lat="43.328835" lon="10.6705326"><ele>36.166666666666664</ele><time>2026-04-03T14:49:36.001Z</time></trkpt><trkpt lat="43.3289037" lon="10.6705211"><ele>36.333333333333336</ele><time>2026-04-03T14:49:36.995Z</time></trkpt><trkpt lat="43.3289713" lon="10.6705323"><ele>36.5</ele><time>2026-04-03T14:49:37.994Z</time></trkpt><trkpt lat="43.3290395" lon="10.6705748"><ele>36.66666666666667</ele><time>2026-04-03T14:49:38.995Z</time></trkpt><trkpt lat="43.3291079" lon="10.670637"><ele>36.833333333333336</ele><time>2026-04-03T14:49:39.993Z</time></trkpt><trkpt lat="43.3291748" lon="10.6707191"><ele>37.0</ele><time>2026-04-03T14:49:40.984Z</time></trkpt><trkpt lat="43.3292378" lon="10.6708225"><ele>37.0</ele><time>2026-04-03T14:49:42.012Z</time></trkpt><trkpt lat="43.3292884" lon="10.6709431"><ele>37.0</ele><time>2026-04-03T14:49:43.001Z</time></trkpt><trkpt lat="43.3293235" lon="10.6710823"><ele>37.0</ele><time>2026-04-03T14:49:43.985Z</time></trkpt><trkpt lat="43.3293426" lon="10.6712371"><ele>37.0</ele><time>2026-04-03T14:49:44.998Z</time></trkpt><trkpt lat="43.3293612" lon="10.6713971"><ele>37.0</ele><time>2026-04-03T14:49:46.017Z</time></trkpt><trkpt lat="43.3293824" lon="10.671556"><ele>37.2</ele><time>2026-04-03T14:49:46.989Z</time></trkpt><trkpt lat="43.3294023" lon="10.6717108"><ele>37.400000000000006</ele><time>2026-04-03T14:49:47.993Z</time></trkpt><trkpt lat="43.3294217" lon="10.6718593"><ele>37.599999999999994</ele><time>2026-04-03T14:49:49.011Z</time></trkpt><trkpt lat="43.329444" lon="10.672008"><ele>37.8</ele><time>2026-04-03T14:49:50.005Z</time></trkpt><trkpt lat="43.3294678" lon="10.6721548"><ele>38.0</ele><time>2026-04-03T14:49:50.998Z</time></trkpt><trkpt lat="43.3294877" lon="10.6722924"><ele>38.0</ele><time>2026-04-03T14:49:52.009Z</time></trkpt><trkpt lat="43.3295042" lon="10.6724148"><ele>38.0</ele><time>2026-04-03T14:49:53.006Z</time></trkpt><trkpt lat="43.3295185" lon="10.6725196"><ele>38.0</ele><time>2026-04-03T14:49:53.994Z</time></trkpt><trkpt lat="43.3295277" lon="10.6726107"><ele>38.0</ele><time>2026-04-03T14:49:55.001Z</time></trkpt><trkpt lat="43.3295044" lon="10.6727587"><ele>38.0</ele><time>2026-04-03T14:49:56.995Z</time></trkpt><trkpt lat="43.3294646" lon="10.672885"><ele>38.0</ele><time>2026-04-03T14:49:58.994Z</time></trkpt><trkpt lat="43.3294722" lon="10.6730023"><ele>37.0</ele><time>2026-04-03T14:50:01.014Z</time></trkpt><trkpt lat="43.3294765" lon="10.673101"><ele>37.0</ele><time>2026-04-03T14:50:02.998Z</time></trkpt></trkseg></trk></gpx>